<?xml version='1.0' encoding='UTF-8'?><gpx version="1.1" creator="JPX - https://github.com/jenetics/jpx" xmlns="http://www.topografix.com/GPX/1/1"><trk><trkseg><trkpt lat="43.398556927384206" lon="10.62464457585798"><ele>528.0</ele><time>2026-04-26T11:28:44.984Z</time></trkpt><trkpt lat="43.398507751566164" lon="10.62455353148702"><ele>528.0</ele><time>2026-04-26T11:28:48.984Z</time></trkpt><trkpt lat="43.39841440546388" lon="10.624563465393656"><ele>528.0</ele><time>2026-04-26T11:28:50.984Z</time></trkpt><trkpt lat="43.39834533931086" lon="10.624580752095186"><ele>528.0</ele><time>2026-04-26T11:28:51.984Z</time></trkpt><trkpt lat="43.39826933461749" lon="10.624603596014733"><ele>528.0</ele><time>2026-04-26T11:28:52.984Z</time></trkpt><trkpt lat="43.398185031384706" lon="10.624582608256722"><ele>528.0</ele><time>2026-04-26T11:28:54.984Z</time></trkpt><trkpt lat="43.398144927132144" lon="10.62445621752829"><ele>528.0</ele><time>2026-04-26T11:28:56.984Z</time></trkpt><trkpt lat="43.39810367892654" lon="10.624572069113206"><ele>528.0</ele><time>2026-04-26T11:29:00.984Z</time></trkpt><trkpt lat="43.398102550105456" lon="10.62468751352365"><ele>528.0</ele><time>2026-04-26T11:29:01.984Z</time></trkpt><trkpt lat="43.39809664652265" lon="10.624796779116668"><ele>528.0</ele><time>2026-04-26T11:29:02.984Z</time></trkpt><trkpt lat="43.39809381317822" lon="10.62489979852994"><ele>528.0</ele><time>2026-04-26T11:29:03.984Z</time></trkpt><trkpt lat="43.39809542026262" lon="10.625011904953125"><ele>528.0</ele><time>2026-04-26T11:29:04.984Z</time></trkpt><trkpt lat="43.398095671086786" lon="10.625125496863808"><ele>528.0</ele><time>2026-04-26T11:29:05.984Z</time></trkpt><trkpt lat="43.39809500541903" lon="10.62523913336797"><ele>528.0</ele><time>2026-04-26T11:29:06.984Z</time></trkpt><trkpt lat="43.39809412831076" lon="10.62535118117272"><ele>528.0</ele><time>2026-04-26T11:29:07.984Z</time></trkpt><trkpt lat="43.39809117779647" lon="10.62546274362391"><ele>528.0</ele><time>2026-04-26T11:29:08.984Z</time></trkpt><trkpt lat="43.39809273275289" lon="10.625576773725875"><ele>528.0</ele><time>2026-04-26T11:29:09.984Z</time></trkpt><trkpt lat="43.39809153551537" lon="10.62566821580049"><ele>528.0</ele><time>2026-04-26T11:29:10.984Z</time></trkpt><trkpt lat="43.39810980374491" lon="10.625761842172762"><ele>526.8</ele><time>2026-04-26T11:29:11.984Z</time></trkpt><trkpt lat="43.398147963984584" lon="10.62584584934521"><ele>525.5999999999999</ele><time>2026-04-26T11:29:12.984Z</time></trkpt><trkpt lat="43.398200942605456" lon="10.6259015878243"><ele>524.4000000000001</ele><time>2026-04-26T11:29:13.984Z</time></trkpt><trkpt lat="43.398314046785" lon="10.625934037182335"><ele>523.2</ele><time>2026-04-26T11:29:15.984Z</time></trkpt><trkpt lat="43.39842024866846" lon="10.625901966762568"><ele>522.0</ele><time>2026-04-26T11:29:17.984Z</time></trkpt><trkpt lat="43.39850969294982" lon="10.625906054111317"><ele>522.0</ele><time>2026-04-26T11:29:19.984Z</time></trkpt><trkpt lat="43.39857029613182" lon="10.625987041734135"><ele>522.0</ele><time>2026-04-26T11:29:21.984Z</time></trkpt><trkpt lat="43.39857458906298" lon="10.626129961433383"><ele>522.0</ele><time>2026-04-26T11:29:23.984Z</time></trkpt><trkpt lat="43.398521693708645" lon="10.62625060309479"><ele>522.0</ele><time>2026-04-26T11:29:25.984Z</time></trkpt><trkpt lat="43.398405915355646" lon="10.626355387110902"><ele>522.0</ele><time>2026-04-26T11:29:27.984Z</time></trkpt><trkpt lat="43.39831021991837" lon="10.626439848823049"><ele>520.1666666666666</ele><time>2026-04-26T11:29:28.984Z</time></trkpt><trkpt lat="43.39821302864059" lon="10.62652434632386"><ele>518.3333333333334</ele><time>2026-04-26T11:29:29.984Z</time></trkpt><trkpt lat="43.3981419527241" lon="10.626604458156235"><ele>516.5</ele><time>2026-04-26T11:29:30.984Z</time></trkpt><trkpt lat="43.398081841562025" lon="10.626681614393675"><ele>514.6666666666667</ele><time>2026-04-26T11:29:31.984Z</time></trkpt><trkpt lat="43.39802668231053" lon="10.626752402128707"><ele>512.8333333333334</ele><time>2026-04-26T11:29:32.984Z</time></trkpt><trkpt lat="43.39797455922651" lon="10.626840653923779"><ele>511.0</ele><time>2026-04-26T11:29:33.984Z</time></trkpt><trkpt lat="43.397935867374294" lon="10.626924391300829"><ele>510.00000000000006</ele><time>2026-04-26T11:29:34.984Z</time></trkpt><trkpt lat="43.39791155359267" lon="10.627011241262288"><ele>509.0</ele><time>2026-04-26T11:29:35.984Z</time></trkpt><trkpt lat="43.39791933560227" lon="10.627111377458572"><ele>508.0</ele><time>2026-04-26T11:29:36.984Z</time></trkpt><trkpt lat="43.39794663006283" lon="10.627199681620326"><ele>507.0</ele><time>2026-04-26T11:29:37.984Z</time></trkpt><trkpt lat="43.39798237903947" lon="10.627296479661249"><ele>506.00000000000006</ele><time>2026-04-26T11:29:38.984Z</time></trkpt><trkpt lat="43.39801553593326" lon="10.627377960430888"><ele>505.0</ele><time>2026-04-26T11:29:39.984Z</time></trkpt><trkpt lat="43.39807274992681" lon="10.627517697326832"><ele>504.33333333333337</ele><time>2026-04-26T11:29:41.984Z</time></trkpt><trkpt lat="43.398108465278625" lon="10.62762502809821"><ele>503.6666666666667</ele><time>2026-04-26T11:29:43.984Z</time></trkpt><trkpt lat="43.39814195395181" lon="10.627725608713769"><ele>503.0</ele><time>2026-04-26T11:29:46.984Z</time></trkpt><trkpt lat="43.3981313311185" lon="10.62784347112879"><ele>502.33333333333337</ele><time>2026-04-26T11:29:48.984Z</time></trkpt><trkpt lat="43.39811871774017" lon="10.627935883537942"><ele>501.6666666666667</ele><time>2026-04-26T11:29:49.984Z</time></trkpt><trkpt lat="43.39811444831959" lon="10.628029366450274"><ele>501.0</ele><time>2026-04-26T11:29:50.984Z</time></trkpt><trkpt lat="43.39811402999215" lon="10.628123448454966"><ele>500.3333333333333</ele><time>2026-04-26T11:29:51.984Z</time></trkpt><trkpt lat="43.39812320738256" lon="10.62823649901889"><ele>499.66666666666663</ele><time>2026-04-26T11:29:52.984Z</time></trkpt><trkpt lat="43.39812156299666" lon="10.628332741373672"><ele>499.0</ele><time>2026-04-26T11:29:53.984Z</time></trkpt><trkpt lat="43.39812146441736" lon="10.628508027032915"><ele>498.3333333333333</ele><time>2026-04-26T11:29:55.984Z</time></trkpt><trkpt lat="43.39812523879355" lon="10.628616156536602"><ele>497.66666666666663</ele><time>2026-04-26T11:29:56.984Z</time></trkpt><trkpt lat="43.39812266218116" lon="10.628713785364607"><ele>497.0</ele><time>2026-04-26T11:29:57.984Z</time></trkpt><trkpt lat="43.39812887686192" lon="10.628816404822386"><ele>496.66666666666663</ele><time>2026-04-26T11:29:58.984Z</time></trkpt><trkpt lat="43.39813256914055" lon="10.628911820173155"><ele>496.3333333333333</ele><time>2026-04-26T11:29:59.984Z</time></trkpt><trkpt lat="43.398130597907276" lon="10.629026119232515"><ele>496.0</ele><time>2026-04-26T11:30:00.984Z</time></trkpt><trkpt lat="43.39813575605229" lon="10.629128150051036"><ele>495.66666666666663</ele><time>2026-04-26T11:30:01.984Z</time></trkpt><trkpt lat="43.39814863527856" lon="10.629274000294247"><ele>495.3333333333333</ele><time>2026-04-26T11:30:03.984Z</time></trkpt><trkpt lat="43.39813674697235" lon="10.629366337874888"><ele>495.0</ele><time>2026-04-26T11:30:04.984Z</time></trkpt><trkpt lat="43.398125161534026" lon="10.629468468524392"><ele>494.3333333333333</ele><time>2026-04-26T11:30:05.984Z</time></trkpt><trkpt lat="43.39812570433801" lon="10.629576803829966"><ele>493.66666666666663</ele><time>2026-04-26T11:30:06.984Z</time></trkpt><trkpt lat="43.39810979953496" lon="10.629687433729714"><ele>493.0</ele><time>2026-04-26T11:30:07.984Z</time></trkpt><trkpt lat="43.398095614008085" lon="10.629775584843824"><ele>492.3333333333333</ele><time>2026-04-26T11:30:08.984Z</time></trkpt><trkpt lat="43.39810457462064" lon="10.62992085159331"><ele>491.66666666666663</ele><time>2026-04-26T11:30:10.984Z</time></trkpt><trkpt lat="43.39812177802691" lon="10.630018543433867"><ele>491.0</ele><time>2026-04-26T11:30:11.984Z</time></trkpt><trkpt lat="43.39813462657189" lon="10.630129822475947"><ele>490.99999999999994</ele><time>2026-04-26T11:30:12.984Z</time></trkpt><trkpt lat="43.39815583187123" lon="10.63026001638847"><ele>491.0</ele><time>2026-04-26T11:30:13.984Z</time></trkpt><trkpt lat="43.39819545495845" lon="10.630380649814606"><ele>491.0</ele><time>2026-04-26T11:30:14.984Z</time></trkpt><trkpt lat="43.39822601761336" lon="10.630489837658274"><ele>491.0</ele><time>2026-04-26T11:30:15.985Z</time></trkpt><trkpt lat="43.398251020885716" lon="10.63058933870006"><ele>490.99999999999994</ele><time>2026-04-26T11:30:16.985Z</time></trkpt><trkpt lat="43.3982483065493" lon="10.6306895757493"><ele>491.0</ele><time>2026-04-26T11:30:17.985Z</time></trkpt><trkpt lat="43.39822861597268" lon="10.630808754061174"><ele>488.6</ele><time>2026-04-26T11:30:18.985Z</time></trkpt><trkpt lat="43.39819671256874" lon="10.630944758950232"><ele>486.20000000000005</ele><time>2026-04-26T11:30:19.985Z</time></trkpt><trkpt lat="43.39815452398947" lon="10.631105280007832"><ele>483.79999999999995</ele><time>2026-04-26T11:30:20.985Z</time></trkpt><trkpt lat="43.398107947861796" lon="10.631221079912319"><ele>481.4</ele><time>2026-04-26T11:30:21.985Z</time></trkpt><trkpt lat="43.39805866098889" lon="10.631335706104808"><ele>479.0</ele><time>2026-04-26T11:30:22.985Z</time></trkpt><trkpt lat="43.39800467933083" lon="10.631448994442252"><ele>477.4</ele><time>2026-04-26T11:30:23.985Z</time></trkpt><trkpt lat="43.39795652718136" lon="10.631559506930744"><ele>475.79999999999995</ele><time>2026-04-26T11:30:24.985Z</time></trkpt><trkpt lat="43.39791071765895" lon="10.631643865983978"><ele>474.20000000000005</ele><time>2026-04-26T11:30:25.985Z</time></trkpt><trkpt lat="43.39786810557887" lon="10.631716658941443"><ele>472.6</ele><time>2026-04-26T11:30:26.985Z</time></trkpt><trkpt lat="43.39780281947825" lon="10.631876157735839"><ele>471.0</ele><time>2026-04-26T11:30:28.985Z</time></trkpt><trkpt lat="43.397781675352306" lon="10.632000699923642"><ele>470.25</ele><time>2026-04-26T11:30:29.982Z</time></trkpt><trkpt lat="43.39775290415956" lon="10.632165666520605"><ele>469.5</ele><time>2026-04-26T11:30:30.982Z</time></trkpt><trkpt lat="43.39772641080579" lon="10.6323553584881"><ele>468.75</ele><time>2026-04-26T11:30:31.982Z</time></trkpt><trkpt lat="43.397694937345904" lon="10.632506780901661"><ele>468.0</ele><time>2026-04-26T11:30:32.982Z</time></trkpt><trkpt lat="43.397668049010804" lon="10.632638465555097"><ele>468.0</ele><time>2026-04-26T11:30:33.982Z</time></trkpt><trkpt lat="43.397646830618946" lon="10.632758566509823"><ele>468.0</ele><time>2026-04-26T11:30:34.982Z</time></trkpt><trkpt lat="43.39762724676795" lon="10.632865899069754"><ele>468.0</ele><time>2026-04-26T11:30:35.982Z</time></trkpt><trkpt lat="43.39761045411671" lon="10.632968099946543"><ele>468.0</ele><time>2026-04-26T11:30:36.982Z</time></trkpt><trkpt lat="43.397589350807635" lon="10.63307177808801"><ele>468.0</ele><time>2026-04-26T11:30:37.982Z</time></trkpt><trkpt lat="43.39756915921315" lon="10.63317612652249"><ele>468.0</ele><time>2026-04-26T11:30:38.982Z</time></trkpt><trkpt lat="43.39755433557285" lon="10.633274194179295"><ele>468.1666666666667</ele><time>2026-04-26T11:30:39.981Z</time></trkpt><trkpt lat="43.39751606592137" lon="10.633350353850211"><ele>468.33333333333337</ele><time>2026-04-26T11:30:40.981Z</time></trkpt><trkpt lat="43.397497684727085" lon="10.63344775699565"><ele>468.5</ele><time>2026-04-26T11:30:41.982Z</time></trkpt><trkpt lat="43.39747694950234" lon="10.633555040891407"><ele>468.6666666666667</ele><time>2026-04-26T11:30:42.982Z</time></trkpt><trkpt lat="43.3974680993485" lon="10.633679697912523"><ele>468.83333333333337</ele><time>2026-04-26T11:30:43.982Z</time></trkpt><trkpt lat="43.39744032534663" lon="10.633792458604313"><ele>469.0</ele><time>2026-04-26T11:30:44.982Z</time></trkpt><trkpt lat="43.39742180541523" lon="10.63390217689419"><ele>469.00000000000006</ele><time>2026-04-26T11:30:45.982Z</time></trkpt><trkpt lat="43.39739336225177" lon="10.634011775884993"><ele>469.0</ele><time>2026-04-26T11:30:46.982Z</time></trkpt><trkpt lat="43.39736567748671" lon="10.634126956139049"><ele>469.0</ele><time>2026-04-26T11:30:47.982Z</time></trkpt><trkpt lat="43.39733944673199" lon="10.63422975792599"><ele>469.0</ele><time>2026-04-26T11:30:48.982Z</time></trkpt><trkpt lat="43.39731683442763" lon="10.634323719526932"><ele>469.00000000000006</ele><time>2026-04-26T11:30:49.982Z</time></trkpt><trkpt lat="43.39730447400132" lon="10.634417039608827"><ele>469.0</ele><time>2026-04-26T11:30:50.982Z</time></trkpt><trkpt lat="43.39730379442648" lon="10.634508577062993"><ele>468.8571428571429</ele><time>2026-04-26T11:30:51.982Z</time></trkpt><trkpt lat="43.39730628538066" lon="10.634597354126491"><ele>468.7142857142857</ele><time>2026-04-26T11:30:52.982Z</time></trkpt><trkpt lat="43.3973200680591" lon="10.63470025742226"><ele>468.57142857142856</ele><time>2026-04-26T11:30:53.982Z</time></trkpt><trkpt lat="43.39731433372946" lon="10.634795279861159"><ele>468.42857142857144</ele><time>2026-04-26T11:30:54.982Z</time></trkpt><trkpt lat="43.397311906768806" lon="10.63490557817426"><ele>468.28571428571433</ele><time>2026-04-26T11:30:55.982Z</time></trkpt><trkpt lat="43.397316939312255" lon="10.635006138855834"><ele>468.14285714285717</ele><time>2026-04-26T11:30:56.982Z</time></trkpt><trkpt lat="43.397320643746404" lon="10.635114245276394"><ele>468.0</ele><time>2026-04-26T11:30:57.982Z</time></trkpt><trkpt lat="43.397327325037395" lon="10.635218975418615"><ele>466.3333333333333</ele><time>2026-04-26T11:30:58.982Z</time></trkpt><trkpt lat="43.39732105639684" lon="10.63532267716405"><ele>464.66666666666663</ele><time>2026-04-26T11:30:59.982Z</time></trkpt><trkpt lat="43.39734134313681" lon="10.635416378831808"><ele>463.0</ele><time>2026-04-26T11:31:00.982Z</time></trkpt><trkpt lat="43.39738412025952" lon="10.635520362330942"><ele>461.3333333333333</ele><time>2026-04-26T11:31:01.982Z</time></trkpt><trkpt lat="43.3974362254183" lon="10.635610310522257"><ele>459.66666666666663</ele><time>2026-04-26T11:31:02.982Z</time></trkpt><trkpt lat="43.3975116087241" lon="10.635679723449305"><ele>458.0</ele><time>2026-04-26T11:31:03.982Z</time></trkpt><trkpt lat="43.397571262551125" lon="10.635783085086404"><ele>458.0</ele><time>2026-04-26T11:31:04.982Z</time></trkpt><trkpt lat="43.397623779774655" lon="10.635874944903524"><ele>458.0</ele><time>2026-04-26T11:31:05.982Z</time></trkpt><trkpt lat="43.3976794079396" lon="10.635959985224039"><ele>458.0</ele><time>2026-04-26T11:31:06.982Z</time></trkpt><trkpt lat="43.39772798960898" lon="10.636042791908956"><ele>458.0</ele><time>2026-04-26T11:31:07.982Z</time></trkpt><trkpt lat="43.397766868538916" lon="10.636120001428957"><ele>458.0</ele><time>2026-04-26T11:31:08.982Z</time></trkpt><trkpt lat="43.397816862619806" lon="10.636178969095589"><ele>458.0</ele><time>2026-04-26T11:31:09.982Z</time></trkpt><trkpt lat="43.39786328439649" lon="10.636242141385898"><ele>458.0</ele><time>2026-04-26T11:31:10.982Z</time></trkpt><trkpt lat="43.39791566630966" lon="10.63630353334563"><ele>456.3333333333333</ele><time>2026-04-26T11:31:11.982Z</time></trkpt><trkpt lat="43.397958652070535" lon="10.636390610681323"><ele>454.66666666666663</ele><time>2026-04-26T11:31:12.982Z</time></trkpt><trkpt lat="43.398017051940236" lon="10.636467208167957"><ele>453.0</ele><time>2026-04-26T11:31:13.982Z</time></trkpt><trkpt lat="43.39807892502573" lon="10.636537401468512"><ele>451.33333333333337</ele><time>2026-04-26T11:31:14.982Z</time></trkpt><trkpt lat="43.398149054745446" lon="10.636605244455025"><ele>449.6666666666667</ele><time>2026-04-26T11:31:15.982Z</time></trkpt><trkpt lat="43.39822923147816" lon="10.636649213174568"><ele>448.0</ele><time>2026-04-26T11:31:16.982Z</time></trkpt><trkpt lat="43.39829747731111" lon="10.636733060326762"><ele>447.1666666666667</ele><time>2026-04-26T11:31:17.982Z</time></trkpt><trkpt lat="43.39837870440841" lon="10.636774655404276"><ele>446.33333333333337</ele><time>2026-04-26T11:31:18.982Z</time></trkpt><trkpt lat="43.39844193996449" lon="10.636838174960412"><ele>445.5</ele><time>2026-04-26T11:31:19.982Z</time></trkpt><trkpt lat="43.39850721941155" lon="10.636886976327864"><ele>444.66666666666663</ele><time>2026-04-26T11:31:20.982Z</time></trkpt><trkpt lat="43.398572120056016" lon="10.636947933546118"><ele>443.8333333333333</ele><time>2026-04-26T11:31:21.982Z</time></trkpt><trkpt lat="43.39863580022577" lon="10.637017958061698"><ele>443.0</ele><time>2026-04-26T11:31:22.982Z</time></trkpt><trkpt lat="43.39867330809662" lon="10.637108481085926"><ele>441.16666666666663</ele><time>2026-04-26T11:31:23.982Z</time></trkpt><trkpt lat="43.398695590215866" lon="10.637220642780232"><ele>439.3333333333333</ele><time>2026-04-26T11:31:24.982Z</time></trkpt><trkpt lat="43.39872569822782" lon="10.637331049815897"><ele>437.5</ele><time>2026-04-26T11:31:25.982Z</time></trkpt><trkpt lat="43.398751625364845" lon="10.637432744973346"><ele>435.66666666666663</ele><time>2026-04-26T11:31:26.982Z</time></trkpt><trkpt lat="43.398780060125965" lon="10.63753030899914"><ele>433.8333333333333</ele><time>2026-04-26T11:31:27.982Z</time></trkpt><trkpt lat="43.39880841707355" lon="10.637630880720428"><ele>432.0</ele><time>2026-04-26T11:31:28.982Z</time></trkpt><trkpt lat="43.39883444248996" lon="10.637742263319828"><ele>430.85714285714283</ele><time>2026-04-26T11:31:29.982Z</time></trkpt><trkpt lat="43.39885199111278" lon="10.637839872590934"><ele>429.71428571428567</ele><time>2026-04-26T11:31:30.982Z</time></trkpt><trkpt lat="43.398860747645095" lon="10.637949270812468"><ele>428.57142857142856</ele><time>2026-04-26T11:31:31.982Z</time></trkpt><trkpt lat="43.39884163671363" lon="10.638048297178534"><ele>427.42857142857144</ele><time>2026-04-26T11:31:32.982Z</time></trkpt><trkpt lat="43.39882171450668" lon="10.638151425570495"><ele>426.2857142857143</ele><time>2026-04-26T11:31:33.982Z</time></trkpt><trkpt lat="43.39881035661001" lon="10.638236903780767"><ele>425.14285714285717</ele><time>2026-04-26T11:31:34.982Z</time></trkpt><trkpt lat="43.39881818376893" lon="10.638324977313104"><ele>424.0</ele><time>2026-04-26T11:31:35.982Z</time></trkpt><trkpt lat="43.398835404217046" lon="10.638421634193525"><ele>424.00000000000006</ele><time>2026-04-26T11:31:36.982Z</time></trkpt><trkpt lat="43.39886830141525" lon="10.638512276323963"><ele>424.0</ele><time>2026-04-26T11:31:37.982Z</time></trkpt><trkpt lat="43.398927369172625" lon="10.63860939521311"><ele>424.0</ele><time>2026-04-26T11:31:38.983Z</time></trkpt><trkpt lat="43.39898331031933" lon="10.638685269810049"><ele>424.0</ele><time>2026-04-26T11:31:39.983Z</time></trkpt><trkpt lat="43.39904824074137" lon="10.638762685429676"><ele>424.00000000000006</ele><time>2026-04-26T11:31:40.983Z</time></trkpt><trkpt lat="43.399098123248926" lon="10.638853228039048"><ele>424.0</ele><time>2026-04-26T11:31:41.983Z</time></trkpt><trkpt lat="43.39916153426945" lon="10.638926278280232"><ele>422.00000000000006</ele><time>2026-04-26T11:31:42.983Z</time></trkpt><trkpt lat="43.39920761119033" lon="10.639026551088188"><ele>420.0</ele><time>2026-04-26T11:31:43.983Z</time></trkpt><trkpt lat="43.39925776871565" lon="10.639122161862735"><ele>418.0</ele><time>2026-04-26T11:31:44.983Z</time></trkpt><trkpt lat="43.399304963499745" lon="10.63921788446939"><ele>416.0</ele><time>2026-04-26T11:31:45.983Z</time></trkpt><trkpt lat="43.399359102158506" lon="10.639299091987905"><ele>414.00000000000006</ele><time>2026-04-26T11:31:46.983Z</time></trkpt><trkpt lat="43.39939283856345" lon="10.639386328818565"><ele>412.0</ele><time>2026-04-26T11:31:47.983Z</time></trkpt><trkpt lat="43.39941660051747" lon="10.639480152719289"><ele>409.50000000000006</ele><time>2026-04-26T11:31:48.983Z</time></trkpt><trkpt lat="43.39943466340069" lon="10.639583735142622"><ele>407.0</ele><time>2026-04-26T11:31:49.983Z</time></trkpt><trkpt lat="43.39945897350899" lon="10.639688894717596"><ele>404.5</ele><time>2026-04-26T11:31:50.983Z</time></trkpt><trkpt lat="43.3994864568057" lon="10.639783372190902"><ele>402.0</ele><time>2026-04-26T11:31:51.983Z</time></trkpt><trkpt lat="43.39951217856327" lon="10.63988794934669"><ele>399.50000000000006</ele><time>2026-04-26T11:31:52.983Z</time></trkpt><trkpt lat="43.399522486629934" lon="10.639990849555955"><ele>397.0</ele><time>2026-04-26T11:31:53.983Z</time></trkpt><trkpt lat="43.39952815538905" lon="10.640104841059495"><ele>397.0</ele><time>2026-04-26T11:31:54.983Z</time></trkpt><trkpt lat="43.39953673774631" lon="10.640196113998584"><ele>397.0</ele><time>2026-04-26T11:31:55.983Z</time></trkpt><trkpt lat="43.39952693376101" lon="10.640290130478773"><ele>397.0</ele><time>2026-04-26T11:31:56.983Z</time></trkpt><trkpt lat="43.399514660114676" lon="10.64038343364225"><ele>397.0</ele><time>2026-04-26T11:31:57.983Z</time></trkpt><trkpt lat="43.39951589894131" lon="10.640485124914496"><ele>397.0</ele><time>2026-04-26T11:31:58.983Z</time></trkpt><trkpt lat="43.3995441854702" lon="10.640594689021789"><ele>397.0</ele><time>2026-04-26T11:31:59.983Z</time></trkpt><trkpt lat="43.39959505814266" lon="10.6406831224317"><ele>397.0</ele><time>2026-04-26T11:32:00.983Z</time></trkpt><trkpt lat="43.399655045783575" lon="10.640771061582107"><ele>397.00000000000006</ele><time>2026-04-26T11:32:01.983Z</time></trkpt><trkpt lat="43.399706729198655" lon="10.640849454824165"><ele>397.0</ele><time>2026-04-26T11:32:02.983Z</time></trkpt><trkpt lat="43.39976022786105" lon="10.640909107830694"><ele>397.0</ele><time>2026-04-26T11:32:03.983Z</time></trkpt><trkpt lat="43.39982291720909" lon="10.640979182342894"><ele>397.0</ele><time>2026-04-26T11:32:05.983Z</time></trkpt><trkpt lat="43.39978945780221" lon="10.641082655518193"><ele>397.00000000000006</ele><time>2026-04-26T11:32:09.983Z</time></trkpt><trkpt lat="43.399689907477104" lon="10.641022021682751"><ele>397.0</ele><time>2026-04-26T11:32:12.983Z</time></trkpt><trkpt lat="43.39963011894326" lon="10.64097433509067"><ele>395.1666666666667</ele><time>2026-04-26T11:32:13.983Z</time></trkpt><trkpt lat="43.39952944599165" lon="10.64088457221474"><ele>393.33333333333337</ele><time>2026-04-26T11:32:15.983Z</time></trkpt><trkpt lat="43.39943133436041" lon="10.64081362758928"><ele>391.5</ele><time>2026-04-26T11:32:17.983Z</time></trkpt><trkpt lat="43.399371791690434" lon="10.640772042655165"><ele>389.66666666666663</ele><time>2026-04-26T11:32:18.983Z</time></trkpt><trkpt lat="43.399307518251284" lon="10.64072447446957"><ele>387.8333333333333</ele><time>2026-04-26T11:32:19.983Z</time></trkpt><trkpt lat="43.39924513844477" lon="10.640689859141975"><ele>386.0</ele><time>2026-04-26T11:32:20.983Z</time></trkpt><trkpt lat="43.39916504490489" lon="10.640643253494812"><ele>385.99999999999994</ele><time>2026-04-26T11:32:21.983Z</time></trkpt><trkpt lat="43.39907686321081" lon="10.640605700732252"><ele>386.0</ele><time>2026-04-26T11:32:22.983Z</time></trkpt><trkpt lat="43.39899597469568" lon="10.64057482821609"><ele>386.0</ele><time>2026-04-26T11:32:23.983Z</time></trkpt><trkpt lat="43.398907496093926" lon="10.640546740193994"><ele>386.0</ele><time>2026-04-26T11:32:24.983Z</time></trkpt><trkpt lat="43.39882903063961" lon="10.640539226145089"><ele>385.99999999999994</ele><time>2026-04-26T11:32:25.983Z</time></trkpt><trkpt lat="43.398736767309515" lon="10.640537378018523"><ele>386.0</ele><time>2026-04-26T11:32:26.983Z</time></trkpt><trkpt lat="43.398642967353894" lon="10.640516616313148"><ele>384.4</ele><time>2026-04-26T11:32:27.983Z</time></trkpt><trkpt lat="43.398547990690396" lon="10.640534167502778"><ele>382.8</ele><time>2026-04-26T11:32:28.983Z</time></trkpt><trkpt lat="43.398450204074635" lon="10.640541017176778"><ele>381.2</ele><time>2026-04-26T11:32:29.983Z</time></trkpt><trkpt lat="43.39835383982016" lon="10.64054881089708"><ele>379.59999999999997</ele><time>2026-04-26T11:32:30.983Z</time></trkpt><trkpt lat="43.39826471843857" lon="10.640556860367363"><ele>378.0</ele><time>2026-04-26T11:32:31.983Z</time></trkpt><trkpt lat="43.3981878314176" lon="10.640577019472307"><ele>378.0</ele><time>2026-04-26T11:32:32.983Z</time></trkpt><trkpt lat="43.398118892994546" lon="10.640607959479278"><ele>378.0</ele><time>2026-04-26T11:32:33.983Z</time></trkpt><trkpt lat="43.3980532701909" lon="10.640651193868665"><ele>378.0</ele><time>2026-04-26T11:32:34.983Z</time></trkpt><trkpt lat="43.39799377923857" lon="10.640690548821533"><ele>378.0</ele><time>2026-04-26T11:32:35.98Z</time></trkpt><trkpt lat="43.39793317075061" lon="10.640732223672337"><ele>378.0</ele><time>2026-04-26T11:32:36.98Z</time></trkpt><trkpt lat="43.39785916240874" lon="10.640789827641981"><ele>378.0</ele><time>2026-04-26T11:32:37.98Z</time></trkpt><trkpt lat="43.39777960067227" lon="10.640847872466994"><ele>377.6666666666667</ele><time>2026-04-26T11:32:38.981Z</time></trkpt><trkpt lat="43.39768807460839" lon="10.640879663367317"><ele>377.3333333333333</ele><time>2026-04-26T11:32:39.981Z</time></trkpt><trkpt lat="43.39761155804106" lon="10.64089128500195"><ele>377.0</ele><time>2026-04-26T11:32:40.981Z</time></trkpt><trkpt lat="43.39752883592023" lon="10.6408963779275"><ele>376.66666666666663</ele><time>2026-04-26T11:32:41.98Z</time></trkpt><trkpt lat="43.39743986335778" lon="10.640893081510976"><ele>376.3333333333333</ele><time>2026-04-26T11:32:42.98Z</time></trkpt><trkpt lat="43.39735471045689" lon="10.640873371720946"><ele>376.0</ele><time>2026-04-26T11:32:43.98Z</time></trkpt><trkpt lat="43.39726077522841" lon="10.640851343321106"><ele>376.0</ele><time>2026-04-26T11:32:44.981Z</time></trkpt><trkpt lat="43.39718493196003" lon="10.64082555296284"><ele>376.0</ele><time>2026-04-26T11:32:45.981Z</time></trkpt><trkpt lat="43.39712024082548" lon="10.640807203775813"><ele>376.0</ele><time>2026-04-26T11:32:46.981Z</time></trkpt><trkpt lat="43.39705962633374" lon="10.640782518631694"><ele>376.0</ele><time>2026-04-26T11:32:47.981Z</time></trkpt><trkpt lat="43.39695394297686" lon="10.640743633447968"><ele>376.0</ele><time>2026-04-26T11:32:49.98Z</time></trkpt><trkpt lat="43.39688089829046" lon="10.640705980243695"><ele>376.0</ele><time>2026-04-26T11:32:50.98Z</time></trkpt><trkpt lat="43.39680519743955" lon="10.640679295966619"><ele>375.8</ele><time>2026-04-26T11:32:51.98Z</time></trkpt><trkpt lat="43.39673529681166" lon="10.640671690936092"><ele>375.6</ele><time>2026-04-26T11:32:52.98Z</time></trkpt><trkpt lat="43.39665539500271" lon="10.640671371990232"><ele>375.4</ele><time>2026-04-26T11:32:53.98Z</time></trkpt><trkpt lat="43.39656252038314" lon="10.640702510918917"><ele>375.2</ele><time>2026-04-26T11:32:54.98Z</time></trkpt><trkpt lat="43.39645267217876" lon="10.640762912381009"><ele>375.0</ele><time>2026-04-26T11:32:55.98Z</time></trkpt><trkpt lat="43.39631904171495" lon="10.640795795827918"><ele>375.6</ele><time>2026-04-26T11:32:56.98Z</time></trkpt><trkpt lat="43.39621483413883" lon="10.640840310485823"><ele>376.2</ele><time>2026-04-26T11:32:57.98Z</time></trkpt><trkpt lat="43.396118970041755" lon="10.64086687018394"><ele>376.79999999999995</ele><time>2026-04-26T11:32:58.98Z</time></trkpt><trkpt lat="43.39602077469761" lon="10.64088128530718"><ele>377.4</ele><time>2026-04-26T11:32:59.98Z</time></trkpt><trkpt lat="43.39590899443903" lon="10.640890325476624"><ele>378.0</ele><time>2026-04-26T11:33:00.98Z</time></trkpt><trkpt lat="43.395786613454796" lon="10.640898112875126"><ele>378.0</ele><time>2026-04-26T11:33:01.98Z</time></trkpt><trkpt lat="43.395679903611324" lon="10.64091448732093"><ele>378.0</ele><time>2026-04-26T11:33:02.98Z</time></trkpt><trkpt lat="43.395577636571154" lon="10.640931636382135"><ele>378.0</ele><time>2026-04-26T11:33:03.98Z</time></trkpt><trkpt lat="43.395490953255816" lon="10.640938482150105"><ele>378.0</ele><time>2026-04-26T11:33:04.98Z</time></trkpt><trkpt lat="43.39537912723707" lon="10.640935813696203"><ele>378.0</ele><time>2026-04-26T11:33:05.98Z</time></trkpt><trkpt lat="43.39527537614955" lon="10.640937633534788"><ele>377.8333333333333</ele><time>2026-04-26T11:33:06.98Z</time></trkpt><trkpt lat="43.39517301237304" lon="10.640952921612694"><ele>377.6666666666667</ele><time>2026-04-26T11:33:07.98Z</time></trkpt><trkpt lat="43.395069717447974" lon="10.640975298403365"><ele>377.5</ele><time>2026-04-26T11:33:08.98Z</time></trkpt><trkpt lat="43.39498829991529" lon="10.641005583683198"><ele>377.33333333333337</ele><time>2026-04-26T11:33:09.98Z</time></trkpt><trkpt lat="43.39492535450226" lon="10.641031731133825"><ele>377.1666666666667</ele><time>2026-04-26T11:33:10.98Z</time></trkpt><trkpt lat="43.39485615169094" lon="10.641052243068827"><ele>377.0</ele><time>2026-04-26T11:33:11.98Z</time></trkpt><trkpt lat="43.39476179950705" lon="10.641082812827218"><ele>375.6</ele><time>2026-04-26T11:33:12.98Z</time></trkpt><trkpt lat="43.39464870278436" lon="10.641102257944077"><ele>374.20000000000005</ele><time>2026-04-26T11:33:13.98Z</time></trkpt><trkpt lat="43.39454170360483" lon="10.641124777274708"><ele>372.8</ele><time>2026-04-26T11:33:14.98Z</time></trkpt><trkpt lat="43.39443726739321" lon="10.641149126373003"><ele>371.4</ele><time>2026-04-26T11:33:15.98Z</time></trkpt><trkpt lat="43.39434321056627" lon="10.641168509971138"><ele>370.0</ele><time>2026-04-26T11:33:16.98Z</time></trkpt><trkpt lat="43.39425127555728" lon="10.641191482267404"><ele>366.8</ele><time>2026-04-26T11:33:17.98Z</time></trkpt><trkpt lat="43.39415912706005" lon="10.641215177164728"><ele>363.6</ele><time>2026-04-26T11:33:18.98Z</time></trkpt><trkpt lat="43.39407245467052" lon="10.641238073905052"><ele>360.4</ele><time>2026-04-26T11:33:19.98Z</time></trkpt><trkpt lat="43.3940030863528" lon="10.641242172728887"><ele>357.2</ele><time>2026-04-26T11:33:20.98Z</time></trkpt><trkpt lat="43.393889820752044" lon="10.641245272265579"><ele>354.0</ele><time>2026-04-26T11:33:22.98Z</time></trkpt><trkpt lat="43.393804901779" lon="10.641147919373687"><ele>353.3333333333333</ele><time>2026-04-26T11:33:24.98Z</time></trkpt><trkpt lat="43.393761573227565" lon="10.641070343096892"><ele>352.6666666666667</ele><time>2026-04-26T11:33:25.98Z</time></trkpt><trkpt lat="43.3937085567237" lon="10.640984468421266"><ele>352.0</ele><time>2026-04-26T11:33:26.98Z</time></trkpt><trkpt lat="43.393638297400166" lon="10.64088370715627"><ele>351.33333333333337</ele><time>2026-04-26T11:33:27.98Z</time></trkpt><trkpt lat="43.393592053619905" lon="10.640777431101467"><ele>350.6666666666667</ele><time>2026-04-26T11:33:28.98Z</time></trkpt><trkpt lat="43.39354304962676" lon="10.640721858070743"><ele>350.0</ele><time>2026-04-26T11:33:29.98Z</time></trkpt><trkpt lat="43.393497182748135" lon="10.640661501029228"><ele>350.0</ele><time>2026-04-26T11:33:30.98Z</time></trkpt><trkpt lat="43.39340671034349" lon="10.640549817977817"><ele>350.0</ele><time>2026-04-26T11:33:32.98Z</time></trkpt><trkpt lat="43.39332857203521" lon="10.640435838677554"><ele>350.0</ele><time>2026-04-26T11:33:34.98Z</time></trkpt><trkpt lat="43.39326749756191" lon="10.640409090466775"><ele>350.0</ele><time>2026-04-26T11:33:35.98Z</time></trkpt><trkpt lat="43.39319277803323" lon="10.640419200102425"><ele>350.0</ele><time>2026-04-26T11:33:36.98Z</time></trkpt><trkpt lat="43.39311779970567" lon="10.640459208740763"><ele>350.0</ele><time>2026-04-26T11:33:37.98Z</time></trkpt><trkpt lat="43.39304832918855" lon="10.640505575543887"><ele>350.0</ele><time>2026-04-26T11:33:38.98Z</time></trkpt><trkpt lat="43.392988258017326" lon="10.64057869317906"><ele>350.0</ele><time>2026-04-26T11:33:39.98Z</time></trkpt><trkpt lat="43.392943389933826" lon="10.640673521335472"><ele>350.0</ele><time>2026-04-26T11:33:40.98Z</time></trkpt><trkpt lat="43.392913532968436" lon="10.640766350617309"><ele>350.0</ele><time>2026-04-26T11:33:41.98Z</time></trkpt><trkpt lat="43.392888051443705" lon="10.640868239232985"><ele>350.0</ele><time>2026-04-26T11:33:42.98Z</time></trkpt><trkpt lat="43.39285841071651" lon="10.640973952875159"><ele>348.1666666666667</ele><time>2026-04-26T11:33:43.98Z</time></trkpt><trkpt lat="43.39283024606621" lon="10.641076537531928"><ele>346.33333333333337</ele><time>2026-04-26T11:33:44.98Z</time></trkpt><trkpt lat="43.392801117267545" lon="10.64118003188255"><ele>344.5</ele><time>2026-04-26T11:33:45.98Z</time></trkpt><trkpt lat="43.39276993585372" lon="10.64128555647004"><ele>342.6666666666667</ele><time>2026-04-26T11:33:46.98Z</time></trkpt><trkpt lat="43.39273857165899" lon="10.641394522466735"><ele>340.8333333333333</ele><time>2026-04-26T11:33:47.98Z</time></trkpt><trkpt lat="43.392718683537254" lon="10.64149039208261"><ele>339.0</ele><time>2026-04-26T11:33:48.98Z</time></trkpt><trkpt lat="43.392686593420315" lon="10.641583396558282"><ele>337.5</ele><time>2026-04-26T11:33:49.98Z</time></trkpt><trkpt lat="43.39265854603795" lon="10.641667813618776"><ele>336.0</ele><time>2026-04-26T11:33:50.98Z</time></trkpt><trkpt lat="43.39261313101287" lon="10.641780185691658"><ele>334.5</ele><time>2026-04-26T11:33:52.98Z</time></trkpt><trkpt lat="43.392560819460144" lon="10.641847793923588"><ele>333.0</ele><time>2026-04-26T11:33:54.98Z</time></trkpt><trkpt lat="43.392484192604186" lon="10.641899130137327"><ele>331.5</ele><time>2026-04-26T11:33:56.98Z</time></trkpt><trkpt lat="43.39238158550621" lon="10.64194322049099"><ele>330.0</ele><time>2026-04-26T11:33:58.98Z</time></trkpt><trkpt lat="43.39226299142055" lon="10.641952074689687"><ele>330.0</ele><time>2026-04-26T11:34:00.98Z</time></trkpt><trkpt lat="43.39219080539304" lon="10.641954180240184"><ele>330.0</ele><time>2026-04-26T11:34:01.98Z</time></trkpt><trkpt lat="43.39211056021409" lon="10.641952506881932"><ele>330.0</ele><time>2026-04-26T11:34:02.98Z</time></trkpt><trkpt lat="43.392035373432456" lon="10.641960134559472"><ele>330.0</ele><time>2026-04-26T11:34:03.98Z</time></trkpt><trkpt lat="43.39195639197254" lon="10.641957927440872"><ele>330.0</ele><time>2026-04-26T11:34:04.98Z</time></trkpt><trkpt lat="43.3918774067376" lon="10.641950067133282"><ele>330.0</ele><time>2026-04-26T11:34:05.98Z</time></trkpt><trkpt lat="43.39179512799971" lon="10.641948395261272"><ele>328.0</ele><time>2026-04-26T11:34:06.98Z</time></trkpt><trkpt lat="43.39172504619766" lon="10.641950290864454"><ele>326.0</ele><time>2026-04-26T11:34:07.98Z</time></trkpt><trkpt lat="43.39166047594097" lon="10.641954520395267"><ele>324.0</ele><time>2026-04-26T11:34:08.98Z</time></trkpt><trkpt lat="43.39153792794831" lon="10.6419575628334"><ele>322.0</ele><time>2026-04-26T11:34:10.98Z</time></trkpt><trkpt lat="43.39142650625753" lon="10.64195160947353"><ele>320.0</ele><time>2026-04-26T11:34:12.98Z</time></trkpt><trkpt lat="43.39134262919548" lon="10.641894200474352"><ele>319.4</ele><time>2026-04-26T11:34:14.98Z</time></trkpt><trkpt lat="43.39126724547372" lon="10.641797596852753"><ele>318.8</ele><time>2026-04-26T11:34:16.98Z</time></trkpt><trkpt lat="43.391180800277105" lon="10.641753396322615"><ele>318.2</ele><time>2026-04-26T11:34:18.98Z</time></trkpt><trkpt lat="43.391091718185" lon="10.641801455732342"><ele>317.6</ele><time>2026-04-26T11:34:20.98Z</time></trkpt><trkpt lat="43.39101385307831" lon="10.641889421026404"><ele>317.0</ele><time>2026-04-26T11:34:22.98Z</time></trkpt><trkpt lat="43.39094678791814" lon="10.641953502556353"><ele>315.33333333333337</ele><time>2026-04-26T11:34:23.98Z</time></trkpt><trkpt lat="43.390890988869664" lon="10.641996018640427"><ele>313.6666666666667</ele><time>2026-04-26T11:34:24.98Z</time></trkpt><trkpt lat="43.39082609815142" lon="10.64202212309314"><ele>312.0</ele><time>2026-04-26T11:34:25.98Z</time></trkpt><trkpt lat="43.3907615016929" lon="10.642019402138843"><ele>310.3333333333333</ele><time>2026-04-26T11:34:26.98Z</time></trkpt><trkpt lat="43.390686901020466" lon="10.642017618200128"><ele>308.66666666666663</ele><time>2026-04-26T11:34:27.98Z</time></trkpt><trkpt lat="43.39060865631289" lon="10.641997068894792"><ele>307.0</ele><time>2026-04-26T11:34:28.98Z</time></trkpt><trkpt lat="43.39048428181364" lon="10.641976606340496"><ele>306.0</ele><time>2026-04-26T11:34:29.98Z</time></trkpt><trkpt lat="43.390378844708664" lon="10.641963745466343"><ele>305.0</ele><time>2026-04-26T11:34:30.98Z</time></trkpt><trkpt lat="43.39029291781826" lon="10.641962823013682"><ele>304.0</ele><time>2026-04-26T11:34:31.98Z</time></trkpt><trkpt lat="43.39016731653453" lon="10.64196668818614"><ele>303.0</ele><time>2026-04-26T11:34:33.98Z</time></trkpt><trkpt lat="43.390094255081074" lon="10.641945599449338"><ele>302.0</ele><time>2026-04-26T11:34:34.98Z</time></trkpt><trkpt lat="43.3900140166676" lon="10.641915906078328"><ele>303.00000000000006</ele><time>2026-04-26T11:34:35.98Z</time></trkpt><trkpt lat="43.38993356209758" lon="10.641890941090416"><ele>304.0</ele><time>2026-04-26T11:34:36.98Z</time></trkpt><trkpt lat="43.38986263527823" lon="10.64187371174465"><ele>305.0</ele><time>2026-04-26T11:34:37.98Z</time></trkpt><trkpt lat="43.389792869380656" lon="10.641878630951386"><ele>306.0</ele><time>2026-04-26T11:34:38.98Z</time></trkpt><trkpt lat="43.389724479633955" lon="10.641879750929924"><ele>307.0</ele><time>2026-04-26T11:34:39.98Z</time></trkpt><trkpt lat="43.38965898494938" lon="10.641904100757381"><ele>308.00000000000006</ele><time>2026-04-26T11:34:40.98Z</time></trkpt><trkpt lat="43.3895780571749" lon="10.641915191480143"><ele>309.0</ele><time>2026-04-26T11:34:41.979Z</time></trkpt><trkpt lat="43.38949580965449" lon="10.641911571700334"><ele>309.0</ele><time>2026-04-26T11:34:42.979Z</time></trkpt><trkpt lat="43.38942513813973" lon="10.641907897521762"><ele>309.0</ele><time>2026-04-26T11:34:43.979Z</time></trkpt><trkpt lat="43.38930594436781" lon="10.641918288756948"><ele>309.0</ele><time>2026-04-26T11:34:45.979Z</time></trkpt><trkpt lat="43.38924287717561" lon="10.641949678605785"><ele>309.0</ele><time>2026-04-26T11:34:46.979Z</time></trkpt><trkpt lat="43.38912111138093" lon="10.641987219022337"><ele>309.0</ele><time>2026-04-26T11:34:48.979Z</time></trkpt><trkpt lat="43.38900036722892" lon="10.642013010985474"><ele>305.25</ele><time>2026-04-26T11:34:50.979Z</time></trkpt><trkpt lat="43.38889156741277" lon="10.642035285937826"><ele>301.5</ele><time>2026-04-26T11:34:52.979Z</time></trkpt><trkpt lat="43.388787239949686" lon="10.642056418203069"><ele>297.75</ele><time>2026-04-26T11:34:54.979Z</time></trkpt><trkpt lat="43.38867964482071" lon="10.64205972064074"><ele>294.0</ele><time>2026-04-26T11:34:56.979Z</time></trkpt><trkpt lat="43.38855387144525" lon="10.64203975166903"><ele>294.5</ele><time>2026-04-26T11:34:58.979Z</time></trkpt><trkpt lat="43.38847951502026" lon="10.642023292522598"><ele>295.0</ele><time>2026-04-26T11:34:59.979Z</time></trkpt><trkpt lat="43.38840418795467" lon="10.64199541364893"><ele>295.5</ele><time>2026-04-26T11:35:00.979Z</time></trkpt><trkpt lat="43.38832952693229" lon="10.641979914295565"><ele>296.0</ele><time>2026-04-26T11:35:01.979Z</time></trkpt><trkpt lat="43.38825580490248" lon="10.64196468063995"><ele>296.5</ele><time>2026-04-26T11:35:02.979Z</time></trkpt><trkpt lat="43.38818297080629" lon="10.64194413689452"><ele>297.0</ele><time>2026-04-26T11:35:03.979Z</time></trkpt><trkpt lat="43.388104554426874" lon="10.641924381071217"><ele>297.0</ele><time>2026-04-26T11:35:04.979Z</time></trkpt><trkpt lat="43.38802656414397" lon="10.641905635040834"><ele>297.0</ele><time>2026-04-26T11:35:05.979Z</time></trkpt><trkpt lat="43.38792617848622" lon="10.641882087484204"><ele>297.0</ele><time>2026-04-26T11:35:07.979Z</time></trkpt><trkpt lat="43.387827876002724" lon="10.641913955729141"><ele>297.0</ele><time>2026-04-26T11:35:09.979Z</time></trkpt><trkpt lat="43.3877782056312" lon="10.641967279568421"><ele>297.0</ele><time>2026-04-26T11:35:10.979Z</time></trkpt><trkpt lat="43.387735792225996" lon="10.642118056377159"><ele>293.8571428571429</ele><time>2026-04-26T11:35:12.979Z</time></trkpt><trkpt lat="43.38772516080987" lon="10.642214714797374"><ele>290.7142857142857</ele><time>2026-04-26T11:35:13.979Z</time></trkpt><trkpt lat="43.387721329860305" lon="10.642310700508974"><ele>287.57142857142856</ele><time>2026-04-26T11:35:14.979Z</time></trkpt><trkpt lat="43.38771967934048" lon="10.642400511105615"><ele>284.42857142857144</ele><time>2026-04-26T11:35:15.979Z</time></trkpt><trkpt lat="43.38771862015411" lon="10.6424956887967"><ele>281.2857142857143</ele><time>2026-04-26T11:35:16.979Z</time></trkpt><trkpt lat="43.387714812261194" lon="10.642585730940409"><ele>278.14285714285717</ele><time>2026-04-26T11:35:17.979Z</time></trkpt><trkpt lat="43.38770851901135" lon="10.642679493529942"><ele>275.0</ele><time>2026-04-26T11:35:18.979Z</time></trkpt><trkpt lat="43.387700227766004" lon="10.642773292070897"><ele>274.14285714285717</ele><time>2026-04-26T11:35:19.979Z</time></trkpt><trkpt lat="43.387696655878464" lon="10.642862964103506"><ele>273.2857142857143</ele><time>2026-04-26T11:35:20.979Z</time></trkpt><trkpt lat="43.3876870722046" lon="10.642953398190876"><ele>272.42857142857144</ele><time>2026-04-26T11:35:21.979Z</time></trkpt><trkpt lat="43.38767968727239" lon="10.643045140242739"><ele>271.57142857142856</ele><time>2026-04-26T11:35:22.979Z</time></trkpt><trkpt lat="43.38767207377842" lon="10.64313581571882"><ele>270.7142857142857</ele><time>2026-04-26T11:35:23.979Z</time></trkpt><trkpt lat="43.38766978214615" lon="10.643236617195793"><ele>269.8571428571429</ele><time>2026-04-26T11:35:24.979Z</time></trkpt><trkpt lat="43.38766500508016" lon="10.643335268179717"><ele>269.0</ele><time>2026-04-26T11:35:25.979Z</time></trkpt><trkpt lat="43.38765802356985" lon="10.643429323561293"><ele>269.0</ele><time>2026-04-26T11:35:26.979Z</time></trkpt><trkpt lat="43.38764192725006" lon="10.64358996361733"><ele>269.0</ele><time>2026-04-26T11:35:28.979Z</time></trkpt><trkpt lat="43.38758814166629" lon="10.64368253547174"><ele>269.0</ele><time>2026-04-26T11:35:30.979Z</time></trkpt><trkpt lat="43.38751173202662" lon="10.643678399548222"><ele>269.0</ele><time>2026-04-26T11:35:32.979Z</time></trkpt><trkpt lat="43.38742053387968" lon="10.643621674402954"><ele>269.0</ele><time>2026-04-26T11:35:34.979Z</time></trkpt><trkpt lat="43.38735600836722" lon="10.643597540784016"><ele>269.0</ele><time>2026-04-26T11:35:35.979Z</time></trkpt><trkpt lat="43.38726596643933" lon="10.643577866000777"><ele>267.2</ele><time>2026-04-26T11:35:36.979Z</time></trkpt><trkpt lat="43.3871646575987" lon="10.64355299661734"><ele>265.4</ele><time>2026-04-26T11:35:37.979Z</time></trkpt><trkpt lat="43.387065823740464" lon="10.643542074044566"><ele>263.6</ele><time>2026-04-26T11:35:38.979Z</time></trkpt><trkpt lat="43.38697225469919" lon="10.643529844210201"><ele>261.8</ele><time>2026-04-26T11:35:39.979Z</time></trkpt><trkpt lat="43.3868805152989" lon="10.643517721182864"><ele>260.0</ele><time>2026-04-26T11:35:40.979Z</time></trkpt><trkpt lat="43.38678864683595" lon="10.643502894710968"><ele>260.0</ele><time>2026-04-26T11:35:41.979Z</time></trkpt><trkpt lat="43.38670492767164" lon="10.6434894996175"><ele>260.0</ele><time>2026-04-26T11:35:42.979Z</time></trkpt><trkpt lat="43.38662304477642" lon="10.643476105485727"><ele>260.0</ele><time>2026-04-26T11:35:43.979Z</time></trkpt><trkpt lat="43.386546378799935" lon="10.643463334678284"><ele>260.0</ele><time>2026-04-26T11:35:44.979Z</time></trkpt><trkpt lat="43.386467758319455" lon="10.643453502313443"><ele>260.0</ele><time>2026-04-26T11:35:45.979Z</time></trkpt><trkpt lat="43.386386710125315" lon="10.643441874101699"><ele>260.0</ele><time>2026-04-26T11:35:46.979Z</time></trkpt><trkpt lat="43.38630725492418" lon="10.643432659803596"><ele>258.6666666666667</ele><time>2026-04-26T11:35:47.979Z</time></trkpt><trkpt lat="43.38623675387489" lon="10.64342304576071"><ele>257.33333333333337</ele><time>2026-04-26T11:35:48.979Z</time></trkpt><trkpt lat="43.386170553734054" lon="10.64340924651338"><ele>256.0</ele><time>2026-04-26T11:35:49.979Z</time></trkpt><trkpt lat="43.38610772121673" lon="10.643395215829965"><ele>254.66666666666669</ele><time>2026-04-26T11:35:50.979Z</time></trkpt><trkpt lat="43.38604148440904" lon="10.643381397794204"><ele>253.33333333333334</ele><time>2026-04-26T11:35:51.979Z</time></trkpt><trkpt lat="43.38593465327483" lon="10.643354333948544"><ele>252.0</ele><time>2026-04-26T11:35:53.979Z</time></trkpt><trkpt lat="43.385859923580945" lon="10.643277929906006"><ele>252.0</ele><time>2026-04-26T11:35:55.979Z</time></trkpt><trkpt lat="43.38580265347322" lon="10.643114957042933"><ele>252.0</ele><time>2026-04-26T11:35:57.979Z</time></trkpt><trkpt lat="43.385766056727114" lon="10.6429923540138"><ele>252.0</ele><time>2026-04-26T11:35:58.979Z</time></trkpt><trkpt lat="43.38573793209673" lon="10.642890899175866"><ele>252.0</ele><time>2026-04-26T11:35:59.979Z</time></trkpt><trkpt lat="43.38572157546329" lon="10.642788452022213"><ele>252.0</ele><time>2026-04-26T11:36:00.979Z</time></trkpt><trkpt lat="43.385717386754976" lon="10.642680702323405"><ele>252.0</ele><time>2026-04-26T11:36:01.979Z</time></trkpt><trkpt lat="43.38572899003223" lon="10.642561396813447"><ele>252.0</ele><time>2026-04-26T11:36:02.98Z</time></trkpt><trkpt lat="43.38574763484986" lon="10.64242463374962"><ele>252.0</ele><time>2026-04-26T11:36:03.98Z</time></trkpt><trkpt lat="43.385767328596245" lon="10.642294223867763"><ele>252.0</ele><time>2026-04-26T11:36:04.98Z</time></trkpt><trkpt lat="43.38578267130014" lon="10.642154305127502"><ele>252.0</ele><time>2026-04-26T11:36:05.98Z</time></trkpt><trkpt lat="43.385795288608875" lon="10.642032927490666"><ele>252.16666666666666</ele><time>2026-04-26T11:36:06.98Z</time></trkpt><trkpt lat="43.385798323173084" lon="10.641921761974611"><ele>252.33333333333331</ele><time>2026-04-26T11:36:07.98Z</time></trkpt><trkpt lat="43.38578575838495" lon="10.641802918316376"><ele>252.5</ele><time>2026-04-26T11:36:08.98Z</time></trkpt><trkpt lat="43.385755239108676" lon="10.64168297660592"><ele>252.66666666666666</ele><time>2026-04-26T11:36:09.98Z</time></trkpt><trkpt lat="43.385708241912596" lon="10.641578284811441"><ele>252.83333333333331</ele><time>2026-04-26T11:36:10.98Z</time></trkpt><trkpt lat="43.38564492037575" lon="10.641493495313492"><ele>253.0</ele><time>2026-04-26T11:36:11.98Z</time></trkpt><trkpt lat="43.38557434486897" lon="10.641417171731737"><ele>252.99999999999997</ele><time>2026-04-26T11:36:12.98Z</time></trkpt><trkpt lat="43.3855187579745" lon="10.64137259977293"><ele>253.0</ele><time>2026-04-26T11:36:13.98Z</time></trkpt><trkpt lat="43.38545068149037" lon="10.641361562746253"><ele>253.0</ele><time>2026-04-26T11:36:15.98Z</time></trkpt><trkpt lat="43.38538120970863" lon="10.641400917421485"><ele>253.0</ele><time>2026-04-26T11:36:22.98Z</time></trkpt><trkpt lat="43.385266826059656" lon="10.641492597853441"><ele>252.99999999999997</ele><time>2026-04-26T11:36:24.98Z</time></trkpt><trkpt lat="43.38520214665139" lon="10.641546039690883"><ele>253.0</ele><time>2026-04-26T11:36:25.98Z</time></trkpt><trkpt lat="43.38512194203534" lon="10.641604425234117"><ele>251.4</ele><time>2026-04-26T11:36:26.98Z</time></trkpt><trkpt lat="43.385046253586246" lon="10.641675383685053"><ele>249.8</ele><time>2026-04-26T11:36:27.98Z</time></trkpt><trkpt lat="43.384961809702915" lon="10.641753035069843"><ele>248.2</ele><time>2026-04-26T11:36:28.98Z</time></trkpt><trkpt lat="43.38488766523795" lon="10.641834327343222"><ele>246.6</ele><time>2026-04-26T11:36:29.98Z</time></trkpt><trkpt lat="43.384813709818125" lon="10.641915314649097"><ele>245.0</ele><time>2026-04-26T11:36:30.98Z</time></trkpt><trkpt lat="43.38473926886149" lon="10.641974251420352"><ele>243.66666666666669</ele><time>2026-04-26T11:36:31.98Z</time></trkpt><trkpt lat="43.38467920837144" lon="10.642040741296698"><ele>242.33333333333334</ele><time>2026-04-26T11:36:32.98Z</time></trkpt><trkpt lat="43.38460576838941" lon="10.642094911499248"><ele>241.0</ele><time>2026-04-26T11:36:33.98Z</time></trkpt><trkpt lat="43.38454065640393" lon="10.642158101185178"><ele>239.66666666666669</ele><time>2026-04-26T11:36:34.98Z</time></trkpt><trkpt lat="43.384471180209445" lon="10.642192347613612"><ele>238.33333333333334</ele><time>2026-04-26T11:36:35.98Z</time></trkpt><trkpt lat="43.38440530988101" lon="10.642230253156049"><ele>237.0</ele><time>2026-04-26T11:36:36.98Z</time></trkpt><trkpt lat="43.38433573306512" lon="10.642277914412796"><ele>236.99999999999997</ele><time>2026-04-26T11:36:37.98Z</time></trkpt><trkpt lat="43.38428399662895" lon="10.642336930586888"><ele>237.0</ele><time>2026-04-26T11:36:38.98Z</time></trkpt><trkpt lat="43.384243174215094" lon="10.642406072190486"><ele>236.99999999999997</ele><time>2026-04-26T11:36:39.98Z</time></trkpt><trkpt lat="43.38419723670134" lon="10.642500872542213"><ele>236.99999999999997</ele><time>2026-04-26T11:36:40.98Z</time></trkpt><trkpt lat="43.38415167198921" lon="10.64257385138681"><ele>237.0</ele><time>2026-04-26T11:36:41.98Z</time></trkpt><trkpt lat="43.384079239210074" lon="10.642622582496127"><ele>236.99999999999997</ele><time>2026-04-26T11:36:42.98Z</time></trkpt><trkpt lat="43.38401219516043" lon="10.642654482973732"><ele>236.99999999999997</ele><time>2026-04-26T11:36:43.98Z</time></trkpt><trkpt lat="43.383898123122776" lon="10.642699426454707"><ele>238.39999999999998</ele><time>2026-04-26T11:36:45.98Z</time></trkpt><trkpt lat="43.38383623556053" lon="10.642719284829733"><ele>239.79999999999998</ele><time>2026-04-26T11:36:46.98Z</time></trkpt><trkpt lat="43.38375296503269" lon="10.642884574862137"><ele>241.2</ele><time>2026-04-26T11:36:48.978Z</time></trkpt><trkpt lat="43.383719435578236" lon="10.643011188029924"><ele>242.6</ele><time>2026-04-26T11:36:49.978Z</time></trkpt><trkpt lat="43.383692208832954" lon="10.643123582864698"><ele>244.0</ele><time>2026-04-26T11:36:50.978Z</time></trkpt><trkpt lat="43.383657887837934" lon="10.643213654941901"><ele>241.85714285714283</ele><time>2026-04-26T11:36:51.978Z</time></trkpt><trkpt lat="43.38361448377339" lon="10.64329525878092"><ele>239.71428571428572</ele><time>2026-04-26T11:36:52.978Z</time></trkpt><trkpt lat="43.3835658847172" lon="10.643354849625204"><ele>237.57142857142856</ele><time>2026-04-26T11:36:53.978Z</time></trkpt><trkpt lat="43.3834994030828" lon="10.643398606316428"><ele>235.42857142857142</ele><time>2026-04-26T11:36:54.978Z</time></trkpt><trkpt lat="43.38342215171076" lon="10.643455482954039"><ele>233.28571428571428</ele><time>2026-04-26T11:36:55.978Z</time></trkpt><trkpt lat="43.38337826782382" lon="10.643529043213043"><ele>231.14285714285714</ele><time>2026-04-26T11:36:56.978Z</time></trkpt><trkpt lat="43.38335240253821" lon="10.643629683675178"><ele>229.0</ele><time>2026-04-26T11:36:57.978Z</time></trkpt><trkpt lat="43.38331901643712" lon="10.643716525978206"><ele>227.39999999999998</ele><time>2026-04-26T11:36:58.978Z</time></trkpt><trkpt lat="43.38319223101395" lon="10.64378423561095"><ele>225.79999999999998</ele><time>2026-04-26T11:37:00.978Z</time></trkpt><trkpt lat="43.38307871252824" lon="10.643785478184757"><ele>224.20000000000002</ele><time>2026-04-26T11:37:01.978Z</time></trkpt><trkpt lat="43.382992669445656" lon="10.643783549121695"><ele>222.60000000000002</ele><time>2026-04-26T11:37:02.978Z</time></trkpt><trkpt lat="43.38290312093789" lon="10.643871409479168"><ele>221.0</ele><time>2026-04-26T11:37:04.978Z</time></trkpt><trkpt lat="43.382845205076926" lon="10.64405777517709"><ele>221.00000000000003</ele><time>2026-04-26T11:37:06.978Z</time></trkpt><trkpt lat="43.382813565477576" lon="10.64416191210383"><ele>221.0</ele><time>2026-04-26T11:37:07.978Z</time></trkpt><trkpt lat="43.38279478582255" lon="10.64427326065557"><ele>221.0</ele><time>2026-04-26T11:37:08.978Z</time></trkpt><trkpt lat="43.38277922459694" lon="10.644369789597782"><ele>221.0</ele><time>2026-04-26T11:37:09.978Z</time></trkpt><trkpt lat="43.38276657160874" lon="10.64445787268564"><ele>221.00000000000003</ele><time>2026-04-26T11:37:10.978Z</time></trkpt><trkpt lat="43.38267980203686" lon="10.644599680283456"><ele>221.0</ele><time>2026-04-26T11:37:12.978Z</time></trkpt><trkpt lat="43.38260116714485" lon="10.644673558795546"><ele>218.4</ele><time>2026-04-26T11:37:13.978Z</time></trkpt><trkpt lat="43.38251121035648" lon="10.644746102416617"><ele>215.8</ele><time>2026-04-26T11:37:14.978Z</time></trkpt><trkpt lat="43.382429343307685" lon="10.644792662630758"><ele>213.20000000000002</ele><time>2026-04-26T11:37:15.978Z</time></trkpt><trkpt lat="43.38235810006358" lon="10.644813785834357"><ele>210.60000000000002</ele><time>2026-04-26T11:37:16.978Z</time></trkpt><trkpt lat="43.38228923175304" lon="10.644825276066548"><ele>208.0</ele><time>2026-04-26T11:37:17.978Z</time></trkpt><trkpt lat="43.38216590682383" lon="10.644844885027677"><ele>207.66666666666666</ele><time>2026-04-26T11:37:19.978Z</time></trkpt><trkpt lat="43.38210731867505" lon="10.644890859781624"><ele>207.33333333333331</ele><time>2026-04-26T11:37:20.978Z</time></trkpt><trkpt lat="43.382059821755234" lon="10.644971539250973"><ele>207.0</ele><time>2026-04-26T11:37:21.978Z</time></trkpt><trkpt lat="43.38201531312981" lon="10.645060886759072"><ele>206.66666666666669</ele><time>2026-04-26T11:37:22.978Z</time></trkpt><trkpt lat="43.38196424706076" lon="10.64515884759148"><ele>206.33333333333334</ele><time>2026-04-26T11:37:23.978Z</time></trkpt><trkpt lat="43.38188409647656" lon="10.645257666575933"><ele>206.0</ele><time>2026-04-26T11:37:24.978Z</time></trkpt><trkpt lat="43.381836023957476" lon="10.645343687269982"><ele>203.83333333333334</ele><time>2026-04-26T11:37:25.978Z</time></trkpt><trkpt lat="43.38178761657549" lon="10.645399305681021"><ele>201.66666666666669</ele><time>2026-04-26T11:37:26.978Z</time></trkpt><trkpt lat="43.38172111212935" lon="10.645461771761143"><ele>199.5</ele><time>2026-04-26T11:37:27.978Z</time></trkpt><trkpt lat="43.38164909943742" lon="10.645490448660103"><ele>197.33333333333331</ele><time>2026-04-26T11:37:28.978Z</time></trkpt><trkpt lat="43.38155168025149" lon="10.645486439633434"><ele>195.16666666666666</ele><time>2026-04-26T11:37:29.978Z</time></trkpt><trkpt lat="43.38145284553562" lon="10.64544814759162"><ele>193.0</ele><time>2026-04-26T11:37:30.978Z</time></trkpt><trkpt lat="43.381375195191076" lon="10.645397256236405"><ele>193.16666666666666</ele><time>2026-04-26T11:37:31.978Z</time></trkpt><trkpt lat="43.38129448484433" lon="10.64533206582779"><ele>193.33333333333331</ele><time>2026-04-26T11:37:32.978Z</time></trkpt><trkpt lat="43.38122038910842" lon="10.645268754126645"><ele>193.5</ele><time>2026-04-26T11:37:33.978Z</time></trkpt><trkpt lat="43.381132049517056" lon="10.645237419604523"><ele>193.66666666666669</ele><time>2026-04-26T11:37:35.978Z</time></trkpt><trkpt lat="43.38108387752148" lon="10.645296030119043"><ele>193.83333333333334</ele><time>2026-04-26T11:37:36.978Z</time></trkpt><trkpt lat="43.38104697268975" lon="10.645387373532616"><ele>194.0</ele><time>2026-04-26T11:37:37.978Z</time></trkpt><trkpt lat="43.38101375916707" lon="10.645512496536755"><ele>194.0</ele><time>2026-04-26T11:37:38.978Z</time></trkpt><trkpt lat="43.38095320349995" lon="10.645649438489784"><ele>194.0</ele><time>2026-04-26T11:37:39.978Z</time></trkpt><trkpt lat="43.38089695188119" lon="10.645782558492582"><ele>194.0</ele><time>2026-04-26T11:37:40.978Z</time></trkpt><trkpt lat="43.38082743388348" lon="10.64588154437472"><ele>194.0</ele><time>2026-04-26T11:37:41.978Z</time></trkpt><trkpt lat="43.380747488672206" lon="10.645933355549118"><ele>194.0</ele><time>2026-04-26T11:37:42.978Z</time></trkpt><trkpt lat="43.3806802112007" lon="10.645966838031775"><ele>194.0</ele><time>2026-04-26T11:37:43.978Z</time></trkpt><trkpt lat="43.38058679754135" lon="10.645970269226758"><ele>194.0</ele><time>2026-04-26T11:37:44.978Z</time></trkpt><trkpt lat="43.38044246903293" lon="10.645955009255964"><ele>194.0</ele><time>2026-04-26T11:37:45.978Z</time></trkpt><trkpt lat="43.38029333810627" lon="10.645947455367343"><ele>194.0</ele><time>2026-04-26T11:37:46.978Z</time></trkpt><trkpt lat="43.38016572298452" lon="10.645952170930723"><ele>195.39999999999998</ele><time>2026-04-26T11:37:47.978Z</time></trkpt><trkpt lat="43.38004805826016" lon="10.645980122694647"><ele>196.8</ele><time>2026-04-26T11:37:48.978Z</time></trkpt><trkpt lat="43.37994018646317" lon="10.646015448046763"><ele>198.2</ele><time>2026-04-26T11:37:49.978Z</time></trkpt><trkpt lat="43.37984529982647" lon="10.646063746691315"><ele>199.60000000000002</ele><time>2026-04-26T11:37:50.978Z</time></trkpt><trkpt lat="43.379771926875485" lon="10.646104325048011"><ele>201.0</ele><time>2026-04-26T11:37:51.978Z</time></trkpt><trkpt lat="43.379707021916154" lon="10.646130030639723"><ele>198.5</ele><time>2026-04-26T11:37:52.978Z</time></trkpt><trkpt lat="43.379655307397464" lon="10.64618999085531"><ele>196.0</ele><time>2026-04-26T11:37:54.978Z</time></trkpt><trkpt lat="43.379589073789056" lon="10.646209956699499"><ele>193.5</ele><time>2026-04-26T11:37:55.978Z</time></trkpt><trkpt lat="43.37953037977955" lon="10.646248594496713"><ele>191.0</ele><time>2026-04-26T11:37:56.978Z</time></trkpt><trkpt lat="43.37942567473227" lon="10.646280478776752"><ele>188.5</ele><time>2026-04-26T11:37:58.978Z</time></trkpt><trkpt lat="43.37934810040423" lon="10.64628395600732"><ele>186.0</ele><time>2026-04-26T11:37:59.978Z</time></trkpt><trkpt lat="43.379259727623825" lon="10.646290858498682"><ele>186.0</ele><time>2026-04-26T11:38:00.978Z</time></trkpt><trkpt lat="43.379164390212374" lon="10.646319548287407"><ele>186.0</ele><time>2026-04-26T11:38:01.978Z</time></trkpt><trkpt lat="43.37908231042839" lon="10.646355299454516"><ele>186.0</ele><time>2026-04-26T11:38:02.978Z</time></trkpt><trkpt lat="43.3789970316456" lon="10.646397895148471"><ele>186.0</ele><time>2026-04-26T11:38:03.978Z</time></trkpt><trkpt lat="43.378899445359174" lon="10.646439414190791"><ele>186.0</ele><time>2026-04-26T11:38:04.978Z</time></trkpt><trkpt lat="43.378805380995665" lon="10.646481076180807"><ele>188.4</ele><time>2026-04-26T11:38:05.978Z</time></trkpt><trkpt lat="43.37870750874356" lon="10.646532965069381"><ele>190.8</ele><time>2026-04-26T11:38:06.978Z</time></trkpt><trkpt lat="43.37862160754491" lon="10.64659879674815"><ele>193.20000000000002</ele><time>2026-04-26T11:38:07.978Z</time></trkpt><trkpt lat="43.37851478426443" lon="10.646660752182495"><ele>195.60000000000002</ele><time>2026-04-26T11:38:08.978Z</time></trkpt><trkpt lat="43.378432804845474" lon="10.646785778911811"><ele>198.0</ele><time>2026-04-26T11:38:09.978Z</time></trkpt><trkpt lat="43.37834698796142" lon="10.646886793936638"><ele>196.4</ele><time>2026-04-26T11:38:10.978Z</time></trkpt><trkpt lat="43.37826079490546" lon="10.64697065613646"><ele>194.8</ele><time>2026-04-26T11:38:11.978Z</time></trkpt><trkpt lat="43.378158924392096" lon="10.647020821874902"><ele>193.2</ele><time>2026-04-26T11:38:12.978Z</time></trkpt><trkpt lat="43.37808468009139" lon="10.647123458760355"><ele>191.6</ele><time>2026-04-26T11:38:13.978Z</time></trkpt><trkpt lat="43.378003313606456" lon="10.647209129173712"><ele>190.0</ele><time>2026-04-26T11:38:14.979Z</time></trkpt><trkpt lat="43.37792133825606" lon="10.647302789943902"><ele>190.0</ele><time>2026-04-26T11:38:15.979Z</time></trkpt><trkpt lat="43.377845981146805" lon="10.647383649221842"><ele>190.0</ele><time>2026-04-26T11:38:16.979Z</time></trkpt><trkpt lat="43.377771302765744" lon="10.647423393518462"><ele>190.0</ele><time>2026-04-26T11:38:17.979Z</time></trkpt><trkpt lat="43.37770437885478" lon="10.647454416481175"><ele>190.0</ele><time>2026-04-26T11:38:18.979Z</time></trkpt><trkpt lat="43.377630949961265" lon="10.647502947432649"><ele>190.0</ele><time>2026-04-26T11:38:19.979Z</time></trkpt><trkpt lat="43.37753737878778" lon="10.64751375593613"><ele>190.0</ele><time>2026-04-26T11:38:20.979Z</time></trkpt><trkpt lat="43.377411180000585" lon="10.647539732199737"><ele>190.0</ele><time>2026-04-26T11:38:21.979Z</time></trkpt><trkpt lat="43.37728115522568" lon="10.647555343773654"><ele>190.0</ele><time>2026-04-26T11:38:22.979Z</time></trkpt><trkpt lat="43.37716046308634" lon="10.647595193143758"><ele>190.0</ele><time>2026-04-26T11:38:23.979Z</time></trkpt><trkpt lat="43.3770557089157" lon="10.647629462401786"><ele>190.0</ele><time>2026-04-26T11:38:24.979Z</time></trkpt><trkpt lat="43.3769530660493" lon="10.647658304779819"><ele>190.8</ele><time>2026-04-26T11:38:25.979Z</time></trkpt><trkpt lat="43.376849911258354" lon="10.647672240422622"><ele>191.6</ele><time>2026-04-26T11:38:26.979Z</time></trkpt><trkpt lat="43.37674722112367" lon="10.647670840893285"><ele>192.39999999999998</ele><time>2026-04-26T11:38:27.979Z</time></trkpt><trkpt lat="43.37664977577434" lon="10.647644363774205"><ele>193.2</ele><time>2026-04-26T11:38:28.979Z</time></trkpt><trkpt lat="43.37655622089339" lon="10.647615497339135"><ele>194.0</ele><time>2026-04-26T11:38:29.979Z</time></trkpt><trkpt lat="43.37648712161672" lon="10.647574364635641"><ele>194.00000000000003</ele><time>2026-04-26T11:38:30.979Z</time></trkpt><trkpt lat="43.37641101494418" lon="10.647578636788054"><ele>194.0</ele><time>2026-04-26T11:38:31.979Z</time></trkpt><trkpt lat="43.376327531948476" lon="10.647644248690598"><ele>194.0</ele><time>2026-04-26T11:38:32.979Z</time></trkpt><trkpt lat="43.37627503733793" lon="10.647765528093137"><ele>194.0</ele><time>2026-04-26T11:38:33.979Z</time></trkpt><trkpt lat="43.3762018692123" lon="10.647808944499113"><ele>194.00000000000003</ele><time>2026-04-26T11:38:34.979Z</time></trkpt><trkpt lat="43.376116160323654" lon="10.647824515113555"><ele>194.0</ele><time>2026-04-26T11:38:35.979Z</time></trkpt><trkpt lat="43.37600069318548" lon="10.647802858084628"><ele>194.0</ele><time>2026-04-26T11:38:36.979Z</time></trkpt><trkpt lat="43.37585930263214" lon="10.64779193242598"><ele>194.0</ele><time>2026-04-26T11:38:37.979Z</time></trkpt><trkpt lat="43.37571742998099" lon="10.647783888894384"><ele>194.0</ele><time>2026-04-26T11:38:38.979Z</time></trkpt><trkpt lat="43.37559673014039" lon="10.647776410112996"><ele>194.0</ele><time>2026-04-26T11:38:39.979Z</time></trkpt><trkpt lat="43.37549221106281" lon="10.647739789741298"><ele>194.0</ele><time>2026-04-26T11:38:40.979Z</time></trkpt><trkpt lat="43.375385489936065" lon="10.647731442359408"><ele>194.0</ele><time>2026-04-26T11:38:41.979Z</time></trkpt><trkpt lat="43.37529443851143" lon="10.647739301006467"><ele>194.0</ele><time>2026-04-26T11:38:42.979Z</time></trkpt><trkpt lat="43.375209774373815" lon="10.647773534278409"><ele>194.0</ele><time>2026-04-26T11:38:43.979Z</time></trkpt><trkpt lat="43.37511494075201" lon="10.64786160526393"><ele>194.0</ele><time>2026-04-26T11:38:44.979Z</time></trkpt><trkpt lat="43.37499162341515" lon="10.647988064442501"><ele>191.0</ele><time>2026-04-26T11:38:45.979Z</time></trkpt><trkpt lat="43.374864442033555" lon="10.648122438850994"><ele>188.0</ele><time>2026-04-26T11:38:46.979Z</time></trkpt><trkpt lat="43.37475605235498" lon="10.648218546713753"><ele>185.0</ele><time>2026-04-26T11:38:47.979Z</time></trkpt><trkpt lat="43.37466404547577" lon="10.648327251478015"><ele>182.0</ele><time>2026-04-26T11:38:48.979Z</time></trkpt><trkpt lat="43.37454350491272" lon="10.648424531491727"><ele>182.0</ele><time>2026-04-26T11:38:49.979Z</time></trkpt><trkpt lat="43.37442145201494" lon="10.64853459268999"><ele>182.0</ele><time>2026-04-26T11:38:50.979Z</time></trkpt><trkpt lat="43.37433272958637" lon="10.648616171863791"><ele>182.0</ele><time>2026-04-26T11:38:51.979Z</time></trkpt><trkpt lat="43.374253097952895" lon="10.648695667674138"><ele>182.0</ele><time>2026-04-26T11:38:52.979Z</time></trkpt><trkpt lat="43.37417257824491" lon="10.648744727502116"><ele>182.0</ele><time>2026-04-26T11:38:53.977Z</time></trkpt><trkpt lat="43.37410602245991" lon="10.648805745596698"><ele>181.6</ele><time>2026-04-26T11:38:54.977Z</time></trkpt><trkpt lat="43.37402804000118" lon="10.648870560848453"><ele>181.2</ele><time>2026-04-26T11:38:55.977Z</time></trkpt><trkpt lat="43.37395211451828" lon="10.64890452104722"><ele>180.8</ele><time>2026-04-26T11:38:56.976Z</time></trkpt><trkpt lat="43.37386382138216" lon="10.64892695419445"><ele>180.4</ele><time>2026-04-26T11:38:57.977Z</time></trkpt><trkpt lat="43.373759734882306" lon="10.648933822024548"><ele>180.0</ele><time>2026-04-26T11:38:58.977Z</time></trkpt><trkpt lat="43.373644684160574" lon="10.648936665478384"><ele>180.0</ele><time>2026-04-26T11:38:59.976Z</time></trkpt><trkpt lat="43.373529803743374" lon="10.648946522779507"><ele>180.0</ele><time>2026-04-26T11:39:00.977Z</time></trkpt><trkpt lat="43.373418354164784" lon="10.648954048660363"><ele>180.0</ele><time>2026-04-26T11:39:01.977Z</time></trkpt><trkpt lat="43.37329800208368" lon="10.648961961819836"><ele>180.0</ele><time>2026-04-26T11:39:02.977Z</time></trkpt><trkpt lat="43.37316137871482" lon="10.648970298465485"><ele>179.5</ele><time>2026-04-26T11:39:03.977Z</time></trkpt><trkpt lat="43.37301398097806" lon="10.648975252516582"><ele>179.0</ele><time>2026-04-26T11:39:04.977Z</time></trkpt><trkpt lat="43.37289920629388" lon="10.648981860610233"><ele>178.5</ele><time>2026-04-26T11:39:05.976Z</time></trkpt><trkpt lat="43.372780360573074" lon="10.648982738620402"><ele>178.0</ele><time>2026-04-26T11:39:06.977Z</time></trkpt><trkpt lat="43.37266970064848" lon="10.64898838438749"><ele>178.0</ele><time>2026-04-26T11:39:07.977Z</time></trkpt><trkpt lat="43.37255579878984" lon="10.648995950663188"><ele>178.0</ele><time>2026-04-26T11:39:08.977Z</time></trkpt><trkpt lat="43.372435547756375" lon="10.64900626938516"><ele>178.0</ele><time>2026-04-26T11:39:09.977Z</time></trkpt><trkpt lat="43.37230677693601" lon="10.649011828315071"><ele>178.0</ele><time>2026-04-26T11:39:10.977Z</time></trkpt><trkpt lat="43.37217544339327" lon="10.649017105853051"><ele>177.75</ele><time>2026-04-26T11:39:11.977Z</time></trkpt><trkpt lat="43.37205091389197" lon="10.649020222543333"><ele>177.5</ele><time>2026-04-26T11:39:12.977Z</time></trkpt><trkpt lat="43.371931642030376" lon="10.649027372155267"><ele>177.25</ele><time>2026-04-26T11:39:13.977Z</time></trkpt><trkpt lat="43.37181455354023" lon="10.64903129243604"><ele>177.0</ele><time>2026-04-26T11:39:14.977Z</time></trkpt><trkpt lat="43.371716356131124" lon="10.649036148858457"><ele>177.0</ele><time>2026-04-26T11:39:15.977Z</time></trkpt><trkpt lat="43.3716439204188" lon="10.649044982345147"><ele>177.0</ele><time>2026-04-26T11:39:16.977Z</time></trkpt><trkpt lat="43.371539190926086" lon="10.649072643033799"><ele>177.0</ele><time>2026-04-26T11:39:18.977Z</time></trkpt><trkpt lat="43.371452053802216" lon="10.649042218297028"><ele>177.0</ele><time>2026-04-26T11:39:20.977Z</time></trkpt><trkpt lat="43.371378032193874" lon="10.649049649811822"><ele>177.0</ele><time>2026-04-26T11:39:21.977Z</time></trkpt><trkpt lat="43.37127239898118" lon="10.649060255002459"><ele>177.0</ele><time>2026-04-26T11:39:22.977Z</time></trkpt><trkpt lat="43.37115250335825" lon="10.649069112480456"><ele>177.0</ele><time>2026-04-26T11:39:23.977Z</time></trkpt><trkpt lat="43.37101535021746" lon="10.649074782827864"><ele>177.0</ele><time>2026-04-26T11:39:24.977Z</time></trkpt><trkpt lat="43.37088282686411" lon="10.649100300895219"><ele>177.0</ele><time>2026-04-26T11:39:25.977Z</time></trkpt><trkpt lat="43.37076755610119" lon="10.649097897566895"><ele>177.0</ele><time>2026-04-26T11:39:26.977Z</time></trkpt><trkpt lat="43.37065287151589" lon="10.649102052348127"><ele>177.0</ele><time>2026-04-26T11:39:27.977Z</time></trkpt><trkpt lat="43.37053276538423" lon="10.649100182690718"><ele>177.0</ele><time>2026-04-26T11:39:28.977Z</time></trkpt><trkpt lat="43.37042374689847" lon="10.649098667778908"><ele>177.0</ele><time>2026-04-26T11:39:29.977Z</time></trkpt><trkpt lat="43.37031999066455" lon="10.649098908719322"><ele>177.0</ele><time>2026-04-26T11:39:30.977Z</time></trkpt><trkpt lat="43.37022626937917" lon="10.649101147704288"><ele>177.0</ele><time>2026-04-26T11:39:31.977Z</time></trkpt><trkpt lat="43.37014132923503" lon="10.649105107827095"><ele>177.39999999999998</ele><time>2026-04-26T11:39:32.977Z</time></trkpt><trkpt lat="43.37006487693232" lon="10.649117706269179"><ele>177.79999999999998</ele><time>2026-04-26T11:39:33.977Z</time></trkpt><trkpt lat="43.369968624630495" lon="10.649158519008374"><ele>178.2</ele><time>2026-04-26T11:39:35.977Z</time></trkpt><trkpt lat="43.3698753578039" lon="10.649308542560355"><ele>178.6</ele><time>2026-04-26T11:39:37.977Z</time></trkpt><trkpt lat="43.369818534256545" lon="10.649400716015553"><ele>179.0</ele><time>2026-04-26T11:39:38.977Z</time></trkpt><trkpt lat="43.36976825813307" lon="10.649479247421263"><ele>178.6</ele><time>2026-04-26T11:39:39.977Z</time></trkpt><trkpt lat="43.369715568267154" lon="10.649540280462945"><ele>178.2</ele><time>2026-04-26T11:39:40.977Z</time></trkpt><trkpt lat="43.36962913194136" lon="10.649578935781935"><ele>177.79999999999998</ele><time>2026-04-26T11:39:42.977Z</time></trkpt><trkpt lat="43.369475256222934" lon="10.649536900225735"><ele>177.39999999999998</ele><time>2026-04-26T11:39:44.977Z</time></trkpt><trkpt lat="43.36936359806784" lon="10.649502649382933"><ele>177.0</ele><time>2026-04-26T11:39:45.977Z</time></trkpt><trkpt lat="43.3692480386956" lon="10.64946438404729"><ele>178.2</ele><time>2026-04-26T11:39:46.977Z</time></trkpt><trkpt lat="43.36912091621897" lon="10.649418196936303"><ele>179.39999999999998</ele><time>2026-04-26T11:39:47.977Z</time></trkpt><trkpt lat="43.36899766841022" lon="10.649375553056206"><ele>180.60000000000002</ele><time>2026-04-26T11:39:48.977Z</time></trkpt><trkpt lat="43.36890287617829" lon="10.649336716998286"><ele>181.8</ele><time>2026-04-26T11:39:49.977Z</time></trkpt><trkpt lat="43.368839993322986" lon="10.64927557873216"><ele>183.0</ele><time>2026-04-26T11:39:50.977Z</time></trkpt><trkpt lat="43.36877669435201" lon="10.649231179239475"><ele>183.0</ele><time>2026-04-26T11:39:51.977Z</time></trkpt><trkpt lat="43.36869401386671" lon="10.649142236636692"><ele>183.0</ele><time>2026-04-26T11:39:53.977Z</time></trkpt><trkpt lat="43.36867605572762" lon="10.649011221855359"><ele>183.0</ele><time>2026-04-26T11:39:55.977Z</time></trkpt><trkpt lat="43.36865599098938" lon="10.64891598498907"><ele>183.0</ele><time>2026-04-26T11:39:56.977Z</time></trkpt><trkpt lat="43.36862041595131" lon="10.648781994254508"><ele>183.0</ele><time>2026-04-26T11:39:57.977Z</time></trkpt><trkpt lat="43.36858859471441" lon="10.648625019162274"><ele>185.0</ele><time>2026-04-26T11:39:58.977Z</time></trkpt><trkpt lat="43.36855368493478" lon="10.648472858933708"><ele>187.0</ele><time>2026-04-26T11:39:59.977Z</time></trkpt><trkpt lat="43.3685152502471" lon="10.648342175228494"><ele>189.0</ele><time>2026-04-26T11:40:00.977Z</time></trkpt><trkpt lat="43.36848978358224" lon="10.648239029868535"><ele>191.0</ele><time>2026-04-26T11:40:01.977Z</time></trkpt><trkpt lat="43.3683625921323" lon="10.648154478392033"><ele>193.0</ele><time>2026-04-26T11:40:03.977Z</time></trkpt><trkpt lat="43.36824449346552" lon="10.648150440613929"><ele>193.0</ele><time>2026-04-26T11:40:04.977Z</time></trkpt><trkpt lat="43.36812911362913" lon="10.6481283338173"><ele>193.0</ele><time>2026-04-26T11:40:05.977Z</time></trkpt><trkpt lat="43.368028417659865" lon="10.648025314312044"><ele>193.0</ele><time>2026-04-26T11:40:06.977Z</time></trkpt><trkpt lat="43.367938354817234" lon="10.64795010170257"><ele>193.0</ele><time>2026-04-26T11:40:07.977Z</time></trkpt><trkpt lat="43.36788111667326" lon="10.647890461028291"><ele>193.0</ele><time>2026-04-26T11:40:08.977Z</time></trkpt><trkpt lat="43.367821153934514" lon="10.647802959752592"><ele>191.4</ele><time>2026-04-26T11:40:10.977Z</time></trkpt><trkpt lat="43.36782760320829" lon="10.647705598767761"><ele>189.8</ele><time>2026-04-26T11:40:12.977Z</time></trkpt><trkpt lat="43.367879921300066" lon="10.647546037498012"><ele>188.2</ele><time>2026-04-26T11:40:14.977Z</time></trkpt><trkpt lat="43.36791424092536" lon="10.647444876022538"><ele>186.6</ele><time>2026-04-26T11:40:15.977Z</time></trkpt><trkpt lat="43.36795427461206" lon="10.647322450086458"><ele>185.0</ele><time>2026-04-26T11:40:16.977Z</time></trkpt><trkpt lat="43.36800771307611" lon="10.647202694604074"><ele>188.0</ele><time>2026-04-26T11:40:17.977Z</time></trkpt><trkpt lat="43.36807023576164" lon="10.647100226735907"><ele>191.0</ele><time>2026-04-26T11:40:18.977Z</time></trkpt><trkpt lat="43.36812870006601" lon="10.647011137693237"><ele>194.0</ele><time>2026-04-26T11:40:19.977Z</time></trkpt><trkpt lat="43.36817322260289" lon="10.6469184500724"><ele>197.0</ele><time>2026-04-26T11:40:20.977Z</time></trkpt><trkpt lat="43.36819861443237" lon="10.646818367435747"><ele>200.00000000000003</ele><time>2026-04-26T11:40:21.977Z</time></trkpt><trkpt lat="43.36821026484779" lon="10.646703056652367"><ele>203.0</ele><time>2026-04-26T11:40:22.977Z</time></trkpt><trkpt lat="43.36822545721202" lon="10.64660332819064"><ele>203.66666666666669</ele><time>2026-04-26T11:40:23.977Z</time></trkpt><trkpt lat="43.36826845422132" lon="10.64652120794206"><ele>204.33333333333334</ele><time>2026-04-26T11:40:24.977Z</time></trkpt><trkpt lat="43.36833217546882" lon="10.646454691085745"><ele>205.0</ele><time>2026-04-26T11:40:25.977Z</time></trkpt><trkpt lat="43.36840693035517" lon="10.646389110570736"><ele>205.66666666666669</ele><time>2026-04-26T11:40:26.977Z</time></trkpt><trkpt lat="43.36848680608649" lon="10.646316274478954"><ele>206.33333333333334</ele><time>2026-04-26T11:40:27.977Z</time></trkpt><trkpt lat="43.36856580474819" lon="10.646237212194915"><ele>207.0</ele><time>2026-04-26T11:40:28.977Z</time></trkpt><trkpt lat="43.36863613361539" lon="10.646161688594436"><ele>206.5</ele><time>2026-04-26T11:40:29.977Z</time></trkpt><trkpt lat="43.36869733041977" lon="10.646096800047534"><ele>206.0</ele><time>2026-04-26T11:40:30.977Z</time></trkpt><trkpt lat="43.36875310081266" lon="10.64602426184283"><ele>205.5</ele><time>2026-04-26T11:40:31.977Z</time></trkpt><trkpt lat="43.368800494158535" lon="10.645936622869014"><ele>205.0</ele><time>2026-04-26T11:40:32.977Z</time></trkpt><trkpt lat="43.36883497838089" lon="10.645846128396977"><ele>204.5</ele><time>2026-04-26T11:40:33.977Z</time></trkpt><trkpt lat="43.368862459067714" lon="10.645752831772729"><ele>204.0</ele><time>2026-04-26T11:40:34.977Z</time></trkpt><trkpt lat="43.368877229614235" lon="10.645650348562306"><ele>208.0</ele><time>2026-04-26T11:40:35.977Z</time></trkpt><trkpt lat="43.36887388015877" lon="10.645528181334809"><ele>212.0</ele><time>2026-04-26T11:40:36.977Z</time></trkpt><trkpt lat="43.36887981598985" lon="10.645414831215275"><ele>215.99999999999997</ele><time>2026-04-26T11:40:37.977Z</time></trkpt><trkpt lat="43.36889638285236" lon="10.645317678085716"><ele>220.0</ele><time>2026-04-26T11:40:38.977Z</time></trkpt><trkpt lat="43.368980578103404" lon="10.645201418997683"><ele>224.0</ele><time>2026-04-26T11:40:40.977Z</time></trkpt><trkpt lat="43.369100006635044" lon="10.64514492504051"><ele>224.0</ele><time>2026-04-26T11:40:42.977Z</time></trkpt><trkpt lat="43.369181659477015" lon="10.645108485004735"><ele>223.99999999999997</ele><time>2026-04-26T11:40:43.977Z</time></trkpt><trkpt lat="43.3692870345171" lon="10.645026982365636"><ele>223.99999999999997</ele><time>2026-04-26T11:40:45.977Z</time></trkpt><trkpt lat="43.36930847974727" lon="10.644858800824966"><ele>224.0</ele><time>2026-04-26T11:40:47.977Z</time></trkpt><trkpt lat="43.36930536670032" lon="10.644756614771378"><ele>224.0</ele><time>2026-04-26T11:40:48.977Z</time></trkpt><trkpt lat="43.369287038225664" lon="10.644653433399318"><ele>224.0</ele><time>2026-04-26T11:40:49.977Z</time></trkpt><trkpt lat="43.369248346892995" lon="10.64454196863116"><ele>223.99999999999997</ele><time>2026-04-26T11:40:50.977Z</time></trkpt><trkpt lat="43.36920378259559" lon="10.64445641115897"><ele>223.99999999999997</ele><time>2026-04-26T11:40:51.977Z</time></trkpt><trkpt lat="43.36912618160839" lon="10.64439618157862"><ele>224.0</ele><time>2026-04-26T11:40:52.977Z</time></trkpt><trkpt lat="43.36903479956036" lon="10.644308525116294"><ele>224.0</ele><time>2026-04-26T11:40:53.977Z</time></trkpt><trkpt lat="43.36895999921311" lon="10.644236654379633"><ele>226.0</ele><time>2026-04-26T11:40:54.977Z</time></trkpt><trkpt lat="43.36891811166165" lon="10.644159058571798"><ele>227.99999999999997</ele><time>2026-04-26T11:40:55.977Z</time></trkpt><trkpt lat="43.368894152788826" lon="10.64404571493755"><ele>229.99999999999997</ele><time>2026-04-26T11:40:56.977Z</time></trkpt><trkpt lat="43.36887670286067" lon="10.643906988178209"><ele>232.0</ele><time>2026-04-26T11:40:57.977Z</time></trkpt><trkpt lat="43.36886297012718" lon="10.643761290470627"><ele>234.0</ele><time>2026-04-26T11:40:58.978Z</time></trkpt><trkpt lat="43.36877690316978" lon="10.643618108253492"><ele>234.75</ele><time>2026-04-26T11:41:00.975Z</time></trkpt><trkpt lat="43.36862938090694" lon="10.643640634097974"><ele>235.5</ele><time>2026-04-26T11:41:01.975Z</time></trkpt><trkpt lat="43.3685454703843" lon="10.643550439868184"><ele>236.25</ele><time>2026-04-26T11:41:02.975Z</time></trkpt><trkpt lat="43.368455714216864" lon="10.643480312425982"><ele>237.0</ele><time>2026-04-26T11:41:03.975Z</time></trkpt><trkpt lat="43.36835793931223" lon="10.643407634295299"><ele>237.0</ele><time>2026-04-26T11:41:04.975Z</time></trkpt><trkpt lat="43.368270656029416" lon="10.643348695018203"><ele>237.0</ele><time>2026-04-26T11:41:05.975Z</time></trkpt><trkpt lat="43.36819163744544" lon="10.643322032690198"><ele>237.0</ele><time>2026-04-26T11:41:06.975Z</time></trkpt><trkpt lat="43.368103451129976" lon="10.643243969590188"><ele>237.0</ele><time>2026-04-26T11:41:07.975Z</time></trkpt><trkpt lat="43.367994978358816" lon="10.643171877586559"><ele>237.0</ele><time>2026-04-26T11:41:08.975Z</time></trkpt><trkpt lat="43.36788944186431" lon="10.643109387709146"><ele>238.2</ele><time>2026-04-26T11:41:09.975Z</time></trkpt><trkpt lat="43.36779317095658" lon="10.643045907526156"><ele>239.39999999999998</ele><time>2026-04-26T11:41:10.975Z</time></trkpt><trkpt lat="43.367700583960215" lon="10.642988249146548"><ele>240.60000000000002</ele><time>2026-04-26T11:41:11.975Z</time></trkpt><trkpt lat="43.367599555718066" lon="10.642916249785593"><ele>241.8</ele><time>2026-04-26T11:41:12.975Z</time></trkpt><trkpt lat="43.367504224781555" lon="10.642842967438082"><ele>243.0</ele><time>2026-04-26T11:41:13.975Z</time></trkpt><trkpt lat="43.36740651611597" lon="10.642759711815163"><ele>243.0</ele><time>2026-04-26T11:41:14.975Z</time></trkpt><trkpt lat="43.367332326641645" lon="10.64266164798954"><ele>243.0</ele><time>2026-04-26T11:41:15.975Z</time></trkpt><trkpt lat="43.36723849029665" lon="10.642593092563091"><ele>243.0</ele><time>2026-04-26T11:41:16.975Z</time></trkpt><trkpt lat="43.36714446672863" lon="10.642517909105596"><ele>243.0</ele><time>2026-04-26T11:41:17.975Z</time></trkpt><trkpt lat="43.36704607993139" lon="10.642458335423928"><ele>243.0</ele><time>2026-04-26T11:41:18.975Z</time></trkpt><trkpt lat="43.36693898761614" lon="10.642405976479788"><ele>241.0</ele><time>2026-04-26T11:41:19.975Z</time></trkpt><trkpt lat="43.366828498481624" lon="10.642376352084046"><ele>239.0</ele><time>2026-04-26T11:41:20.975Z</time></trkpt><trkpt lat="43.366706485211004" lon="10.642357690060257"><ele>237.0</ele><time>2026-04-26T11:41:21.975Z</time></trkpt><trkpt lat="43.36657481531188" lon="10.64233390822996"><ele>235.0</ele><time>2026-04-26T11:41:22.975Z</time></trkpt><trkpt lat="43.366426503453816" lon="10.642331668098267"><ele>234.75</ele><time>2026-04-26T11:41:23.975Z</time></trkpt><trkpt lat="43.36627773009109" lon="10.642295208651497"><ele>234.5</ele><time>2026-04-26T11:41:24.975Z</time></trkpt><trkpt lat="43.36614912663831" lon="10.64228038701611"><ele>234.25</ele><time>2026-04-26T11:41:25.975Z</time></trkpt><trkpt lat="43.366037971027524" lon="10.642267798127445"><ele>234.0</ele><time>2026-04-26T11:41:26.975Z</time></trkpt><trkpt lat="43.3659241783581" lon="10.64224898275959"><ele>234.0</ele><time>2026-04-26T11:41:27.975Z</time></trkpt><trkpt lat="43.36581173995874" lon="10.642218776964654"><ele>233.99999999999997</ele><time>2026-04-26T11:41:28.975Z</time></trkpt><trkpt lat="43.36571636083973" lon="10.642179460267604"><ele>233.99999999999997</ele><time>2026-04-26T11:41:29.975Z</time></trkpt><trkpt lat="43.365650873569756" lon="10.642147355769048"><ele>234.0</ele><time>2026-04-26T11:41:30.975Z</time></trkpt><trkpt lat="43.36555677915887" lon="10.642094062773957"><ele>234.0</ele><time>2026-04-26T11:41:32.975Z</time></trkpt><trkpt lat="43.36549407592552" lon="10.641984369127886"><ele>236.6</ele><time>2026-04-26T11:41:34.975Z</time></trkpt><trkpt lat="43.36542735235971" lon="10.641835415096935"><ele>239.2</ele><time>2026-04-26T11:41:36.975Z</time></trkpt><trkpt lat="43.36539568357905" lon="10.64173487407263"><ele>241.79999999999998</ele><time>2026-04-26T11:41:37.975Z</time></trkpt><trkpt lat="43.36539563808177" lon="10.64161534610412"><ele>244.39999999999998</ele><time>2026-04-26T11:41:39.975Z</time></trkpt><trkpt lat="43.36537254480151" lon="10.64149015339606"><ele>247.0</ele><time>2026-04-26T11:41:41.975Z</time></trkpt><trkpt lat="43.3653600896054" lon="10.641404830293173"><ele>247.0</ele><time>2026-04-26T11:41:42.975Z</time></trkpt><trkpt lat="43.365335962397275" lon="10.641242986028676"><ele>247.0</ele><time>2026-04-26T11:41:44.975Z</time></trkpt><trkpt lat="43.36531824022645" lon="10.64110067198036"><ele>247.0</ele><time>2026-04-26T11:41:46.975Z</time></trkpt><trkpt lat="43.36573821696444" lon="10.640909119815262"><ele>245.33333333333331</ele><time>2026-04-26T11:41:48.975Z</time></trkpt><trkpt lat="43.365828438262" lon="10.640847893454113"><ele>243.66666666666666</ele><time>2026-04-26T11:41:50.975Z</time></trkpt><trkpt lat="43.36589972016031" lon="10.640811189439617"><ele>242.0</ele><time>2026-04-26T11:41:52.975Z</time></trkpt><trkpt lat="43.36595850409082" lon="10.640759294353971"><ele>240.33333333333331</ele><time>2026-04-26T11:42:38.976Z</time></trkpt><trkpt lat="43.36590319268767" lon="10.640693542724591"><ele>238.66666666666666</ele><time>2026-04-26T11:42:44.976Z</time></trkpt><trkpt lat="43.36583321852391" lon="10.64070267237172"><ele>237.0</ele><time>2026-04-26T11:42:46.976Z</time></trkpt><trkpt lat="43.36574515103097" lon="10.640708959966545"><ele>237.0</ele><time>2026-04-26T11:42:48.976Z</time></trkpt><trkpt lat="43.365656195912116" lon="10.640712198580845"><ele>237.0</ele><time>2026-04-26T11:42:50.976Z</time></trkpt><trkpt lat="43.36559023786655" lon="10.640715423727146"><ele>237.0</ele><time>2026-04-26T11:42:51.976Z</time></trkpt><trkpt lat="43.36548953498253" lon="10.640754816201355"><ele>237.0</ele><time>2026-04-26T11:42:53.976Z</time></trkpt><trkpt lat="43.36539606457837" lon="10.640790596834904"><ele>237.0</ele><time>2026-04-26T11:42:55.976Z</time></trkpt><trkpt lat="43.36533469849952" lon="10.640810958603677"><ele>237.0</ele><time>2026-04-26T11:42:56.976Z</time></trkpt><trkpt lat="43.365246397467416" lon="10.640812279547346"><ele>236.0</ele><time>2026-04-26T11:42:58.976Z</time></trkpt><trkpt lat="43.365203706961765" lon="10.640729717298695"><ele>235.0</ele><time>2026-04-26T11:43:00.976Z</time></trkpt><trkpt lat="43.365137035056904" lon="10.640721440563755"><ele>234.0</ele><time>2026-04-26T11:43:02.976Z</time></trkpt><trkpt lat="43.365022805338086" lon="10.640684409202688"><ele>233.0</ele><time>2026-04-26T11:43:04.976Z</time></trkpt><trkpt lat="43.364940099637415" lon="10.64066283963769"><ele>232.0</ele><time>2026-04-26T11:43:05.973Z</time></trkpt><trkpt lat="43.36485348032009" lon="10.640658330527781"><ele>231.0</ele><time>2026-04-26T11:43:06.973Z</time></trkpt><trkpt lat="43.36477176121577" lon="10.64065494611587"><ele>230.66666666666666</ele><time>2026-04-26T11:43:07.973Z</time></trkpt><trkpt lat="43.36467943701046" lon="10.640655302960614"><ele>230.33333333333331</ele><time>2026-04-26T11:43:08.973Z</time></trkpt><trkpt lat="43.36459622032708" lon="10.640694212661758"><ele>230.0</ele><time>2026-04-26T11:43:09.973Z</time></trkpt><trkpt lat="43.364512666680454" lon="10.64071601921577"><ele>229.66666666666666</ele><time>2026-04-26T11:43:10.973Z</time></trkpt><trkpt lat="43.36443217080541" lon="10.64074529665069"><ele>229.33333333333331</ele><time>2026-04-26T11:43:11.973Z</time></trkpt><trkpt lat="43.3643420197589" lon="10.640759473956656"><ele>229.0</ele><time>2026-04-26T11:43:12.973Z</time></trkpt><trkpt lat="43.36425763836817" lon="10.640795447579686"><ele>228.99999999999997</ele><time>2026-04-26T11:43:13.973Z</time></trkpt><trkpt lat="43.36416939657549" lon="10.640834141010005"><ele>229.0</ele><time>2026-04-26T11:43:14.973Z</time></trkpt><trkpt lat="43.3640772359789" lon="10.640856829009994"><ele>229.0</ele><time>2026-04-26T11:43:15.973Z</time></trkpt><trkpt lat="43.364003778793574" lon="10.640897940043278"><ele>229.0</ele><time>2026-04-26T11:43:16.973Z</time></trkpt><trkpt lat="43.36394382374804" lon="10.640928458597841"><ele>228.99999999999997</ele><time>2026-04-26T11:43:17.972Z</time></trkpt><trkpt lat="43.36388437732969" lon="10.640968929050933"><ele>229.0</ele><time>2026-04-26T11:43:18.972Z</time></trkpt><trkpt lat="43.36379313935046" lon="10.641096608982359"><ele>230.14285714285714</ele><time>2026-04-26T11:43:20.972Z</time></trkpt><trkpt lat="43.36374962171159" lon="10.641166438283857"><ele>231.28571428571428</ele><time>2026-04-26T11:43:21.972Z</time></trkpt><trkpt lat="43.36370343729361" lon="10.641234573861055"><ele>232.42857142857142</ele><time>2026-04-26T11:43:22.972Z</time></trkpt><trkpt lat="43.36365432160113" lon="10.641300643541376"><ele>233.57142857142856</ele><time>2026-04-26T11:43:23.972Z</time></trkpt><trkpt lat="43.36359688896306" lon="10.641359986933885"><ele>234.71428571428572</ele><time>2026-04-26T11:43:24.973Z</time></trkpt><trkpt lat="43.36352795579913" lon="10.641375661016507"><ele>235.85714285714283</ele><time>2026-04-26T11:43:25.973Z</time></trkpt><trkpt lat="43.36345605179423" lon="10.641399820066853"><ele>236.99999999999997</ele><time>2026-04-26T11:43:26.973Z</time></trkpt><trkpt lat="43.36337953377093" lon="10.64142007464513"><ele>237.0</ele><time>2026-04-26T11:43:27.973Z</time></trkpt><trkpt lat="43.3632653272089" lon="10.641425799861205"><ele>237.0</ele><time>2026-04-26T11:43:29.973Z</time></trkpt><trkpt lat="43.36316195882176" lon="10.64142382648841"><ele>237.0</ele><time>2026-04-26T11:43:31.973Z</time></trkpt><trkpt lat="43.363064358170796" lon="10.64141718745692"><ele>237.0</ele><time>2026-04-26T11:43:33.973Z</time></trkpt><trkpt lat="43.36296213803799" lon="10.641375028618889"><ele>237.0</ele><time>2026-04-26T11:43:35.973Z</time></trkpt><trkpt lat="43.36286890561326" lon="10.641270989184877"><ele>235.39999999999998</ele><time>2026-04-26T11:43:37.973Z</time></trkpt><trkpt lat="43.36274989185112" lon="10.6412423625969"><ele>233.79999999999998</ele><time>2026-04-26T11:43:39.973Z</time></trkpt><trkpt lat="43.36266230865442" lon="10.64125396747654"><ele>232.2</ele><time>2026-04-26T11:43:40.973Z</time></trkpt><trkpt lat="43.362562792199824" lon="10.64126068840879"><ele>230.6</ele><time>2026-04-26T11:43:41.973Z</time></trkpt><trkpt lat="43.36247019887274" lon="10.641283314708945"><ele>229.0</ele><time>2026-04-26T11:43:42.973Z</time></trkpt><trkpt lat="43.36237916769972" lon="10.641297851367492"><ele>229.0</ele><time>2026-04-26T11:43:43.973Z</time></trkpt><trkpt lat="43.362286791611545" lon="10.641317005285547"><ele>228.99999999999997</ele><time>2026-04-26T11:43:44.973Z</time></trkpt><trkpt lat="43.36218821352825" lon="10.641349366825823"><ele>228.99999999999997</ele><time>2026-04-26T11:43:45.973Z</time></trkpt><trkpt lat="43.3620821926511" lon="10.641385130708857"><ele>229.0</ele><time>2026-04-26T11:43:46.973Z</time></trkpt><trkpt lat="43.36198813468666" lon="10.64140947587462"><ele>229.0</ele><time>2026-04-26T11:43:47.973Z</time></trkpt><trkpt lat="43.36189616084954" lon="10.641417723878755"><ele>227.0</ele><time>2026-04-26T11:43:48.973Z</time></trkpt><trkpt lat="43.36181731908229" lon="10.641410605351865"><ele>224.99999999999997</ele><time>2026-04-26T11:43:49.973Z</time></trkpt><trkpt lat="43.36173811936987" lon="10.64138661315979"><ele>222.99999999999997</ele><time>2026-04-26T11:43:50.973Z</time></trkpt><trkpt lat="43.36165360745809" lon="10.641347956219429"><ele>221.0</ele><time>2026-04-26T11:43:51.973Z</time></trkpt><trkpt lat="43.361555619310764" lon="10.64129952675524"><ele>219.0</ele><time>2026-04-26T11:43:52.973Z</time></trkpt><trkpt lat="43.36145589757844" lon="10.641259863093607"><ele>219.0</ele><time>2026-04-26T11:43:53.973Z</time></trkpt><trkpt lat="43.36136681258481" lon="10.641226488759134"><ele>219.0</ele><time>2026-04-26T11:43:54.973Z</time></trkpt><trkpt lat="43.36130237749352" lon="10.641192070833759"><ele>219.0</ele><time>2026-04-26T11:43:55.973Z</time></trkpt><trkpt lat="43.36123363014157" lon="10.6411544774264"><ele>219.0</ele><time>2026-04-26T11:43:56.973Z</time></trkpt><trkpt lat="43.36115889776194" lon="10.641093133447804"><ele>219.0</ele><time>2026-04-26T11:43:57.973Z</time></trkpt><trkpt lat="43.36108593433974" lon="10.641000199019803"><ele>219.0</ele><time>2026-04-26T11:43:58.973Z</time></trkpt><trkpt lat="43.3610054546759" lon="10.640947697900058"><ele>218.79999999999998</ele><time>2026-04-26T11:43:59.973Z</time></trkpt><trkpt lat="43.36092909467349" lon="10.640880423276213"><ele>218.59999999999997</ele><time>2026-04-26T11:44:00.973Z</time></trkpt><trkpt lat="43.36083645964303" lon="10.64081237145214"><ele>218.4</ele><time>2026-04-26T11:44:01.973Z</time></trkpt><trkpt lat="43.36074031122714" lon="10.640729160642966"><ele>218.2</ele><time>2026-04-26T11:44:02.973Z</time></trkpt><trkpt lat="43.36064769467355" lon="10.64064861779897"><ele>218.0</ele><time>2026-04-26T11:44:03.973Z</time></trkpt><trkpt lat="43.36055885384194" lon="10.640566330277439"><ele>218.4</ele><time>2026-04-26T11:44:04.973Z</time></trkpt><trkpt lat="43.360457499287364" lon="10.640486992155697"><ele>218.8</ele><time>2026-04-26T11:44:05.973Z</time></trkpt><trkpt lat="43.36036473878225" lon="10.640406191390388"><ele>219.2</ele><time>2026-04-26T11:44:06.973Z</time></trkpt><trkpt lat="43.36027800815994" lon="10.64033638523554"><ele>219.6</ele><time>2026-04-26T11:44:07.973Z</time></trkpt><trkpt lat="43.360213493749384" lon="10.64026980927984"><ele>220.0</ele><time>2026-04-26T11:44:08.973Z</time></trkpt><trkpt lat="43.36015047642937" lon="10.640214042305596"><ele>219.99999999999997</ele><time>2026-04-26T11:44:09.973Z</time></trkpt><trkpt lat="43.360104554036724" lon="10.640153398013247"><ele>220.0</ele><time>2026-04-26T11:44:10.973Z</time></trkpt><trkpt lat="43.3600922765218" lon="10.640062558468323"><ele>220.0</ele><time>2026-04-26T11:44:11.973Z</time></trkpt><trkpt lat="43.36007395233097" lon="10.639975354012694"><ele>220.0</ele><time>2026-04-26T11:44:12.973Z</time></trkpt><trkpt lat="43.360047872963165" lon="10.639894157477917"><ele>220.0</ele><time>2026-04-26T11:44:13.973Z</time></trkpt><trkpt lat="43.360042479416975" lon="10.639786338690115"><ele>219.99999999999997</ele><time>2026-04-26T11:44:14.973Z</time></trkpt><trkpt lat="43.36002876415929" lon="10.6396662121361"><ele>220.0</ele><time>2026-04-26T11:44:15.973Z</time></trkpt><trkpt lat="43.360006064851156" lon="10.639552002167184"><ele>220.0</ele><time>2026-04-26T11:44:16.973Z</time></trkpt><trkpt lat="43.35997389060708" lon="10.639470463706992"><ele>220.0</ele><time>2026-04-26T11:44:17.973Z</time></trkpt><trkpt lat="43.35991957612768" lon="10.6393500341404"><ele>220.0</ele><time>2026-04-26T11:44:19.973Z</time></trkpt><trkpt lat="43.35983862258369" lon="10.639303363366981"><ele>220.0</ele><time>2026-04-26T11:44:20.973Z</time></trkpt><trkpt lat="43.35973437910328" lon="10.63931153863366"><ele>220.0</ele><time>2026-04-26T11:44:21.973Z</time></trkpt><trkpt lat="43.35964166848106" lon="10.639325244198838"><ele>220.4</ele><time>2026-04-26T11:44:22.973Z</time></trkpt><trkpt lat="43.35953497926279" lon="10.63933484037902"><ele>220.8</ele><time>2026-04-26T11:44:23.973Z</time></trkpt><trkpt lat="43.359426239633095" lon="10.639349221425805"><ele>221.2</ele><time>2026-04-26T11:44:24.973Z</time></trkpt><trkpt lat="43.359332293651114" lon="10.63939181575363"><ele>221.6</ele><time>2026-04-26T11:44:25.973Z</time></trkpt><trkpt lat="43.35925359727718" lon="10.63948049438938"><ele>222.0</ele><time>2026-04-26T11:44:26.973Z</time></trkpt><trkpt lat="43.35917665783817" lon="10.639566848702643"><ele>222.0</ele><time>2026-04-26T11:44:27.973Z</time></trkpt><trkpt lat="43.35911176234452" lon="10.63967058229177"><ele>222.0</ele><time>2026-04-26T11:44:28.973Z</time></trkpt><trkpt lat="43.35904693511728" lon="10.639727686448492"><ele>222.0</ele><time>2026-04-26T11:44:29.973Z</time></trkpt><trkpt lat="43.35899757686371" lon="10.639792079441678"><ele>222.0</ele><time>2026-04-26T11:44:30.973Z</time></trkpt><trkpt lat="43.3589313315133" lon="10.639874997600147"><ele>222.0</ele><time>2026-04-26T11:44:31.973Z</time></trkpt><trkpt lat="43.35887951563238" lon="10.639935579188803"><ele>222.0</ele><time>2026-04-26T11:44:32.973Z</time></trkpt><trkpt lat="43.35880198073688" lon="10.639987611872934"><ele>222.0</ele><time>2026-04-26T11:44:33.973Z</time></trkpt><trkpt lat="43.35872556520811" lon="10.640054879158157"><ele>222.0</ele><time>2026-04-26T11:44:34.973Z</time></trkpt><trkpt lat="43.35864907131363" lon="10.640126316618582"><ele>222.0</ele><time>2026-04-26T11:44:35.973Z</time></trkpt><trkpt lat="43.35858896380348" lon="10.640180572472518"><ele>222.0</ele><time>2026-04-26T11:44:36.973Z</time></trkpt><trkpt lat="43.35851495706878" lon="10.640203277841229"><ele>222.0</ele><time>2026-04-26T11:44:38.973Z</time></trkpt><trkpt lat="43.3584519137237" lon="10.64020811099866"><ele>222.0</ele><time>2026-04-26T11:44:39.973Z</time></trkpt><trkpt lat="43.35837434046578" lon="10.640203024227638"><ele>222.0</ele><time>2026-04-26T11:44:40.973Z</time></trkpt><trkpt lat="43.3582874558783" lon="10.640174655880418"><ele>222.0</ele><time>2026-04-26T11:44:41.973Z</time></trkpt><trkpt lat="43.35819600386665" lon="10.640132030074932"><ele>222.0</ele><time>2026-04-26T11:44:42.973Z</time></trkpt><trkpt lat="43.35810153460076" lon="10.640099238994756"><ele>222.0</ele><time>2026-04-26T11:44:43.973Z</time></trkpt><trkpt lat="43.35801339661765" lon="10.640092035157572"><ele>222.0</ele><time>2026-04-26T11:44:44.973Z</time></trkpt><trkpt lat="43.35794530200725" lon="10.64010209300123"><ele>222.0</ele><time>2026-04-26T11:44:45.973Z</time></trkpt><trkpt lat="43.357868495109834" lon="10.640126569557303"><ele>222.8</ele><time>2026-04-26T11:44:46.973Z</time></trkpt><trkpt lat="43.35779126987116" lon="10.640161955947127"><ele>223.6</ele><time>2026-04-26T11:44:47.973Z</time></trkpt><trkpt lat="43.35770891631444" lon="10.640170480867337"><ele>224.40000000000003</ele><time>2026-04-26T11:44:48.973Z</time></trkpt><trkpt lat="43.35757193511838" lon="10.640169978272269"><ele>225.20000000000002</ele><time>2026-04-26T11:44:50.973Z</time></trkpt><trkpt lat="43.35750473014638" lon="10.64013629324895"><ele>226.0</ele><time>2026-04-26T11:44:51.973Z</time></trkpt><trkpt lat="43.35742559148938" lon="10.640089191274818"><ele>226.0</ele><time>2026-04-26T11:44:52.973Z</time></trkpt><trkpt lat="43.35734698431601" lon="10.640030238114672"><ele>226.00000000000003</ele><time>2026-04-26T11:44:53.973Z</time></trkpt><trkpt lat="43.35727313383714" lon="10.639969028632438"><ele>226.00000000000003</ele><time>2026-04-26T11:44:54.973Z</time></trkpt><trkpt lat="43.35719281890105" lon="10.639823425825842"><ele>226.0</ele><time>2026-04-26T11:44:56.973Z</time></trkpt><trkpt lat="43.35716062747577" lon="10.639734301683895"><ele>226.0</ele><time>2026-04-26T11:44:57.973Z</time></trkpt><trkpt lat="43.35711972041934" lon="10.639636616252"><ele>226.16666666666666</ele><time>2026-04-26T11:44:58.973Z</time></trkpt><trkpt lat="43.357074478004925" lon="10.639547070546454"><ele>226.33333333333331</ele><time>2026-04-26T11:44:59.973Z</time></trkpt><trkpt lat="43.35702527118516" lon="10.639453267580569"><ele>226.5</ele><time>2026-04-26T11:45:00.973Z</time></trkpt><trkpt lat="43.35697547206344" lon="10.639367770099428"><ele>226.66666666666669</ele><time>2026-04-26T11:45:01.973Z</time></trkpt><trkpt lat="43.35691756478444" lon="10.639300258378135"><ele>226.83333333333334</ele><time>2026-04-26T11:45:02.973Z</time></trkpt><trkpt lat="43.35685419667544" lon="10.639246165697124"><ele>227.0</ele><time>2026-04-26T11:45:03.973Z</time></trkpt><trkpt lat="43.356781414286324" lon="10.639188523514262"><ele>227.00000000000003</ele><time>2026-04-26T11:45:04.973Z</time></trkpt><trkpt lat="43.356690720572665" lon="10.639124229629218"><ele>227.0</ele><time>2026-04-26T11:45:05.973Z</time></trkpt><trkpt lat="43.35662236132264" lon="10.639033761395664"><ele>227.0</ele><time>2026-04-26T11:45:06.973Z</time></trkpt><trkpt lat="43.356565615729444" lon="10.638993236839292"><ele>227.0</ele><time>2026-04-26T11:45:07.973Z</time></trkpt><trkpt lat="43.356466144022264" lon="10.63895997947755"><ele>227.00000000000003</ele><time>2026-04-26T11:45:09.973Z</time></trkpt><trkpt lat="43.35639874269442" lon="10.638924215857935"><ele>227.0</ele><time>2026-04-26T11:45:10.973Z</time></trkpt><trkpt lat="43.35632234987169" lon="10.638912780840641"><ele>225.0</ele><time>2026-04-26T11:45:11.971Z</time></trkpt><trkpt lat="43.3562292683392" lon="10.638925645984706"><ele>223.0</ele><time>2026-04-26T11:45:12.97Z</time></trkpt><trkpt lat="43.356113275328916" lon="10.638896771960972"><ele>221.0</ele><time>2026-04-26T11:45:13.97Z</time></trkpt><trkpt lat="43.35601626019766" lon="10.638888440914855"><ele>219.0</ele><time>2026-04-26T11:45:14.971Z</time></trkpt><trkpt lat="43.35593096216085" lon="10.638878447914834"><ele>217.0</ele><time>2026-04-26T11:45:15.971Z</time></trkpt><trkpt lat="43.35585736228814" lon="10.638888603434246"><ele>216.99999999999997</ele><time>2026-04-26T11:45:16.971Z</time></trkpt><trkpt lat="43.355779309832606" lon="10.63887399339278"><ele>217.0</ele><time>2026-04-26T11:45:17.97Z</time></trkpt><trkpt lat="43.35569610143727" lon="10.638895813202067"><ele>217.0</ele><time>2026-04-26T11:45:18.97Z</time></trkpt><trkpt lat="43.3556194445008" lon="10.638924836182351"><ele>217.0</ele><time>2026-04-26T11:45:19.97Z</time></trkpt><trkpt lat="43.35551991068021" lon="10.63896335333539"><ele>216.99999999999997</ele><time>2026-04-26T11:45:20.971Z</time></trkpt><trkpt lat="43.35544164534044" lon="10.639006967697279"><ele>217.0</ele><time>2026-04-26T11:45:21.97Z</time></trkpt><trkpt lat="43.355366388330246" lon="10.63903195860005"><ele>216.39999999999998</ele><time>2026-04-26T11:45:22.97Z</time></trkpt><trkpt lat="43.35529757233826" lon="10.639056416135233"><ele>215.79999999999998</ele><time>2026-04-26T11:45:23.97Z</time></trkpt><trkpt lat="43.35518609932239" lon="10.639007962755466"><ele>215.2</ele><time>2026-04-26T11:45:25.971Z</time></trkpt><trkpt lat="43.355088373809345" lon="10.638884652156584"><ele>214.6</ele><time>2026-04-26T11:45:27.971Z</time></trkpt><trkpt lat="43.355023150997866" lon="10.638809679923574"><ele>214.0</ele><time>2026-04-26T11:45:28.971Z</time></trkpt><trkpt lat="43.35497127307103" lon="10.63872388500379"><ele>214.0</ele><time>2026-04-26T11:45:29.971Z</time></trkpt><trkpt lat="43.354913370409456" lon="10.638638707538949"><ele>213.99999999999997</ele><time>2026-04-26T11:45:30.971Z</time></trkpt><trkpt lat="43.35486325201808" lon="10.638569272925293"><ele>213.99999999999997</ele><time>2026-04-26T11:45:31.971Z</time></trkpt><trkpt lat="43.35476686552989" lon="10.638467021128363"><ele>214.0</ele><time>2026-04-26T11:45:33.971Z</time></trkpt><trkpt lat="43.35467772048708" lon="10.638393172169502"><ele>214.0</ele><time>2026-04-26T11:45:35.971Z</time></trkpt><trkpt lat="43.354608700296026" lon="10.638361025365663"><ele>212.49999999999997</ele><time>2026-04-26T11:45:36.971Z</time></trkpt><trkpt lat="43.35453086798692" lon="10.638309413110356"><ele>211.0</ele><time>2026-04-26T11:45:37.971Z</time></trkpt><trkpt lat="43.354437247784546" lon="10.638292873306185"><ele>209.5</ele><time>2026-04-26T11:45:38.971Z</time></trkpt><trkpt lat="43.35435370166586" lon="10.638284791006395"><ele>208.0</ele><time>2026-04-26T11:45:39.971Z</time></trkpt><trkpt lat="43.354277929512165" lon="10.638305795195329"><ele>206.49999999999997</ele><time>2026-04-26T11:45:40.971Z</time></trkpt><trkpt lat="43.35420448199109" lon="10.638284900113401"><ele>205.0</ele><time>2026-04-26T11:45:41.971Z</time></trkpt><trkpt lat="43.35412349416362" lon="10.638272136416697"><ele>205.0</ele><time>2026-04-26T11:45:42.971Z</time></trkpt><trkpt lat="43.353998999090166" lon="10.63824134500697"><ele>205.0</ele><time>2026-04-26T11:45:44.971Z</time></trkpt><trkpt lat="43.35387459786554" lon="10.63820181411943"><ele>205.0</ele><time>2026-04-26T11:45:46.971Z</time></trkpt><trkpt lat="43.35380734575529" lon="10.638183996434323"><ele>205.0</ele><time>2026-04-26T11:45:47.971Z</time></trkpt><trkpt lat="43.35373047790781" lon="10.638168533772449"><ele>205.0</ele><time>2026-04-26T11:45:48.971Z</time></trkpt><trkpt lat="43.35364212963177" lon="10.638137256456723"><ele>201.83333333333331</ele><time>2026-04-26T11:45:49.971Z</time></trkpt><trkpt lat="43.35356946290284" lon="10.638118826457937"><ele>198.66666666666666</ele><time>2026-04-26T11:45:50.971Z</time></trkpt><trkpt lat="43.353496520702805" lon="10.638099307510425"><ele>195.5</ele><time>2026-04-26T11:45:51.971Z</time></trkpt><trkpt lat="43.35342045807255" lon="10.638095759832112"><ele>192.33333333333331</ele><time>2026-04-26T11:45:52.971Z</time></trkpt><trkpt lat="43.353351079567815" lon="10.638077180585709"><ele>189.16666666666666</ele><time>2026-04-26T11:45:53.971Z</time></trkpt><trkpt lat="43.35327776051554" lon="10.638082386796079"><ele>186.0</ele><time>2026-04-26T11:45:54.971Z</time></trkpt><trkpt lat="43.35319173049432" lon="10.638111199257155"><ele>186.00000000000003</ele><time>2026-04-26T11:45:55.971Z</time></trkpt><trkpt lat="43.35311455256624" lon="10.638151103430781"><ele>186.0</ele><time>2026-04-26T11:45:56.971Z</time></trkpt><trkpt lat="43.353043793185044" lon="10.638187039482206"><ele>186.0</ele><time>2026-04-26T11:45:57.971Z</time></trkpt><trkpt lat="43.35298377913816" lon="10.638216228521207"><ele>186.0</ele><time>2026-04-26T11:45:58.971Z</time></trkpt><trkpt lat="43.35292608488483" lon="10.638253383241821"><ele>186.0</ele><time>2026-04-26T11:45:59.971Z</time></trkpt><trkpt lat="43.3528515417365" lon="10.638224421852662"><ele>186.00000000000003</ele><time>2026-04-26T11:46:00.971Z</time></trkpt><trkpt lat="43.3527732585296" lon="10.638248050231146"><ele>186.0</ele><time>2026-04-26T11:46:01.971Z</time></trkpt><trkpt lat="43.35269830931988" lon="10.638282025795544"><ele>184.5</ele><time>2026-04-26T11:46:02.971Z</time></trkpt><trkpt lat="43.352619692547854" lon="10.638285905156444"><ele>183.0</ele><time>2026-04-26T11:46:03.971Z</time></trkpt><trkpt lat="43.352539811633356" lon="10.638278971345487"><ele>181.5</ele><time>2026-04-26T11:46:04.971Z</time></trkpt><trkpt lat="43.35245502254421" lon="10.638256139456761"><ele>180.0</ele><time>2026-04-26T11:46:05.971Z</time></trkpt><trkpt lat="43.352353878403825" lon="10.638222810556952"><ele>178.5</ele><time>2026-04-26T11:46:06.971Z</time></trkpt><trkpt lat="43.35225557547059" lon="10.638196719799456"><ele>177.0</ele><time>2026-04-26T11:46:07.971Z</time></trkpt><trkpt lat="43.35215660968157" lon="10.638168038975245"><ele>177.0</ele><time>2026-04-26T11:46:08.971Z</time></trkpt><trkpt lat="43.35205341507066" lon="10.638189473960495"><ele>177.0</ele><time>2026-04-26T11:46:09.971Z</time></trkpt><trkpt lat="43.351973322400696" lon="10.638165241708936"><ele>177.0</ele><time>2026-04-26T11:46:10.971Z</time></trkpt><trkpt lat="43.351894804040775" lon="10.638112874738226"><ele>177.0</ele><time>2026-04-26T11:46:11.971Z</time></trkpt><trkpt lat="43.35181773000135" lon="10.63805121385221"><ele>177.0</ele><time>2026-04-26T11:46:12.971Z</time></trkpt><trkpt lat="43.351735892229094" lon="10.637977348245213"><ele>177.0</ele><time>2026-04-26T11:46:13.971Z</time></trkpt><trkpt lat="43.35165535592122" lon="10.637909081938066"><ele>177.0</ele><time>2026-04-26T11:46:14.971Z</time></trkpt><trkpt lat="43.35157680439326" lon="10.637843803154652"><ele>177.0</ele><time>2026-04-26T11:46:15.971Z</time></trkpt><trkpt lat="43.35146593248526" lon="10.63776930901468"><ele>177.0</ele><time>2026-04-26T11:46:16.971Z</time></trkpt><trkpt lat="43.3513725510383" lon="10.637684742183502"><ele>177.0</ele><time>2026-04-26T11:46:17.971Z</time></trkpt><trkpt lat="43.35128336666009" lon="10.637613471479352"><ele>177.2</ele><time>2026-04-26T11:46:18.971Z</time></trkpt><trkpt lat="43.351203274404654" lon="10.637559704424962"><ele>177.39999999999998</ele><time>2026-04-26T11:46:19.971Z</time></trkpt><trkpt lat="43.35112996937405" lon="10.637515692467378"><ele>177.60000000000002</ele><time>2026-04-26T11:46:20.971Z</time></trkpt><trkpt lat="43.351043193070204" lon="10.637470648257121"><ele>177.8</ele><time>2026-04-26T11:46:21.971Z</time></trkpt><trkpt lat="43.350937178772426" lon="10.637435650083518"><ele>178.0</ele><time>2026-04-26T11:46:22.971Z</time></trkpt><trkpt lat="43.35083155710707" lon="10.63741601272247"><ele>178.0</ele><time>2026-04-26T11:46:23.971Z</time></trkpt><trkpt lat="43.35073660858241" lon="10.637424630789466"><ele>178.0</ele><time>2026-04-26T11:46:24.971Z</time></trkpt><trkpt lat="43.350657994247605" lon="10.637387522123792"><ele>178.0</ele><time>2026-04-26T11:46:25.971Z</time></trkpt><trkpt lat="43.35057929388323" lon="10.637384938156773"><ele>178.0</ele><time>2026-04-26T11:46:26.971Z</time></trkpt><trkpt lat="43.35048286384999" lon="10.63737734890098"><ele>178.0</ele><time>2026-04-26T11:46:27.971Z</time></trkpt><trkpt lat="43.350396743027815" lon="10.637376397627447"><ele>178.0</ele><time>2026-04-26T11:46:28.971Z</time></trkpt><trkpt lat="43.35031778651547" lon="10.637357332673824"><ele>177.16666666666669</ele><time>2026-04-26T11:46:29.971Z</time></trkpt><trkpt lat="43.35023710331092" lon="10.637356110755412"><ele>176.33333333333334</ele><time>2026-04-26T11:46:30.971Z</time></trkpt><trkpt lat="43.350162936829555" lon="10.637358500362632"><ele>175.5</ele><time>2026-04-26T11:46:31.971Z</time></trkpt><trkpt lat="43.35008771267449" lon="10.6373670637465"><ele>174.66666666666666</ele><time>2026-04-26T11:46:32.971Z</time></trkpt><trkpt lat="43.35002478236704" lon="10.637303279313404"><ele>173.83333333333331</ele><time>2026-04-26T11:46:33.971Z</time></trkpt><trkpt lat="43.34995274425454" lon="10.637282868746347"><ele>173.0</ele><time>2026-04-26T11:46:34.971Z</time></trkpt><trkpt lat="43.349878838870936" lon="10.637231442804616"><ele>173.0</ele><time>2026-04-26T11:46:35.971Z</time></trkpt><trkpt lat="43.349802770731785" lon="10.637186456267019"><ele>173.0</ele><time>2026-04-26T11:46:36.971Z</time></trkpt><trkpt lat="43.34973406885127" lon="10.637164901346054"><ele>173.0</ele><time>2026-04-26T11:46:37.971Z</time></trkpt><trkpt lat="43.349674375279385" lon="10.637136255000117"><ele>173.0</ele><time>2026-04-26T11:46:38.971Z</time></trkpt><trkpt lat="43.349572721883064" lon="10.637183244955926"><ele>173.0</ele><time>2026-04-26T11:46:40.971Z</time></trkpt><trkpt lat="43.34954058195513" lon="10.637274099296395"><ele>173.0</ele><time>2026-04-26T11:46:41.971Z</time></trkpt><trkpt lat="43.349548574884864" lon="10.637396678146843"><ele>171.0</ele><time>2026-04-26T11:46:42.971Z</time></trkpt><trkpt lat="43.349545819544595" lon="10.637486097286326"><ele>169.0</ele><time>2026-04-26T11:46:43.971Z</time></trkpt><trkpt lat="43.34954113099343" lon="10.637616312306804"><ele>167.0</ele><time>2026-04-26T11:46:45.971Z</time></trkpt><trkpt lat="43.34953777072169" lon="10.637813109514639"><ele>165.0</ele><time>2026-04-26T11:46:47.971Z</time></trkpt><trkpt lat="43.34954640212008" lon="10.637962061946611"><ele>163.0</ele><time>2026-04-26T11:46:48.971Z</time></trkpt><trkpt lat="43.349541712365856" lon="10.638126049665019"><ele>162.0</ele><time>2026-04-26T11:46:49.971Z</time></trkpt><trkpt lat="43.34954177880931" lon="10.638273115038894"><ele>161.0</ele><time>2026-04-26T11:46:50.971Z</time></trkpt><trkpt lat="43.34954143113852" lon="10.638410527656015"><ele>160.0</ele><time>2026-04-26T11:46:51.971Z</time></trkpt><trkpt lat="43.349541803671755" lon="10.638544377739397"><ele>159.0</ele><time>2026-04-26T11:46:52.971Z</time></trkpt><trkpt lat="43.349541152140254" lon="10.638674202782498"><ele>158.0</ele><time>2026-04-26T11:46:53.971Z</time></trkpt><trkpt lat="43.34954424088478" lon="10.638802676396516"><ele>156.5</ele><time>2026-04-26T11:46:54.971Z</time></trkpt><trkpt lat="43.349547304530674" lon="10.638926534557068"><ele>155.0</ele><time>2026-04-26T11:46:55.971Z</time></trkpt><trkpt lat="43.349550759164245" lon="10.639043597962194"><ele>153.5</ele><time>2026-04-26T11:46:56.971Z</time></trkpt><trkpt lat="43.34955207779602" lon="10.639156603367352"><ele>152.0</ele><time>2026-04-26T11:46:57.971Z</time></trkpt><trkpt lat="43.34954989388656" lon="10.639264565295932"><ele>150.5</ele><time>2026-04-26T11:46:58.971Z</time></trkpt><trkpt lat="43.34955078501231" lon="10.639368766877451"><ele>149.0</ele><time>2026-04-26T11:46:59.971Z</time></trkpt><trkpt lat="43.34955229428221" lon="10.639484759527067"><ele>147.83333333333331</ele><time>2026-04-26T11:47:00.971Z</time></trkpt><trkpt lat="43.34955499805029" lon="10.63960351712742"><ele>146.66666666666666</ele><time>2026-04-26T11:47:01.971Z</time></trkpt><trkpt lat="43.34955781084437" lon="10.639713619364551"><ele>145.5</ele><time>2026-04-26T11:47:02.971Z</time></trkpt><trkpt lat="43.34956190776431" lon="10.639822204068047"><ele>144.33333333333334</ele><time>2026-04-26T11:47:03.971Z</time></trkpt><trkpt lat="43.34954869774936" lon="10.639934799736839"><ele>143.16666666666669</ele><time>2026-04-26T11:47:04.971Z</time></trkpt><trkpt lat="43.34954715086991" lon="10.640043601610468"><ele>142.0</ele><time>2026-04-26T11:47:05.971Z</time></trkpt><trkpt lat="43.34954483518399" lon="10.640133522360214"><ele>142.0</ele><time>2026-04-26T11:47:06.971Z</time></trkpt><trkpt lat="43.34953669562098" lon="10.640243000575627"><ele>142.0</ele><time>2026-04-26T11:47:07.971Z</time></trkpt><trkpt lat="43.34952382449201" lon="10.640355205531858"><ele>142.0</ele><time>2026-04-26T11:47:08.971Z</time></trkpt><trkpt lat="43.34950682480816" lon="10.640448719272431"><ele>142.0</ele><time>2026-04-26T11:47:09.971Z</time></trkpt><trkpt lat="43.349490673083956" lon="10.640542934180683"><ele>142.0</ele><time>2026-04-26T11:47:10.971Z</time></trkpt><trkpt lat="43.349463270701776" lon="10.640643333227489"><ele>142.0</ele><time>2026-04-26T11:47:11.971Z</time></trkpt><trkpt lat="43.34942226787993" lon="10.6407393462246"><ele>141.0</ele><time>2026-04-26T11:47:12.971Z</time></trkpt><trkpt lat="43.34938827454281" lon="10.640830626972907"><ele>140.0</ele><time>2026-04-26T11:47:13.971Z</time></trkpt><trkpt lat="43.34936626700132" lon="10.64091562819126"><ele>139.0</ele><time>2026-04-26T11:47:14.971Z</time></trkpt><trkpt lat="43.349344673546994" lon="10.64099887587212"><ele>138.0</ele><time>2026-04-26T11:47:15.971Z</time></trkpt><trkpt lat="43.349279971453065" lon="10.64113818074044"><ele>137.0</ele><time>2026-04-26T11:47:17.968Z</time></trkpt><trkpt lat="43.349232905716356" lon="10.641197976484584"><ele>136.0</ele><time>2026-04-26T11:47:18.969Z</time></trkpt><trkpt lat="43.349167711944844" lon="10.6412203109023"><ele>134.8</ele><time>2026-04-26T11:47:19.969Z</time></trkpt><trkpt lat="43.34903517137986" lon="10.641273270204762"><ele>133.6</ele><time>2026-04-26T11:47:21.968Z</time></trkpt><trkpt lat="43.34895660598875" lon="10.641309285643503"><ele>132.4</ele><time>2026-04-26T11:47:22.968Z</time></trkpt><trkpt lat="43.34888461782047" lon="10.641364804918416"><ele>131.2</ele><time>2026-04-26T11:47:23.969Z</time></trkpt><trkpt lat="43.34880012373047" lon="10.641386005430228"><ele>130.0</ele><time>2026-04-26T11:47:24.969Z</time></trkpt><trkpt lat="43.348721725987566" lon="10.64143152555515"><ele>128.2</ele><time>2026-04-26T11:47:25.969Z</time></trkpt><trkpt lat="43.34864128464681" lon="10.641467831614122"><ele>126.4</ele><time>2026-04-26T11:47:26.969Z</time></trkpt><trkpt lat="43.34856849854989" lon="10.64149979050521"><ele>124.6</ele><time>2026-04-26T11:47:27.968Z</time></trkpt><trkpt lat="43.34845359157071" lon="10.64155169374197"><ele>122.8</ele><time>2026-04-26T11:47:29.969Z</time></trkpt><trkpt lat="43.34838366471083" lon="10.641579929063381"><ele>121.0</ele><time>2026-04-26T11:47:30.969Z</time></trkpt><trkpt lat="43.348292515625786" lon="10.641622920178275"><ele>121.00000000000001</ele><time>2026-04-26T11:47:31.969Z</time></trkpt><trkpt lat="43.34819883327898" lon="10.641671847052466"><ele>121.0</ele><time>2026-04-26T11:47:32.969Z</time></trkpt><trkpt lat="43.34812317989305" lon="10.641721744261424"><ele>121.0</ele><time>2026-04-26T11:47:33.969Z</time></trkpt><trkpt lat="43.34804415543416" lon="10.641765958135416"><ele>121.0</ele><time>2026-04-26T11:47:34.969Z</time></trkpt><trkpt lat="43.347972150618865" lon="10.641788994679555"><ele>121.00000000000001</ele><time>2026-04-26T11:47:35.969Z</time></trkpt><trkpt lat="43.34790801052553" lon="10.641793916093734"><ele>121.0</ele><time>2026-04-26T11:47:36.969Z</time></trkpt><trkpt lat="43.34779062729954" lon="10.641690170245807"><ele>120.19999999999999</ele><time>2026-04-26T11:47:38.969Z</time></trkpt><trkpt lat="43.34769998090259" lon="10.64165220208747"><ele>119.39999999999999</ele><time>2026-04-26T11:47:39.969Z</time></trkpt><trkpt lat="43.34760127458912" lon="10.64164443910006"><ele>118.6</ele><time>2026-04-26T11:47:40.969Z</time></trkpt><trkpt lat="43.347506404512146" lon="10.641662091963397"><ele>117.8</ele><time>2026-04-26T11:47:41.969Z</time></trkpt><trkpt lat="43.347424288084106" lon="10.64167985138755"><ele>117.0</ele><time>2026-04-26T11:47:42.969Z</time></trkpt><trkpt lat="43.347340236122854" lon="10.64171949192903"><ele>117.0</ele><time>2026-04-26T11:47:43.969Z</time></trkpt><trkpt lat="43.347241150844816" lon="10.64175249798306"><ele>116.99999999999999</ele><time>2026-04-26T11:47:44.969Z</time></trkpt><trkpt lat="43.34715386957641" lon="10.641833992162773"><ele>116.99999999999999</ele><time>2026-04-26T11:47:45.969Z</time></trkpt><trkpt lat="43.34708947846607" lon="10.641905338163294"><ele>117.0</ele><time>2026-04-26T11:47:46.969Z</time></trkpt><trkpt lat="43.34700944907035" lon="10.641967957764106"><ele>117.0</ele><time>2026-04-26T11:47:47.969Z</time></trkpt><trkpt lat="43.34695849659913" lon="10.642070393168344"><ele>115.0</ele><time>2026-04-26T11:47:48.969Z</time></trkpt><trkpt lat="43.34689305810447" lon="10.64215664857522"><ele>112.99999999999999</ele><time>2026-04-26T11:47:49.969Z</time></trkpt><trkpt lat="43.34682257261329" lon="10.64223737384497"><ele>110.99999999999999</ele><time>2026-04-26T11:47:50.969Z</time></trkpt><trkpt lat="43.34673937877488" lon="10.642264818731617"><ele>109.0</ele><time>2026-04-26T11:47:51.969Z</time></trkpt><trkpt lat="43.3466542170986" lon="10.64230543405627"><ele>107.0</ele><time>2026-04-26T11:47:52.969Z</time></trkpt><trkpt lat="43.346559435670834" lon="10.642345303798834"><ele>107.0</ele><time>2026-04-26T11:47:53.969Z</time></trkpt><trkpt lat="43.34647187725016" lon="10.642374264193393"><ele>106.99999999999999</ele><time>2026-04-26T11:47:54.969Z</time></trkpt><trkpt lat="43.34636979560071" lon="10.642317048512773"><ele>106.99999999999999</ele><time>2026-04-26T11:47:55.969Z</time></trkpt><trkpt lat="43.34626486850317" lon="10.64230252026695"><ele>107.0</ele><time>2026-04-26T11:47:56.969Z</time></trkpt><trkpt lat="43.34616733747244" lon="10.642331818947161"><ele>107.0</ele><time>2026-04-26T11:47:57.969Z</time></trkpt><trkpt lat="43.346094894603965" lon="10.642327464241173"><ele>106.33333333333333</ele><time>2026-04-26T11:47:58.969Z</time></trkpt><trkpt lat="43.345989971368724" lon="10.642334637644986"><ele>105.66666666666666</ele><time>2026-04-26T11:48:00.969Z</time></trkpt><trkpt lat="43.34589071375011" lon="10.64234932622405"><ele>105.0</ele><time>2026-04-26T11:48:02.969Z</time></trkpt><trkpt lat="43.34580293017749" lon="10.642367910801072"><ele>104.33333333333334</ele><time>2026-04-26T11:48:04.969Z</time></trkpt><trkpt lat="43.34573642812101" lon="10.642389864499211"><ele>103.66666666666667</ele><time>2026-04-26T11:48:05.969Z</time></trkpt><trkpt lat="43.345668969175144" lon="10.642408659791899"><ele>103.0</ele><time>2026-04-26T11:48:06.969Z</time></trkpt><trkpt lat="43.345548421473225" lon="10.642438107654947"><ele>101.57142857142857</ele><time>2026-04-26T11:48:08.969Z</time></trkpt><trkpt lat="43.34548534980061" lon="10.642461916544638"><ele>100.14285714285714</ele><time>2026-04-26T11:48:09.969Z</time></trkpt><trkpt lat="43.34541671935811" lon="10.642484614931433"><ele>98.71428571428572</ele><time>2026-04-26T11:48:10.969Z</time></trkpt><trkpt lat="43.3453478138068" lon="10.642504756697937"><ele>97.28571428571428</ele><time>2026-04-26T11:48:11.969Z</time></trkpt><trkpt lat="43.345277353489955" lon="10.642531194887306"><ele>95.85714285714286</ele><time>2026-04-26T11:48:12.969Z</time></trkpt><trkpt lat="43.3452105746672" lon="10.642555602139076"><ele>94.42857142857143</ele><time>2026-04-26T11:48:13.969Z</time></trkpt><trkpt lat="43.34512450055777" lon="10.642587088946671"><ele>93.0</ele><time>2026-04-26T11:48:15.969Z</time></trkpt><trkpt lat="43.345047151520696" lon="10.64260835337483"><ele>93.0</ele><time>2026-04-26T11:48:18.969Z</time></trkpt><trkpt lat="43.3451704849509" lon="10.642571052872448"><ele>93.0</ele><time>2026-04-26T11:48:28.969Z</time></trkpt><trkpt lat="43.345248364210484" lon="10.642534609560032"><ele>93.0</ele><time>2026-04-26T11:48:29.969Z</time></trkpt><trkpt lat="43.34533202040237" lon="10.642495463027222"><ele>93.0</ele><time>2026-04-26T11:48:30.969Z</time></trkpt><trkpt lat="43.345446396447024" lon="10.642455423208485"><ele>93.0</ele><time>2026-04-26T11:48:31.969Z</time></trkpt><trkpt lat="43.34556470427805" lon="10.642420926981018"><ele>95.5</ele><time>2026-04-26T11:48:32.969Z</time></trkpt><trkpt lat="43.34569053597883" lon="10.642403166620305"><ele>98.0</ele><time>2026-04-26T11:48:33.969Z</time></trkpt><trkpt lat="43.345822566607595" lon="10.642370838970454"><ele>100.5</ele><time>2026-04-26T11:48:34.969Z</time></trkpt><trkpt lat="43.34594972214488" lon="10.642328624488009"><ele>103.0</ele><time>2026-04-26T11:48:35.969Z</time></trkpt><trkpt lat="43.34604741636689" lon="10.64229028785529"><ele>103.00000000000001</ele><time>2026-04-26T11:48:36.969Z</time></trkpt><trkpt lat="43.34611447354602" lon="10.64228718630627"><ele>103.0</ele><time>2026-04-26T11:48:37.969Z</time></trkpt><trkpt lat="43.346177303899296" lon="10.642310430796584"><ele>103.0</ele><time>2026-04-26T11:48:40.969Z</time></trkpt><trkpt lat="43.34622890180991" lon="10.642497034861202"><ele>103.0</ele><time>2026-04-26T11:48:43.969Z</time></trkpt><trkpt lat="43.34629760156087" lon="10.642536454562721"><ele>103.00000000000001</ele><time>2026-04-26T11:48:47.969Z</time></trkpt><trkpt lat="43.34636554932497" lon="10.642508096047306"><ele>103.0</ele><time>2026-04-26T11:49:00.969Z</time></trkpt><trkpt lat="43.34629751516532" lon="10.642493673663497"><ele>103.0</ele><time>2026-04-26T11:51:12.967Z</time></trkpt><trkpt lat="43.34619985910592" lon="10.642402856625855"><ele>103.0</ele><time>2026-04-26T11:51:15.967Z</time></trkpt><trkpt lat="43.34615710135865" lon="10.642311537703371"><ele>103.0</ele><time>2026-04-26T11:51:18.967Z</time></trkpt><trkpt lat="43.34609285566183" lon="10.642287157302775"><ele>103.0</ele><time>2026-04-26T11:51:20.967Z</time></trkpt><trkpt lat="43.34597143392778" lon="10.64231712309396"><ele>103.0</ele><time>2026-04-26T11:51:22.967Z</time></trkpt><trkpt lat="43.345904575735304" lon="10.642338701140073"><ele>103.00000000000001</ele><time>2026-04-26T11:51:23.967Z</time></trkpt><trkpt lat="43.345833079549024" lon="10.642361895874675"><ele>103.0</ele><time>2026-04-26T11:51:24.967Z</time></trkpt><trkpt lat="43.3457575051584" lon="10.642383915602514"><ele>103.0</ele><time>2026-04-26T11:51:25.967Z</time></trkpt><trkpt lat="43.345675915688844" lon="10.642397665468053"><ele>103.0</ele><time>2026-04-26T11:51:26.967Z</time></trkpt><trkpt lat="43.3455992845011" lon="10.642414061544596"><ele>103.00000000000001</ele><time>2026-04-26T11:51:27.967Z</time></trkpt><trkpt lat="43.34551644339835" lon="10.64242605589954"><ele>103.0</ele><time>2026-04-26T11:51:28.967Z</time></trkpt><trkpt lat="43.34544049586611" lon="10.642451189095562"><ele>101.0</ele><time>2026-04-26T11:51:29.965Z</time></trkpt><trkpt lat="43.34535582248517" lon="10.64248920561201"><ele>99.0</ele><time>2026-04-26T11:51:30.965Z</time></trkpt><trkpt lat="43.3452784856392" lon="10.642524485539816"><ele>97.0</ele><time>2026-04-26T11:51:31.965Z</time></trkpt><trkpt lat="43.345199459603684" lon="10.642561065120585"><ele>95.0</ele><time>2026-04-26T11:51:32.965Z</time></trkpt><trkpt lat="43.34511374520787" lon="10.642605353889081"><ele>93.0</ele><time>2026-04-26T11:51:33.966Z</time></trkpt><trkpt lat="43.34501228964291" lon="10.642648878907313"><ele>93.0</ele><time>2026-04-26T11:51:34.966Z</time></trkpt><trkpt lat="43.34489629056124" lon="10.642697883191728"><ele>93.0</ele><time>2026-04-26T11:51:35.965Z</time></trkpt><trkpt lat="43.344796652295514" lon="10.642746092490107"><ele>93.0</ele><time>2026-04-26T11:51:36.966Z</time></trkpt><trkpt lat="43.34470318384533" lon="10.642795414411397"><ele>93.0</ele><time>2026-04-26T11:51:37.966Z</time></trkpt><trkpt lat="43.34461211566148" lon="10.64283698197782"><ele>93.0</ele><time>2026-04-26T11:51:38.966Z</time></trkpt><trkpt lat="43.344522106354354" lon="10.642883249583761"><ele>90.60000000000001</ele><time>2026-04-26T11:51:39.965Z</time></trkpt><trkpt lat="43.34442390140857" lon="10.642928971304986"><ele>88.2</ele><time>2026-04-26T11:51:40.965Z</time></trkpt><trkpt lat="43.344328928723584" lon="10.642971370676504"><ele>85.8</ele><time>2026-04-26T11:51:41.965Z</time></trkpt><trkpt lat="43.3442362498163" lon="10.643000637059112"><ele>83.4</ele><time>2026-04-26T11:51:42.965Z</time></trkpt><trkpt lat="43.344137698862255" lon="10.64303371724139"><ele>81.0</ele><time>2026-04-26T11:51:43.965Z</time></trkpt><trkpt lat="43.344034426157634" lon="10.643065747733914"><ele>81.0</ele><time>2026-04-26T11:51:44.965Z</time></trkpt><trkpt lat="43.343934851384034" lon="10.643099699501112"><ele>81.0</ele><time>2026-04-26T11:51:45.965Z</time></trkpt><trkpt lat="43.34383855911701" lon="10.643134559140023"><ele>81.0</ele><time>2026-04-26T11:51:46.965Z</time></trkpt><trkpt lat="43.343742972998626" lon="10.643169203290853"><ele>81.0</ele><time>2026-04-26T11:51:47.965Z</time></trkpt><trkpt lat="43.34364293590349" lon="10.643198527087272"><ele>81.0</ele><time>2026-04-26T11:51:48.965Z</time></trkpt><trkpt lat="43.34354067998587" lon="10.643220314835744"><ele>79.5</ele><time>2026-04-26T11:51:49.965Z</time></trkpt><trkpt lat="43.34345554642359" lon="10.643230216428384"><ele>78.0</ele><time>2026-04-26T11:51:50.965Z</time></trkpt><trkpt lat="43.34337051161932" lon="10.643235937253614"><ele>76.5</ele><time>2026-04-26T11:51:51.965Z</time></trkpt><trkpt lat="43.34329139188214" lon="10.643237313274218"><ele>75.0</ele><time>2026-04-26T11:51:52.965Z</time></trkpt><trkpt lat="43.343203746468305" lon="10.643247772263436"><ele>73.5</ele><time>2026-04-26T11:51:53.965Z</time></trkpt><trkpt lat="43.34311466296901" lon="10.643239730048949"><ele>72.0</ele><time>2026-04-26T11:51:54.965Z</time></trkpt><trkpt lat="43.3430258724419" lon="10.643251457097017"><ele>70.0</ele><time>2026-04-26T11:51:55.965Z</time></trkpt><trkpt lat="43.342937799346686" lon="10.64328890343561"><ele>68.0</ele><time>2026-04-26T11:51:56.965Z</time></trkpt><trkpt lat="43.34283626257042" lon="10.643294059572396"><ele>66.0</ele><time>2026-04-26T11:51:57.966Z</time></trkpt><trkpt lat="43.34273812732204" lon="10.64333450932614"><ele>64.0</ele><time>2026-04-26T11:51:58.966Z</time></trkpt><trkpt lat="43.3426326678565" lon="10.643373925955137"><ele>62.0</ele><time>2026-04-26T11:51:59.966Z</time></trkpt><trkpt lat="43.342531128184184" lon="10.643412922550846"><ele>62.0</ele><time>2026-04-26T11:52:00.966Z</time></trkpt><trkpt lat="43.34243251666364" lon="10.643449061832667"><ele>62.0</ele><time>2026-04-26T11:52:01.966Z</time></trkpt><trkpt lat="43.34233713990675" lon="10.643489912200328"><ele>62.0</ele><time>2026-04-26T11:52:02.966Z</time></trkpt><trkpt lat="43.34224538593709" lon="10.643523965940853"><ele>62.0</ele><time>2026-04-26T11:52:03.966Z</time></trkpt><trkpt lat="43.342156537783694" lon="10.643553416453239"><ele>62.0</ele><time>2026-04-26T11:52:04.966Z</time></trkpt><trkpt lat="43.342072839088104" lon="10.643585517293186"><ele>60.2</ele><time>2026-04-26T11:52:05.966Z</time></trkpt><trkpt lat="43.34198892380743" lon="10.64361465639156"><ele>58.400000000000006</ele><time>2026-04-26T11:52:06.966Z</time></trkpt><trkpt lat="43.34189795481875" lon="10.643641577997322"><ele>56.599999999999994</ele><time>2026-04-26T11:52:07.966Z</time></trkpt><trkpt lat="43.341805207641386" lon="10.643670691628953"><ele>54.8</ele><time>2026-04-26T11:52:08.966Z</time></trkpt><trkpt lat="43.34171118654678" lon="10.643703729203853"><ele>53.0</ele><time>2026-04-26T11:52:09.966Z</time></trkpt><trkpt lat="43.341623723432726" lon="10.643734342805452"><ele>53.0</ele><time>2026-04-26T11:52:10.966Z</time></trkpt><trkpt lat="43.34155271810262" lon="10.643761556660907"><ele>53.0</ele><time>2026-04-26T11:52:11.966Z</time></trkpt><trkpt lat="43.34143956559629" lon="10.643800263072537"><ele>53.0</ele><time>2026-04-26T11:52:13.966Z</time></trkpt><trkpt lat="43.34133475628525" lon="10.64383794753837"><ele>53.0</ele><time>2026-04-26T11:52:15.966Z</time></trkpt><trkpt lat="43.341251187966364" lon="10.643844916417658"><ele>53.0</ele><time>2026-04-26T11:52:17.966Z</time></trkpt><trkpt lat="43.34118184762842" lon="10.643785483347466"><ele>51.0</ele><time>2026-04-26T11:52:19.966Z</time></trkpt><trkpt lat="43.34119525163286" lon="10.64365272076078"><ele>49.0</ele><time>2026-04-26T11:52:21.966Z</time></trkpt><trkpt lat="43.34123952566255" lon="10.643526215995065"><ele>47.0</ele><time>2026-04-26T11:52:23.966Z</time></trkpt><trkpt lat="43.341253597477724" lon="10.643380620029564"><ele>45.0</ele><time>2026-04-26T11:52:25.966Z</time></trkpt><trkpt lat="43.34123337931615" lon="10.643218219249325"><ele>43.0</ele><time>2026-04-26T11:52:27.966Z</time></trkpt><trkpt lat="43.34120811170397" lon="10.643131750888566"><ele>42.333333333333336</ele><time>2026-04-26T11:52:28.966Z</time></trkpt><trkpt lat="43.3411823938282" lon="10.643039071205001"><ele>41.66666666666667</ele><time>2026-04-26T11:52:29.966Z</time></trkpt><trkpt lat="43.34118170108657" lon="10.64293953166999"><ele>41.0</ele><time>2026-04-26T11:52:30.966Z</time></trkpt><trkpt lat="43.34115995653436" lon="10.642844625682178"><ele>40.333333333333336</ele><time>2026-04-26T11:52:31.966Z</time></trkpt><trkpt lat="43.34114111416907" lon="10.642757448489922"><ele>39.666666666666664</ele><time>2026-04-26T11:52:32.966Z</time></trkpt><trkpt lat="43.34110296472465" lon="10.642601847177092"><ele>39.0</ele><time>2026-04-26T11:52:34.966Z</time></trkpt><trkpt lat="43.34105730494944" lon="10.642503112228844"><ele>37.2</ele><time>2026-04-26T11:52:36.966Z</time></trkpt><trkpt lat="43.34100232209845" lon="10.642421350715825"><ele>35.4</ele><time>2026-04-26T11:52:39.966Z</time></trkpt><trkpt lat="43.340972504780986" lon="10.642344145098999"><ele>33.6</ele><time>2026-04-26T11:53:31.966Z</time></trkpt><trkpt lat="43.341125479708154" lon="10.642184744867667"><ele>31.8</ele><time>2026-04-26T11:53:33.966Z</time></trkpt><trkpt lat="43.34119402684899" lon="10.642103692815413"><ele>30.0</ele><time>2026-04-26T11:53:34.966Z</time></trkpt><trkpt lat="43.34126947128282" lon="10.642015683502192"><ele>30.0</ele><time>2026-04-26T11:53:35.963Z</time></trkpt><trkpt lat="43.341352651077756" lon="10.641918940443892"><ele>30.0</ele><time>2026-04-26T11:53:36.963Z</time></trkpt><trkpt lat="43.34143923892745" lon="10.641821074159301"><ele>30.0</ele><time>2026-04-26T11:53:37.963Z</time></trkpt><trkpt lat="43.34153167678171" lon="10.641718275712224"><ele>30.0</ele><time>2026-04-26T11:53:38.962Z</time></trkpt><trkpt lat="43.34162092023295" lon="10.641616236133947"><ele>31.0</ele><time>2026-04-26T11:53:39.962Z</time></trkpt><trkpt lat="43.34171103674689" lon="10.64151143653213"><ele>32.0</ele><time>2026-04-26T11:53:40.962Z</time></trkpt><trkpt lat="43.34180102775866" lon="10.641403703339066"><ele>33.0</ele><time>2026-04-26T11:53:41.963Z</time></trkpt><trkpt lat="43.3418935198098" lon="10.641295919589245"><ele>34.0</ele><time>2026-04-26T11:53:42.963Z</time></trkpt><trkpt lat="43.34198744429031" lon="10.641184164113731"><ele>33.5</ele><time>2026-04-26T11:53:43.963Z</time></trkpt><trkpt lat="43.34208103210985" lon="10.641071297233575"><ele>33.0</ele><time>2026-04-26T11:53:44.962Z</time></trkpt><trkpt lat="43.34217547217651" lon="10.640963034559658"><ele>32.5</ele><time>2026-04-26T11:53:45.962Z</time></trkpt><trkpt lat="43.342271202465504" lon="10.64085487761399"><ele>32.0</ele><time>2026-04-26T11:53:46.962Z</time></trkpt><trkpt lat="43.34236485737688" lon="10.640743716123346"><ele>32.25</ele><time>2026-04-26T11:53:47.962Z</time></trkpt><trkpt lat="43.34245859893839" lon="10.640633462371781"><ele>32.5</ele><time>2026-04-26T11:53:48.962Z</time></trkpt><trkpt lat="43.34255179169773" lon="10.640522018136009"><ele>32.75</ele><time>2026-04-26T11:53:49.962Z</time></trkpt><trkpt lat="43.3426457233099" lon="10.640409988431873"><ele>33.0</ele><time>2026-04-26T11:53:50.962Z</time></trkpt><trkpt lat="43.34273779075663" lon="10.640298223120224"><ele>33.0</ele><time>2026-04-26T11:53:51.962Z</time></trkpt><trkpt lat="43.342828569887445" lon="10.640184339212718"><ele>33.0</ele><time>2026-04-26T11:53:52.962Z</time></trkpt><trkpt lat="43.34291651255709" lon="10.640070922367629"><ele>33.0</ele><time>2026-04-26T11:53:53.962Z</time></trkpt><trkpt lat="43.3430020096105" lon="10.639953154722354"><ele>33.0</ele><time>2026-04-26T11:53:54.962Z</time></trkpt><trkpt lat="43.34308791519641" lon="10.639832590465126"><ele>33.0</ele><time>2026-04-26T11:53:55.962Z</time></trkpt><trkpt lat="43.34317081203893" lon="10.639713197330176"><ele>33.0</ele><time>2026-04-26T11:53:56.962Z</time></trkpt><trkpt lat="43.34325594881959" lon="10.639590067781608"><ele>33.0</ele><time>2026-04-26T11:53:57.962Z</time></trkpt><trkpt lat="43.34333950826915" lon="10.639469512097568"><ele>33.0</ele><time>2026-04-26T11:53:58.962Z</time></trkpt><trkpt lat="43.34342125814246" lon="10.639346767036244"><ele>33.0</ele><time>2026-04-26T11:53:59.962Z</time></trkpt><trkpt lat="43.343501306097345" lon="10.639219840092737"><ele>33.0</ele><time>2026-04-26T11:54:00.962Z</time></trkpt><trkpt lat="43.34358162783931" lon="10.639089734185738"><ele>33.0</ele><time>2026-04-26T11:54:01.962Z</time></trkpt><trkpt lat="43.343656324896166" lon="10.638952843146745"><ele>33.0</ele><time>2026-04-26T11:54:02.962Z</time></trkpt><trkpt lat="43.34372680106673" lon="10.638809619450672"><ele>33.0</ele><time>2026-04-26T11:54:03.962Z</time></trkpt><trkpt lat="43.34379390742281" lon="10.63866554212849"><ele>33.0</ele><time>2026-04-26T11:54:04.962Z</time></trkpt><trkpt lat="43.34385897713886" lon="10.638517420004817"><ele>33.0</ele><time>2026-04-26T11:54:05.962Z</time></trkpt><trkpt lat="43.34392157240666" lon="10.638371402717684"><ele>33.0</ele><time>2026-04-26T11:54:06.962Z</time></trkpt><trkpt lat="43.34398723597557" lon="10.638222193748677"><ele>33.0</ele><time>2026-04-26T11:54:07.962Z</time></trkpt><trkpt lat="43.34405432488505" lon="10.63807155307186"><ele>33.0</ele><time>2026-04-26T11:54:08.962Z</time></trkpt><trkpt lat="43.34412060748818" lon="10.637922723372592"><ele>33.0</ele><time>2026-04-26T11:54:09.962Z</time></trkpt><trkpt lat="43.344186256948596" lon="10.637773123032316"><ele>33.0</ele><time>2026-04-26T11:54:10.962Z</time></trkpt><trkpt lat="43.34425089825153" lon="10.637624354312596"><ele>33.0</ele><time>2026-04-26T11:54:11.962Z</time></trkpt><trkpt lat="43.344317127940435" lon="10.637473716960544"><ele>33.0</ele><time>2026-04-26T11:54:12.962Z</time></trkpt><trkpt lat="43.344382002803556" lon="10.637320506450171"><ele>33.0</ele><time>2026-04-26T11:54:13.962Z</time></trkpt><trkpt lat="43.34444920549074" lon="10.637174112907768"><ele>33.0</ele><time>2026-04-26T11:54:14.962Z</time></trkpt><trkpt lat="43.344516583702344" lon="10.637028353244547"><ele>31.5</ele><time>2026-04-26T11:54:15.962Z</time></trkpt><trkpt lat="43.344584588819785" lon="10.636881130137617"><ele>30.0</ele><time>2026-04-26T11:54:16.962Z</time></trkpt><trkpt lat="43.34465369526876" lon="10.636735558288036"><ele>28.5</ele><time>2026-04-26T11:54:17.962Z</time></trkpt><trkpt lat="43.34472756970041" lon="10.636589172561639"><ele>27.0</ele><time>2026-04-26T11:54:18.962Z</time></trkpt><trkpt lat="43.344803827095525" lon="10.636447359168482"><ele>29.25</ele><time>2026-04-26T11:54:19.962Z</time></trkpt><trkpt lat="43.34488306030866" lon="10.636306341901182"><ele>31.5</ele><time>2026-04-26T11:54:20.962Z</time></trkpt><trkpt lat="43.344961799817746" lon="10.63616659739372"><ele>33.75</ele><time>2026-04-26T11:54:21.962Z</time></trkpt><trkpt lat="43.345041545859736" lon="10.636024414207942"><ele>36.0</ele><time>2026-04-26T11:54:22.962Z</time></trkpt><trkpt lat="43.34512236336185" lon="10.635885837847132"><ele>36.0</ele><time>2026-04-26T11:54:23.962Z</time></trkpt><trkpt lat="43.34520508209229" lon="10.63573833433562"><ele>36.0</ele><time>2026-04-26T11:54:24.962Z</time></trkpt><trkpt lat="43.34529483028459" lon="10.635581619741151"><ele>36.0</ele><time>2026-04-26T11:54:25.962Z</time></trkpt><trkpt lat="43.34538531110076" lon="10.635423608029887"><ele>36.0</ele><time>2026-04-26T11:54:26.962Z</time></trkpt><trkpt lat="43.34548104427458" lon="10.635262770649444"><ele>37.333333333333336</ele><time>2026-04-26T11:54:27.962Z</time></trkpt><trkpt lat="43.34558033515224" lon="10.635100272524665"><ele>38.66666666666667</ele><time>2026-04-26T11:54:28.962Z</time></trkpt><trkpt lat="43.34568023579235" lon="10.63493514595448"><ele>40.0</ele><time>2026-04-26T11:54:29.962Z</time></trkpt><trkpt lat="43.345782641240305" lon="10.634763517042563"><ele>40.0</ele><time>2026-04-26T11:54:30.962Z</time></trkpt><trkpt lat="43.345883458502996" lon="10.634590194817505"><ele>40.0</ele><time>2026-04-26T11:54:31.962Z</time></trkpt><trkpt lat="43.34598429379252" lon="10.634409651585498"><ele>40.0</ele><time>2026-04-26T11:54:32.962Z</time></trkpt><trkpt lat="43.34608691363146" lon="10.634234081310337"><ele>42.333333333333336</ele><time>2026-04-26T11:54:33.962Z</time></trkpt><trkpt lat="43.34619096513426" lon="10.634061147594561"><ele>44.666666666666664</ele><time>2026-04-26T11:54:34.962Z</time></trkpt><trkpt lat="43.34629681443869" lon="10.63389420008425"><ele>47.0</ele><time>2026-04-26T11:54:35.962Z</time></trkpt><trkpt lat="43.34640260649091" lon="10.633728034155384"><ele>42.33333333333333</ele><time>2026-04-26T11:54:36.962Z</time></trkpt><trkpt lat="43.34650686104325" lon="10.633563661789449"><ele>37.666666666666664</ele><time>2026-04-26T11:54:37.962Z</time></trkpt><trkpt lat="43.34661249964569" lon="10.633398780713488"><ele>33.0</ele><time>2026-04-26T11:54:38.962Z</time></trkpt><trkpt lat="43.34671877703771" lon="10.633229923013001"><ele>33.0</ele><time>2026-04-26T11:54:39.962Z</time></trkpt><trkpt lat="43.34682048994282" lon="10.63306851649318"><ele>33.0</ele><time>2026-04-26T11:54:40.962Z</time></trkpt><trkpt lat="43.3469222055579" lon="10.632905815649528"><ele>33.0</ele><time>2026-04-26T11:54:41.962Z</time></trkpt><trkpt lat="43.34702484149174" lon="10.632742755155252"><ele>33.666666666666664</ele><time>2026-04-26T11:54:42.962Z</time></trkpt><trkpt lat="43.3471289691087" lon="10.63257704704028"><ele>34.33333333333333</ele><time>2026-04-26T11:54:43.963Z</time></trkpt><trkpt lat="43.34723407205759" lon="10.632406678422376"><ele>35.0</ele><time>2026-04-26T11:54:44.963Z</time></trkpt><trkpt lat="43.347338998902515" lon="10.632236342430524"><ele>35.0</ele><time>2026-04-26T11:54:45.963Z</time></trkpt><trkpt lat="43.34744495249266" lon="10.632067501229464"><ele>35.0</ele><time>2026-04-26T11:54:46.963Z</time></trkpt><trkpt lat="43.347549804630994" lon="10.63189782292904"><ele>35.0</ele><time>2026-04-26T11:54:47.963Z</time></trkpt><trkpt lat="43.34765446376418" lon="10.631727536230644"><ele>34.0</ele><time>2026-04-26T11:54:48.963Z</time></trkpt><trkpt lat="43.34775661921131" lon="10.631560638780059"><ele>33.0</ele><time>2026-04-26T11:54:49.963Z</time></trkpt><trkpt lat="43.34785723487637" lon="10.63139452707601"><ele>32.0</ele><time>2026-04-26T11:54:50.963Z</time></trkpt><trkpt lat="43.347959665111034" lon="10.631222550085692"><ele>31.0</ele><time>2026-04-26T11:54:51.963Z</time></trkpt><trkpt lat="43.348060029485644" lon="10.631052695125812"><ele>30.0</ele><time>2026-04-26T11:54:52.963Z</time></trkpt><trkpt lat="43.34815735213707" lon="10.630888653554264"><ele>29.0</ele><time>2026-04-26T11:54:53.963Z</time></trkpt><trkpt lat="43.348254352298454" lon="10.630727647599764"><ele>29.0</ele><time>2026-04-26T11:54:54.963Z</time></trkpt><trkpt lat="43.34835206572967" lon="10.630562488858816"><ele>29.0</ele><time>2026-04-26T11:54:55.963Z</time></trkpt><trkpt lat="43.3484474501677" lon="10.630398411897298"><ele>29.0</ele><time>2026-04-26T11:54:56.963Z</time></trkpt><trkpt lat="43.34853930275647" lon="10.630227839462933"><ele>29.333333333333332</ele><time>2026-04-26T11:54:57.963Z</time></trkpt><trkpt lat="43.34863018045111" lon="10.630060697521143"><ele>29.666666666666664</ele><time>2026-04-26T11:54:58.963Z</time></trkpt><trkpt lat="43.348720561834725" lon="10.62988982789599"><ele>30.0</ele><time>2026-04-26T11:54:59.963Z</time></trkpt><trkpt lat="43.34881302505994" lon="10.629719357874972"><ele>31.0</ele><time>2026-04-26T11:55:00.963Z</time></trkpt><trkpt lat="43.34890618927395" lon="10.62955020754321"><ele>32.0</ele><time>2026-04-26T11:55:01.963Z</time></trkpt><trkpt lat="43.34899806330991" lon="10.629375367556733"><ele>33.0</ele><time>2026-04-26T11:55:02.963Z</time></trkpt><trkpt lat="43.34908763148295" lon="10.629199605769609"><ele>33.0</ele><time>2026-04-26T11:55:03.963Z</time></trkpt><trkpt lat="43.349176151383816" lon="10.629027026929903"><ele>33.0</ele><time>2026-04-26T11:55:04.963Z</time></trkpt><trkpt lat="43.34926451295497" lon="10.628848143677954"><ele>33.0</ele><time>2026-04-26T11:55:05.963Z</time></trkpt><trkpt lat="43.34934892999617" lon="10.628668411435479"><ele>33.333333333333336</ele><time>2026-04-26T11:55:06.963Z</time></trkpt><trkpt lat="43.349432378700456" lon="10.62848510848044"><ele>33.66666666666667</ele><time>2026-04-26T11:55:07.963Z</time></trkpt><trkpt lat="43.349514666036974" lon="10.62830345561561"><ele>34.0</ele><time>2026-04-26T11:55:08.963Z</time></trkpt><trkpt lat="43.349592793466236" lon="10.628126437387499"><ele>34.0</ele><time>2026-04-26T11:55:09.963Z</time></trkpt><trkpt lat="43.34966833835026" lon="10.627955892194427"><ele>34.0</ele><time>2026-04-26T11:55:10.963Z</time></trkpt><trkpt lat="43.3497434126337" lon="10.627796164599046"><ele>34.0</ele><time>2026-04-26T11:55:11.963Z</time></trkpt><trkpt lat="43.34981570107728" lon="10.627635303352617"><ele>34.0</ele><time>2026-04-26T11:55:12.963Z</time></trkpt><trkpt lat="43.34988866204313" lon="10.627473203525055"><ele>34.25</ele><time>2026-04-26T11:55:13.963Z</time></trkpt><trkpt lat="43.349963445056865" lon="10.627304897830967"><ele>34.5</ele><time>2026-04-26T11:55:14.963Z</time></trkpt><trkpt lat="43.350037412803765" lon="10.627142289157446"><ele>34.75</ele><time>2026-04-26T11:55:15.963Z</time></trkpt><trkpt lat="43.35010889282115" lon="10.626989618247118"><ele>35.0</ele><time>2026-04-26T11:55:16.963Z</time></trkpt><trkpt lat="43.35017522077625" lon="10.62684649512949"><ele>35.0</ele><time>2026-04-26T11:55:17.963Z</time></trkpt><trkpt lat="43.35023509654649" lon="10.62671518721842"><ele>35.0</ele><time>2026-04-26T11:55:18.963Z</time></trkpt><trkpt lat="43.35028852909983" lon="10.626609777378878"><ele>35.0</ele><time>2026-04-26T11:55:19.963Z</time></trkpt><trkpt lat="43.35034705582826" lon="10.626517835121005"><ele>35.0</ele><time>2026-04-26T11:55:20.963Z</time></trkpt><trkpt lat="43.35040612268181" lon="10.626472246236169"><ele>35.0</ele><time>2026-04-26T11:55:21.963Z</time></trkpt><trkpt lat="43.350476840591426" lon="10.626429073878489"><ele>35.0</ele><time>2026-04-26T11:55:22.963Z</time></trkpt><trkpt lat="43.35056113452384" lon="10.626392192163195"><ele>35.33333333333333</ele><time>2026-04-26T11:55:23.963Z</time></trkpt><trkpt lat="43.35063290346709" lon="10.626326195073835"><ele>35.666666666666664</ele><time>2026-04-26T11:55:24.963Z</time></trkpt><trkpt lat="43.35067272767144" lon="10.626221784416058"><ele>36.0</ele><time>2026-04-26T11:55:25.963Z</time></trkpt><trkpt lat="43.35067122734939" lon="10.626107901006106"><ele>36.333333333333336</ele><time>2026-04-26T11:55:26.963Z</time></trkpt><trkpt lat="43.350626699401005" lon="10.626019027119414"><ele>36.66666666666667</ele><time>2026-04-26T11:55:27.963Z</time></trkpt><trkpt lat="43.35055865768411" lon="10.62597041070584"><ele>37.0</ele><time>2026-04-26T11:55:28.963Z</time></trkpt><trkpt lat="43.35046259885756" lon="10.625958743262656"><ele>37.6</ele><time>2026-04-26T11:55:29.963Z</time></trkpt><trkpt lat="43.350361194854024" lon="10.625963044093549"><ele>38.2</ele><time>2026-04-26T11:55:30.963Z</time></trkpt><trkpt lat="43.3502560894425" lon="10.625961413663134"><ele>38.8</ele><time>2026-04-26T11:55:31.963Z</time></trkpt><trkpt lat="43.35015636542586" lon="10.625938211787819"><ele>39.4</ele><time>2026-04-26T11:55:32.963Z</time></trkpt><trkpt lat="43.350060677803846" lon="10.625886623927112"><ele>40.0</ele><time>2026-04-26T11:55:33.963Z</time></trkpt><trkpt lat="43.34996654546353" lon="10.625816273049868"><ele>40.0</ele><time>2026-04-26T11:55:34.963Z</time></trkpt><trkpt lat="43.34987005633029" lon="10.62573987871485"><ele>40.0</ele><time>2026-04-26T11:55:35.963Z</time></trkpt><trkpt lat="43.3497697380169" lon="10.62566760308655"><ele>40.0</ele><time>2026-04-26T11:55:36.963Z</time></trkpt><trkpt lat="43.34967182838607" lon="10.62559279117692"><ele>40.0</ele><time>2026-04-26T11:55:37.963Z</time></trkpt><trkpt lat="43.34956844723717" lon="10.625518905354664"><ele>39.25</ele><time>2026-04-26T11:55:38.963Z</time></trkpt><trkpt lat="43.349462254379425" lon="10.625429908429108"><ele>38.5</ele><time>2026-04-26T11:55:39.963Z</time></trkpt><trkpt lat="43.3493570508981" lon="10.625340214207593"><ele>37.75</ele><time>2026-04-26T11:55:40.963Z</time></trkpt><trkpt lat="43.34925154800197" lon="10.625242283220093"><ele>37.0</ele><time>2026-04-26T11:55:41.959Z</time></trkpt><trkpt lat="43.349145598535365" lon="10.625136660905294"><ele>37.0</ele><time>2026-04-26T11:55:42.959Z</time></trkpt><trkpt lat="43.349038385214484" lon="10.62502298228886"><ele>37.0</ele><time>2026-04-26T11:55:43.959Z</time></trkpt><trkpt lat="43.34893265623255" lon="10.624905886748644"><ele>37.0</ele><time>2026-04-26T11:55:44.959Z</time></trkpt><trkpt lat="43.34882322583027" lon="10.624786040252218"><ele>37.0</ele><time>2026-04-26T11:55:45.96Z</time></trkpt><trkpt lat="43.348719424739556" lon="10.62466555232737"><ele>36.0</ele><time>2026-04-26T11:55:46.96Z</time></trkpt><trkpt lat="43.348617224702565" lon="10.624543408948698"><ele>35.0</ele><time>2026-04-26T11:55:47.959Z</time></trkpt><trkpt lat="43.34852007902197" lon="10.624424721154481"><ele>34.0</ele><time>2026-04-26T11:55:48.96Z</time></trkpt><trkpt lat="43.34843343895745" lon="10.624313274576357"><ele>33.0</ele><time>2026-04-26T11:55:49.96Z</time></trkpt><trkpt lat="43.34834456820378" lon="10.624201758325896"><ele>33.0</ele><time>2026-04-26T11:55:50.96Z</time></trkpt><trkpt lat="43.3482522696676" lon="10.624091706929816"><ele>33.0</ele><time>2026-04-26T11:55:51.959Z</time></trkpt><trkpt lat="43.34816263867712" lon="10.623980582683778"><ele>33.0</ele><time>2026-04-26T11:55:52.959Z</time></trkpt><trkpt lat="43.34807870464936" lon="10.623870372430064"><ele>33.0</ele><time>2026-04-26T11:55:53.959Z</time></trkpt><trkpt lat="43.34800115037332" lon="10.623773224088923"><ele>33.0</ele><time>2026-04-26T11:55:54.96Z</time></trkpt><trkpt lat="43.34793942966003" lon="10.623691403066939"><ele>33.0</ele><time>2026-04-26T11:55:55.96Z</time></trkpt><trkpt lat="43.34789075825222" lon="10.623627268921298"><ele>33.0</ele><time>2026-04-26T11:55:56.96Z</time></trkpt><trkpt lat="43.34783138643346" lon="10.623530652386018"><ele>33.0</ele><time>2026-04-26T11:55:58.96Z</time></trkpt><trkpt lat="43.34779817912245" lon="10.623429854870746"><ele>33.0</ele><time>2026-04-26T11:56:00.96Z</time></trkpt><trkpt lat="43.34781299551317" lon="10.623314866157816"><ele>33.0</ele><time>2026-04-26T11:56:01.96Z</time></trkpt><trkpt lat="43.34781874737218" lon="10.623219151805241"><ele>33.0</ele><time>2026-04-26T11:56:02.96Z</time></trkpt><trkpt lat="43.347827492635986" lon="10.623121378846728"><ele>33.0</ele><time>2026-04-26T11:56:03.96Z</time></trkpt><trkpt lat="43.34783483686379" lon="10.623020842159509"><ele>33.0</ele><time>2026-04-26T11:56:04.96Z</time></trkpt><trkpt lat="43.34783983948893" lon="10.62292169255895"><ele>33.0</ele><time>2026-04-26T11:56:05.96Z</time></trkpt><trkpt lat="43.34783957076203" lon="10.622821586662512"><ele>33.0</ele><time>2026-04-26T11:56:06.96Z</time></trkpt><trkpt lat="43.34784484244133" lon="10.622722147097917"><ele>33.0</ele><time>2026-04-26T11:56:07.96Z</time></trkpt><trkpt lat="43.34785844162375" lon="10.622620884721046"><ele>33.0</ele><time>2026-04-26T11:56:08.96Z</time></trkpt><trkpt lat="43.34787287156599" lon="10.622514589523417"><ele>33.199999999999996</ele><time>2026-04-26T11:56:09.96Z</time></trkpt><trkpt lat="43.347890143026746" lon="10.62240759259106"><ele>33.4</ele><time>2026-04-26T11:56:10.96Z</time></trkpt><trkpt lat="43.34789459194517" lon="10.622290844564187"><ele>33.599999999999994</ele><time>2026-04-26T11:56:11.96Z</time></trkpt><trkpt lat="43.34787559758263" lon="10.62215989508105"><ele>33.8</ele><time>2026-04-26T11:56:12.96Z</time></trkpt><trkpt lat="43.34784627020008" lon="10.622031019962048"><ele>34.0</ele><time>2026-04-26T11:56:13.96Z</time></trkpt><trkpt lat="43.3478111978058" lon="10.621895184380735"><ele>34.6</ele><time>2026-04-26T11:56:14.96Z</time></trkpt><trkpt lat="43.34777926967973" lon="10.621758819153465"><ele>35.2</ele><time>2026-04-26T11:56:15.96Z</time></trkpt><trkpt lat="43.34775267910665" lon="10.621631027180262"><ele>35.800000000000004</ele><time>2026-04-26T11:56:16.96Z</time></trkpt><trkpt lat="43.34774033371656" lon="10.621505763999515"><ele>36.4</ele><time>2026-04-26T11:56:17.96Z</time></trkpt><trkpt lat="43.34775061873516" lon="10.62136296931468"><ele>37.0</ele><time>2026-04-26T11:56:18.96Z</time></trkpt><trkpt lat="43.347775639985244" lon="10.6211823972794"><ele>41.0</ele><time>2026-04-26T11:56:19.96Z</time></trkpt><trkpt lat="43.34779414550649" lon="10.620964277496553"><ele>45.0</ele><time>2026-04-26T11:56:20.96Z</time></trkpt><trkpt lat="43.347827545532766" lon="10.620734437678822"><ele>49.0</ele><time>2026-04-26T11:56:21.96Z</time></trkpt><trkpt lat="43.34788650563682" lon="10.620534807915167"><ele>49.0</ele><time>2026-04-26T11:56:22.96Z</time></trkpt><trkpt lat="43.34790152979043" lon="10.62036231791749"><ele>49.0</ele><time>2026-04-26T11:56:23.96Z</time></trkpt><trkpt lat="43.34791225726089" lon="10.620224764428908"><ele>49.0</ele><time>2026-04-26T11:56:24.96Z</time></trkpt><trkpt lat="43.3479136854601" lon="10.62009187374212"><ele>49.0</ele><time>2026-04-26T11:56:25.96Z</time></trkpt><trkpt lat="43.34790543235989" lon="10.619964145802873"><ele>49.0</ele><time>2026-04-26T11:56:26.96Z</time></trkpt><trkpt lat="43.34788716576458" lon="10.619846721129807"><ele>50.2</ele><time>2026-04-26T11:56:27.96Z</time></trkpt><trkpt lat="43.34785216879489" lon="10.619721000189463"><ele>51.400000000000006</ele><time>2026-04-26T11:56:28.96Z</time></trkpt><trkpt lat="43.347818840386516" lon="10.619588347008913"><ele>52.6</ele><time>2026-04-26T11:56:29.96Z</time></trkpt><trkpt lat="43.34779205935582" lon="10.61945769066189"><ele>53.8</ele><time>2026-04-26T11:56:30.96Z</time></trkpt><trkpt lat="43.34777460415213" lon="10.619330437990772"><ele>55.0</ele><time>2026-04-26T11:56:31.96Z</time></trkpt><trkpt lat="43.34774850639118" lon="10.619198415815111"><ele>56.99999999999999</ele><time>2026-04-26T11:56:32.96Z</time></trkpt><trkpt lat="43.34769964282888" lon="10.619082820757262"><ele>59.0</ele><time>2026-04-26T11:56:33.96Z</time></trkpt><trkpt lat="43.34763982852361" lon="10.618984274874709"><ele>61.0</ele><time>2026-04-26T11:56:34.96Z</time></trkpt><trkpt lat="43.34757451788233" lon="10.618891805539613"><ele>63.0</ele><time>2026-04-26T11:56:35.96Z</time></trkpt><trkpt lat="43.347518560903424" lon="10.618808598061046"><ele>65.0</ele><time>2026-04-26T11:56:36.96Z</time></trkpt><trkpt lat="43.34751622143927" lon="10.61871032539572"><ele>67.0</ele><time>2026-04-26T11:56:38.96Z</time></trkpt><trkpt lat="43.34754991141497" lon="10.618632625079236"><ele>69.5</ele><time>2026-04-26T11:56:39.96Z</time></trkpt><trkpt lat="43.347639810509285" lon="10.618535214812352"><ele>72.0</ele><time>2026-04-26T11:56:40.96Z</time></trkpt><trkpt lat="43.34766547669287" lon="10.618384430639981"><ele>74.5</ele><time>2026-04-26T11:56:41.96Z</time></trkpt><trkpt lat="43.3476739246409" lon="10.618204415548137"><ele>77.0</ele><time>2026-04-26T11:56:42.96Z</time></trkpt><trkpt lat="43.34765299667259" lon="10.618010616831443"><ele>77.0</ele><time>2026-04-26T11:56:43.96Z</time></trkpt><trkpt lat="43.34763320550116" lon="10.617825177124512"><ele>77.0</ele><time>2026-04-26T11:56:44.96Z</time></trkpt><trkpt lat="43.34761405189778" lon="10.617642998816429"><ele>77.0</ele><time>2026-04-26T11:56:45.96Z</time></trkpt><trkpt lat="43.34759934326671" lon="10.617465722254977"><ele>77.0</ele><time>2026-04-26T11:56:46.96Z</time></trkpt><trkpt lat="43.34758740917344" lon="10.61730262135873"><ele>78.8</ele><time>2026-04-26T11:56:47.96Z</time></trkpt><trkpt lat="43.34758262375298" lon="10.617149744768437"><ele>80.6</ele><time>2026-04-26T11:56:48.96Z</time></trkpt><trkpt lat="43.347575897323715" lon="10.617011572535967"><ele>82.39999999999999</ele><time>2026-04-26T11:56:49.96Z</time></trkpt><trkpt lat="43.34754718498342" lon="10.616907339271414"><ele>84.2</ele><time>2026-04-26T11:56:50.96Z</time></trkpt><trkpt lat="43.34748362947053" lon="10.616826678906442"><ele>86.0</ele><time>2026-04-26T11:56:51.96Z</time></trkpt><trkpt lat="43.34741880096102" lon="10.616764491473104"><ele>88.25</ele><time>2026-04-26T11:56:52.96Z</time></trkpt><trkpt lat="43.34739404372539" lon="10.616574786893262"><ele>90.5</ele><time>2026-04-26T11:56:54.96Z</time></trkpt><trkpt lat="43.34746973765397" lon="10.616443300756842"><ele>92.75</ele><time>2026-04-26T11:56:55.96Z</time></trkpt><trkpt lat="43.34753098956489" lon="10.616242083537754"><ele>95.0</ele><time>2026-04-26T11:56:56.96Z</time></trkpt><trkpt lat="43.34758220345182" lon="10.616081534655182"><ele>95.0</ele><time>2026-04-26T11:56:57.96Z</time></trkpt><trkpt lat="43.34762563202655" lon="10.61600701246786"><ele>95.0</ele><time>2026-04-26T11:56:58.96Z</time></trkpt><trkpt lat="43.34768132826017" lon="10.615894939001612"><ele>95.0</ele><time>2026-04-26T11:57:00.96Z</time></trkpt><trkpt lat="43.34772908605812" lon="10.615791225947284"><ele>95.0</ele><time>2026-04-26T11:57:02.96Z</time></trkpt><trkpt lat="43.347777379142805" lon="10.615705669311405"><ele>95.0</ele><time>2026-04-26T11:57:04.96Z</time></trkpt><trkpt lat="43.34786951598187" lon="10.6157248066786"><ele>95.0</ele><time>2026-04-26T11:57:44.96Z</time></trkpt><trkpt lat="43.34799573790292" lon="10.61580526693922"><ele>95.66666666666667</ele><time>2026-04-26T11:57:46.96Z</time></trkpt><trkpt lat="43.3480732830258" lon="10.615852357499701"><ele>96.33333333333334</ele><time>2026-04-26T11:57:47.957Z</time></trkpt><trkpt lat="43.34814949331098" lon="10.615895282922807"><ele>97.0</ele><time>2026-04-26T11:57:48.957Z</time></trkpt><trkpt lat="43.34822220406627" lon="10.615932368684293"><ele>97.66666666666667</ele><time>2026-04-26T11:57:49.957Z</time></trkpt><trkpt lat="43.34828077124272" lon="10.615967435906025"><ele>98.33333333333333</ele><time>2026-04-26T11:57:50.957Z</time></trkpt><trkpt lat="43.34839718317211" lon="10.616026987307407"><ele>99.0</ele><time>2026-04-26T11:57:52.957Z</time></trkpt><trkpt lat="43.348462928392046" lon="10.616054131527846"><ele>99.0</ele><time>2026-04-26T11:57:53.957Z</time></trkpt><trkpt lat="43.34853127079939" lon="10.616114015103987"><ele>99.0</ele><time>2026-04-26T11:57:54.957Z</time></trkpt><trkpt lat="43.34860828227689" lon="10.616163066327253"><ele>99.0</ele><time>2026-04-26T11:57:55.957Z</time></trkpt><trkpt lat="43.348682735673805" lon="10.616204194934143"><ele>99.0</ele><time>2026-04-26T11:57:56.957Z</time></trkpt><trkpt lat="43.34875338169177" lon="10.616241079377792"><ele>99.0</ele><time>2026-04-26T11:57:57.957Z</time></trkpt><trkpt lat="43.34885886216536" lon="10.616307101075288"><ele>99.0</ele><time>2026-04-26T11:57:59.957Z</time></trkpt><trkpt lat="43.34894774370849" lon="10.616346615746277"><ele>97.33333333333333</ele><time>2026-04-26T11:58:01.957Z</time></trkpt><trkpt lat="43.34902341775067" lon="10.61639829678127"><ele>95.66666666666667</ele><time>2026-04-26T11:58:03.957Z</time></trkpt><trkpt lat="43.3491112680014" lon="10.616451734746352"><ele>94.0</ele><time>2026-04-26T11:58:05.957Z</time></trkpt><trkpt lat="43.34920299147075" lon="10.616506184621914"><ele>92.33333333333334</ele><time>2026-04-26T11:58:07.957Z</time></trkpt><trkpt lat="43.34926994315193" lon="10.616548345319119"><ele>90.66666666666667</ele><time>2026-04-26T11:58:08.957Z</time></trkpt><trkpt lat="43.349342666554314" lon="10.616596097517105"><ele>89.0</ele><time>2026-04-26T11:58:09.957Z</time></trkpt><trkpt lat="43.34943012480035" lon="10.616640895344325"><ele>89.0</ele><time>2026-04-26T11:58:10.957Z</time></trkpt><trkpt lat="43.34949786244599" lon="10.616675103043143"><ele>89.0</ele><time>2026-04-26T11:58:11.957Z</time></trkpt><trkpt lat="43.34955708850884" lon="10.616722440230923"><ele>89.0</ele><time>2026-04-26T11:58:12.957Z</time></trkpt><trkpt lat="43.349606587743914" lon="10.616796475308723"><ele>89.0</ele><time>2026-04-26T11:58:13.957Z</time></trkpt><trkpt lat="43.3496472543388" lon="10.61690040309554"><ele>89.0</ele><time>2026-04-26T11:58:14.957Z</time></trkpt><trkpt lat="43.34968965410871" lon="10.617009743916167"><ele>89.0</ele><time>2026-04-26T11:58:15.957Z</time></trkpt><trkpt lat="43.34973505420332" lon="10.617124244396173"><ele>88.80000000000001</ele><time>2026-04-26T11:58:16.957Z</time></trkpt><trkpt lat="43.349783061635755" lon="10.617222514801812"><ele>88.60000000000001</ele><time>2026-04-26T11:58:17.957Z</time></trkpt><trkpt lat="43.349831190097575" lon="10.61730805210337"><ele>88.4</ele><time>2026-04-26T11:58:18.957Z</time></trkpt><trkpt lat="43.34989446506768" lon="10.617428262215876"><ele>88.2</ele><time>2026-04-26T11:58:20.957Z</time></trkpt><trkpt lat="43.34995536170911" lon="10.61753202262546"><ele>88.0</ele><time>2026-04-26T11:58:22.957Z</time></trkpt><trkpt lat="43.35002379102008" lon="10.617700105191743"><ele>88.0</ele><time>2026-04-26T11:58:24.957Z</time></trkpt><trkpt lat="43.350066565877206" lon="10.617808072679567"><ele>88.0</ele><time>2026-04-26T11:58:25.958Z</time></trkpt><trkpt lat="43.35013500063072" lon="10.617943084056936"><ele>88.0</ele><time>2026-04-26T11:58:26.958Z</time></trkpt><trkpt lat="43.350194606655606" lon="10.618097754325897"><ele>88.0</ele><time>2026-04-26T11:58:27.958Z</time></trkpt><trkpt lat="43.350239431775435" lon="10.618277823659293"><ele>88.2</ele><time>2026-04-26T11:58:28.958Z</time></trkpt><trkpt lat="43.3502980968623" lon="10.618421226726761"><ele>88.4</ele><time>2026-04-26T11:58:29.958Z</time></trkpt><trkpt lat="43.35034482710363" lon="10.618530355253244"><ele>88.60000000000001</ele><time>2026-04-26T11:58:30.958Z</time></trkpt><trkpt lat="43.35039077223947" lon="10.618601147436982"><ele>88.80000000000001</ele><time>2026-04-26T11:58:31.958Z</time></trkpt><trkpt lat="43.35049037547457" lon="10.618667434085623"><ele>89.0</ele><time>2026-04-26T11:58:33.958Z</time></trkpt><trkpt lat="43.35053291132995" lon="10.61878967881578"><ele>89.5</ele><time>2026-04-26T11:58:35.958Z</time></trkpt><trkpt lat="43.35058390658047" lon="10.61885640515432"><ele>90.0</ele><time>2026-04-26T11:58:36.958Z</time></trkpt><trkpt lat="43.35062263615401" lon="10.618934773809093"><ele>90.5</ele><time>2026-04-26T11:58:37.958Z</time></trkpt><trkpt lat="43.35073207464268" lon="10.618986171084375"><ele>91.0</ele><time>2026-04-26T11:58:39.958Z</time></trkpt><trkpt lat="43.35080121924462" lon="10.618961370268078"><ele>91.5</ele><time>2026-04-26T11:58:40.958Z</time></trkpt><trkpt lat="43.35086761210055" lon="10.618897519088476"><ele>92.0</ele><time>2026-04-26T11:58:41.958Z</time></trkpt><trkpt lat="43.35095420845253" lon="10.618796117309044"><ele>92.0</ele><time>2026-04-26T11:58:42.958Z</time></trkpt><trkpt lat="43.35105850969517" lon="10.618689022662732"><ele>92.0</ele><time>2026-04-26T11:58:43.958Z</time></trkpt><trkpt lat="43.35115610819102" lon="10.618637041566672"><ele>92.0</ele><time>2026-04-26T11:58:44.958Z</time></trkpt><trkpt lat="43.35123799159607" lon="10.618594284459014"><ele>92.0</ele><time>2026-04-26T11:58:45.958Z</time></trkpt><trkpt lat="43.35133372054486" lon="10.61855842328461"><ele>92.0</ele><time>2026-04-26T11:58:46.958Z</time></trkpt><trkpt lat="43.35145153442668" lon="10.618525411878252"><ele>94.0</ele><time>2026-04-26T11:58:47.958Z</time></trkpt><trkpt lat="43.35155801289658" lon="10.618513173385342"><ele>96.0</ele><time>2026-04-26T11:58:48.958Z</time></trkpt><trkpt lat="43.35163892651658" lon="10.618512117969367"><ele>98.0</ele><time>2026-04-26T11:58:49.958Z</time></trkpt><trkpt lat="43.35171284101816" lon="10.618512117967047"><ele>100.0</ele><time>2026-04-26T11:58:50.958Z</time></trkpt><trkpt lat="43.3517882058" lon="10.618546858817478"><ele>101.99999999999999</ele><time>2026-04-26T11:58:51.958Z</time></trkpt><trkpt lat="43.3518779171549" lon="10.618570440579624"><ele>104.0</ele><time>2026-04-26T11:58:52.958Z</time></trkpt><trkpt lat="43.35195543249868" lon="10.618590520707887"><ele>104.0</ele><time>2026-04-26T11:58:53.958Z</time></trkpt><trkpt lat="43.35202951826472" lon="10.618609712413951"><ele>104.0</ele><time>2026-04-26T11:58:54.958Z</time></trkpt><trkpt lat="43.35210946180548" lon="10.618610070872787"><ele>104.0</ele><time>2026-04-26T11:58:55.958Z</time></trkpt><trkpt lat="43.35218050809485" lon="10.618642957861015"><ele>104.0</ele><time>2026-04-26T11:58:56.958Z</time></trkpt><trkpt lat="43.35225171483405" lon="10.618654603778918"><ele>104.0</ele><time>2026-04-26T11:58:57.958Z</time></trkpt><trkpt lat="43.35231732632677" lon="10.618670777753218"><ele>104.0</ele><time>2026-04-26T11:58:58.958Z</time></trkpt><trkpt lat="43.35238198888949" lon="10.618686786553068"><ele>104.0</ele><time>2026-04-26T11:58:59.958Z</time></trkpt><trkpt lat="43.35247194139603" lon="10.618668289428703"><ele>103.83333333333333</ele><time>2026-04-26T11:59:01.958Z</time></trkpt><trkpt lat="43.352586521362774" lon="10.618657043723191"><ele>103.66666666666666</ele><time>2026-04-26T11:59:03.958Z</time></trkpt><trkpt lat="43.35267235526039" lon="10.618653000454414"><ele>103.5</ele><time>2026-04-26T11:59:04.958Z</time></trkpt><trkpt lat="43.35273737723295" lon="10.618698380191246"><ele>103.33333333333334</ele><time>2026-04-26T11:59:05.958Z</time></trkpt><trkpt lat="43.35280733010384" lon="10.618711027820604"><ele>103.16666666666667</ele><time>2026-04-26T11:59:06.958Z</time></trkpt><trkpt lat="43.352877179277016" lon="10.618699565773142"><ele>103.0</ele><time>2026-04-26T11:59:07.958Z</time></trkpt><trkpt lat="43.35298562977716" lon="10.618681064831499"><ele>105.60000000000001</ele><time>2026-04-26T11:59:09.958Z</time></trkpt><trkpt lat="43.35306716981234" lon="10.618537935097118"><ele>108.2</ele><time>2026-04-26T11:59:11.958Z</time></trkpt><trkpt lat="43.353088317862095" lon="10.61842507907254"><ele>110.8</ele><time>2026-04-26T11:59:12.958Z</time></trkpt><trkpt lat="43.35307756814068" lon="10.618322518276507"><ele>113.4</ele><time>2026-04-26T11:59:13.958Z</time></trkpt><trkpt lat="43.353027661296345" lon="10.618228629580933"><ele>116.0</ele><time>2026-04-26T11:59:14.958Z</time></trkpt><trkpt lat="43.35296614498577" lon="10.618141078340193"><ele>115.99999999999999</ele><time>2026-04-26T11:59:15.958Z</time></trkpt><trkpt lat="43.3529275942712" lon="10.618015703630702"><ele>116.0</ele><time>2026-04-26T11:59:16.958Z</time></trkpt><trkpt lat="43.352890436929634" lon="10.617902021056118"><ele>116.0</ele><time>2026-04-26T11:59:17.958Z</time></trkpt><trkpt lat="43.352858347620675" lon="10.617801604922338"><ele>116.0</ele><time>2026-04-26T11:59:18.958Z</time></trkpt><trkpt lat="43.35281507853092" lon="10.617717639183683"><ele>115.99999999999999</ele><time>2026-04-26T11:59:19.958Z</time></trkpt><trkpt lat="43.352791154385656" lon="10.617614385384096"><ele>116.0</ele><time>2026-04-26T11:59:20.958Z</time></trkpt><trkpt lat="43.35277717766323" lon="10.617525577573765"><ele>117.16666666666666</ele><time>2026-04-26T11:59:21.958Z</time></trkpt><trkpt lat="43.3528300979993" lon="10.617425319185699"><ele>118.33333333333333</ele><time>2026-04-26T11:59:23.958Z</time></trkpt><trkpt lat="43.35289826240724" lon="10.6174359373835"><ele>119.5</ele><time>2026-04-26T11:59:24.958Z</time></trkpt><trkpt lat="43.352965309527356" lon="10.617422286899854"><ele>120.66666666666666</ele><time>2026-04-26T11:59:25.958Z</time></trkpt><trkpt lat="43.353050756214394" lon="10.617397085519581"><ele>121.83333333333333</ele><time>2026-04-26T11:59:26.958Z</time></trkpt><trkpt lat="43.35313017281154" lon="10.617377087080708"><ele>123.0</ele><time>2026-04-26T11:59:27.958Z</time></trkpt><trkpt lat="43.35320046392078" lon="10.617361744344294"><ele>125.16666666666667</ele><time>2026-04-26T11:59:28.958Z</time></trkpt><trkpt lat="43.35325847533672" lon="10.617320439973748"><ele>127.33333333333334</ele><time>2026-04-26T11:59:29.958Z</time></trkpt><trkpt lat="43.35332114438694" lon="10.617293725522709"><ele>129.5</ele><time>2026-04-26T11:59:30.958Z</time></trkpt><trkpt lat="43.353403514649585" lon="10.617243215175757"><ele>131.66666666666669</ele><time>2026-04-26T11:59:31.958Z</time></trkpt><trkpt lat="43.353495977359366" lon="10.617178141444155"><ele>133.83333333333334</ele><time>2026-04-26T11:59:32.958Z</time></trkpt><trkpt lat="43.35360653917456" lon="10.617119575254176"><ele>136.0</ele><time>2026-04-26T11:59:33.958Z</time></trkpt><trkpt lat="43.35372627431885" lon="10.61706645407097"><ele>136.0</ele><time>2026-04-26T11:59:34.958Z</time></trkpt><trkpt lat="43.35383112741324" lon="10.617020683360078"><ele>136.0</ele><time>2026-04-26T11:59:35.958Z</time></trkpt><trkpt lat="43.35391608679093" lon="10.616986206802533"><ele>136.0</ele><time>2026-04-26T11:59:36.958Z</time></trkpt><trkpt lat="43.35398555736198" lon="10.616936147137462"><ele>136.0</ele><time>2026-04-26T11:59:37.958Z</time></trkpt><trkpt lat="43.35405048000893" lon="10.6168465785743"><ele>136.0</ele><time>2026-04-26T11:59:38.958Z</time></trkpt><trkpt lat="43.35413387681796" lon="10.616729153684622"><ele>137.2</ele><time>2026-04-26T11:59:39.958Z</time></trkpt><trkpt lat="43.354216564687164" lon="10.616604162795369"><ele>138.39999999999998</ele><time>2026-04-26T11:59:40.958Z</time></trkpt><trkpt lat="43.354284456276645" lon="10.61649839512811"><ele>139.6</ele><time>2026-04-26T11:59:41.958Z</time></trkpt><trkpt lat="43.354348448650114" lon="10.616395651268617"><ele>140.79999999999998</ele><time>2026-04-26T11:59:42.958Z</time></trkpt><trkpt lat="43.354421376384884" lon="10.616310903865658"><ele>142.0</ele><time>2026-04-26T11:59:43.958Z</time></trkpt><trkpt lat="43.35448251649105" lon="10.616224551142851"><ele>143.0</ele><time>2026-04-26T11:59:44.958Z</time></trkpt><trkpt lat="43.35454879448808" lon="10.61613094184205"><ele>144.0</ele><time>2026-04-26T11:59:45.958Z</time></trkpt><trkpt lat="43.35460875616962" lon="10.616046792854473"><ele>145.0</ele><time>2026-04-26T11:59:46.958Z</time></trkpt><trkpt lat="43.354665343022944" lon="10.615936275198157"><ele>146.0</ele><time>2026-04-26T11:59:47.958Z</time></trkpt><trkpt lat="43.35473778382759" lon="10.615857574153083"><ele>147.0</ele><time>2026-04-26T11:59:48.958Z</time></trkpt><trkpt lat="43.354803168372975" lon="10.615751854911037"><ele>147.2</ele><time>2026-04-26T11:59:49.958Z</time></trkpt><trkpt lat="43.354866755575166" lon="10.61566233541254"><ele>147.39999999999998</ele><time>2026-04-26T11:59:50.958Z</time></trkpt><trkpt lat="43.35493580044477" lon="10.61556497558718"><ele>147.60000000000002</ele><time>2026-04-26T11:59:51.958Z</time></trkpt><trkpt lat="43.35499975139089" lon="10.615472611904803"><ele>147.8</ele><time>2026-04-26T11:59:52.958Z</time></trkpt><trkpt lat="43.35507180647903" lon="10.615380352620205"><ele>148.0</ele><time>2026-04-26T11:59:53.954Z</time></trkpt><trkpt lat="43.35514418040282" lon="10.615271807292325"><ele>148.0</ele><time>2026-04-26T11:59:54.954Z</time></trkpt><trkpt lat="43.355219829617745" lon="10.615166693042903"><ele>148.0</ele><time>2026-04-26T11:59:55.954Z</time></trkpt><trkpt lat="43.35530336789208" lon="10.615062079983277"><ele>148.0</ele><time>2026-04-26T11:59:56.955Z</time></trkpt><trkpt lat="43.35539418484206" lon="10.614957126080121"><ele>148.0</ele><time>2026-04-26T11:59:57.955Z</time></trkpt><trkpt lat="43.35548885560869" lon="10.614838165464702"><ele>147.0</ele><time>2026-04-26T11:59:58.955Z</time></trkpt><trkpt lat="43.35557673675525" lon="10.614724130715006"><ele>146.0</ele><time>2026-04-26T11:59:59.955Z</time></trkpt><trkpt lat="43.355645144552284" lon="10.614612326422968"><ele>145.0</ele><time>2026-04-26T12:00:00.955Z</time></trkpt><trkpt lat="43.35570864971667" lon="10.614506356147752"><ele>144.0</ele><time>2026-04-26T12:00:01.955Z</time></trkpt><trkpt lat="43.355778556247714" lon="10.614406677935563"><ele>143.0</ele><time>2026-04-26T12:00:02.954Z</time></trkpt><trkpt lat="43.35585945936576" lon="10.61428943024045"><ele>144.8</ele><time>2026-04-26T12:00:03.955Z</time></trkpt><trkpt lat="43.35594380845919" lon="10.614191440929591"><ele>146.60000000000002</ele><time>2026-04-26T12:00:04.955Z</time></trkpt><trkpt lat="43.35603706962536" lon="10.614133612777561"><ele>148.39999999999998</ele><time>2026-04-26T12:00:05.955Z</time></trkpt><trkpt lat="43.35614047787781" lon="10.614077503335707"><ele>150.2</ele><time>2026-04-26T12:00:06.955Z</time></trkpt><trkpt lat="43.35625157745606" lon="10.614010130859024"><ele>152.0</ele><time>2026-04-26T12:00:07.955Z</time></trkpt><trkpt lat="43.3563742205374" lon="10.613921793687012"><ele>152.0</ele><time>2026-04-26T12:00:08.955Z</time></trkpt><trkpt lat="43.356489649693756" lon="10.613842837430731"><ele>152.0</ele><time>2026-04-26T12:00:09.955Z</time></trkpt><trkpt lat="43.35659632948606" lon="10.613771280714964"><ele>152.0</ele><time>2026-04-26T12:00:10.955Z</time></trkpt><trkpt lat="43.35671104711224" lon="10.613700371192806"><ele>152.0</ele><time>2026-04-26T12:00:11.955Z</time></trkpt><trkpt lat="43.35681379893781" lon="10.613626279465777"><ele>154.66666666666666</ele><time>2026-04-26T12:00:12.955Z</time></trkpt><trkpt lat="43.35689562994816" lon="10.613566937008862"><ele>157.33333333333331</ele><time>2026-04-26T12:00:13.955Z</time></trkpt><trkpt lat="43.356961121823595" lon="10.613511235493064"><ele>160.0</ele><time>2026-04-26T12:00:14.955Z</time></trkpt><trkpt lat="43.35701757351998" lon="10.613456333849488"><ele>162.66666666666666</ele><time>2026-04-26T12:00:15.955Z</time></trkpt><trkpt lat="43.35708379429045" lon="10.613431029305067"><ele>165.33333333333334</ele><time>2026-04-26T12:00:16.955Z</time></trkpt><trkpt lat="43.35714851546875" lon="10.613386048473245"><ele>168.0</ele><time>2026-04-26T12:00:17.955Z</time></trkpt><trkpt lat="43.35725689997797" lon="10.613313933135824"><ele>168.25</ele><time>2026-04-26T12:00:18.955Z</time></trkpt><trkpt lat="43.357374289782584" lon="10.613239163335253"><ele>168.5</ele><time>2026-04-26T12:00:19.955Z</time></trkpt><trkpt lat="43.357497195908095" lon="10.613157107011562"><ele>168.75</ele><time>2026-04-26T12:00:20.955Z</time></trkpt><trkpt lat="43.35760857217542" lon="10.613069952625418"><ele>169.0</ele><time>2026-04-26T12:00:21.955Z</time></trkpt><trkpt lat="43.35770403910721" lon="10.612995416803003"><ele>169.0</ele><time>2026-04-26T12:00:22.955Z</time></trkpt><trkpt lat="43.35780022355029" lon="10.61292853635905"><ele>169.0</ele><time>2026-04-26T12:00:23.955Z</time></trkpt><trkpt lat="43.35789510998836" lon="10.61285345757191"><ele>169.0</ele><time>2026-04-26T12:00:24.955Z</time></trkpt><trkpt lat="43.357994539246654" lon="10.612791794182128"><ele>169.0</ele><time>2026-04-26T12:00:25.955Z</time></trkpt><trkpt lat="43.35810406248826" lon="10.612737216983165"><ele>169.0</ele><time>2026-04-26T12:00:26.955Z</time></trkpt><trkpt lat="43.35822544327413" lon="10.612689368467054"><ele>172.5</ele><time>2026-04-26T12:00:27.955Z</time></trkpt><trkpt lat="43.35835211484556" lon="10.612634046142842"><ele>176.0</ele><time>2026-04-26T12:00:28.955Z</time></trkpt><trkpt lat="43.35846594687668" lon="10.612585061791314"><ele>179.5</ele><time>2026-04-26T12:00:29.955Z</time></trkpt><trkpt lat="43.358571476857094" lon="10.61254192735954"><ele>183.0</ele><time>2026-04-26T12:00:30.955Z</time></trkpt><trkpt lat="43.35867801606392" lon="10.612487950820896"><ele>183.0</ele><time>2026-04-26T12:00:31.955Z</time></trkpt><trkpt lat="43.358772059555335" lon="10.612430366949349"><ele>183.0</ele><time>2026-04-26T12:00:32.955Z</time></trkpt><trkpt lat="43.358863437542546" lon="10.612372708958159"><ele>183.0</ele><time>2026-04-26T12:00:33.955Z</time></trkpt><trkpt lat="43.35893257598925" lon="10.612327216335164"><ele>183.0</ele><time>2026-04-26T12:00:34.955Z</time></trkpt><trkpt lat="43.35900472538024" lon="10.612279970978474"><ele>183.0</ele><time>2026-04-26T12:00:35.955Z</time></trkpt><trkpt lat="43.359056937937204" lon="10.612206887952562"><ele>183.0</ele><time>2026-04-26T12:00:36.955Z</time></trkpt><trkpt lat="43.359124196984176" lon="10.61213652390608"><ele>182.66666666666666</ele><time>2026-04-26T12:00:37.955Z</time></trkpt><trkpt lat="43.359180952500026" lon="10.612057580379656"><ele>182.33333333333334</ele><time>2026-04-26T12:00:38.955Z</time></trkpt><trkpt lat="43.359256168900764" lon="10.611952958661831"><ele>182.0</ele><time>2026-04-26T12:00:39.955Z</time></trkpt><trkpt lat="43.359313163911544" lon="10.611872485434636"><ele>181.66666666666669</ele><time>2026-04-26T12:00:40.955Z</time></trkpt><trkpt lat="43.35935962042227" lon="10.611805670226161"><ele>181.33333333333334</ele><time>2026-04-26T12:00:41.955Z</time></trkpt><trkpt lat="43.35941546314397" lon="10.611745225253475"><ele>181.0</ele><time>2026-04-26T12:00:43.955Z</time></trkpt><trkpt lat="43.35949555904415" lon="10.611678174246022"><ele>183.0</ele><time>2026-04-26T12:00:45.955Z</time></trkpt><trkpt lat="43.35954251693751" lon="10.61159126095806"><ele>185.0</ele><time>2026-04-26T12:00:46.955Z</time></trkpt><trkpt lat="43.359602938701165" lon="10.611521332317862"><ele>187.0</ele><time>2026-04-26T12:00:47.955Z</time></trkpt><trkpt lat="43.35967126825421" lon="10.611423903043269"><ele>189.0</ele><time>2026-04-26T12:00:49.955Z</time></trkpt><trkpt lat="43.359725704519875" lon="10.611322598342056"><ele>191.0</ele><time>2026-04-26T12:00:58.955Z</time></trkpt><trkpt lat="43.35987400678419" lon="10.611266692032308"><ele>191.0</ele><time>2026-04-26T12:01:00.955Z</time></trkpt><trkpt lat="43.35997006098203" lon="10.611237256173121"><ele>191.0</ele><time>2026-04-26T12:01:01.955Z</time></trkpt><trkpt lat="43.360070859478576" lon="10.611183844094239"><ele>191.0</ele><time>2026-04-26T12:01:02.955Z</time></trkpt><trkpt lat="43.36018342702283" lon="10.611125112798202"><ele>191.0</ele><time>2026-04-26T12:01:03.955Z</time></trkpt><trkpt lat="43.360297097986795" lon="10.61108281658391"><ele>191.0</ele><time>2026-04-26T12:01:04.955Z</time></trkpt><trkpt lat="43.36040582538065" lon="10.611049505117109"><ele>191.60000000000002</ele><time>2026-04-26T12:01:05.955Z</time></trkpt><trkpt lat="43.360501766526355" lon="10.611024829931175"><ele>192.2</ele><time>2026-04-26T12:01:06.955Z</time></trkpt><trkpt lat="43.36059974753583" lon="10.611002715135735"><ele>192.8</ele><time>2026-04-26T12:01:07.955Z</time></trkpt><trkpt lat="43.36069883365859" lon="10.61099895598556"><ele>193.39999999999998</ele><time>2026-04-26T12:01:08.955Z</time></trkpt><trkpt lat="43.36080641025707" lon="10.610990108792105"><ele>194.0</ele><time>2026-04-26T12:01:09.955Z</time></trkpt><trkpt lat="43.36092462749628" lon="10.611001879981012"><ele>197.75</ele><time>2026-04-26T12:01:10.955Z</time></trkpt><trkpt lat="43.36104278310591" lon="10.611004558864275"><ele>201.5</ele><time>2026-04-26T12:01:11.955Z</time></trkpt><trkpt lat="43.36116583038802" lon="10.611007250960675"><ele>205.25</ele><time>2026-04-26T12:01:12.955Z</time></trkpt><trkpt lat="43.3612851550188" lon="10.610998939325347"><ele>209.0</ele><time>2026-04-26T12:01:13.955Z</time></trkpt><trkpt lat="43.361394530541936" lon="10.610981740605606"><ele>210.5</ele><time>2026-04-26T12:01:14.955Z</time></trkpt><trkpt lat="43.36149839884519" lon="10.610944408788427"><ele>212.0</ele><time>2026-04-26T12:01:15.955Z</time></trkpt><trkpt lat="43.36160744243235" lon="10.610879977249892"><ele>213.5</ele><time>2026-04-26T12:01:16.955Z</time></trkpt><trkpt lat="43.36170504253847" lon="10.610809989512514"><ele>215.0</ele><time>2026-04-26T12:01:17.955Z</time></trkpt><trkpt lat="43.361813816553386" lon="10.610744707409959"><ele>215.0</ele><time>2026-04-26T12:01:18.955Z</time></trkpt><trkpt lat="43.361936197434254" lon="10.610692352862605"><ele>215.0</ele><time>2026-04-26T12:01:19.955Z</time></trkpt><trkpt lat="43.362055991731445" lon="10.610642335619366"><ele>215.0</ele><time>2026-04-26T12:01:20.955Z</time></trkpt><trkpt lat="43.362161730307726" lon="10.610581543424802"><ele>215.0</ele><time>2026-04-26T12:01:21.955Z</time></trkpt><trkpt lat="43.3622770166591" lon="10.610529423165243"><ele>217.25</ele><time>2026-04-26T12:01:22.955Z</time></trkpt><trkpt lat="43.36238674477615" lon="10.610481299225707"><ele>219.5</ele><time>2026-04-26T12:01:23.955Z</time></trkpt><trkpt lat="43.36249273977923" lon="10.610430365959925"><ele>221.75</ele><time>2026-04-26T12:01:24.955Z</time></trkpt><trkpt lat="43.3625977381717" lon="10.610381643524645"><ele>224.0</ele><time>2026-04-26T12:01:25.955Z</time></trkpt><trkpt lat="43.36270942975092" lon="10.61037028718813"><ele>224.0</ele><time>2026-04-26T12:01:26.955Z</time></trkpt><trkpt lat="43.3628184940615" lon="10.610359044284943"><ele>223.99999999999997</ele><time>2026-04-26T12:01:27.955Z</time></trkpt><trkpt lat="43.36291011403537" lon="10.610365490543813"><ele>223.99999999999997</ele><time>2026-04-26T12:01:28.955Z</time></trkpt><trkpt lat="43.3629947671228" lon="10.610385094898318"><ele>224.0</ele><time>2026-04-26T12:01:29.955Z</time></trkpt><trkpt lat="43.36306940877024" lon="10.610421963532506"><ele>224.0</ele><time>2026-04-26T12:01:30.955Z</time></trkpt><trkpt lat="43.36314976241195" lon="10.610454350448553"><ele>224.50000000000003</ele><time>2026-04-26T12:01:31.955Z</time></trkpt><trkpt lat="43.363221043411315" lon="10.610478308187"><ele>225.0</ele><time>2026-04-26T12:01:32.955Z</time></trkpt><trkpt lat="43.36329850798968" lon="10.610457414885888"><ele>225.5</ele><time>2026-04-26T12:01:33.955Z</time></trkpt><trkpt lat="43.36334756456425" lon="10.610365679423081"><ele>226.0</ele><time>2026-04-26T12:01:34.955Z</time></trkpt><trkpt lat="43.36338953356168" lon="10.610281990765655"><ele>226.50000000000003</ele><time>2026-04-26T12:01:35.955Z</time></trkpt><trkpt lat="43.363420447738825" lon="10.610166297818157"><ele>227.0</ele><time>2026-04-26T12:01:36.955Z</time></trkpt><trkpt lat="43.36344347803782" lon="10.610040798238849"><ele>225.66666666666669</ele><time>2026-04-26T12:01:37.955Z</time></trkpt><trkpt lat="43.36345940511005" lon="10.60992373338228"><ele>224.33333333333334</ele><time>2026-04-26T12:01:38.955Z</time></trkpt><trkpt lat="43.363471529971356" lon="10.609821823212263"><ele>223.0</ele><time>2026-04-26T12:01:39.955Z</time></trkpt><trkpt lat="43.363517126831965" lon="10.609719360995276"><ele>221.66666666666669</ele><time>2026-04-26T12:01:41.955Z</time></trkpt><trkpt lat="43.36359802782486" lon="10.609673230419766"><ele>220.33333333333334</ele><time>2026-04-26T12:01:43.955Z</time></trkpt><trkpt lat="43.36366462900103" lon="10.60964125881604"><ele>219.0</ele><time>2026-04-26T12:01:45.955Z</time></trkpt><trkpt lat="43.363699949234885" lon="10.609561324097937"><ele>218.2</ele><time>2026-04-26T12:01:48.955Z</time></trkpt><trkpt lat="43.363674745226156" lon="10.609446938521396"><ele>217.39999999999998</ele><time>2026-04-26T12:01:49.955Z</time></trkpt><trkpt lat="43.36362074920095" lon="10.609378032696464"><ele>216.6</ele><time>2026-04-26T12:01:50.955Z</time></trkpt><trkpt lat="43.36354883816117" lon="10.609286263923515"><ele>215.8</ele><time>2026-04-26T12:01:51.955Z</time></trkpt><trkpt lat="43.36347210227834" lon="10.609181158248951"><ele>215.0</ele><time>2026-04-26T12:01:52.955Z</time></trkpt><trkpt lat="43.36339016306418" lon="10.609061412803193"><ele>215.0</ele><time>2026-04-26T12:01:53.955Z</time></trkpt><trkpt lat="43.36330583766422" lon="10.608935882871002"><ele>215.0</ele><time>2026-04-26T12:01:54.955Z</time></trkpt><trkpt lat="43.363210978278296" lon="10.608819470055197"><ele>215.0</ele><time>2026-04-26T12:01:55.955Z</time></trkpt><trkpt lat="43.363141893792886" lon="10.608698091469758"><ele>215.0</ele><time>2026-04-26T12:01:56.955Z</time></trkpt><trkpt lat="43.36306777668685" lon="10.608592656107007"><ele>213.8</ele><time>2026-04-26T12:01:57.955Z</time></trkpt><trkpt lat="43.36299801425125" lon="10.608491068099905"><ele>212.6</ele><time>2026-04-26T12:01:58.955Z</time></trkpt><trkpt lat="43.362928101736316" lon="10.608392826667313"><ele>211.39999999999998</ele><time>2026-04-26T12:01:59.952Z</time></trkpt><trkpt lat="43.3628528709526" lon="10.608304207722938"><ele>210.2</ele><time>2026-04-26T12:02:00.952Z</time></trkpt><trkpt lat="43.3627657856211" lon="10.608226371471417"><ele>209.0</ele><time>2026-04-26T12:02:01.952Z</time></trkpt><trkpt lat="43.36266694265561" lon="10.608171702343677"><ele>209.0</ele><time>2026-04-26T12:02:02.952Z</time></trkpt><trkpt lat="43.362556731958406" lon="10.608131531247913"><ele>209.0</ele><time>2026-04-26T12:02:03.952Z</time></trkpt><trkpt lat="43.362456656026005" lon="10.608077409887779"><ele>209.0</ele><time>2026-04-26T12:02:04.952Z</time></trkpt><trkpt lat="43.36237891251597" lon="10.607959598502463"><ele>209.0</ele><time>2026-04-26T12:02:05.952Z</time></trkpt><trkpt lat="43.36231093263059" lon="10.60783201370807"><ele>208.6</ele><time>2026-04-26T12:02:06.952Z</time></trkpt><trkpt lat="43.362234942920416" lon="10.607708422744983"><ele>208.2</ele><time>2026-04-26T12:02:07.952Z</time></trkpt><trkpt lat="43.36214808573552" lon="10.6076138432127"><ele>207.79999999999998</ele><time>2026-04-26T12:02:08.952Z</time></trkpt><trkpt lat="43.362085785671276" lon="10.607527334160155"><ele>207.39999999999998</ele><time>2026-04-26T12:02:09.951Z</time></trkpt><trkpt lat="43.362028736690355" lon="10.607461299710758"><ele>207.0</ele><time>2026-04-26T12:02:10.951Z</time></trkpt><trkpt lat="43.361953752959636" lon="10.607403216795973"><ele>207.0</ele><time>2026-04-26T12:02:11.951Z</time></trkpt><trkpt lat="43.36185552221933" lon="10.607367066480847"><ele>207.0</ele><time>2026-04-26T12:02:12.952Z</time></trkpt><trkpt lat="43.36172781816684" lon="10.607351561762954"><ele>207.0</ele><time>2026-04-26T12:02:13.952Z</time></trkpt><trkpt lat="43.36158994263696" lon="10.607338032062726"><ele>207.0</ele><time>2026-04-26T12:02:14.952Z</time></trkpt><trkpt lat="43.36145901053793" lon="10.607314294267029"><ele>206.8</ele><time>2026-04-26T12:02:15.952Z</time></trkpt><trkpt lat="43.361347703709576" lon="10.607287153738694"><ele>206.6</ele><time>2026-04-26T12:02:16.952Z</time></trkpt><trkpt lat="43.36124602920553" lon="10.607263729525586"><ele>206.4</ele><time>2026-04-26T12:02:17.952Z</time></trkpt><trkpt lat="43.36114272929844" lon="10.607228040530012"><ele>206.20000000000002</ele><time>2026-04-26T12:02:18.952Z</time></trkpt><trkpt lat="43.361037113306175" lon="10.607183455893145"><ele>206.0</ele><time>2026-04-26T12:02:19.952Z</time></trkpt><trkpt lat="43.36092474083567" lon="10.607131420436833"><ele>206.0</ele><time>2026-04-26T12:02:20.952Z</time></trkpt><trkpt lat="43.360809379600454" lon="10.607076615143168"><ele>206.0</ele><time>2026-04-26T12:02:21.952Z</time></trkpt><trkpt lat="43.36069246725895" lon="10.607021763333902"><ele>206.0</ele><time>2026-04-26T12:02:22.952Z</time></trkpt><trkpt lat="43.360573989027124" lon="10.606968057021735"><ele>206.0</ele><time>2026-04-26T12:02:23.952Z</time></trkpt><trkpt lat="43.36045890866211" lon="10.606923567056604"><ele>206.60000000000002</ele><time>2026-04-26T12:02:24.952Z</time></trkpt><trkpt lat="43.36035834950316" lon="10.606880192213223"><ele>207.2</ele><time>2026-04-26T12:02:25.952Z</time></trkpt><trkpt lat="43.36026090961801" lon="10.606836627831637"><ele>207.8</ele><time>2026-04-26T12:02:26.952Z</time></trkpt><trkpt lat="43.360165466670914" lon="10.606770413728308"><ele>208.39999999999998</ele><time>2026-04-26T12:02:27.952Z</time></trkpt><trkpt lat="43.360079097152514" lon="10.606642492255444"><ele>209.0</ele><time>2026-04-26T12:02:28.952Z</time></trkpt><trkpt lat="43.359981335799795" lon="10.60652676507219"><ele>209.0</ele><time>2026-04-26T12:02:29.952Z</time></trkpt><trkpt lat="43.35990043058436" lon="10.606400525681705"><ele>209.0</ele><time>2026-04-26T12:02:30.952Z</time></trkpt><trkpt lat="43.35981009845454" lon="10.606288141357105"><ele>209.0</ele><time>2026-04-26T12:02:31.952Z</time></trkpt><trkpt lat="43.35970599991634" lon="10.606190130611084"><ele>209.0</ele><time>2026-04-26T12:02:32.952Z</time></trkpt><trkpt lat="43.35961610188292" lon="10.606101145995101"><ele>209.39999999999998</ele><time>2026-04-26T12:02:33.952Z</time></trkpt><trkpt lat="43.3595296348548" lon="10.60602704350772"><ele>209.8</ele><time>2026-04-26T12:02:34.952Z</time></trkpt><trkpt lat="43.359438608559195" lon="10.605949146348193"><ele>210.2</ele><time>2026-04-26T12:02:35.952Z</time></trkpt><trkpt lat="43.35933810578069" lon="10.605882961039521"><ele>210.60000000000002</ele><time>2026-04-26T12:02:36.952Z</time></trkpt><trkpt lat="43.359228487305764" lon="10.605810956219669"><ele>211.0</ele><time>2026-04-26T12:02:37.952Z</time></trkpt><trkpt lat="43.35913159377377" lon="10.605719061245521"><ele>211.0</ele><time>2026-04-26T12:02:38.952Z</time></trkpt><trkpt lat="43.35903601693956" lon="10.605639562161672"><ele>211.0</ele><time>2026-04-26T12:02:39.952Z</time></trkpt><trkpt lat="43.35896318806425" lon="10.605553781390764"><ele>211.0</ele><time>2026-04-26T12:02:40.952Z</time></trkpt><trkpt lat="43.358937841371855" lon="10.605442327301882"><ele>211.0</ele><time>2026-04-26T12:02:41.952Z</time></trkpt><trkpt lat="43.358879006272936" lon="10.60531769185444"><ele>211.0</ele><time>2026-04-26T12:02:43.952Z</time></trkpt><trkpt lat="43.35888291839118" lon="10.60521194704555"><ele>210.66666666666666</ele><time>2026-04-26T12:02:45.952Z</time></trkpt><trkpt lat="43.35895217346478" lon="10.60511413300876"><ele>210.33333333333331</ele><time>2026-04-26T12:02:47.952Z</time></trkpt><trkpt lat="43.35897207354966" lon="10.605009122272588"><ele>210.0</ele><time>2026-04-26T12:02:48.952Z</time></trkpt><trkpt lat="43.35896203826052" lon="10.604896239887688"><ele>209.66666666666669</ele><time>2026-04-26T12:02:49.952Z</time></trkpt><trkpt lat="43.358913624911814" lon="10.604814905846172"><ele>209.33333333333334</ele><time>2026-04-26T12:02:50.952Z</time></trkpt><trkpt lat="43.35886695041848" lon="10.604725268410462"><ele>209.0</ele><time>2026-04-26T12:02:51.952Z</time></trkpt><trkpt lat="43.3588182853466" lon="10.604634212498654"><ele>208.79999999999998</ele><time>2026-04-26T12:02:52.952Z</time></trkpt><trkpt lat="43.358781089068735" lon="10.604515502603338"><ele>208.6</ele><time>2026-04-26T12:02:53.952Z</time></trkpt><trkpt lat="43.35872862351826" lon="10.604404289781371"><ele>208.4</ele><time>2026-04-26T12:02:54.952Z</time></trkpt><trkpt lat="43.35866483443357" lon="10.604308023740144"><ele>208.2</ele><time>2026-04-26T12:02:55.952Z</time></trkpt><trkpt lat="43.358625050581765" lon="10.604176201812201"><ele>208.0</ele><time>2026-04-26T12:02:56.952Z</time></trkpt><trkpt lat="43.35857702785556" lon="10.604071182867015"><ele>207.4</ele><time>2026-04-26T12:02:57.952Z</time></trkpt><trkpt lat="43.358533971726125" lon="10.603983324620293"><ele>206.8</ele><time>2026-04-26T12:02:58.952Z</time></trkpt><trkpt lat="43.358470162393566" lon="10.603822079066472"><ele>206.2</ele><time>2026-04-26T12:03:00.952Z</time></trkpt><trkpt lat="43.35844558229142" lon="10.603692017191904"><ele>205.6</ele><time>2026-04-26T12:03:01.952Z</time></trkpt><trkpt lat="43.35842189327166" lon="10.603563376375071"><ele>205.0</ele><time>2026-04-26T12:03:02.952Z</time></trkpt><trkpt lat="43.358405750746236" lon="10.60345027242546"><ele>204.49999999999997</ele><time>2026-04-26T12:03:03.952Z</time></trkpt><trkpt lat="43.358388419174595" lon="10.60333497980819"><ele>204.0</ele><time>2026-04-26T12:03:04.952Z</time></trkpt><trkpt lat="43.3583698525995" lon="10.60321619121811"><ele>203.5</ele><time>2026-04-26T12:03:05.952Z</time></trkpt><trkpt lat="43.35834634548608" lon="10.603101165126764"><ele>203.0</ele><time>2026-04-26T12:03:06.952Z</time></trkpt><trkpt lat="43.358316041643306" lon="10.602989262182819"><ele>202.49999999999997</ele><time>2026-04-26T12:03:07.952Z</time></trkpt><trkpt lat="43.358272721633526" lon="10.602881597723194"><ele>202.0</ele><time>2026-04-26T12:03:08.952Z</time></trkpt><trkpt lat="43.35822803256439" lon="10.602782803853536"><ele>201.49999999999997</ele><time>2026-04-26T12:03:09.952Z</time></trkpt><trkpt lat="43.358181438103095" lon="10.602675255342811"><ele>201.0</ele><time>2026-04-26T12:03:10.952Z</time></trkpt><trkpt lat="43.358149618797235" lon="10.602560169559329"><ele>200.5</ele><time>2026-04-26T12:03:11.952Z</time></trkpt><trkpt lat="43.358129923222016" lon="10.602440394400336"><ele>200.0</ele><time>2026-04-26T12:03:12.952Z</time></trkpt><trkpt lat="43.35812187673234" lon="10.602325484735578"><ele>199.49999999999997</ele><time>2026-04-26T12:03:13.952Z</time></trkpt><trkpt lat="43.35812297333398" lon="10.602218842094254"><ele>199.0</ele><time>2026-04-26T12:03:14.952Z</time></trkpt><trkpt lat="43.35814363888346" lon="10.60211230615411"><ele>198.99999999999997</ele><time>2026-04-26T12:03:15.952Z</time></trkpt><trkpt lat="43.35818071059007" lon="10.602024341917458"><ele>199.0</ele><time>2026-04-26T12:03:16.952Z</time></trkpt><trkpt lat="43.35823952424216" lon="10.60193576763734"><ele>199.0</ele><time>2026-04-26T12:03:17.952Z</time></trkpt><trkpt lat="43.358298436825514" lon="10.601878732673455"><ele>199.0</ele><time>2026-04-26T12:03:18.952Z</time></trkpt><trkpt lat="43.3583632717772" lon="10.601846335396134"><ele>198.99999999999997</ele><time>2026-04-26T12:03:19.952Z</time></trkpt><trkpt lat="43.358438696959254" lon="10.60185316165026"><ele>199.0</ele><time>2026-04-26T12:03:20.952Z</time></trkpt><trkpt lat="43.358504641949445" lon="10.601904787895808"><ele>196.5</ele><time>2026-04-26T12:03:21.952Z</time></trkpt><trkpt lat="43.358607050528384" lon="10.601889562892651"><ele>194.0</ele><time>2026-04-26T12:03:23.952Z</time></trkpt><trkpt lat="43.358641385900135" lon="10.601715020076242"><ele>191.5</ele><time>2026-04-26T12:03:25.952Z</time></trkpt><trkpt lat="43.35861513251771" lon="10.601582105290174"><ele>189.0</ele><time>2026-04-26T12:03:26.952Z</time></trkpt><trkpt lat="43.35855720949" lon="10.601429537978346"><ele>189.0</ele><time>2026-04-26T12:03:27.952Z</time></trkpt><trkpt lat="43.3584848590927" lon="10.60126903328121"><ele>189.0</ele><time>2026-04-26T12:03:28.952Z</time></trkpt><trkpt lat="43.358433851612155" lon="10.601099645793084"><ele>189.0</ele><time>2026-04-26T12:03:29.952Z</time></trkpt><trkpt lat="43.35837216430055" lon="10.600960722449708"><ele>189.0</ele><time>2026-04-26T12:03:30.952Z</time></trkpt><trkpt lat="43.358320463068715" lon="10.600826216738792"><ele>187.6</ele><time>2026-04-26T12:03:31.952Z</time></trkpt><trkpt lat="43.35827596424758" lon="10.60069725095068"><ele>186.2</ele><time>2026-04-26T12:03:32.952Z</time></trkpt><trkpt lat="43.3582296470474" lon="10.600577936978416"><ele>184.79999999999998</ele><time>2026-04-26T12:03:33.952Z</time></trkpt><trkpt lat="43.35818232651873" lon="10.600466590400806"><ele>183.39999999999998</ele><time>2026-04-26T12:03:34.952Z</time></trkpt><trkpt lat="43.35812909120406" lon="10.600357011351639"><ele>182.0</ele><time>2026-04-26T12:03:35.952Z</time></trkpt><trkpt lat="43.35806779013156" lon="10.600229633286874"><ele>179.5</ele><time>2026-04-26T12:03:36.952Z</time></trkpt><trkpt lat="43.358006510175976" lon="10.600090671921384"><ele>177.0</ele><time>2026-04-26T12:03:37.952Z</time></trkpt><trkpt lat="43.35793837145149" lon="10.599941271681686"><ele>174.5</ele><time>2026-04-26T12:03:38.952Z</time></trkpt><trkpt lat="43.35787083987761" lon="10.599780632325647"><ele>172.0</ele><time>2026-04-26T12:03:39.952Z</time></trkpt><trkpt lat="43.35780377671262" lon="10.599622705914157"><ele>172.75</ele><time>2026-04-26T12:03:40.952Z</time></trkpt><trkpt lat="43.35774065298813" lon="10.599461503491018"><ele>173.5</ele><time>2026-04-26T12:03:41.952Z</time></trkpt><trkpt lat="43.357677434415685" lon="10.599299356952951"><ele>174.25</ele><time>2026-04-26T12:03:42.952Z</time></trkpt><trkpt lat="43.35761025555637" lon="10.599142513719956"><ele>175.0</ele><time>2026-04-26T12:03:43.952Z</time></trkpt><trkpt lat="43.357540556676945" lon="10.598992979684239"><ele>175.0</ele><time>2026-04-26T12:03:44.952Z</time></trkpt><trkpt lat="43.35747240296465" lon="10.598847369302183"><ele>175.0</ele><time>2026-04-26T12:03:45.952Z</time></trkpt><trkpt lat="43.357412472676586" lon="10.598717648765472"><ele>175.0</ele><time>2026-04-26T12:03:46.952Z</time></trkpt><trkpt lat="43.357363435716834" lon="10.598596168839787"><ele>175.0</ele><time>2026-04-26T12:03:47.952Z</time></trkpt><trkpt lat="43.35731266007186" lon="10.59847140638785"><ele>175.0</ele><time>2026-04-26T12:03:48.953Z</time></trkpt><trkpt lat="43.35725812582655" lon="10.598336971008633"><ele>174.8</ele><time>2026-04-26T12:03:49.953Z</time></trkpt><trkpt lat="43.35721056185828" lon="10.598212818610254"><ele>174.6</ele><time>2026-04-26T12:03:50.953Z</time></trkpt><trkpt lat="43.35716253070785" lon="10.598102714541895"><ele>174.39999999999998</ele><time>2026-04-26T12:03:51.953Z</time></trkpt><trkpt lat="43.357113410704656" lon="10.598002311943704"><ele>174.2</ele><time>2026-04-26T12:03:52.953Z</time></trkpt><trkpt lat="43.35706022464881" lon="10.597898877164871"><ele>174.0</ele><time>2026-04-26T12:03:53.953Z</time></trkpt><trkpt lat="43.35700491704924" lon="10.597791602499393"><ele>174.33333333333334</ele><time>2026-04-26T12:03:54.953Z</time></trkpt><trkpt lat="43.356943451948005" lon="10.597687286629478"><ele>174.66666666666666</ele><time>2026-04-26T12:03:55.953Z</time></trkpt><trkpt lat="43.35687874588739" lon="10.59759753521079"><ele>175.0</ele><time>2026-04-26T12:03:56.953Z</time></trkpt><trkpt lat="43.356815042967135" lon="10.597523617991046"><ele>175.33333333333331</ele><time>2026-04-26T12:03:57.953Z</time></trkpt><trkpt lat="43.35675242179163" lon="10.597459178115276"><ele>175.66666666666666</ele><time>2026-04-26T12:03:58.953Z</time></trkpt><trkpt lat="43.356698911136654" lon="10.597392227984589"><ele>176.0</ele><time>2026-04-26T12:03:59.953Z</time></trkpt><trkpt lat="43.35665165979629" lon="10.597323896505795"><ele>176.0</ele><time>2026-04-26T12:04:00.953Z</time></trkpt><trkpt lat="43.35660397835493" lon="10.597170754775103"><ele>176.0</ele><time>2026-04-26T12:04:02.953Z</time></trkpt><trkpt lat="43.35655660088229" lon="10.597040136156402"><ele>176.0</ele><time>2026-04-26T12:04:04.952Z</time></trkpt><trkpt lat="43.356531501754404" lon="10.5969380656943"><ele>176.0</ele><time>2026-04-26T12:04:05.949Z</time></trkpt><trkpt lat="43.35650308729223" lon="10.59681270399468"><ele>176.0</ele><time>2026-04-26T12:04:06.949Z</time></trkpt><trkpt lat="43.35647673795967" lon="10.596668819818861"><ele>175.4</ele><time>2026-04-26T12:04:07.949Z</time></trkpt><trkpt lat="43.35645225026644" lon="10.596525237865482"><ele>174.8</ele><time>2026-04-26T12:04:08.949Z</time></trkpt><trkpt lat="43.35642673889582" lon="10.596383211960735"><ele>174.20000000000002</ele><time>2026-04-26T12:04:09.949Z</time></trkpt><trkpt lat="43.35639022902177" lon="10.596264201094524"><ele>173.60000000000002</ele><time>2026-04-26T12:04:10.949Z</time></trkpt><trkpt lat="43.35635155923229" lon="10.596163120930894"><ele>173.0</ele><time>2026-04-26T12:04:11.949Z</time></trkpt><trkpt lat="43.35631069592411" lon="10.596075153857955"><ele>172.16666666666666</ele><time>2026-04-26T12:04:12.949Z</time></trkpt><trkpt lat="43.3562699827391" lon="10.595987387353295"><ele>171.33333333333331</ele><time>2026-04-26T12:04:13.949Z</time></trkpt><trkpt lat="43.35622337418315" lon="10.595882062288544"><ele>170.5</ele><time>2026-04-26T12:04:14.95Z</time></trkpt><trkpt lat="43.35617875569448" lon="10.595768296297013"><ele>169.66666666666666</ele><time>2026-04-26T12:04:15.95Z</time></trkpt><trkpt lat="43.356145214966055" lon="10.595659819956397"><ele>168.83333333333334</ele><time>2026-04-26T12:04:16.95Z</time></trkpt><trkpt lat="43.35614391287161" lon="10.59555137486346"><ele>168.0</ele><time>2026-04-26T12:04:17.949Z</time></trkpt><trkpt lat="43.35613087064532" lon="10.595458070915539"><ele>168.0</ele><time>2026-04-26T12:04:18.949Z</time></trkpt><trkpt lat="43.35610963214507" lon="10.595360059578693"><ele>168.0</ele><time>2026-04-26T12:04:19.949Z</time></trkpt><trkpt lat="43.356082632257696" lon="10.59527337385033"><ele>168.0</ele><time>2026-04-26T12:04:20.949Z</time></trkpt><trkpt lat="43.356044052005245" lon="10.59519338984996"><ele>168.0</ele><time>2026-04-26T12:04:21.949Z</time></trkpt><trkpt lat="43.3559864619906" lon="10.595109903081427"><ele>168.0</ele><time>2026-04-26T12:04:22.949Z</time></trkpt><trkpt lat="43.3559126405383" lon="10.59497186790667"><ele>168.0</ele><time>2026-04-26T12:04:24.949Z</time></trkpt><trkpt lat="43.355870237501314" lon="10.59487295644456"><ele>167.33333333333334</ele><time>2026-04-26T12:04:25.949Z</time></trkpt><trkpt lat="43.355837422511264" lon="10.594749341511683"><ele>166.66666666666666</ele><time>2026-04-26T12:04:26.949Z</time></trkpt><trkpt lat="43.35580605427529" lon="10.594651846303744"><ele>166.0</ele><time>2026-04-26T12:04:27.949Z</time></trkpt><trkpt lat="43.355770588278915" lon="10.594556858633789"><ele>165.33333333333331</ele><time>2026-04-26T12:04:28.949Z</time></trkpt><trkpt lat="43.355735881819605" lon="10.594456295106918"><ele>164.66666666666666</ele><time>2026-04-26T12:04:29.949Z</time></trkpt><trkpt lat="43.35569919223771" lon="10.594340790144384"><ele>164.0</ele><time>2026-04-26T12:04:30.949Z</time></trkpt><trkpt lat="43.355662756658226" lon="10.594213113703304"><ele>162.2</ele><time>2026-04-26T12:04:31.949Z</time></trkpt><trkpt lat="43.355623345512036" lon="10.594079150466374"><ele>160.39999999999998</ele><time>2026-04-26T12:04:32.949Z</time></trkpt><trkpt lat="43.35558069114201" lon="10.593940842115423"><ele>158.6</ele><time>2026-04-26T12:04:33.949Z</time></trkpt><trkpt lat="43.355539465444984" lon="10.593806105944314"><ele>156.8</ele><time>2026-04-26T12:04:34.949Z</time></trkpt><trkpt lat="43.35549344868403" lon="10.593681469213386"><ele>155.0</ele><time>2026-04-26T12:04:35.949Z</time></trkpt><trkpt lat="43.35544753049172" lon="10.593570301971887"><ele>153.6</ele><time>2026-04-26T12:04:36.949Z</time></trkpt><trkpt lat="43.355400190620465" lon="10.593475709944762"><ele>152.2</ele><time>2026-04-26T12:04:37.949Z</time></trkpt><trkpt lat="43.35534728318836" lon="10.59338664341549"><ele>150.8</ele><time>2026-04-26T12:04:38.949Z</time></trkpt><trkpt lat="43.35529064387441" lon="10.593293102720452"><ele>149.4</ele><time>2026-04-26T12:04:39.949Z</time></trkpt><trkpt lat="43.35521336328836" lon="10.59319792021711"><ele>148.0</ele><time>2026-04-26T12:04:40.949Z</time></trkpt><trkpt lat="43.35512774923367" lon="10.593089142371898"><ele>148.0</ele><time>2026-04-26T12:04:41.949Z</time></trkpt><trkpt lat="43.35504135482453" lon="10.592981213871465"><ele>148.0</ele><time>2026-04-26T12:04:42.949Z</time></trkpt><trkpt lat="43.35496111193285" lon="10.592894130243957"><ele>148.0</ele><time>2026-04-26T12:04:43.949Z</time></trkpt><trkpt lat="43.35487844681315" lon="10.592804754554821"><ele>148.0</ele><time>2026-04-26T12:04:44.949Z</time></trkpt><trkpt lat="43.35478818400475" lon="10.59271211672332"><ele>148.0</ele><time>2026-04-26T12:04:45.949Z</time></trkpt><trkpt lat="43.354690048854714" lon="10.592611293175645"><ele>145.75</ele><time>2026-04-26T12:04:46.949Z</time></trkpt><trkpt lat="43.35459395722072" lon="10.59251155451085"><ele>143.5</ele><time>2026-04-26T12:04:47.949Z</time></trkpt><trkpt lat="43.35448693350513" lon="10.592433021577367"><ele>141.25</ele><time>2026-04-26T12:04:48.949Z</time></trkpt><trkpt lat="43.35438620460295" lon="10.592370912945894"><ele>139.0</ele><time>2026-04-26T12:04:49.949Z</time></trkpt><trkpt lat="43.35428388355337" lon="10.592318603187302"><ele>139.0</ele><time>2026-04-26T12:04:50.949Z</time></trkpt><trkpt lat="43.35418211691032" lon="10.592276508000896"><ele>139.0</ele><time>2026-04-26T12:04:51.949Z</time></trkpt><trkpt lat="43.354080527432096" lon="10.592233572590821"><ele>139.0</ele><time>2026-04-26T12:04:52.949Z</time></trkpt><trkpt lat="43.35398191344932" lon="10.59219258908503"><ele>139.0</ele><time>2026-04-26T12:04:53.949Z</time></trkpt><trkpt lat="43.353870418318365" lon="10.5921474031334"><ele>139.0</ele><time>2026-04-26T12:04:54.949Z</time></trkpt><trkpt lat="43.35375173856007" lon="10.592085536276388"><ele>138.4</ele><time>2026-04-26T12:04:55.949Z</time></trkpt><trkpt lat="43.35363833495008" lon="10.5920278261671"><ele>137.8</ele><time>2026-04-26T12:04:56.949Z</time></trkpt><trkpt lat="43.35354563024767" lon="10.591974326001933"><ele>137.2</ele><time>2026-04-26T12:04:57.949Z</time></trkpt><trkpt lat="43.353464269832735" lon="10.59192290045074"><ele>136.6</ele><time>2026-04-26T12:04:58.949Z</time></trkpt><trkpt lat="43.353399930072726" lon="10.59188139924033"><ele>136.0</ele><time>2026-04-26T12:04:59.949Z</time></trkpt><trkpt lat="43.353332477458906" lon="10.59184479534762"><ele>136.0</ele><time>2026-04-26T12:05:00.949Z</time></trkpt><trkpt lat="43.35324532593255" lon="10.59180284940451"><ele>136.0</ele><time>2026-04-26T12:05:01.949Z</time></trkpt><trkpt lat="43.35313859065746" lon="10.591745296023904"><ele>136.0</ele><time>2026-04-26T12:05:02.949Z</time></trkpt><trkpt lat="43.35303280429488" lon="10.591693960592636"><ele>136.0</ele><time>2026-04-26T12:05:03.949Z</time></trkpt><trkpt lat="43.35292712229979" lon="10.59165828840271"><ele>136.0</ele><time>2026-04-26T12:05:04.949Z</time></trkpt><trkpt lat="43.35282791738707" lon="10.59162985924482"><ele>135.16666666666669</ele><time>2026-04-26T12:05:05.949Z</time></trkpt><trkpt lat="43.35273398982583" lon="10.591601686974833"><ele>134.33333333333334</ele><time>2026-04-26T12:05:06.949Z</time></trkpt><trkpt lat="43.35264808294097" lon="10.59158463990505"><ele>133.5</ele><time>2026-04-26T12:05:07.949Z</time></trkpt><trkpt lat="43.35256343713299" lon="10.591576016014702"><ele>132.66666666666666</ele><time>2026-04-26T12:05:08.949Z</time></trkpt><trkpt lat="43.352483851759544" lon="10.591575753413055"><ele>131.83333333333331</ele><time>2026-04-26T12:05:09.949Z</time></trkpt><trkpt lat="43.35240396699928" lon="10.591594232976973"><ele>131.0</ele><time>2026-04-26T12:05:10.949Z</time></trkpt><trkpt lat="43.35233255801724" lon="10.591625759026112"><ele>131.0</ele><time>2026-04-26T12:05:11.949Z</time></trkpt><trkpt lat="43.35222646904285" lon="10.59169879503164"><ele>131.0</ele><time>2026-04-26T12:05:13.949Z</time></trkpt><trkpt lat="43.352125793573194" lon="10.591777163530567"><ele>131.0</ele><time>2026-04-26T12:05:15.949Z</time></trkpt><trkpt lat="43.35206192840934" lon="10.591796208408697"><ele>131.0</ele><time>2026-04-26T12:05:16.949Z</time></trkpt><trkpt lat="43.35194983060774" lon="10.5918144053047"><ele>131.0</ele><time>2026-04-26T12:05:18.949Z</time></trkpt><trkpt lat="43.351848574933754" lon="10.591775989494195"><ele>128.66666666666666</ele><time>2026-04-26T12:05:20.949Z</time></trkpt><trkpt lat="43.35174891498089" lon="10.59169674009419"><ele>126.33333333333333</ele><time>2026-04-26T12:05:22.949Z</time></trkpt><trkpt lat="43.351699360670054" lon="10.591639612326018"><ele>124.0</ele><time>2026-04-26T12:05:23.949Z</time></trkpt><trkpt lat="43.351643859544005" lon="10.59155645948548"><ele>121.66666666666666</ele><time>2026-04-26T12:05:24.949Z</time></trkpt><trkpt lat="43.351588246645875" lon="10.59147440555061"><ele>119.33333333333333</ele><time>2026-04-26T12:05:25.949Z</time></trkpt><trkpt lat="43.35153305205125" lon="10.59138960231403"><ele>117.0</ele><time>2026-04-26T12:05:26.949Z</time></trkpt><trkpt lat="43.3514796804457" lon="10.591302125014439"><ele>117.0</ele><time>2026-04-26T12:05:27.949Z</time></trkpt><trkpt lat="43.351429221286025" lon="10.591219642674394"><ele>117.0</ele><time>2026-04-26T12:05:28.949Z</time></trkpt><trkpt lat="43.35137109628539" lon="10.591137834081444"><ele>117.0</ele><time>2026-04-26T12:05:29.949Z</time></trkpt><trkpt lat="43.35131109545484" lon="10.59106968463237"><ele>117.0</ele><time>2026-04-26T12:05:30.949Z</time></trkpt><trkpt lat="43.35124576746464" lon="10.591013282746914"><ele>117.0</ele><time>2026-04-26T12:05:31.949Z</time></trkpt><trkpt lat="43.351187795478964" lon="10.590954503114038"><ele>117.0</ele><time>2026-04-26T12:05:32.949Z</time></trkpt><trkpt lat="43.351092984697004" lon="10.59087910132811"><ele>113.5</ele><time>2026-04-26T12:05:34.949Z</time></trkpt><trkpt lat="43.35104814044553" lon="10.590809944284093"><ele>110.0</ele><time>2026-04-26T12:05:36.949Z</time></trkpt><trkpt lat="43.350999809248066" lon="10.59071745949975"><ele>106.5</ele><time>2026-04-26T12:05:38.949Z</time></trkpt><trkpt lat="43.35093663771299" lon="10.590661893502798"><ele>103.0</ele><time>2026-04-26T12:05:40.949Z</time></trkpt><trkpt lat="43.35079907569646" lon="10.590671393309666"><ele>99.5</ele><time>2026-04-26T12:05:42.949Z</time></trkpt><trkpt lat="43.350731792382135" lon="10.590681081187018"><ele>96.0</ele><time>2026-04-26T12:05:43.949Z</time></trkpt><trkpt lat="43.350622885870635" lon="10.590669080396983"><ele>92.5</ele><time>2026-04-26T12:05:45.949Z</time></trkpt><trkpt lat="43.35051541688004" lon="10.590625847000219"><ele>89.0</ele><time>2026-04-26T12:05:47.949Z</time></trkpt><trkpt lat="43.35041420309497" lon="10.59054153535297"><ele>85.5</ele><time>2026-04-26T12:05:49.949Z</time></trkpt><trkpt lat="43.35036596290682" lon="10.590482872052029"><ele>82.0</ele><time>2026-04-26T12:05:50.949Z</time></trkpt><trkpt lat="43.35032490320677" lon="10.590411718444713"><ele>78.5</ele><time>2026-04-26T12:05:51.949Z</time></trkpt><trkpt lat="43.35028798669216" lon="10.590339356131913"><ele>75.0</ele><time>2026-04-26T12:05:52.949Z</time></trkpt><trkpt lat="43.3502586132615" lon="10.59026252472151"><ele>75.0</ele><time>2026-04-26T12:05:53.949Z</time></trkpt><trkpt lat="43.350215799678836" lon="10.590119993697531"><ele>75.0</ele><time>2026-04-26T12:05:55.949Z</time></trkpt><trkpt lat="43.350164923905446" lon="10.589984066428077"><ele>75.0</ele><time>2026-04-26T12:05:57.949Z</time></trkpt><trkpt lat="43.350118556619265" lon="10.589865178245708"><ele>75.0</ele><time>2026-04-26T12:05:59.949Z</time></trkpt><trkpt lat="43.35006717220082" lon="10.589787116132994"><ele>75.0</ele><time>2026-04-26T12:06:01.949Z</time></trkpt><trkpt lat="43.34998932572729" lon="10.589767818629909"><ele>75.0</ele><time>2026-04-26T12:06:03.95Z</time></trkpt><trkpt lat="43.34989021774739" lon="10.589783771334602"><ele>75.0</ele><time>2026-04-26T12:06:05.95Z</time></trkpt><trkpt lat="43.34979670416086" lon="10.589806856302896"><ele>75.0</ele><time>2026-04-26T12:06:07.95Z</time></trkpt><trkpt lat="43.349702764692616" lon="10.589796068388448"><ele>75.0</ele><time>2026-04-26T12:06:09.95Z</time></trkpt><trkpt lat="43.34962205157708" lon="10.589724497367753"><ele>75.0</ele><time>2026-04-26T12:06:11.947Z</time></trkpt><trkpt lat="43.349563647088765" lon="10.589572369724982"><ele>72.16666666666667</ele><time>2026-04-26T12:06:13.947Z</time></trkpt><trkpt lat="43.34953809013885" lon="10.589487265042946"><ele>69.33333333333333</ele><time>2026-04-26T12:06:14.947Z</time></trkpt><trkpt lat="43.3494867399369" lon="10.589345322283725"><ele>66.5</ele><time>2026-04-26T12:06:16.948Z</time></trkpt><trkpt lat="43.34945388613237" lon="10.589266040721089"><ele>63.666666666666664</ele><time>2026-04-26T12:06:17.948Z</time></trkpt><trkpt lat="43.34940683367326" lon="10.589189499382021"><ele>60.83333333333333</ele><time>2026-04-26T12:06:18.947Z</time></trkpt><trkpt lat="43.34935639323213" lon="10.589115316783577"><ele>58.0</ele><time>2026-04-26T12:06:19.947Z</time></trkpt><trkpt lat="43.34930222910847" lon="10.589039491794756"><ele>58.00000000000001</ele><time>2026-04-26T12:06:20.947Z</time></trkpt><trkpt lat="43.34924994232619" lon="10.58896887151769"><ele>58.0</ele><time>2026-04-26T12:06:21.947Z</time></trkpt><trkpt lat="43.3491896828836" lon="10.588899000064506"><ele>58.00000000000001</ele><time>2026-04-26T12:06:22.947Z</time></trkpt><trkpt lat="43.349139686910725" lon="10.588827341783444"><ele>58.00000000000001</ele><time>2026-04-26T12:06:23.948Z</time></trkpt><trkpt lat="43.34907441693162" lon="10.588791354128356"><ele>58.0</ele><time>2026-04-26T12:06:24.947Z</time></trkpt><trkpt lat="43.34902248732061" lon="10.588732816363638"><ele>58.00000000000001</ele><time>2026-04-26T12:06:25.947Z</time></trkpt><trkpt lat="43.34896591184858" lon="10.588666717085818"><ele>58.00000000000001</ele><time>2026-04-26T12:06:26.947Z</time></trkpt><trkpt lat="43.34891818757824" lon="10.588607175197701"><ele>56.49999999999999</ele><time>2026-04-26T12:06:27.947Z</time></trkpt><trkpt lat="43.34886695949368" lon="10.588530610057346"><ele>55.0</ele><time>2026-04-26T12:06:28.947Z</time></trkpt><trkpt lat="43.34880741687366" lon="10.588479231941848"><ele>53.5</ele><time>2026-04-26T12:06:29.947Z</time></trkpt><trkpt lat="43.34874981395539" lon="10.588427454443064"><ele>52.0</ele><time>2026-04-26T12:06:30.947Z</time></trkpt><trkpt lat="43.34869086530516" lon="10.58837298429148"><ele>50.49999999999999</ele><time>2026-04-26T12:06:31.947Z</time></trkpt><trkpt lat="43.34862687381497" lon="10.58830764374638"><ele>49.0</ele><time>2026-04-26T12:06:32.947Z</time></trkpt><trkpt lat="43.34856516978908" lon="10.58822634160369"><ele>48.99999999999999</ele><time>2026-04-26T12:06:33.947Z</time></trkpt><trkpt lat="43.3485136600804" lon="10.58813426738971"><ele>49.0</ele><time>2026-04-26T12:06:34.947Z</time></trkpt><trkpt lat="43.34845794093867" lon="10.588070461138624"><ele>49.0</ele><time>2026-04-26T12:06:35.947Z</time></trkpt><trkpt lat="43.34841026272595" lon="10.587988668033141"><ele>49.0</ele><time>2026-04-26T12:06:36.947Z</time></trkpt><trkpt lat="43.348366090692565" lon="10.587891449905994"><ele>48.99999999999999</ele><time>2026-04-26T12:06:37.947Z</time></trkpt><trkpt lat="43.34828984858907" lon="10.587821171205466"><ele>49.0</ele><time>2026-04-26T12:06:38.947Z</time></trkpt><trkpt lat="43.34821556433017" lon="10.587764253871624"><ele>48.285714285714285</ele><time>2026-04-26T12:06:39.947Z</time></trkpt><trkpt lat="43.348143072266176" lon="10.587711584008893"><ele>47.57142857142857</ele><time>2026-04-26T12:06:40.947Z</time></trkpt><trkpt lat="43.34808314371302" lon="10.587651629805226"><ele>46.85714285714286</ele><time>2026-04-26T12:06:41.947Z</time></trkpt><trkpt lat="43.34803175019744" lon="10.58759064956136"><ele>46.14285714285714</ele><time>2026-04-26T12:06:42.947Z</time></trkpt><trkpt lat="43.347981205799904" lon="10.587522901577055"><ele>45.42857142857143</ele><time>2026-04-26T12:06:43.947Z</time></trkpt><trkpt lat="43.34792017289312" lon="10.587454669533551"><ele>44.714285714285715</ele><time>2026-04-26T12:06:44.947Z</time></trkpt><trkpt lat="43.34786298704335" lon="10.587390087680799"><ele>44.0</ele><time>2026-04-26T12:06:45.947Z</time></trkpt><trkpt lat="43.347811053307474" lon="10.587320969032264"><ele>43.666666666666664</ele><time>2026-04-26T12:06:46.947Z</time></trkpt><trkpt lat="43.34776650805629" lon="10.58724390366852"><ele>43.33333333333333</ele><time>2026-04-26T12:06:47.947Z</time></trkpt><trkpt lat="43.347721475057924" lon="10.587165096155218"><ele>43.0</ele><time>2026-04-26T12:06:48.947Z</time></trkpt><trkpt lat="43.34769685528604" lon="10.587082504149109"><ele>42.666666666666664</ele><time>2026-04-26T12:06:49.947Z</time></trkpt><trkpt lat="43.347660219228274" lon="10.586926380274633"><ele>42.333333333333336</ele><time>2026-04-26T12:06:51.947Z</time></trkpt><trkpt lat="43.34766666280551" lon="10.586812506424035"><ele>42.0</ele><time>2026-04-26T12:06:53.947Z</time></trkpt><trkpt lat="43.34770250431449" lon="10.586709545269738"><ele>40.4</ele><time>2026-04-26T12:06:55.947Z</time></trkpt><trkpt lat="43.347772931953294" lon="10.586600065411268"><ele>38.800000000000004</ele><time>2026-04-26T12:06:57.947Z</time></trkpt><trkpt lat="43.34783413734464" lon="10.586448707592695"><ele>37.2</ele><time>2026-04-26T12:06:59.947Z</time></trkpt><trkpt lat="43.347892735940306" lon="10.586317677240556"><ele>35.6</ele><time>2026-04-26T12:07:01.947Z</time></trkpt><trkpt lat="43.34793736596786" lon="10.586207607770755"><ele>34.0</ele><time>2026-04-26T12:07:03.947Z</time></trkpt><trkpt lat="43.34797769328604" lon="10.58610441984261"><ele>33.6</ele><time>2026-04-26T12:07:05.947Z</time></trkpt><trkpt lat="43.347988308371164" lon="10.586011104726119"><ele>33.2</ele><time>2026-04-26T12:07:09.947Z</time></trkpt><trkpt lat="43.34791279612331" lon="10.585881279189886"><ele>32.800000000000004</ele><time>2026-04-26T12:07:11.947Z</time></trkpt><trkpt lat="43.347812784955565" lon="10.585821885251969"><ele>32.4</ele><time>2026-04-26T12:07:12.947Z</time></trkpt><trkpt lat="43.347691634872746" lon="10.58574126091966"><ele>32.0</ele><time>2026-04-26T12:07:13.947Z</time></trkpt><trkpt lat="43.34756920816251" lon="10.58565114663652"><ele>32.0</ele><time>2026-04-26T12:07:14.947Z</time></trkpt><trkpt lat="43.3474572400554" lon="10.585569730873402"><ele>32.0</ele><time>2026-04-26T12:07:15.947Z</time></trkpt><trkpt lat="43.34735667342481" lon="10.585493175016213"><ele>32.0</ele><time>2026-04-26T12:07:16.947Z</time></trkpt><trkpt lat="43.34726871061166" lon="10.585419580152548"><ele>32.0</ele><time>2026-04-26T12:07:17.947Z</time></trkpt><trkpt lat="43.347187030112714" lon="10.585348207586753"><ele>32.0</ele><time>2026-04-26T12:07:18.947Z</time></trkpt><trkpt lat="43.34711699504263" lon="10.585283996523668"><ele>31.833333333333332</ele><time>2026-04-26T12:07:19.947Z</time></trkpt><trkpt lat="43.34705163569545" lon="10.585232419977697"><ele>31.666666666666664</ele><time>2026-04-26T12:07:20.947Z</time></trkpt><trkpt lat="43.34697909766226" lon="10.585157683630328"><ele>31.5</ele><time>2026-04-26T12:07:22.947Z</time></trkpt><trkpt lat="43.34690619870705" lon="10.585101185406616"><ele>31.333333333333336</ele><time>2026-04-26T12:07:26.947Z</time></trkpt><trkpt lat="43.34684121103892" lon="10.58509257459282"><ele>31.166666666666668</ele><time>2026-04-26T12:07:29.947Z</time></trkpt><trkpt lat="43.3468811529052" lon="10.585171263784028"><ele>31.0</ele><time>2026-04-26T12:07:36.947Z</time></trkpt><trkpt lat="43.34696214894409" lon="10.585231575205485"><ele>31.0</ele><time>2026-04-26T12:07:37.947Z</time></trkpt><trkpt lat="43.34703285815564" lon="10.585260783835718"><ele>31.0</ele><time>2026-04-26T12:07:38.947Z</time></trkpt><trkpt lat="43.34709679661033" lon="10.585308245433916"><ele>31.0</ele><time>2026-04-26T12:07:40.947Z</time></trkpt><trkpt lat="43.34698692459898" lon="10.585731206250015"><ele>30.500000000000004</ele><time>2026-04-26T12:07:46.947Z</time></trkpt><trkpt lat="43.346959947489204" lon="10.585813164641994"><ele>30.0</ele><time>2026-04-26T12:07:47.947Z</time></trkpt><trkpt lat="43.34693523516358" lon="10.585894133553689"><ele>29.5</ele><time>2026-04-26T12:07:48.947Z</time></trkpt><trkpt lat="43.34689068394113" lon="10.58603840356517"><ele>29.0</ele><time>2026-04-26T12:07:50.947Z</time></trkpt><trkpt lat="43.34685943339064" lon="10.586149444601922"><ele>28.500000000000004</ele><time>2026-04-26T12:07:52.947Z</time></trkpt><trkpt lat="43.346833971322525" lon="10.58623110221364"><ele>28.0</ele><time>2026-04-26T12:07:54.947Z</time></trkpt><trkpt lat="43.346782035852804" lon="10.586335237853334"><ele>29.333333333333336</ele><time>2026-04-26T12:07:57.947Z</time></trkpt><trkpt lat="43.34675414320634" lon="10.586440911555195"><ele>30.666666666666668</ele><time>2026-04-26T12:07:59.947Z</time></trkpt><trkpt lat="43.346715745424454" lon="10.586590559690743"><ele>32.0</ele><time>2026-04-26T12:08:01.947Z</time></trkpt><trkpt lat="43.34667063521698" lon="10.586675105787316"><ele>33.333333333333336</ele><time>2026-04-26T12:08:03.947Z</time></trkpt><trkpt lat="43.34658982215054" lon="10.586686993832263"><ele>34.666666666666664</ele><time>2026-04-26T12:08:05.947Z</time></trkpt><trkpt lat="43.3465281806031" lon="10.586667292524279"><ele>36.0</ele><time>2026-04-26T12:08:06.947Z</time></trkpt><trkpt lat="43.34645056538317" lon="10.586645262178912"><ele>36.333333333333336</ele><time>2026-04-26T12:08:07.947Z</time></trkpt><trkpt lat="43.34637525351197" lon="10.586628102822587"><ele>36.666666666666664</ele><time>2026-04-26T12:08:08.947Z</time></trkpt><trkpt lat="43.346304748261474" lon="10.58659812692697"><ele>37.0</ele><time>2026-04-26T12:08:09.947Z</time></trkpt><trkpt lat="43.3462362334859" lon="10.58657335821622"><ele>37.33333333333333</ele><time>2026-04-26T12:08:10.947Z</time></trkpt><trkpt lat="43.34612649653531" lon="10.586573407752365"><ele>37.666666666666664</ele><time>2026-04-26T12:08:12.947Z</time></trkpt><trkpt lat="43.34609930749288" lon="10.586651863981608"><ele>38.0</ele><time>2026-04-26T12:08:21.946Z</time></trkpt><trkpt lat="43.34615182381129" lon="10.586700187787828"><ele>38.0</ele><time>2026-04-26T12:08:23.945Z</time></trkpt><trkpt lat="43.34621721501244" lon="10.586720228102317"><ele>38.0</ele><time>2026-04-26T12:08:24.945Z</time></trkpt><trkpt lat="43.34628890436712" lon="10.586744328484507"><ele>38.0</ele><time>2026-04-26T12:08:25.945Z</time></trkpt><trkpt lat="43.34636226492363" lon="10.586798174843873"><ele>38.0</ele><time>2026-04-26T12:08:26.946Z</time></trkpt><trkpt lat="43.346431000366955" lon="10.586854130028929"><ele>38.0</ele><time>2026-04-26T12:08:27.946Z</time></trkpt><trkpt lat="43.346504513339696" lon="10.586921006814215"><ele>38.0</ele><time>2026-04-26T12:08:28.946Z</time></trkpt><trkpt lat="43.3465662482219" lon="10.587001022910556"><ele>40.4</ele><time>2026-04-26T12:08:29.946Z</time></trkpt><trkpt lat="43.346626435339275" lon="10.587090220437066"><ele>42.8</ele><time>2026-04-26T12:08:30.946Z</time></trkpt><trkpt lat="43.34669192867425" lon="10.587186632251901"><ele>45.2</ele><time>2026-04-26T12:08:31.946Z</time></trkpt><trkpt lat="43.34674163308671" lon="10.587317173215652"><ele>47.6</ele><time>2026-04-26T12:08:32.946Z</time></trkpt><trkpt lat="43.346809993671506" lon="10.587429873881414"><ele>50.0</ele><time>2026-04-26T12:08:33.946Z</time></trkpt><trkpt lat="43.346873645597846" lon="10.587516291444448"><ele>50.00000000000001</ele><time>2026-04-26T12:08:34.946Z</time></trkpt><trkpt lat="43.34692581021621" lon="10.58758450874385"><ele>50.0</ele><time>2026-04-26T12:08:35.946Z</time></trkpt><trkpt lat="43.346966885041155" lon="10.587654012111548"><ele>50.0</ele><time>2026-04-26T12:08:36.946Z</time></trkpt><trkpt lat="43.34695014840952" lon="10.587825044598965"><ele>50.0</ele><time>2026-04-26T12:08:38.946Z</time></trkpt><trkpt lat="43.346955357008255" lon="10.587940928985608"><ele>50.00000000000001</ele><time>2026-04-26T12:08:39.946Z</time></trkpt><trkpt lat="43.346985916939246" lon="10.588036371105083"><ele>50.0</ele><time>2026-04-26T12:08:40.946Z</time></trkpt><trkpt lat="43.34701853123488" lon="10.588156671135822"><ele>51.50000000000001</ele><time>2026-04-26T12:08:41.946Z</time></trkpt><trkpt lat="43.347051084902915" lon="10.588278743550829"><ele>53.0</ele><time>2026-04-26T12:08:42.946Z</time></trkpt><trkpt lat="43.34711107987784" lon="10.588381690408413"><ele>54.5</ele><time>2026-04-26T12:08:43.946Z</time></trkpt><trkpt lat="43.347157727975166" lon="10.588473719336983"><ele>56.0</ele><time>2026-04-26T12:08:44.946Z</time></trkpt><trkpt lat="43.34719450283679" lon="10.588609415171966"><ele>57.50000000000001</ele><time>2026-04-26T12:08:46.946Z</time></trkpt><trkpt lat="43.3472273476138" lon="10.588697193803482"><ele>59.0</ele><time>2026-04-26T12:08:47.946Z</time></trkpt><trkpt lat="43.34728045814249" lon="10.588823948367379"><ele>59.0</ele><time>2026-04-26T12:08:48.946Z</time></trkpt><trkpt lat="43.34733314531839" lon="10.588955395867616"><ele>59.0</ele><time>2026-04-26T12:08:49.946Z</time></trkpt><trkpt lat="43.34740168166524" lon="10.589087121512556"><ele>59.0</ele><time>2026-04-26T12:08:50.946Z</time></trkpt><trkpt lat="43.34747026241321" lon="10.58920858344018"><ele>59.0</ele><time>2026-04-26T12:08:51.946Z</time></trkpt><trkpt lat="43.34754328775129" lon="10.589331229496903"><ele>59.0</ele><time>2026-04-26T12:08:52.946Z</time></trkpt><trkpt lat="43.34763253121377" lon="10.58945259863326"><ele>59.0</ele><time>2026-04-26T12:08:53.946Z</time></trkpt><trkpt lat="43.347713721705745" lon="10.589564009789905"><ele>59.0</ele><time>2026-04-26T12:08:54.946Z</time></trkpt><trkpt lat="43.34779014104638" lon="10.589685644856054"><ele>59.0</ele><time>2026-04-26T12:08:55.946Z</time></trkpt><trkpt lat="43.34785203573276" lon="10.589790656881215"><ele>62.6</ele><time>2026-04-26T12:08:56.946Z</time></trkpt><trkpt lat="43.34789060935064" lon="10.589892629380488"><ele>66.2</ele><time>2026-04-26T12:08:57.946Z</time></trkpt><trkpt lat="43.347886435927926" lon="10.590015724563221"><ele>69.80000000000001</ele><time>2026-04-26T12:08:58.946Z</time></trkpt><trkpt lat="43.3478881712943" lon="10.590125507970647"><ele>73.4</ele><time>2026-04-26T12:08:59.946Z</time></trkpt><trkpt lat="43.347938027028015" lon="10.590263951973062"><ele>77.0</ele><time>2026-04-26T12:09:01.946Z</time></trkpt><trkpt lat="43.34800939824812" lon="10.590373167373158"><ele>76.4</ele><time>2026-04-26T12:09:03.946Z</time></trkpt><trkpt lat="43.348089120224834" lon="10.59048286432126"><ele>75.80000000000001</ele><time>2026-04-26T12:09:05.946Z</time></trkpt><trkpt lat="43.348160324002215" lon="10.590588300026111"><ele>75.2</ele><time>2026-04-26T12:09:07.946Z</time></trkpt><trkpt lat="43.3481782812995" lon="10.59068459408215"><ele>74.60000000000001</ele><time>2026-04-26T12:09:08.946Z</time></trkpt><trkpt lat="43.34819170372924" lon="10.590795953657777"><ele>74.0</ele><time>2026-04-26T12:09:09.946Z</time></trkpt><trkpt lat="43.348214092963694" lon="10.590902170235218"><ele>74.0</ele><time>2026-04-26T12:09:10.946Z</time></trkpt><trkpt lat="43.34825487244881" lon="10.591022392215583"><ele>74.0</ele><time>2026-04-26T12:09:11.946Z</time></trkpt><trkpt lat="43.348305766966156" lon="10.591117966438672"><ele>74.0</ele><time>2026-04-26T12:09:12.946Z</time></trkpt><trkpt lat="43.34836928148096" lon="10.591202553159787"><ele>74.0</ele><time>2026-04-26T12:09:13.946Z</time></trkpt><trkpt lat="43.34843830204847" lon="10.591284086769939"><ele>74.0</ele><time>2026-04-26T12:09:14.946Z</time></trkpt><trkpt lat="43.34850289672885" lon="10.5913638156314"><ele>74.0</ele><time>2026-04-26T12:09:15.946Z</time></trkpt><trkpt lat="43.348573719664856" lon="10.591447423771791"><ele>76.33333333333334</ele><time>2026-04-26T12:09:16.946Z</time></trkpt><trkpt lat="43.34862693159618" lon="10.591521014226448"><ele>78.66666666666667</ele><time>2026-04-26T12:09:17.946Z</time></trkpt><trkpt lat="43.34866119503884" lon="10.59160865861569"><ele>81.0</ele><time>2026-04-26T12:09:18.946Z</time></trkpt><trkpt lat="43.348696121573724" lon="10.591694120433377"><ele>83.33333333333333</ele><time>2026-04-26T12:09:19.946Z</time></trkpt><trkpt lat="43.34871169798752" lon="10.591783664892588"><ele>85.66666666666666</ele><time>2026-04-26T12:09:20.946Z</time></trkpt><trkpt lat="43.348684175465735" lon="10.591903012623009"><ele>88.0</ele><time>2026-04-26T12:09:22.946Z</time></trkpt><trkpt lat="43.348662510054844" lon="10.592047884181953"><ele>91.16666666666666</ele><time>2026-04-26T12:09:24.946Z</time></trkpt><trkpt lat="43.348647954350284" lon="10.592168712179769"><ele>94.33333333333333</ele><time>2026-04-26T12:09:25.946Z</time></trkpt><trkpt lat="43.348646230449596" lon="10.592300242496686"><ele>97.5</ele><time>2026-04-26T12:09:26.946Z</time></trkpt><trkpt lat="43.34865788682457" lon="10.592433399530938"><ele>100.66666666666666</ele><time>2026-04-26T12:09:27.946Z</time></trkpt><trkpt lat="43.348669958491286" lon="10.59252270064361"><ele>103.83333333333333</ele><time>2026-04-26T12:09:28.946Z</time></trkpt><trkpt lat="43.348724257705896" lon="10.592592800853273"><ele>107.0</ele><time>2026-04-26T12:09:30.946Z</time></trkpt><trkpt lat="43.3487992674046" lon="10.59261792408546"><ele>102.0</ele><time>2026-04-26T12:09:31.946Z</time></trkpt><trkpt lat="43.348915062858104" lon="10.592536759161106"><ele>96.99999999999999</ele><time>2026-04-26T12:09:32.946Z</time></trkpt><trkpt lat="43.34899780604717" lon="10.59257293580635"><ele>92.0</ele><time>2026-04-26T12:09:33.946Z</time></trkpt><trkpt lat="43.349059833851854" lon="10.59262824284981"><ele>87.0</ele><time>2026-04-26T12:09:34.946Z</time></trkpt><trkpt lat="43.349140265099855" lon="10.592702104521372"><ele>82.0</ele><time>2026-04-26T12:09:35.946Z</time></trkpt><trkpt lat="43.34921035605986" lon="10.592770572356534"><ele>85.66666666666666</ele><time>2026-04-26T12:09:36.946Z</time></trkpt><trkpt lat="43.34925432567845" lon="10.592864370505046"><ele>89.33333333333333</ele><time>2026-04-26T12:09:37.946Z</time></trkpt><trkpt lat="43.34930037472232" lon="10.5929832786263"><ele>93.0</ele><time>2026-04-26T12:09:38.946Z</time></trkpt><trkpt lat="43.34934025648717" lon="10.593090931334817"><ele>96.66666666666666</ele><time>2026-04-26T12:09:39.946Z</time></trkpt><trkpt lat="43.3493826001185" lon="10.59318980676998"><ele>100.33333333333333</ele><time>2026-04-26T12:09:40.946Z</time></trkpt><trkpt lat="43.34942671735632" lon="10.593296044894155"><ele>104.0</ele><time>2026-04-26T12:09:41.946Z</time></trkpt><trkpt lat="43.34946389052644" lon="10.593397651734097"><ele>103.99999999999999</ele><time>2026-04-26T12:09:42.946Z</time></trkpt><trkpt lat="43.34950668021554" lon="10.593500392193473"><ele>104.0</ele><time>2026-04-26T12:09:43.946Z</time></trkpt><trkpt lat="43.34954720002251" lon="10.593603397642747"><ele>104.0</ele><time>2026-04-26T12:09:44.946Z</time></trkpt><trkpt lat="43.34959246384681" lon="10.593698109861666"><ele>104.0</ele><time>2026-04-26T12:09:45.946Z</time></trkpt><trkpt lat="43.349644893888204" lon="10.593792084007092"><ele>103.99999999999999</ele><time>2026-04-26T12:09:46.946Z</time></trkpt><trkpt lat="43.349717461167806" lon="10.59389761582833"><ele>104.0</ele><time>2026-04-26T12:09:47.946Z</time></trkpt><trkpt lat="43.349773564749555" lon="10.594002498067052"><ele>103.33333333333333</ele><time>2026-04-26T12:09:48.946Z</time></trkpt><trkpt lat="43.3498356013138" lon="10.594088926843197"><ele>102.66666666666666</ele><time>2026-04-26T12:09:49.946Z</time></trkpt><trkpt lat="43.349893551087284" lon="10.594195703669529"><ele>102.0</ele><time>2026-04-26T12:09:50.946Z</time></trkpt><trkpt lat="43.349939483032095" lon="10.5942958533921"><ele>101.33333333333334</ele><time>2026-04-26T12:09:51.946Z</time></trkpt><trkpt lat="43.34998446260359" lon="10.594374943416614"><ele>100.66666666666667</ele><time>2026-04-26T12:09:52.946Z</time></trkpt><trkpt lat="43.35003062147837" lon="10.594455220199093"><ele>100.0</ele><time>2026-04-26T12:09:53.946Z</time></trkpt><trkpt lat="43.35006573742477" lon="10.594541746191247"><ele>103.8</ele><time>2026-04-26T12:09:54.946Z</time></trkpt><trkpt lat="43.35008054055674" lon="10.594666262124012"><ele>107.6</ele><time>2026-04-26T12:09:55.946Z</time></trkpt><trkpt lat="43.350101499796246" lon="10.594798785374923"><ele>111.4</ele><time>2026-04-26T12:09:56.946Z</time></trkpt><trkpt lat="43.35011705813861" lon="10.594935560065597"><ele>115.2</ele><time>2026-04-26T12:09:57.946Z</time></trkpt><trkpt lat="43.35014496653745" lon="10.595047359803019"><ele>119.0</ele><time>2026-04-26T12:09:58.946Z</time></trkpt><trkpt lat="43.350176834438" lon="10.59513863645012"><ele>118.99999999999999</ele><time>2026-04-26T12:09:59.946Z</time></trkpt><trkpt lat="43.350230563152934" lon="10.595223424692207"><ele>119.0</ele><time>2026-04-26T12:10:00.946Z</time></trkpt><trkpt lat="43.3502991461747" lon="10.595302141048057"><ele>119.0</ele><time>2026-04-26T12:10:01.946Z</time></trkpt><trkpt lat="43.350391571639165" lon="10.59536825010422"><ele>119.0</ele><time>2026-04-26T12:10:02.946Z</time></trkpt><trkpt lat="43.350476532301144" lon="10.595433717572247"><ele>118.99999999999999</ele><time>2026-04-26T12:10:03.946Z</time></trkpt><trkpt lat="43.35054129977946" lon="10.595486328241345"><ele>119.0</ele><time>2026-04-26T12:10:04.946Z</time></trkpt><trkpt lat="43.35056533548838" lon="10.59557671871813"><ele>116.33333333333333</ele><time>2026-04-26T12:10:06.946Z</time></trkpt><trkpt lat="43.350552596459515" lon="10.595722676005265"><ele>113.66666666666666</ele><time>2026-04-26T12:10:08.946Z</time></trkpt><trkpt lat="43.35053587533031" lon="10.595818873466895"><ele>111.0</ele><time>2026-04-26T12:10:09.946Z</time></trkpt><trkpt lat="43.35052480557526" lon="10.595924615773455"><ele>108.33333333333334</ele><time>2026-04-26T12:10:10.946Z</time></trkpt><trkpt lat="43.35051975699936" lon="10.59602621743465"><ele>105.66666666666667</ele><time>2026-04-26T12:10:11.946Z</time></trkpt><trkpt lat="43.35051619004547" lon="10.596139930474127"><ele>103.0</ele><time>2026-04-26T12:10:12.946Z</time></trkpt><trkpt lat="43.350512796463114" lon="10.596250754547473"><ele>105.60000000000001</ele><time>2026-04-26T12:10:13.946Z</time></trkpt><trkpt lat="43.35054506904371" lon="10.596349191975628"><ele>108.2</ele><time>2026-04-26T12:10:14.946Z</time></trkpt><trkpt lat="43.3505767602158" lon="10.596470932174816"><ele>110.8</ele><time>2026-04-26T12:10:15.946Z</time></trkpt><trkpt lat="43.350577364689435" lon="10.596623970500511"><ele>113.4</ele><time>2026-04-26T12:10:16.946Z</time></trkpt><trkpt lat="43.35062248295382" lon="10.596774130080043"><ele>116.0</ele><time>2026-04-26T12:10:17.946Z</time></trkpt><trkpt lat="43.350675276883635" lon="10.596879814360262"><ele>115.99999999999999</ele><time>2026-04-26T12:10:18.946Z</time></trkpt><trkpt lat="43.35069761967353" lon="10.596981750095189"><ele>116.0</ele><time>2026-04-26T12:10:19.947Z</time></trkpt><trkpt lat="43.350710983466726" lon="10.59712205854218"><ele>116.0</ele><time>2026-04-26T12:10:21.947Z</time></trkpt><trkpt lat="43.35067586617972" lon="10.597220069545768"><ele>116.0</ele><time>2026-04-26T12:10:22.947Z</time></trkpt><trkpt lat="43.35065326748194" lon="10.597324061299691"><ele>115.99999999999999</ele><time>2026-04-26T12:10:23.943Z</time></trkpt><trkpt lat="43.35066324632468" lon="10.597430799718206"><ele>116.0</ele><time>2026-04-26T12:10:24.944Z</time></trkpt><trkpt lat="43.350673264733416" lon="10.597538971551398"><ele>118.19999999999999</ele><time>2026-04-26T12:10:25.944Z</time></trkpt><trkpt lat="43.35069925949144" lon="10.597659776093831"><ele>120.39999999999999</ele><time>2026-04-26T12:10:26.944Z</time></trkpt><trkpt lat="43.35070668379897" lon="10.597803087032716"><ele>122.6</ele><time>2026-04-26T12:10:27.943Z</time></trkpt><trkpt lat="43.35071361525287" lon="10.597939795941809"><ele>124.8</ele><time>2026-04-26T12:10:28.943Z</time></trkpt><trkpt lat="43.350725926885076" lon="10.598067077524924"><ele>127.0</ele><time>2026-04-26T12:10:29.944Z</time></trkpt><trkpt lat="43.35072958337661" lon="10.598188179477397"><ele>128.83333333333334</ele><time>2026-04-26T12:10:30.943Z</time></trkpt><trkpt lat="43.3507454320919" lon="10.59830252029993"><ele>130.66666666666669</ele><time>2026-04-26T12:10:31.943Z</time></trkpt><trkpt lat="43.35078422633012" lon="10.598394320679214"><ele>132.5</ele><time>2026-04-26T12:10:32.944Z</time></trkpt><trkpt lat="43.35080689174309" lon="10.598501379338751"><ele>134.33333333333334</ele><time>2026-04-26T12:10:33.943Z</time></trkpt><trkpt lat="43.35082569935303" lon="10.598600850245795"><ele>136.16666666666666</ele><time>2026-04-26T12:10:34.943Z</time></trkpt><trkpt lat="43.35084957000181" lon="10.59870933183699"><ele>138.0</ele><time>2026-04-26T12:10:35.943Z</time></trkpt><trkpt lat="43.35086835080848" lon="10.598814056795659"><ele>138.4</ele><time>2026-04-26T12:10:36.944Z</time></trkpt><trkpt lat="43.35090021978932" lon="10.598924655462296"><ele>138.8</ele><time>2026-04-26T12:10:37.944Z</time></trkpt><trkpt lat="43.350905947126286" lon="10.59904693423297"><ele>139.2</ele><time>2026-04-26T12:10:38.944Z</time></trkpt><trkpt lat="43.350899149045794" lon="10.599164066564091"><ele>139.6</ele><time>2026-04-26T12:10:39.944Z</time></trkpt><trkpt lat="43.35087543673631" lon="10.59927775223246"><ele>140.0</ele><time>2026-04-26T12:10:40.944Z</time></trkpt><trkpt lat="43.35080205761867" lon="10.599400715432523"><ele>140.0</ele><time>2026-04-26T12:10:42.944Z</time></trkpt><trkpt lat="43.35077378111807" lon="10.59950797838639"><ele>140.0</ele><time>2026-04-26T12:10:43.944Z</time></trkpt><trkpt lat="43.35068463027764" lon="10.599570002544139"><ele>140.0</ele><time>2026-04-26T12:10:44.944Z</time></trkpt><trkpt lat="43.350628201932984" lon="10.599678176767242"><ele>140.0</ele><time>2026-04-26T12:10:45.944Z</time></trkpt><trkpt lat="43.35060825876454" lon="10.599865609814731"><ele>140.0</ele><time>2026-04-26T12:10:47.944Z</time></trkpt><trkpt lat="43.35062186997422" lon="10.599972840056836"><ele>140.0</ele><time>2026-04-26T12:10:48.944Z</time></trkpt><trkpt lat="43.35069335398275" lon="10.600134000455082"><ele>140.0</ele><time>2026-04-26T12:10:50.944Z</time></trkpt><trkpt lat="43.35077603574947" lon="10.600229190964061"><ele>140.0</ele><time>2026-04-26T12:10:51.944Z</time></trkpt><trkpt lat="43.350838095234145" lon="10.600306471509073"><ele>140.0</ele><time>2026-04-26T12:10:52.944Z</time></trkpt><trkpt lat="43.3508939240846" lon="10.600382189764831"><ele>140.0</ele><time>2026-04-26T12:10:53.944Z</time></trkpt><trkpt lat="43.350929811673495" lon="10.600468234763685"><ele>140.66666666666666</ele><time>2026-04-26T12:10:54.944Z</time></trkpt><trkpt lat="43.35093058391309" lon="10.600568277756834"><ele>141.33333333333331</ele><time>2026-04-26T12:10:55.944Z</time></trkpt><trkpt lat="43.35088929754315" lon="10.60065482654337"><ele>142.0</ele><time>2026-04-26T12:10:56.944Z</time></trkpt><trkpt lat="43.350829650876" lon="10.6007254119447"><ele>142.66666666666666</ele><time>2026-04-26T12:10:57.944Z</time></trkpt><trkpt lat="43.350758602371094" lon="10.60079558641472"><ele>143.33333333333334</ele><time>2026-04-26T12:10:58.944Z</time></trkpt><trkpt lat="43.350670465451664" lon="10.600852654376103"><ele>144.0</ele><time>2026-04-26T12:10:59.944Z</time></trkpt><trkpt lat="43.350585305083364" lon="10.600902852274851"><ele>146.33333333333334</ele><time>2026-04-26T12:11:00.944Z</time></trkpt><trkpt lat="43.35050739895275" lon="10.600977073293528"><ele>148.66666666666666</ele><time>2026-04-26T12:11:01.944Z</time></trkpt><trkpt lat="43.350457533777075" lon="10.601058148345723"><ele>151.0</ele><time>2026-04-26T12:11:02.944Z</time></trkpt><trkpt lat="43.35042185057889" lon="10.60114921083414"><ele>153.33333333333331</ele><time>2026-04-26T12:11:03.944Z</time></trkpt><trkpt lat="43.350398200972634" lon="10.60124269186511"><ele>155.66666666666666</ele><time>2026-04-26T12:11:04.944Z</time></trkpt><trkpt lat="43.35037637340454" lon="10.601354595380785"><ele>158.0</ele><time>2026-04-26T12:11:05.944Z</time></trkpt><trkpt lat="43.35036571848617" lon="10.601481503999402"><ele>158.16666666666666</ele><time>2026-04-26T12:11:06.944Z</time></trkpt><trkpt lat="43.35036580965095" lon="10.601592016233933"><ele>158.33333333333331</ele><time>2026-04-26T12:11:07.944Z</time></trkpt><trkpt lat="43.35036562811284" lon="10.601704512550079"><ele>158.5</ele><time>2026-04-26T12:11:08.944Z</time></trkpt><trkpt lat="43.3503790119096" lon="10.601821700488264"><ele>158.66666666666666</ele><time>2026-04-26T12:11:09.944Z</time></trkpt><trkpt lat="43.350401304452404" lon="10.601908517123546"><ele>158.83333333333334</ele><time>2026-04-26T12:11:10.944Z</time></trkpt><trkpt lat="43.35042262197522" lon="10.6019945050221"><ele>159.0</ele><time>2026-04-26T12:11:11.944Z</time></trkpt><trkpt lat="43.3504524486995" lon="10.602090277286505"><ele>159.0</ele><time>2026-04-26T12:11:12.944Z</time></trkpt><trkpt lat="43.35048788954464" lon="10.6022025220327"><ele>159.0</ele><time>2026-04-26T12:11:13.944Z</time></trkpt><trkpt lat="43.35052890848504" lon="10.602340698531469"><ele>159.0</ele><time>2026-04-26T12:11:14.944Z</time></trkpt><trkpt lat="43.350558995475986" lon="10.602480122598317"><ele>159.0</ele><time>2026-04-26T12:11:15.944Z</time></trkpt><trkpt lat="43.35057952414308" lon="10.602612519999747"><ele>159.0</ele><time>2026-04-26T12:11:16.944Z</time></trkpt><trkpt lat="43.350578402497234" lon="10.602750467305567"><ele>159.6</ele><time>2026-04-26T12:11:17.944Z</time></trkpt><trkpt lat="43.35056761319819" lon="10.602874189984101"><ele>160.2</ele><time>2026-04-26T12:11:18.944Z</time></trkpt><trkpt lat="43.350534089521496" lon="10.603023840984251"><ele>160.79999999999998</ele><time>2026-04-26T12:11:20.944Z</time></trkpt><trkpt lat="43.35045659786875" lon="10.603136647739866"><ele>161.4</ele><time>2026-04-26T12:11:22.944Z</time></trkpt><trkpt lat="43.35039496159425" lon="10.603179740475731"><ele>162.0</ele><time>2026-04-26T12:11:23.944Z</time></trkpt><trkpt lat="43.35032544515614" lon="10.603227512851186"><ele>162.0</ele><time>2026-04-26T12:11:25.944Z</time></trkpt><trkpt lat="43.35026630854785" lon="10.6033076610796"><ele>162.0</ele><time>2026-04-26T12:11:44.944Z</time></trkpt><trkpt lat="43.35019804524214" lon="10.603408130134026"><ele>162.0</ele><time>2026-04-26T12:11:46.944Z</time></trkpt><trkpt lat="43.350154563197925" lon="10.603500166238671"><ele>162.0</ele><time>2026-04-26T12:12:06.944Z</time></trkpt><trkpt lat="43.35010657160856" lon="10.603587428232094"><ele>162.0</ele><time>2026-04-26T12:12:07.944Z</time></trkpt><trkpt lat="43.35004700102497" lon="10.603657955638928"><ele>162.0</ele><time>2026-04-26T12:12:08.944Z</time></trkpt><trkpt lat="43.34998465626306" lon="10.603750061707622"><ele>162.8</ele><time>2026-04-26T12:12:09.944Z</time></trkpt><trkpt lat="43.3499221443809" lon="10.60384949614347"><ele>163.6</ele><time>2026-04-26T12:12:10.944Z</time></trkpt><trkpt lat="43.34986324032214" lon="10.603941962995215"><ele>164.4</ele><time>2026-04-26T12:12:11.944Z</time></trkpt><trkpt lat="43.349821968016876" lon="10.604011548729375"><ele>165.20000000000002</ele><time>2026-04-26T12:12:12.944Z</time></trkpt><trkpt lat="43.34974720893005" lon="10.604109472880905"><ele>166.0</ele><time>2026-04-26T12:12:14.944Z</time></trkpt><trkpt lat="43.34965719293192" lon="10.604224203968473"><ele>162.83333333333334</ele><time>2026-04-26T12:12:16.944Z</time></trkpt><trkpt lat="43.34961408705725" lon="10.604293510026075"><ele>159.66666666666669</ele><time>2026-04-26T12:12:17.944Z</time></trkpt><trkpt lat="43.34957350867329" lon="10.604446735636882"><ele>156.5</ele><time>2026-04-26T12:12:19.944Z</time></trkpt><trkpt lat="43.34958524542791" lon="10.604570141081838"><ele>153.33333333333334</ele><time>2026-04-26T12:12:21.944Z</time></trkpt><trkpt lat="43.349614734858484" lon="10.604655658651376"><ele>150.16666666666666</ele><time>2026-04-26T12:12:22.944Z</time></trkpt><trkpt lat="43.34964338511389" lon="10.604774877959125"><ele>147.0</ele><time>2026-04-26T12:12:23.944Z</time></trkpt><trkpt lat="43.349680375278886" lon="10.60490003608067"><ele>149.2</ele><time>2026-04-26T12:12:24.944Z</time></trkpt><trkpt lat="43.349711097682295" lon="10.605017795989392"><ele>151.39999999999998</ele><time>2026-04-26T12:12:25.944Z</time></trkpt><trkpt lat="43.34974649287851" lon="10.605121411844522"><ele>153.60000000000002</ele><time>2026-04-26T12:12:26.944Z</time></trkpt><trkpt lat="43.349781328146825" lon="10.605238164360623"><ele>155.8</ele><time>2026-04-26T12:12:27.944Z</time></trkpt><trkpt lat="43.34980990631092" lon="10.605369951051085"><ele>158.0</ele><time>2026-04-26T12:12:28.944Z</time></trkpt><trkpt lat="43.3498373107509" lon="10.605532130219759"><ele>158.0</ele><time>2026-04-26T12:12:29.942Z</time></trkpt><trkpt lat="43.349870555499116" lon="10.605704600075313"><ele>158.0</ele><time>2026-04-26T12:12:30.942Z</time></trkpt><trkpt lat="43.34989930066965" lon="10.605852483173075"><ele>158.0</ele><time>2026-04-26T12:12:31.942Z</time></trkpt><trkpt lat="43.34992897823708" lon="10.605986299181957"><ele>158.0</ele><time>2026-04-26T12:12:32.942Z</time></trkpt><trkpt lat="43.349957090390895" lon="10.60612940932653"><ele>157.75</ele><time>2026-04-26T12:12:33.942Z</time></trkpt><trkpt lat="43.34998763411212" lon="10.606290137003574"><ele>157.5</ele><time>2026-04-26T12:12:34.942Z</time></trkpt><trkpt lat="43.350019448704295" lon="10.606455671026426"><ele>157.25</ele><time>2026-04-26T12:12:35.941Z</time></trkpt><trkpt lat="43.35005192972322" lon="10.606622582189232"><ele>157.0</ele><time>2026-04-26T12:12:36.942Z</time></trkpt><trkpt lat="43.350080101715484" lon="10.606786037018574"><ele>157.0</ele><time>2026-04-26T12:12:37.942Z</time></trkpt><trkpt lat="43.350110103702995" lon="10.606947508623717"><ele>157.0</ele><time>2026-04-26T12:12:38.941Z</time></trkpt><trkpt lat="43.35014229603533" lon="10.607090303490974"><ele>157.0</ele><time>2026-04-26T12:12:39.942Z</time></trkpt><trkpt lat="43.3501512648813" lon="10.607226101743963"><ele>157.0</ele><time>2026-04-26T12:12:40.942Z</time></trkpt><trkpt lat="43.35017993833094" lon="10.60735169778423"><ele>157.0</ele><time>2026-04-26T12:12:41.942Z</time></trkpt><trkpt lat="43.35021115749064" lon="10.607478306995825"><ele>156.25</ele><time>2026-04-26T12:12:42.942Z</time></trkpt><trkpt lat="43.350240879355106" lon="10.607593842311582"><ele>155.5</ele><time>2026-04-26T12:12:43.942Z</time></trkpt><trkpt lat="43.35029276006295" lon="10.607702431492514"><ele>154.75</ele><time>2026-04-26T12:12:44.942Z</time></trkpt><trkpt lat="43.35037728247817" lon="10.607812496309764"><ele>154.0</ele><time>2026-04-26T12:12:45.942Z</time></trkpt><trkpt lat="43.350489801249594" lon="10.60795211119933"><ele>155.25</ele><time>2026-04-26T12:12:46.942Z</time></trkpt><trkpt lat="43.35059235853985" lon="10.608078184906994"><ele>156.5</ele><time>2026-04-26T12:12:47.942Z</time></trkpt><trkpt lat="43.3506806570613" lon="10.60818199459265"><ele>157.75</ele><time>2026-04-26T12:12:48.942Z</time></trkpt><trkpt lat="43.350761529326554" lon="10.608279874351402"><ele>159.0</ele><time>2026-04-26T12:12:49.942Z</time></trkpt><trkpt lat="43.35084803926935" lon="10.608365450031604"><ele>159.0</ele><time>2026-04-26T12:12:50.942Z</time></trkpt><trkpt lat="43.35092693815068" lon="10.608471900657728"><ele>159.0</ele><time>2026-04-26T12:12:51.942Z</time></trkpt><trkpt lat="43.35098862079552" lon="10.608611431502721"><ele>159.0</ele><time>2026-04-26T12:12:52.942Z</time></trkpt><trkpt lat="43.351060436018166" lon="10.60874665526437"><ele>159.0</ele><time>2026-04-26T12:12:53.942Z</time></trkpt><trkpt lat="43.351132041375635" lon="10.608895581926063"><ele>159.75</ele><time>2026-04-26T12:12:54.942Z</time></trkpt><trkpt lat="43.35120340116368" lon="10.6090501709956"><ele>160.5</ele><time>2026-04-26T12:12:55.942Z</time></trkpt><trkpt lat="43.35127237864711" lon="10.609201252464684"><ele>161.25</ele><time>2026-04-26T12:12:56.942Z</time></trkpt><trkpt lat="43.351354759827395" lon="10.609339968629442"><ele>162.0</ele><time>2026-04-26T12:12:57.942Z</time></trkpt><trkpt lat="43.35141198016941" lon="10.609493645303623"><ele>162.2</ele><time>2026-04-26T12:12:58.942Z</time></trkpt><trkpt lat="43.351477087361154" lon="10.60963254748989"><ele>162.39999999999998</ele><time>2026-04-26T12:12:59.942Z</time></trkpt><trkpt lat="43.351538057787785" lon="10.609768222099481"><ele>162.60000000000002</ele><time>2026-04-26T12:13:00.942Z</time></trkpt><trkpt lat="43.35158682173122" lon="10.609860932060347"><ele>162.8</ele><time>2026-04-26T12:13:01.942Z</time></trkpt><trkpt lat="43.351629677789816" lon="10.609956087709955"><ele>163.0</ele><time>2026-04-26T12:13:03.942Z</time></trkpt><trkpt lat="43.3516291741777" lon="10.61004896775285"><ele>163.0</ele><time>2026-04-26T12:13:16.942Z</time></trkpt><trkpt lat="43.351496963663735" lon="10.610050696927605"><ele>163.0</ele><time>2026-04-26T12:13:18.942Z</time></trkpt><trkpt lat="43.35140566454244" lon="10.610055590983457"><ele>163.0</ele><time>2026-04-26T12:13:19.942Z</time></trkpt><trkpt lat="43.35131081561311" lon="10.610082101624023"><ele>163.0</ele><time>2026-04-26T12:13:20.942Z</time></trkpt><trkpt lat="43.351204999332566" lon="10.610125574390914"><ele>163.0</ele><time>2026-04-26T12:13:21.942Z</time></trkpt><trkpt lat="43.35110786528426" lon="10.610167168744173"><ele>162.5</ele><time>2026-04-26T12:13:22.942Z</time></trkpt><trkpt lat="43.351025679600525" lon="10.610201838166592"><ele>162.0</ele><time>2026-04-26T12:13:23.942Z</time></trkpt><trkpt lat="43.350953266764705" lon="10.6102451474769"><ele>161.5</ele><time>2026-04-26T12:13:24.942Z</time></trkpt><trkpt lat="43.350886377860725" lon="10.610280291141457"><ele>161.0</ele><time>2026-04-26T12:13:25.942Z</time></trkpt><trkpt lat="43.35080437247811" lon="10.610326602478546"><ele>160.5</ele><time>2026-04-26T12:13:26.942Z</time></trkpt><trkpt lat="43.350711852043425" lon="10.610374471862334"><ele>160.0</ele><time>2026-04-26T12:13:27.942Z</time></trkpt><trkpt lat="43.35062584425706" lon="10.610421157019191"><ele>158.6</ele><time>2026-04-26T12:13:28.942Z</time></trkpt><trkpt lat="43.350549075984866" lon="10.610465751743035"><ele>157.2</ele><time>2026-04-26T12:13:29.942Z</time></trkpt><trkpt lat="43.350485075288915" lon="10.610503482632668"><ele>155.8</ele><time>2026-04-26T12:13:30.942Z</time></trkpt><trkpt lat="43.35036935568126" lon="10.610540738486915"><ele>154.4</ele><time>2026-04-26T12:13:32.942Z</time></trkpt><trkpt lat="43.35025051142412" lon="10.610537996770184"><ele>153.0</ele><time>2026-04-26T12:13:34.942Z</time></trkpt><trkpt lat="43.35018013867097" lon="10.610522635929437"><ele>152.33333333333334</ele><time>2026-04-26T12:13:35.942Z</time></trkpt><trkpt lat="43.35010791326422" lon="10.610512617991036"><ele>151.66666666666666</ele><time>2026-04-26T12:13:36.942Z</time></trkpt><trkpt lat="43.35004669565642" lon="10.610537851583427"><ele>151.0</ele><time>2026-04-26T12:13:37.942Z</time></trkpt><trkpt lat="43.34998753097301" lon="10.61059201784421"><ele>150.33333333333331</ele><time>2026-04-26T12:13:38.942Z</time></trkpt><trkpt lat="43.34993891056884" lon="10.610697647401718"><ele>149.66666666666666</ele><time>2026-04-26T12:13:39.942Z</time></trkpt><trkpt lat="43.34988292744401" lon="10.6108192133078"><ele>149.0</ele><time>2026-04-26T12:13:40.942Z</time></trkpt><trkpt lat="43.34981989461466" lon="10.610948594446405"><ele>149.0</ele><time>2026-04-26T12:13:41.942Z</time></trkpt><trkpt lat="43.349742724306076" lon="10.611060243816787"><ele>149.0</ele><time>2026-04-26T12:13:42.942Z</time></trkpt><trkpt lat="43.34969378732027" lon="10.611161360999615"><ele>149.0</ele><time>2026-04-26T12:13:43.942Z</time></trkpt><trkpt lat="43.349652335526976" lon="10.611251471977523"><ele>149.0</ele><time>2026-04-26T12:13:44.942Z</time></trkpt><trkpt lat="43.34961206336843" lon="10.611338082547862"><ele>149.0</ele><time>2026-04-26T12:13:45.942Z</time></trkpt><trkpt lat="43.349572462037465" lon="10.611428158557194"><ele>149.0</ele><time>2026-04-26T12:13:46.942Z</time></trkpt><trkpt lat="43.34952640039463" lon="10.611532218545111"><ele>145.4</ele><time>2026-04-26T12:13:47.942Z</time></trkpt><trkpt lat="43.34947842642682" lon="10.611638167259498"><ele>141.8</ele><time>2026-04-26T12:13:48.942Z</time></trkpt><trkpt lat="43.34942725026157" lon="10.611746004734188"><ele>138.2</ele><time>2026-04-26T12:13:49.942Z</time></trkpt><trkpt lat="43.34937883749717" lon="10.611848680463005"><ele>134.6</ele><time>2026-04-26T12:13:50.942Z</time></trkpt><trkpt lat="43.34932312812283" lon="10.611960034854508"><ele>131.0</ele><time>2026-04-26T12:13:51.942Z</time></trkpt><trkpt lat="43.3492689843253" lon="10.612068656511163"><ele>129.4</ele><time>2026-04-26T12:13:52.942Z</time></trkpt><trkpt lat="43.34921274639164" lon="10.61217324930607"><ele>127.8</ele><time>2026-04-26T12:13:53.942Z</time></trkpt><trkpt lat="43.34915693325476" lon="10.61228311249916"><ele>126.20000000000002</ele><time>2026-04-26T12:13:54.942Z</time></trkpt><trkpt lat="43.34910217063791" lon="10.612394480100404"><ele>124.60000000000001</ele><time>2026-04-26T12:13:55.942Z</time></trkpt><trkpt lat="43.3490463497786" lon="10.61251063212225"><ele>123.0</ele><time>2026-04-26T12:13:56.942Z</time></trkpt><trkpt lat="43.34899257236003" lon="10.61262461616808"><ele>123.0</ele><time>2026-04-26T12:13:57.942Z</time></trkpt><trkpt lat="43.34894233546589" lon="10.612737793230687"><ele>123.00000000000001</ele><time>2026-04-26T12:13:58.942Z</time></trkpt><trkpt lat="43.34889794855893" lon="10.612858786070854"><ele>123.00000000000001</ele><time>2026-04-26T12:13:59.942Z</time></trkpt><trkpt lat="43.3488408489582" lon="10.61296979020237"><ele>123.0</ele><time>2026-04-26T12:14:00.942Z</time></trkpt><trkpt lat="43.348801264766486" lon="10.613106080259428"><ele>123.0</ele><time>2026-04-26T12:14:01.942Z</time></trkpt><trkpt lat="43.348779736950476" lon="10.613252169102008"><ele>119.80000000000001</ele><time>2026-04-26T12:14:02.942Z</time></trkpt><trkpt lat="43.34873355873289" lon="10.613379407559874"><ele>116.60000000000001</ele><time>2026-04-26T12:14:03.942Z</time></trkpt><trkpt lat="43.34871338945138" lon="10.613513522397765"><ele>113.39999999999999</ele><time>2026-04-26T12:14:04.942Z</time></trkpt><trkpt lat="43.348684473227635" lon="10.613648440180265"><ele>110.19999999999999</ele><time>2026-04-26T12:14:05.942Z</time></trkpt><trkpt lat="43.34865097821479" lon="10.613769229189648"><ele>107.0</ele><time>2026-04-26T12:14:06.942Z</time></trkpt><trkpt lat="43.34860923631671" lon="10.613879278182926"><ele>106.99999999999999</ele><time>2026-04-26T12:14:07.942Z</time></trkpt><trkpt lat="43.34856575564445" lon="10.61396838433471"><ele>107.0</ele><time>2026-04-26T12:14:08.942Z</time></trkpt><trkpt lat="43.348517459277" lon="10.614059081442628"><ele>107.0</ele><time>2026-04-26T12:14:09.942Z</time></trkpt><trkpt lat="43.34847281237295" lon="10.614146412675586"><ele>107.0</ele><time>2026-04-26T12:14:10.942Z</time></trkpt><trkpt lat="43.34843261223886" lon="10.614232253037825"><ele>106.99999999999999</ele><time>2026-04-26T12:14:11.942Z</time></trkpt><trkpt lat="43.34840106528493" lon="10.61432193167515"><ele>107.0</ele><time>2026-04-26T12:14:12.942Z</time></trkpt><trkpt lat="43.348364851499134" lon="10.61441635579889"><ele>107.16666666666666</ele><time>2026-04-26T12:14:13.942Z</time></trkpt><trkpt lat="43.348326292368554" lon="10.614505086485742"><ele>107.33333333333333</ele><time>2026-04-26T12:14:14.942Z</time></trkpt><trkpt lat="43.34828292678727" lon="10.614607271231923"><ele>107.5</ele><time>2026-04-26T12:14:15.942Z</time></trkpt><trkpt lat="43.348241533261984" lon="10.61470688393452"><ele>107.66666666666666</ele><time>2026-04-26T12:14:16.942Z</time></trkpt><trkpt lat="43.34820194779699" lon="10.614806232636305"><ele>107.83333333333333</ele><time>2026-04-26T12:14:17.942Z</time></trkpt><trkpt lat="43.34816201741112" lon="10.61490298967016"><ele>108.0</ele><time>2026-04-26T12:14:18.942Z</time></trkpt><trkpt lat="43.34811709163958" lon="10.61499862165711"><ele>108.0</ele><time>2026-04-26T12:14:19.942Z</time></trkpt><trkpt lat="43.348066843367654" lon="10.615087925947048"><ele>108.0</ele><time>2026-04-26T12:14:20.942Z</time></trkpt><trkpt lat="43.34801501400573" lon="10.61517920107181"><ele>108.0</ele><time>2026-04-26T12:14:21.942Z</time></trkpt><trkpt lat="43.347960477783374" lon="10.61527195384421"><ele>108.0</ele><time>2026-04-26T12:14:22.942Z</time></trkpt><trkpt lat="43.34790702778482" lon="10.61536010073335"><ele>108.0</ele><time>2026-04-26T12:14:23.942Z</time></trkpt><trkpt lat="43.34785549403499" lon="10.615449073653496"><ele>108.0</ele><time>2026-04-26T12:14:24.942Z</time></trkpt><trkpt lat="43.34781005544541" lon="10.61553411353213"><ele>105.83333333333333</ele><time>2026-04-26T12:14:25.942Z</time></trkpt><trkpt lat="43.34775721861149" lon="10.615655866698805"><ele>103.66666666666667</ele><time>2026-04-26T12:14:27.942Z</time></trkpt><trkpt lat="43.34773109992226" lon="10.61573637492475"><ele>101.5</ele><time>2026-04-26T12:14:29.942Z</time></trkpt><trkpt lat="43.347694843056175" lon="10.615815133716216"><ele>99.33333333333334</ele><time>2026-04-26T12:14:32.942Z</time></trkpt><trkpt lat="43.34765602102475" lon="10.615900816414845"><ele>97.16666666666667</ele><time>2026-04-26T12:14:35.94Z</time></trkpt><trkpt lat="43.34762293594118" lon="10.615975263969434"><ele>95.0</ele><time>2026-04-26T12:14:36.94Z</time></trkpt><trkpt lat="43.347577111416335" lon="10.616064844632449"><ele>95.0</ele><time>2026-04-26T12:14:37.94Z</time></trkpt><trkpt lat="43.34752881140902" lon="10.61617525811474"><ele>95.0</ele><time>2026-04-26T12:14:38.939Z</time></trkpt><trkpt lat="43.347482853841484" lon="10.616306253610963"><ele>95.0</ele><time>2026-04-26T12:14:39.939Z</time></trkpt><trkpt lat="43.34744489930398" lon="10.616438819239798"><ele>95.0</ele><time>2026-04-26T12:14:40.939Z</time></trkpt><trkpt lat="43.34741765955205" lon="10.616562618074417"><ele>95.0</ele><time>2026-04-26T12:14:41.94Z</time></trkpt><trkpt lat="43.3473805319345" lon="10.616658176577804"><ele>95.0</ele><time>2026-04-26T12:14:42.939Z</time></trkpt><trkpt lat="43.34737734852975" lon="10.616746210528435"><ele>95.0</ele><time>2026-04-26T12:14:43.939Z</time></trkpt><trkpt lat="43.347417620179016" lon="10.6168500985894"><ele>95.0</ele><time>2026-04-26T12:14:44.939Z</time></trkpt><trkpt lat="43.347511246579494" lon="10.616911319718472"><ele>95.0</ele><time>2026-04-26T12:14:45.939Z</time></trkpt><trkpt lat="43.347568411646954" lon="10.617024907388853"><ele>95.0</ele><time>2026-04-26T12:14:46.939Z</time></trkpt><trkpt lat="43.34756478831834" lon="10.617202347574556"><ele>92.75</ele><time>2026-04-26T12:14:47.939Z</time></trkpt><trkpt lat="43.347572709957134" lon="10.617404845544938"><ele>90.5</ele><time>2026-04-26T12:14:48.94Z</time></trkpt><trkpt lat="43.34759887050523" lon="10.617605819787572"><ele>88.25</ele><time>2026-04-26T12:14:49.94Z</time></trkpt><trkpt lat="43.347594569313735" lon="10.617799544119677"><ele>86.0</ele><time>2026-04-26T12:14:50.94Z</time></trkpt><trkpt lat="43.34760666871604" lon="10.617980174782964"><ele>84.2</ele><time>2026-04-26T12:14:51.94Z</time></trkpt><trkpt lat="43.347620305432415" lon="10.618137799690178"><ele>82.39999999999999</ele><time>2026-04-26T12:14:52.94Z</time></trkpt><trkpt lat="43.34763190299769" lon="10.618280010472468"><ele>80.6</ele><time>2026-04-26T12:14:53.94Z</time></trkpt><trkpt lat="43.347631601351615" lon="10.618415517900889"><ele>78.8</ele><time>2026-04-26T12:14:54.94Z</time></trkpt><trkpt lat="43.34761074078123" lon="10.618543903915686"><ele>77.0</ele><time>2026-04-26T12:14:55.94Z</time></trkpt><trkpt lat="43.34756578579145" lon="10.618656710237056"><ele>75.33333333333334</ele><time>2026-04-26T12:14:56.94Z</time></trkpt><trkpt lat="43.34752024785059" lon="10.618739658230941"><ele>73.66666666666667</ele><time>2026-04-26T12:14:57.94Z</time></trkpt><trkpt lat="43.34749182409467" lon="10.618857357296392"><ele>72.0</ele><time>2026-04-26T12:14:59.94Z</time></trkpt><trkpt lat="43.347570048676495" lon="10.619007490558557"><ele>70.33333333333333</ele><time>2026-04-26T12:15:01.94Z</time></trkpt><trkpt lat="43.34761487261962" lon="10.619075340601961"><ele>68.66666666666666</ele><time>2026-04-26T12:15:02.94Z</time></trkpt><trkpt lat="43.34766321518681" lon="10.619155820164904"><ele>67.0</ele><time>2026-04-26T12:15:03.94Z</time></trkpt><trkpt lat="43.34771419747988" lon="10.619248572233724"><ele>67.0</ele><time>2026-04-26T12:15:04.94Z</time></trkpt><trkpt lat="43.347756593132594" lon="10.619358275481375"><ele>67.0</ele><time>2026-04-26T12:15:05.94Z</time></trkpt><trkpt lat="43.34778367648628" lon="10.619501983807066"><ele>67.0</ele><time>2026-04-26T12:15:06.94Z</time></trkpt><trkpt lat="43.347808093035155" lon="10.619656745505365"><ele>67.0</ele><time>2026-04-26T12:15:07.94Z</time></trkpt><trkpt lat="43.347828887192385" lon="10.619810050922236"><ele>67.0</ele><time>2026-04-26T12:15:08.94Z</time></trkpt><trkpt lat="43.347857087872065" lon="10.619944169416081"><ele>64.6</ele><time>2026-04-26T12:15:09.94Z</time></trkpt><trkpt lat="43.34788070240199" lon="10.620063954502312"><ele>62.2</ele><time>2026-04-26T12:15:10.94Z</time></trkpt><trkpt lat="43.34789071116853" lon="10.620184322242952"><ele>59.8</ele><time>2026-04-26T12:15:11.94Z</time></trkpt><trkpt lat="43.347890547564845" lon="10.620310730473305"><ele>57.4</ele><time>2026-04-26T12:15:12.94Z</time></trkpt><trkpt lat="43.347878715298656" lon="10.620440549561248"><ele>55.0</ele><time>2026-04-26T12:15:13.94Z</time></trkpt><trkpt lat="43.347857140295226" lon="10.620583844320459"><ele>53.8</ele><time>2026-04-26T12:15:14.94Z</time></trkpt><trkpt lat="43.34780645763265" lon="10.620717832214286"><ele>52.6</ele><time>2026-04-26T12:15:15.94Z</time></trkpt><trkpt lat="43.34777645477642" lon="10.620860038578094"><ele>51.400000000000006</ele><time>2026-04-26T12:15:16.94Z</time></trkpt><trkpt lat="43.34776711706263" lon="10.621008917737809"><ele>50.2</ele><time>2026-04-26T12:15:17.94Z</time></trkpt><trkpt lat="43.34775357421117" lon="10.62114456013647"><ele>49.0</ele><time>2026-04-26T12:15:18.94Z</time></trkpt><trkpt lat="43.34774157625821" lon="10.621265711995989"><ele>46.6</ele><time>2026-04-26T12:15:19.94Z</time></trkpt><trkpt lat="43.34772045744759" lon="10.621379669567592"><ele>44.2</ele><time>2026-04-26T12:15:20.94Z</time></trkpt><trkpt lat="43.34770543888259" lon="10.621501810405771"><ele>41.800000000000004</ele><time>2026-04-26T12:15:21.94Z</time></trkpt><trkpt lat="43.34771031444676" lon="10.621643462234289"><ele>39.400000000000006</ele><time>2026-04-26T12:15:22.94Z</time></trkpt><trkpt lat="43.34773757125662" lon="10.62179644532721"><ele>37.0</ele><time>2026-04-26T12:15:23.94Z</time></trkpt><trkpt lat="43.34777426966324" lon="10.621967746368668"><ele>36.4</ele><time>2026-04-26T12:15:24.94Z</time></trkpt><trkpt lat="43.34781021035396" lon="10.622134499273844"><ele>35.800000000000004</ele><time>2026-04-26T12:15:25.94Z</time></trkpt><trkpt lat="43.34784401961374" lon="10.62227406988423"><ele>35.2</ele><time>2026-04-26T12:15:26.94Z</time></trkpt><trkpt lat="43.34786228981028" lon="10.622397652527996"><ele>34.6</ele><time>2026-04-26T12:15:27.94Z</time></trkpt><trkpt lat="43.347827612060044" lon="10.622503717941107"><ele>34.0</ele><time>2026-04-26T12:15:28.94Z</time></trkpt><trkpt lat="43.347810267992855" lon="10.622623160348352"><ele>34.0</ele><time>2026-04-26T12:15:29.94Z</time></trkpt><trkpt lat="43.34781304145029" lon="10.622749161046151"><ele>34.0</ele><time>2026-04-26T12:15:30.94Z</time></trkpt><trkpt lat="43.347808577730476" lon="10.622880927893815"><ele>34.0</ele><time>2026-04-26T12:15:31.94Z</time></trkpt><trkpt lat="43.34780870928779" lon="10.623024421675291"><ele>34.0</ele><time>2026-04-26T12:15:32.94Z</time></trkpt><trkpt lat="43.34780708143873" lon="10.623152830229769"><ele>34.0</ele><time>2026-04-26T12:15:33.94Z</time></trkpt><trkpt lat="43.34780633459668" lon="10.623258018967327"><ele>33.75</ele><time>2026-04-26T12:15:34.94Z</time></trkpt><trkpt lat="43.34777727141305" lon="10.623381104631997"><ele>33.5</ele><time>2026-04-26T12:15:36.94Z</time></trkpt><trkpt lat="43.347609849989375" lon="10.623311759671713"><ele>33.25</ele><time>2026-04-26T12:15:40.94Z</time></trkpt><trkpt lat="43.34751034198567" lon="10.62317103603772"><ele>33.0</ele><time>2026-04-26T12:15:41.94Z</time></trkpt><trkpt lat="43.34736843767919" lon="10.623000778254353"><ele>33.0</ele><time>2026-04-26T12:15:42.94Z</time></trkpt><trkpt lat="43.347215128158766" lon="10.622828821068442"><ele>33.0</ele><time>2026-04-26T12:15:43.94Z</time></trkpt><trkpt lat="43.34707955121064" lon="10.622666793722454"><ele>33.0</ele><time>2026-04-26T12:15:44.94Z</time></trkpt><trkpt lat="43.346959163719234" lon="10.622506061242794"><ele>32.0</ele><time>2026-04-26T12:15:45.94Z</time></trkpt><trkpt lat="43.346842559637594" lon="10.622345925425444"><ele>31.0</ele><time>2026-04-26T12:15:46.94Z</time></trkpt><trkpt lat="43.346728446852744" lon="10.62218788168247"><ele>30.0</ele><time>2026-04-26T12:15:47.94Z</time></trkpt><trkpt lat="43.346618167298196" lon="10.622034298154363"><ele>29.5</ele><time>2026-04-26T12:15:48.94Z</time></trkpt><trkpt lat="43.34651166107735" lon="10.621881174623983"><ele>29.0</ele><time>2026-04-26T12:15:49.94Z</time></trkpt><trkpt lat="43.34640939448031" lon="10.621733194784499"><ele>28.5</ele><time>2026-04-26T12:15:50.94Z</time></trkpt><trkpt lat="43.34632246879099" lon="10.621593827540883"><ele>28.0</ele><time>2026-04-26T12:15:51.94Z</time></trkpt><trkpt lat="43.34624070401058" lon="10.621445477815318"><ele>28.0</ele><time>2026-04-26T12:15:52.94Z</time></trkpt><trkpt lat="43.34616624350216" lon="10.621290630700537"><ele>28.0</ele><time>2026-04-26T12:15:53.94Z</time></trkpt><trkpt lat="43.34609832747451" lon="10.62113112593874"><ele>28.0</ele><time>2026-04-26T12:15:54.94Z</time></trkpt><trkpt lat="43.34603648994351" lon="10.620968096426774"><ele>28.0</ele><time>2026-04-26T12:15:55.94Z</time></trkpt><trkpt lat="43.34598147387003" lon="10.620795372501098"><ele>28.5</ele><time>2026-04-26T12:15:56.94Z</time></trkpt><trkpt lat="43.34593791127289" lon="10.620611562407838"><ele>29.0</ele><time>2026-04-26T12:15:57.94Z</time></trkpt><trkpt lat="43.3458974827295" lon="10.620426038887336"><ele>29.5</ele><time>2026-04-26T12:15:58.94Z</time></trkpt><trkpt lat="43.34586558692462" lon="10.620235205363112"><ele>30.0</ele><time>2026-04-26T12:15:59.94Z</time></trkpt><trkpt lat="43.345839281656986" lon="10.620044156526932"><ele>30.0</ele><time>2026-04-26T12:16:00.94Z</time></trkpt><trkpt lat="43.34581682274407" lon="10.619847086685557"><ele>30.0</ele><time>2026-04-26T12:16:01.94Z</time></trkpt><trkpt lat="43.345795087611904" lon="10.61964991039838"><ele>30.0</ele><time>2026-04-26T12:16:02.94Z</time></trkpt><trkpt lat="43.34577272251033" lon="10.619450858324644"><ele>30.0</ele><time>2026-04-26T12:16:03.94Z</time></trkpt><trkpt lat="43.34574784110394" lon="10.619249813108013"><ele>30.666666666666664</ele><time>2026-04-26T12:16:04.94Z</time></trkpt><trkpt lat="43.34572532732866" lon="10.619046666595526"><ele>31.333333333333332</ele><time>2026-04-26T12:16:05.94Z</time></trkpt><trkpt lat="43.34570250106954" lon="10.61884482374235"><ele>32.0</ele><time>2026-04-26T12:16:06.94Z</time></trkpt><trkpt lat="43.34568261573708" lon="10.618636299174868"><ele>33.33333333333333</ele><time>2026-04-26T12:16:07.94Z</time></trkpt><trkpt lat="43.34566157501958" lon="10.618427010936772"><ele>34.666666666666664</ele><time>2026-04-26T12:16:08.94Z</time></trkpt><trkpt lat="43.345648420149246" lon="10.618217674861208"><ele>36.0</ele><time>2026-04-26T12:16:09.94Z</time></trkpt><trkpt lat="43.34564062047657" lon="10.618006061485554"><ele>36.666666666666664</ele><time>2026-04-26T12:16:10.94Z</time></trkpt><trkpt lat="43.34564394177774" lon="10.617794160836276"><ele>37.33333333333333</ele><time>2026-04-26T12:16:11.94Z</time></trkpt><trkpt lat="43.345655121829566" lon="10.617589623738944"><ele>38.0</ele><time>2026-04-26T12:16:12.94Z</time></trkpt><trkpt lat="43.34568005545303" lon="10.617390253520417"><ele>38.0</ele><time>2026-04-26T12:16:13.94Z</time></trkpt><trkpt lat="43.345718181371396" lon="10.617195858127765"><ele>38.0</ele><time>2026-04-26T12:16:14.94Z</time></trkpt><trkpt lat="43.345761577765565" lon="10.617000324033613"><ele>38.0</ele><time>2026-04-26T12:16:15.94Z</time></trkpt><trkpt lat="43.34581708207949" lon="10.61680360422458"><ele>38.0</ele><time>2026-04-26T12:16:16.94Z</time></trkpt><trkpt lat="43.34587701170142" lon="10.616604394893985"><ele>36.0</ele><time>2026-04-26T12:16:17.94Z</time></trkpt><trkpt lat="43.34593161473771" lon="10.616411300541202"><ele>34.0</ele><time>2026-04-26T12:16:18.94Z</time></trkpt><trkpt lat="43.34598752321889" lon="10.616208978458214"><ele>32.0</ele><time>2026-04-26T12:16:19.94Z</time></trkpt><trkpt lat="43.34604779413587" lon="10.616003750287664"><ele>29.666666666666664</ele><time>2026-04-26T12:16:20.94Z</time></trkpt><trkpt lat="43.34611051718106" lon="10.61580049309822"><ele>27.333333333333336</ele><time>2026-04-26T12:16:21.94Z</time></trkpt><trkpt lat="43.34616989424708" lon="10.615597375212726"><ele>25.0</ele><time>2026-04-26T12:16:22.94Z</time></trkpt><trkpt lat="43.346232763118216" lon="10.615393954086796"><ele>24.333333333333336</ele><time>2026-04-26T12:16:23.94Z</time></trkpt><trkpt lat="43.346288905246254" lon="10.615187862384868"><ele>23.666666666666668</ele><time>2026-04-26T12:16:24.94Z</time></trkpt><trkpt lat="43.34635014116112" lon="10.614979888314215"><ele>23.0</ele><time>2026-04-26T12:16:25.94Z</time></trkpt><trkpt lat="43.34641046655539" lon="10.614774111192498"><ele>26.333333333333336</ele><time>2026-04-26T12:16:26.94Z</time></trkpt><trkpt lat="43.346470229592704" lon="10.614567005577836"><ele>29.666666666666668</ele><time>2026-04-26T12:16:27.94Z</time></trkpt><trkpt lat="43.34652868012232" lon="10.614358655380144"><ele>33.0</ele><time>2026-04-26T12:16:28.94Z</time></trkpt><trkpt lat="43.346591708791365" lon="10.614150964035092"><ele>33.0</ele><time>2026-04-26T12:16:29.94Z</time></trkpt><trkpt lat="43.3466541840962" lon="10.613945573813089"><ele>33.0</ele><time>2026-04-26T12:16:30.94Z</time></trkpt><trkpt lat="43.3467109652785" lon="10.613737053864172"><ele>33.0</ele><time>2026-04-26T12:16:31.94Z</time></trkpt><trkpt lat="43.34677799840764" lon="10.613528910998866"><ele>31.666666666666664</ele><time>2026-04-26T12:16:32.94Z</time></trkpt><trkpt lat="43.34684173943737" lon="10.613319261709306"><ele>30.333333333333332</ele><time>2026-04-26T12:16:33.94Z</time></trkpt><trkpt lat="43.34690006318557" lon="10.613109201711364"><ele>29.0</ele><time>2026-04-26T12:16:34.94Z</time></trkpt><trkpt lat="43.34695982520602" lon="10.612896684232892"><ele>28.333333333333332</ele><time>2026-04-26T12:16:35.94Z</time></trkpt><trkpt lat="43.3470202057068" lon="10.61268195268658"><ele>27.666666666666664</ele><time>2026-04-26T12:16:36.94Z</time></trkpt><trkpt lat="43.347075044582496" lon="10.612465797138105"><ele>27.0</ele><time>2026-04-26T12:16:37.94Z</time></trkpt><trkpt lat="43.347134421912955" lon="10.612246505570896"><ele>27.0</ele><time>2026-04-26T12:16:38.94Z</time></trkpt><trkpt lat="43.34718729671655" lon="10.612019182754558"><ele>27.0</ele><time>2026-04-26T12:16:39.94Z</time></trkpt><trkpt lat="43.34723717527986" lon="10.611784766034205"><ele>27.0</ele><time>2026-04-26T12:16:40.94Z</time></trkpt><trkpt lat="43.34727940254367" lon="10.61154736709374"><ele>29.0</ele><time>2026-04-26T12:16:41.938Z</time></trkpt><trkpt lat="43.3473194272732" lon="10.611303701859477"><ele>31.0</ele><time>2026-04-26T12:16:42.938Z</time></trkpt><trkpt lat="43.347351257510304" lon="10.611051167120213"><ele>33.0</ele><time>2026-04-26T12:16:43.938Z</time></trkpt><trkpt lat="43.34737127229612" lon="10.61079512737214"><ele>33.0</ele><time>2026-04-26T12:16:44.938Z</time></trkpt><trkpt lat="43.34737734024419" lon="10.61054314158628"><ele>33.0</ele><time>2026-04-26T12:16:45.938Z</time></trkpt><trkpt lat="43.34737260013708" lon="10.610294296966808"><ele>33.0</ele><time>2026-04-26T12:16:46.938Z</time></trkpt><trkpt lat="43.3473637031204" lon="10.610045709696479"><ele>32.666666666666664</ele><time>2026-04-26T12:16:47.938Z</time></trkpt><trkpt lat="43.34734677448842" lon="10.609799915362537"><ele>32.33333333333333</ele><time>2026-04-26T12:16:48.938Z</time></trkpt><trkpt lat="43.347326584335434" lon="10.609559889532143"><ele>32.0</ele><time>2026-04-26T12:16:49.938Z</time></trkpt><trkpt lat="43.347305254850944" lon="10.60932144333875"><ele>32.0</ele><time>2026-04-26T12:16:50.937Z</time></trkpt><trkpt lat="43.347284805100855" lon="10.60909087293763"><ele>32.0</ele><time>2026-04-26T12:16:51.938Z</time></trkpt><trkpt lat="43.347267734406365" lon="10.60884814256187"><ele>32.0</ele><time>2026-04-26T12:16:52.938Z</time></trkpt><trkpt lat="43.34725232783072" lon="10.608603705133923"><ele>33.666666666666664</ele><time>2026-04-26T12:16:53.938Z</time></trkpt><trkpt lat="43.347235307837465" lon="10.608362945504382"><ele>35.333333333333336</ele><time>2026-04-26T12:16:54.938Z</time></trkpt><trkpt lat="43.34721765204776" lon="10.608117062036989"><ele>37.0</ele><time>2026-04-26T12:16:55.938Z</time></trkpt><trkpt lat="43.34719613381282" lon="10.607874614256277"><ele>32.0</ele><time>2026-04-26T12:16:56.938Z</time></trkpt><trkpt lat="43.34716921095808" lon="10.607635889154116"><ele>27.0</ele><time>2026-04-26T12:16:57.938Z</time></trkpt><trkpt lat="43.34713883194749" lon="10.607396770604158"><ele>22.0</ele><time>2026-04-26T12:16:58.938Z</time></trkpt><trkpt lat="43.347105865684796" lon="10.607158967712028"><ele>22.333333333333332</ele><time>2026-04-26T12:16:59.938Z</time></trkpt><trkpt lat="43.34706630902782" lon="10.606921023297533"><ele>22.666666666666668</ele><time>2026-04-26T12:17:00.938Z</time></trkpt><trkpt lat="43.347013724010715" lon="10.606691948317978"><ele>23.0</ele><time>2026-04-26T12:17:01.938Z</time></trkpt><trkpt lat="43.34695379884169" lon="10.606467234897488"><ele>23.0</ele><time>2026-04-26T12:17:02.938Z</time></trkpt><trkpt lat="43.346884456064416" lon="10.606241917504676"><ele>23.0</ele><time>2026-04-26T12:17:03.938Z</time></trkpt><trkpt lat="43.34682199687514" lon="10.60601270310163"><ele>23.0</ele><time>2026-04-26T12:17:04.938Z</time></trkpt><trkpt lat="43.34675724825071" lon="10.605786150650204"><ele>24.333333333333336</ele><time>2026-04-26T12:17:05.938Z</time></trkpt><trkpt lat="43.34668694848574" lon="10.605566684416464"><ele>25.666666666666668</ele><time>2026-04-26T12:17:06.938Z</time></trkpt><trkpt lat="43.34661640875382" lon="10.605345194014971"><ele>27.0</ele><time>2026-04-26T12:17:07.938Z</time></trkpt><trkpt lat="43.34654612973042" lon="10.605124370309179"><ele>28.333333333333336</ele><time>2026-04-26T12:17:08.938Z</time></trkpt><trkpt lat="43.34647370365901" lon="10.604900516364799"><ele>29.666666666666668</ele><time>2026-04-26T12:17:09.938Z</time></trkpt><trkpt lat="43.34640616114043" lon="10.604673445612693"><ele>31.0</ele><time>2026-04-26T12:17:10.938Z</time></trkpt><trkpt lat="43.34633589146135" lon="10.604447241440605"><ele>27.666666666666668</ele><time>2026-04-26T12:17:11.938Z</time></trkpt><trkpt lat="43.34626816655489" lon="10.604220152942144"><ele>24.333333333333336</ele><time>2026-04-26T12:17:12.938Z</time></trkpt><trkpt lat="43.34620128521359" lon="10.603990815062899"><ele>21.0</ele><time>2026-04-26T12:17:13.938Z</time></trkpt><trkpt lat="43.346133192652495" lon="10.603760250476142"><ele>22.0</ele><time>2026-04-26T12:17:14.938Z</time></trkpt><trkpt lat="43.34606392509108" lon="10.603530321669844"><ele>23.0</ele><time>2026-04-26T12:17:15.938Z</time></trkpt><trkpt lat="43.34599028948871" lon="10.6033016501925"><ele>24.0</ele><time>2026-04-26T12:17:16.938Z</time></trkpt><trkpt lat="43.34591502797546" lon="10.603071914780482"><ele>24.0</ele><time>2026-04-26T12:17:17.938Z</time></trkpt><trkpt lat="43.345836919751214" lon="10.602847187530836"><ele>24.0</ele><time>2026-04-26T12:17:18.938Z</time></trkpt><trkpt lat="43.34575735678761" lon="10.60261887464928"><ele>24.0</ele><time>2026-04-26T12:17:19.938Z</time></trkpt><trkpt lat="43.34567275734415" lon="10.602392716538004"><ele>24.0</ele><time>2026-04-26T12:17:20.938Z</time></trkpt><trkpt lat="43.34557604491987" lon="10.602171434448561"><ele>24.0</ele><time>2026-04-26T12:17:21.938Z</time></trkpt><trkpt lat="43.34547050741987" lon="10.601957577840901"><ele>24.0</ele><time>2026-04-26T12:17:22.938Z</time></trkpt><trkpt lat="43.345357045287315" lon="10.601758698252194"><ele>24.0</ele><time>2026-04-26T12:17:23.938Z</time></trkpt><trkpt lat="43.34523291831787" lon="10.601570461542387"><ele>24.0</ele><time>2026-04-26T12:17:24.938Z</time></trkpt><trkpt lat="43.34510235477748" lon="10.601392257309845"><ele>24.0</ele><time>2026-04-26T12:17:25.938Z</time></trkpt><trkpt lat="43.344958117637084" lon="10.601238959704508"><ele>23.333333333333332</ele><time>2026-04-26T12:17:26.938Z</time></trkpt><trkpt lat="43.34481007064598" lon="10.601101877761728"><ele>22.666666666666664</ele><time>2026-04-26T12:17:27.938Z</time></trkpt><trkpt lat="43.34465466605829" lon="10.600974795490542"><ele>22.0</ele><time>2026-04-26T12:17:28.938Z</time></trkpt><trkpt lat="43.3444984316819" lon="10.600850857128464"><ele>22.0</ele><time>2026-04-26T12:17:29.938Z</time></trkpt><trkpt lat="43.34433972764388" lon="10.600727984018425"><ele>22.0</ele><time>2026-04-26T12:17:30.938Z</time></trkpt><trkpt lat="43.3441800339759" lon="10.600606418719115"><ele>22.0</ele><time>2026-04-26T12:17:31.938Z</time></trkpt><trkpt lat="43.344020895216936" lon="10.600485492332979"><ele>22.0</ele><time>2026-04-26T12:17:32.938Z</time></trkpt><trkpt lat="43.34386046322608" lon="10.600367727441306"><ele>22.0</ele><time>2026-04-26T12:17:33.938Z</time></trkpt><trkpt lat="43.343698305916" lon="10.600253623532689"><ele>22.0</ele><time>2026-04-26T12:17:34.938Z</time></trkpt><trkpt lat="43.343539716089566" lon="10.600141376758573"><ele>23.666666666666664</ele><time>2026-04-26T12:17:35.938Z</time></trkpt><trkpt lat="43.343381980738314" lon="10.600027193825138"><ele>25.333333333333332</ele><time>2026-04-26T12:17:36.938Z</time></trkpt><trkpt lat="43.3432316482844" lon="10.599906020429124"><ele>27.0</ele><time>2026-04-26T12:17:37.938Z</time></trkpt><trkpt lat="43.34308277078769" lon="10.599778982588122"><ele>27.666666666666664</ele><time>2026-04-26T12:17:38.938Z</time></trkpt><trkpt lat="43.34293880909278" lon="10.599646231241307"><ele>28.333333333333332</ele><time>2026-04-26T12:17:39.938Z</time></trkpt><trkpt lat="43.3427980250451" lon="10.599505393479566"><ele>29.0</ele><time>2026-04-26T12:17:40.938Z</time></trkpt><trkpt lat="43.34266813095716" lon="10.599357372088317"><ele>29.0</ele><time>2026-04-26T12:17:41.939Z</time></trkpt><trkpt lat="43.34254256928262" lon="10.599198813755415"><ele>29.0</ele><time>2026-04-26T12:17:42.939Z</time></trkpt><trkpt lat="43.34242864590923" lon="10.599026121924338"><ele>29.0</ele><time>2026-04-26T12:17:43.939Z</time></trkpt><trkpt lat="43.34232312764476" lon="10.598838026997566"><ele>26.666666666666664</ele><time>2026-04-26T12:17:44.939Z</time></trkpt><trkpt lat="43.3422211058825" lon="10.598647140135608"><ele>24.333333333333332</ele><time>2026-04-26T12:17:45.939Z</time></trkpt><trkpt lat="43.34212589511655" lon="10.59845165942814"><ele>22.0</ele><time>2026-04-26T12:17:46.939Z</time></trkpt><trkpt lat="43.34203924377442" lon="10.59825152164504"><ele>22.0</ele><time>2026-04-26T12:17:47.939Z</time></trkpt><trkpt lat="43.34196518375519" lon="10.598044068918496"><ele>22.0</ele><time>2026-04-26T12:17:48.939Z</time></trkpt><trkpt lat="43.34188901862691" lon="10.597836492242921"><ele>22.0</ele><time>2026-04-26T12:17:49.939Z</time></trkpt><trkpt lat="43.341815132442335" lon="10.597627076693374"><ele>24.666666666666664</ele><time>2026-04-26T12:17:50.939Z</time></trkpt><trkpt lat="43.341738492443184" lon="10.597415009616714"><ele>27.333333333333332</ele><time>2026-04-26T12:17:51.939Z</time></trkpt><trkpt lat="43.3416615697729" lon="10.597203963341412"><ele>30.0</ele><time>2026-04-26T12:17:52.939Z</time></trkpt><trkpt lat="43.34158585031264" lon="10.596992026117698"><ele>32.666666666666664</ele><time>2026-04-26T12:17:53.939Z</time></trkpt><trkpt lat="43.341508072290274" lon="10.596779057959104"><ele>35.33333333333333</ele><time>2026-04-26T12:17:54.939Z</time></trkpt><trkpt lat="43.341432819685544" lon="10.596566591723027"><ele>38.0</ele><time>2026-04-26T12:17:55.939Z</time></trkpt><trkpt lat="43.34135831712794" lon="10.596348458220394"><ele>33.666666666666664</ele><time>2026-04-26T12:17:56.939Z</time></trkpt><trkpt lat="43.34128351927476" lon="10.596125077657845"><ele>29.333333333333336</ele><time>2026-04-26T12:17:57.939Z</time></trkpt><trkpt lat="43.341208865506296" lon="10.595897742777598"><ele>25.0</ele><time>2026-04-26T12:17:58.939Z</time></trkpt><trkpt lat="43.34113313852491" lon="10.59566350864774"><ele>25.0</ele><time>2026-04-26T12:17:59.939Z</time></trkpt><trkpt lat="43.341050645931226" lon="10.595428100242659"><ele>25.0</ele><time>2026-04-26T12:18:00.939Z</time></trkpt><trkpt lat="43.340968658332756" lon="10.595186122858658"><ele>25.0</ele><time>2026-04-26T12:18:01.939Z</time></trkpt><trkpt lat="43.340877447471435" lon="10.594942321795823"><ele>27.0</ele><time>2026-04-26T12:18:02.939Z</time></trkpt><trkpt lat="43.34079395842208" lon="10.594693292008383"><ele>29.0</ele><time>2026-04-26T12:18:03.939Z</time></trkpt><trkpt lat="43.34070848592867" lon="10.594447490287626"><ele>31.0</ele><time>2026-04-26T12:18:04.939Z</time></trkpt><trkpt lat="43.34062529221854" lon="10.59419219650271"><ele>28.0</ele><time>2026-04-26T12:18:05.939Z</time></trkpt><trkpt lat="43.34055062329205" lon="10.593946070656179"><ele>25.0</ele><time>2026-04-26T12:18:06.939Z</time></trkpt><trkpt lat="43.340479224155544" lon="10.593707910536606"><ele>22.0</ele><time>2026-04-26T12:18:07.939Z</time></trkpt><trkpt lat="43.34041977848335" lon="10.593468209798704"><ele>22.0</ele><time>2026-04-26T12:18:08.939Z</time></trkpt><trkpt lat="43.34036809371325" lon="10.593229312614492"><ele>22.0</ele><time>2026-04-26T12:18:09.939Z</time></trkpt><trkpt lat="43.34031836629591" lon="10.592982274072689"><ele>22.0</ele><time>2026-04-26T12:18:10.939Z</time></trkpt><trkpt lat="43.34027763437469" lon="10.59273416955966"><ele>22.333333333333332</ele><time>2026-04-26T12:18:11.939Z</time></trkpt><trkpt lat="43.34024600899628" lon="10.592485159155109"><ele>22.666666666666668</ele><time>2026-04-26T12:18:12.939Z</time></trkpt><trkpt lat="43.340233994903464" lon="10.592237831312536"><ele>23.0</ele><time>2026-04-26T12:18:13.939Z</time></trkpt><trkpt lat="43.340225427257174" lon="10.591989117552828"><ele>23.0</ele><time>2026-04-26T12:18:14.939Z</time></trkpt><trkpt lat="43.34022992672191" lon="10.591743835428998"><ele>23.0</ele><time>2026-04-26T12:18:15.939Z</time></trkpt><trkpt lat="43.34024626443445" lon="10.59150168842858"><ele>23.0</ele><time>2026-04-26T12:18:16.939Z</time></trkpt><trkpt lat="43.340264323103746" lon="10.591262318568713"><ele>22.0</ele><time>2026-04-26T12:18:17.939Z</time></trkpt><trkpt lat="43.3402948420497" lon="10.591010078213964"><ele>21.0</ele><time>2026-04-26T12:18:18.939Z</time></trkpt><trkpt lat="43.34033032972038" lon="10.59077007792583"><ele>20.0</ele><time>2026-04-26T12:18:19.938Z</time></trkpt><trkpt lat="43.3403618706148" lon="10.590529504874599"><ele>19.666666666666668</ele><time>2026-04-26T12:18:20.936Z</time></trkpt><trkpt lat="43.34039993506055" lon="10.590291071859765"><ele>19.333333333333332</ele><time>2026-04-26T12:18:21.935Z</time></trkpt><trkpt lat="43.34044216096048" lon="10.590050777838249"><ele>19.0</ele><time>2026-04-26T12:18:22.934Z</time></trkpt><trkpt lat="43.34049064575941" lon="10.589816968685955"><ele>19.0</ele><time>2026-04-26T12:18:23.932Z</time></trkpt><trkpt lat="43.34053597931774" lon="10.589571767176837"><ele>19.0</ele><time>2026-04-26T12:18:24.931Z</time></trkpt><trkpt lat="43.34057501894795" lon="10.589330725760796"><ele>19.0</ele><time>2026-04-26T12:18:25.93Z</time></trkpt><trkpt lat="43.34061587470156" lon="10.589085244275665"><ele>20.333333333333332</ele><time>2026-04-26T12:18:26.929Z</time></trkpt><trkpt lat="43.34066059206335" lon="10.58884670748452"><ele>21.666666666666668</ele><time>2026-04-26T12:18:27.928Z</time></trkpt><trkpt lat="43.340705259609614" lon="10.588600488298244"><ele>23.0</ele><time>2026-04-26T12:18:28.927Z</time></trkpt><trkpt lat="43.340751354816305" lon="10.588358493881605"><ele>23.0</ele><time>2026-04-26T12:18:29.926Z</time></trkpt><trkpt lat="43.340797240217796" lon="10.588117740735632"><ele>23.0</ele><time>2026-04-26T12:18:30.926Z</time></trkpt><trkpt lat="43.340836347472866" lon="10.58787688237482"><ele>23.0</ele><time>2026-04-26T12:18:31.925Z</time></trkpt><trkpt lat="43.3408827056123" lon="10.587639340577967"><ele>23.0</ele><time>2026-04-26T12:18:32.924Z</time></trkpt><trkpt lat="43.340929749358246" lon="10.587401898619225"><ele>23.0</ele><time>2026-04-26T12:18:33.924Z</time></trkpt><trkpt lat="43.34098744608389" lon="10.587173366060913"><ele>23.0</ele><time>2026-04-26T12:18:34.923Z</time></trkpt><trkpt lat="43.3410536306368" lon="10.586944570766919"><ele>22.666666666666668</ele><time>2026-04-26T12:18:35.922Z</time></trkpt><trkpt lat="43.341129636043874" lon="10.586719018584741"><ele>22.333333333333332</ele><time>2026-04-26T12:18:36.922Z</time></trkpt><trkpt lat="43.34121326805664" lon="10.58650187891653"><ele>22.0</ele><time>2026-04-26T12:18:37.921Z</time></trkpt><trkpt lat="43.34130496933536" lon="10.586290824378223"><ele>22.666666666666664</ele><time>2026-04-26T12:18:38.921Z</time></trkpt><trkpt lat="43.34140811434433" lon="10.586087453219175"><ele>23.333333333333332</ele><time>2026-04-26T12:18:39.921Z</time></trkpt><trkpt lat="43.34151817396565" lon="10.585884167198802"><ele>24.0</ele><time>2026-04-26T12:18:40.92Z</time></trkpt><trkpt lat="43.34163234007245" lon="10.585689112397919"><ele>24.0</ele><time>2026-04-26T12:18:41.92Z</time></trkpt><trkpt lat="43.3417501012753" lon="10.58549313146064"><ele>24.0</ele><time>2026-04-26T12:18:42.919Z</time></trkpt><trkpt lat="43.34186677624611" lon="10.585304199757445"><ele>24.0</ele><time>2026-04-26T12:18:43.919Z</time></trkpt><trkpt lat="43.341987753151564" lon="10.58511426765143"><ele>23.666666666666668</ele><time>2026-04-26T12:18:44.919Z</time></trkpt><trkpt lat="43.34211195913483" lon="10.584921942083147"><ele>23.333333333333336</ele><time>2026-04-26T12:18:45.918Z</time></trkpt><trkpt lat="43.3422385298799" lon="10.584728071888076"><ele>23.0</ele><time>2026-04-26T12:18:46.918Z</time></trkpt><trkpt lat="43.342361752305834" lon="10.584536993099375"><ele>23.0</ele><time>2026-04-26T12:18:47.916Z</time></trkpt><trkpt lat="43.34248478480266" lon="10.584351102868007"><ele>23.0</ele><time>2026-04-26T12:18:48.916Z</time></trkpt><trkpt lat="43.3426040224596" lon="10.584164923434345"><ele>23.0</ele><time>2026-04-26T12:18:49.916Z</time></trkpt><trkpt lat="43.34271829185506" lon="10.58398175807791"><ele>23.0</ele><time>2026-04-26T12:18:50.914Z</time></trkpt><trkpt lat="43.34282619465647" lon="10.58378995934081"><ele>23.0</ele><time>2026-04-26T12:18:51.915Z</time></trkpt><trkpt lat="43.34292583681766" lon="10.58359950788205"><ele>23.0</ele><time>2026-04-26T12:18:52.915Z</time></trkpt><trkpt lat="43.3430130592601" lon="10.583412083482425"><ele>23.25</ele><time>2026-04-26T12:18:53.914Z</time></trkpt><trkpt lat="43.3430823353774" lon="10.583228300062313"><ele>23.5</ele><time>2026-04-26T12:18:54.914Z</time></trkpt><trkpt lat="43.3431353297881" lon="10.583044218861838"><ele>23.75</ele><time>2026-04-26T12:18:55.914Z</time></trkpt><trkpt lat="43.3431808996457" lon="10.58287893174965"><ele>24.0</ele><time>2026-04-26T12:18:56.914Z</time></trkpt><trkpt lat="43.34323238365708" lon="10.58275126556159"><ele>24.166666666666668</ele><time>2026-04-26T12:18:57.913Z</time></trkpt><trkpt lat="43.343287666432474" lon="10.582683908535643"><ele>24.333333333333336</ele><time>2026-04-26T12:18:58.913Z</time></trkpt><trkpt lat="43.343358498974204" lon="10.582633726604707"><ele>24.5</ele><time>2026-04-26T12:18:59.913Z</time></trkpt><trkpt lat="43.34341510208481" lon="10.58254860618217"><ele>24.666666666666668</ele><time>2026-04-26T12:19:00.913Z</time></trkpt><trkpt lat="43.343437690053314" lon="10.582421857468939"><ele>24.833333333333336</ele><time>2026-04-26T12:19:01.913Z</time></trkpt><trkpt lat="43.34340366844126" lon="10.58227000552064"><ele>25.0</ele><time>2026-04-26T12:19:02.913Z</time></trkpt><trkpt lat="43.34334427639679" lon="10.582136486835736"><ele>26.0</ele><time>2026-04-26T12:19:03.913Z</time></trkpt><trkpt lat="43.34329877284591" lon="10.581995031815143"><ele>27.0</ele><time>2026-04-26T12:19:04.913Z</time></trkpt><trkpt lat="43.34326862596483" lon="10.581840891228675"><ele>28.0</ele><time>2026-04-26T12:19:05.913Z</time></trkpt><trkpt lat="43.343240932108635" lon="10.581662281733863"><ele>29.0</ele><time>2026-04-26T12:19:06.913Z</time></trkpt><trkpt lat="43.34319981016449" lon="10.581476163678104"><ele>29.0</ele><time>2026-04-26T12:19:07.913Z</time></trkpt><trkpt lat="43.34315009039562" lon="10.581285983260283"><ele>29.0</ele><time>2026-04-26T12:19:08.913Z</time></trkpt><trkpt lat="43.343093179428884" lon="10.581095831096894"><ele>29.0</ele><time>2026-04-26T12:19:09.913Z</time></trkpt><trkpt lat="43.34303279553284" lon="10.58090771955914"><ele>29.0</ele><time>2026-04-26T12:19:10.912Z</time></trkpt><trkpt lat="43.342965934783116" lon="10.580719777612584"><ele>29.0</ele><time>2026-04-26T12:19:11.912Z</time></trkpt><trkpt lat="43.342898082348775" lon="10.580532315544236"><ele>29.0</ele><time>2026-04-26T12:19:12.912Z</time></trkpt><trkpt lat="43.3428237392989" lon="10.580339448601467"><ele>29.0</ele><time>2026-04-26T12:19:13.912Z</time></trkpt><trkpt lat="43.34275346293548" lon="10.580155857473278"><ele>28.75</ele><time>2026-04-26T12:19:14.912Z</time></trkpt><trkpt lat="43.34269301943159" lon="10.579981180153709"><ele>28.5</ele><time>2026-04-26T12:19:15.912Z</time></trkpt><trkpt lat="43.34263994010396" lon="10.579813262839817"><ele>28.25</ele><time>2026-04-26T12:19:16.912Z</time></trkpt><trkpt lat="43.34259903147665" lon="10.579652076071225"><ele>28.0</ele><time>2026-04-26T12:19:17.912Z</time></trkpt><trkpt lat="43.342571482997485" lon="10.579499127284182"><ele>27.2</ele><time>2026-04-26T12:19:18.912Z</time></trkpt><trkpt lat="43.342557484629275" lon="10.579367148320038"><ele>26.4</ele><time>2026-04-26T12:19:19.912Z</time></trkpt><trkpt lat="43.34256037981856" lon="10.579260246393426"><ele>25.599999999999998</ele><time>2026-04-26T12:19:20.912Z</time></trkpt><trkpt lat="43.34258767169085" lon="10.579172876703675"><ele>24.799999999999997</ele><time>2026-04-26T12:19:21.912Z</time></trkpt><trkpt lat="43.34262701888032" lon="10.579097892321217"><ele>24.0</ele><time>2026-04-26T12:19:22.912Z</time></trkpt><trkpt lat="43.34261663153893" lon="10.578903272080131"><ele>24.0</ele><time>2026-04-26T12:19:24.912Z</time></trkpt><trkpt lat="43.34255101668443" lon="10.578809736089402"><ele>24.0</ele><time>2026-04-26T12:19:25.912Z</time></trkpt><trkpt lat="43.3424631887009" lon="10.578766388410218"><ele>24.0</ele><time>2026-04-26T12:19:26.912Z</time></trkpt><trkpt lat="43.34235484789555" lon="10.578797283668832"><ele>24.0</ele><time>2026-04-26T12:19:27.912Z</time></trkpt><trkpt lat="43.342248200947964" lon="10.57882355221516"><ele>24.0</ele><time>2026-04-26T12:19:28.912Z</time></trkpt><trkpt lat="43.34213396670835" lon="10.57878794033216"><ele>24.25</ele><time>2026-04-26T12:19:29.912Z</time></trkpt><trkpt lat="43.34204973221767" lon="10.578686908643785"><ele>24.5</ele><time>2026-04-26T12:19:30.912Z</time></trkpt><trkpt lat="43.3420066228604" lon="10.57851515104267"><ele>24.75</ele><time>2026-04-26T12:19:31.912Z</time></trkpt><trkpt lat="43.341944424815175" lon="10.578375155798684"><ele>25.0</ele><time>2026-04-26T12:19:32.912Z</time></trkpt><trkpt lat="43.34188884282082" lon="10.578217472062374"><ele>23.75</ele><time>2026-04-26T12:19:33.912Z</time></trkpt><trkpt lat="43.34182684932558" lon="10.578057986165993"><ele>22.5</ele><time>2026-04-26T12:19:34.912Z</time></trkpt><trkpt lat="43.34176041536354" lon="10.577892502437301"><ele>21.25</ele><time>2026-04-26T12:19:35.912Z</time></trkpt><trkpt lat="43.34168996432773" lon="10.577726441253477"><ele>20.0</ele><time>2026-04-26T12:19:36.912Z</time></trkpt><trkpt lat="43.341618470811504" lon="10.577555111883706"><ele>19.5</ele><time>2026-04-26T12:19:37.912Z</time></trkpt><trkpt lat="43.34154655879739" lon="10.577382434484521"><ele>19.0</ele><time>2026-04-26T12:19:38.912Z</time></trkpt><trkpt lat="43.3414709876502" lon="10.57720515855358"><ele>18.5</ele><time>2026-04-26T12:19:39.912Z</time></trkpt><trkpt lat="43.3413929636363" lon="10.577023944340658"><ele>18.0</ele><time>2026-04-26T12:19:40.912Z</time></trkpt><trkpt lat="43.341312493284015" lon="10.576837358175316"><ele>17.666666666666668</ele><time>2026-04-26T12:19:41.912Z</time></trkpt><trkpt lat="43.341234059976685" lon="10.576650384647637"><ele>17.333333333333336</ele><time>2026-04-26T12:19:42.912Z</time></trkpt><trkpt lat="43.34115272963549" lon="10.57645820334894"><ele>17.0</ele><time>2026-04-26T12:19:43.912Z</time></trkpt><trkpt lat="43.34107288048178" lon="10.57626608191845"><ele>16.666666666666668</ele><time>2026-04-26T12:19:44.912Z</time></trkpt><trkpt lat="43.34099195823565" lon="10.576076362532994"><ele>16.333333333333332</ele><time>2026-04-26T12:19:45.912Z</time></trkpt><trkpt lat="43.340908065844125" lon="10.575884205891114"><ele>16.0</ele><time>2026-04-26T12:19:46.912Z</time></trkpt><trkpt lat="43.34082470750059" lon="10.575686327929843"><ele>16.0</ele><time>2026-04-26T12:19:47.912Z</time></trkpt><trkpt lat="43.340743650659746" lon="10.57549089644311"><ele>16.0</ele><time>2026-04-26T12:19:48.912Z</time></trkpt><trkpt lat="43.34066141937856" lon="10.575294092993444"><ele>16.0</ele><time>2026-04-26T12:19:49.912Z</time></trkpt><trkpt lat="43.3405751076611" lon="10.575096836793364"><ele>15.333333333333332</ele><time>2026-04-26T12:19:50.912Z</time></trkpt><trkpt lat="43.340491980046494" lon="10.574902023543146"><ele>14.666666666666668</ele><time>2026-04-26T12:19:51.912Z</time></trkpt><trkpt lat="43.340409259028796" lon="10.574709871955886"><ele>14.0</ele><time>2026-04-26T12:19:52.912Z</time></trkpt><trkpt lat="43.340328984580786" lon="10.57451856819336"><ele>13.0</ele><time>2026-04-26T12:19:53.912Z</time></trkpt><trkpt lat="43.340244621111154" lon="10.574325020411496"><ele>12.0</ele><time>2026-04-26T12:19:54.912Z</time></trkpt><trkpt lat="43.34016500337135" lon="10.574137207125311"><ele>11.0</ele><time>2026-04-26T12:19:55.912Z</time></trkpt><trkpt lat="43.340093400612076" lon="10.573960992844022"><ele>11.0</ele><time>2026-04-26T12:19:56.912Z</time></trkpt><trkpt lat="43.3400178659444" lon="10.573785810815357"><ele>11.0</ele><time>2026-04-26T12:19:57.912Z</time></trkpt><trkpt lat="43.339940806013175" lon="10.573608817447232"><ele>11.0</ele><time>2026-04-26T12:19:58.912Z</time></trkpt><trkpt lat="43.33986723003757" lon="10.573431625870482"><ele>11.0</ele><time>2026-04-26T12:19:59.912Z</time></trkpt><trkpt lat="43.33979856379096" lon="10.573259579008917"><ele>11.0</ele><time>2026-04-26T12:20:00.912Z</time></trkpt><trkpt lat="43.33972458892974" lon="10.573088234240357"><ele>11.0</ele><time>2026-04-26T12:20:01.912Z</time></trkpt><trkpt lat="43.33964965082988" lon="10.572913693380277"><ele>11.0</ele><time>2026-04-26T12:20:02.912Z</time></trkpt><trkpt lat="43.33957504804763" lon="10.572736692984128"><ele>11.0</ele><time>2026-04-26T12:20:03.912Z</time></trkpt><trkpt lat="43.339498735774214" lon="10.572561566430712"><ele>11.5</ele><time>2026-04-26T12:20:04.912Z</time></trkpt><trkpt lat="43.33942534206229" lon="10.572389182055568"><ele>12.0</ele><time>2026-04-26T12:20:05.912Z</time></trkpt><trkpt lat="43.33935812067885" lon="10.572218465614986"><ele>12.5</ele><time>2026-04-26T12:20:06.912Z</time></trkpt><trkpt lat="43.33929485643815" lon="10.572065328095729"><ele>13.0</ele><time>2026-04-26T12:20:07.912Z</time></trkpt><trkpt lat="43.33923077653713" lon="10.57192654307524"><ele>13.4</ele><time>2026-04-26T12:20:08.912Z</time></trkpt><trkpt lat="43.33917431604532" lon="10.571800818448498"><ele>13.8</ele><time>2026-04-26T12:20:09.912Z</time></trkpt><trkpt lat="43.33913465568724" lon="10.571697652563113"><ele>14.2</ele><time>2026-04-26T12:20:10.912Z</time></trkpt><trkpt lat="43.33909045233548" lon="10.571598660520271"><ele>14.6</ele><time>2026-04-26T12:20:12.912Z</time></trkpt><trkpt lat="43.339059138176715" lon="10.571796399321856"><ele>15.0</ele><time>2026-04-26T12:20:17.912Z</time></trkpt><trkpt lat="43.339064926031064" lon="10.571886977099828"><ele>15.0</ele><time>2026-04-26T12:20:26.912Z</time></trkpt><trkpt lat="43.33912053192317" lon="10.571950476491237"><ele>15.0</ele><time>2026-04-26T12:20:28.912Z</time></trkpt><trkpt lat="43.339191367085604" lon="10.572115855164686"><ele>15.0</ele><time>2026-04-26T12:20:30.912Z</time></trkpt><trkpt lat="43.339236700120885" lon="10.572221693971729"><ele>15.0</ele><time>2026-04-26T12:20:31.912Z</time></trkpt><trkpt lat="43.33927909247802" lon="10.572320667212006"><ele>15.0</ele><time>2026-04-26T12:20:32.912Z</time></trkpt><trkpt lat="43.339321227395686" lon="10.572419039475978"><ele>14.6</ele><time>2026-04-26T12:20:33.912Z</time></trkpt><trkpt lat="43.3393555731311" lon="10.572499240329776"><ele>14.2</ele><time>2026-04-26T12:20:34.912Z</time></trkpt><trkpt lat="43.339411346303336" lon="10.57262966382582"><ele>13.8</ele><time>2026-04-26T12:20:36.912Z</time></trkpt><trkpt lat="43.33944883862828" lon="10.572717234264893"><ele>13.4</ele><time>2026-04-26T12:20:38.912Z</time></trkpt><trkpt lat="43.339367347284536" lon="10.572532475813693"><ele>13.0</ele><time>2026-04-26T12:20:56.909Z</time></trkpt><trkpt lat="43.33933351492315" lon="10.572447661142215"><ele>13.0</ele><time>2026-04-26T12:20:57.908Z</time></trkpt><trkpt lat="43.339292495716506" lon="10.572351965382797"><ele>13.0</ele><time>2026-04-26T12:20:58.908Z</time></trkpt><trkpt lat="43.33924410124421" lon="10.572244665530375"><ele>13.0</ele><time>2026-04-26T12:20:59.909Z</time></trkpt><trkpt lat="43.33923762593692" lon="10.572085764364013"><ele>13.0</ele><time>2026-04-26T12:21:00.909Z</time></trkpt><trkpt lat="43.33918421832706" lon="10.571936562957458"><ele>13.0</ele><time>2026-04-26T12:21:01.909Z</time></trkpt><trkpt lat="43.33911300784272" lon="10.571846223558897"><ele>13.333333333333332</ele><time>2026-04-26T12:21:02.908Z</time></trkpt><trkpt lat="43.33906568947015" lon="10.57175586961018"><ele>13.666666666666666</ele><time>2026-04-26T12:21:03.909Z</time></trkpt><trkpt lat="43.33904281030145" lon="10.571669830447316"><ele>14.0</ele><time>2026-04-26T12:21:05.909Z</time></trkpt><trkpt lat="43.33901736232353" lon="10.571535548701554"><ele>14.333333333333332</ele><time>2026-04-26T12:21:08.909Z</time></trkpt><trkpt lat="43.33898180397148" lon="10.571432532482385"><ele>14.666666666666666</ele><time>2026-04-26T12:21:09.909Z</time></trkpt><trkpt lat="43.33893570474432" lon="10.571320357537576"><ele>15.0</ele><time>2026-04-26T12:21:10.909Z</time></trkpt><trkpt lat="43.33890058498691" lon="10.571230075068193"><ele>17.0</ele><time>2026-04-26T12:21:11.909Z</time></trkpt><trkpt lat="43.33884767548792" lon="10.571096783088382"><ele>19.0</ele><time>2026-04-26T12:21:13.909Z</time></trkpt><trkpt lat="43.33878423270378" lon="10.570944593774938"><ele>21.0</ele><time>2026-04-26T12:21:15.909Z</time></trkpt><trkpt lat="43.33874692093662" lon="10.570854148960384"><ele>23.0</ele><time>2026-04-26T12:21:16.909Z</time></trkpt><trkpt lat="43.33870642216916" lon="10.570758895028389"><ele>25.0</ele><time>2026-04-26T12:21:17.909Z</time></trkpt><trkpt lat="43.338657055875366" lon="10.570663480652213"><ele>25.000000000000004</ele><time>2026-04-26T12:21:18.909Z</time></trkpt><trkpt lat="43.33861493613322" lon="10.570581272829802"><ele>25.0</ele><time>2026-04-26T12:21:19.909Z</time></trkpt><trkpt lat="43.33857346207035" lon="10.570512056750443"><ele>25.0</ele><time>2026-04-26T12:21:20.909Z</time></trkpt><trkpt lat="43.33845732197665" lon="10.570439064753188"><ele>25.0</ele><time>2026-04-26T12:21:22.909Z</time></trkpt><trkpt lat="43.33839044510262" lon="10.570432985642293"><ele>25.000000000000004</ele><time>2026-04-26T12:21:23.909Z</time></trkpt><trkpt lat="43.33832769530077" lon="10.5704530468134"><ele>25.0</ele><time>2026-04-26T12:21:24.909Z</time></trkpt><trkpt lat="43.3382137994526" lon="10.570422255991886"><ele>25.000000000000004</ele><time>2026-04-26T12:21:26.909Z</time></trkpt><trkpt lat="43.3381384106052" lon="10.570395660544845"><ele>25.0</ele><time>2026-04-26T12:21:27.909Z</time></trkpt><trkpt lat="43.33804744398602" lon="10.570367731457052"><ele>25.0</ele><time>2026-04-26T12:21:28.909Z</time></trkpt><trkpt lat="43.337960604479946" lon="10.57033789434865"><ele>25.0</ele><time>2026-04-26T12:21:29.909Z</time></trkpt><trkpt lat="43.337878491452905" lon="10.570322109550602"><ele>25.000000000000004</ele><time>2026-04-26T12:21:30.909Z</time></trkpt><trkpt lat="43.33781160753187" lon="10.570309618706005"><ele>25.0</ele><time>2026-04-26T12:21:31.909Z</time></trkpt><trkpt lat="43.33773959439112" lon="10.570299046053355"><ele>25.0</ele><time>2026-04-26T12:21:32.909Z</time></trkpt><trkpt lat="43.33765970217913" lon="10.570305491706383"><ele>25.0</ele><time>2026-04-26T12:21:33.909Z</time></trkpt><trkpt lat="43.33756910275822" lon="10.570323535319329"><ele>25.0</ele><time>2026-04-26T12:21:34.909Z</time></trkpt><trkpt lat="43.337467200058676" lon="10.57034600821414"><ele>25.0</ele><time>2026-04-26T12:21:35.909Z</time></trkpt><trkpt lat="43.337366225968324" lon="10.57037237206123"><ele>25.0</ele><time>2026-04-26T12:21:36.909Z</time></trkpt><trkpt lat="43.33727839952597" lon="10.570406307479898"><ele>23.75</ele><time>2026-04-26T12:21:37.909Z</time></trkpt><trkpt lat="43.3371830643595" lon="10.57045520089477"><ele>22.5</ele><time>2026-04-26T12:21:38.909Z</time></trkpt><trkpt lat="43.337071543584585" lon="10.570517987827522"><ele>21.25</ele><time>2026-04-26T12:21:39.909Z</time></trkpt><trkpt lat="43.336956774916914" lon="10.570599698372224"><ele>20.0</ele><time>2026-04-26T12:21:40.909Z</time></trkpt><trkpt lat="43.336841708806176" lon="10.570658301503395"><ele>20.0</ele><time>2026-04-26T12:21:41.909Z</time></trkpt><trkpt lat="43.336730732528316" lon="10.570721720685048"><ele>20.0</ele><time>2026-04-26T12:21:42.909Z</time></trkpt><trkpt lat="43.33663086987221" lon="10.570767845909936"><ele>20.0</ele><time>2026-04-26T12:21:43.909Z</time></trkpt><trkpt lat="43.33654500207292" lon="10.57078989021993"><ele>20.0</ele><time>2026-04-26T12:21:44.909Z</time></trkpt><trkpt lat="43.33647403724234" lon="10.570823622886367"><ele>20.0</ele><time>2026-04-26T12:21:45.909Z</time></trkpt><trkpt lat="43.33641754765352" lon="10.570866921168117"><ele>20.2</ele><time>2026-04-26T12:21:46.909Z</time></trkpt><trkpt lat="43.33634272477944" lon="10.570978681326269"><ele>20.4</ele><time>2026-04-26T12:21:48.909Z</time></trkpt><trkpt lat="43.33633033454465" lon="10.57110375995796"><ele>20.6</ele><time>2026-04-26T12:21:50.909Z</time></trkpt><trkpt lat="43.33631114046007" lon="10.571267418116262"><ele>20.8</ele><time>2026-04-26T12:21:52.909Z</time></trkpt><trkpt lat="43.33623326300361" lon="10.571370331248042"><ele>21.0</ele><time>2026-04-26T12:21:54.909Z</time></trkpt><trkpt lat="43.33611829396246" lon="10.571392996278892"><ele>22.8</ele><time>2026-04-26T12:21:56.909Z</time></trkpt><trkpt lat="43.33602803489702" lon="10.571403767608619"><ele>24.6</ele><time>2026-04-26T12:21:57.909Z</time></trkpt><trkpt lat="43.33594452164934" lon="10.571415628837368"><ele>26.4</ele><time>2026-04-26T12:21:58.909Z</time></trkpt><trkpt lat="43.335876063355336" lon="10.571427973109394"><ele>28.2</ele><time>2026-04-26T12:21:59.909Z</time></trkpt><trkpt lat="43.335774141903016" lon="10.571447345969014"><ele>30.0</ele><time>2026-04-26T12:22:01.909Z</time></trkpt><trkpt lat="43.3356782740408" lon="10.571501139476057"><ele>30.0</ele><time>2026-04-26T12:22:03.909Z</time></trkpt><trkpt lat="43.335586655135614" lon="10.571591537970267"><ele>30.0</ele><time>2026-04-26T12:22:05.909Z</time></trkpt><trkpt lat="43.335495136648376" lon="10.571667985978316"><ele>30.0</ele><time>2026-04-26T12:22:07.909Z</time></trkpt><trkpt lat="43.33541405468716" lon="10.571740700766675"><ele>30.0</ele><time>2026-04-26T12:22:09.909Z</time></trkpt><trkpt lat="43.33534088049881" lon="10.571758601413935"><ele>30.0</ele><time>2026-04-26T12:22:12.909Z</time></trkpt><trkpt lat="43.33530535923355" lon="10.571857535143295"><ele>29.5</ele><time>2026-04-26T12:22:30.909Z</time></trkpt><trkpt lat="43.33527159286003" lon="10.571981965328984"><ele>29.0</ele><time>2026-04-26T12:22:32.909Z</time></trkpt><trkpt lat="43.33525469647818" lon="10.57215415506075"><ele>28.5</ele><time>2026-04-26T12:22:34.909Z</time></trkpt><trkpt lat="43.33525128199951" lon="10.572242163432191"><ele>28.0</ele><time>2026-04-26T12:22:35.909Z</time></trkpt><trkpt lat="43.33525124831029" lon="10.572329522531883"><ele>27.5</ele><time>2026-04-26T12:22:36.909Z</time></trkpt><trkpt lat="43.335257749146265" lon="10.572417786750595"><ele>27.0</ele><time>2026-04-26T12:22:37.909Z</time></trkpt><trkpt lat="43.335268109014415" lon="10.572504047460535"><ele>27.0</ele><time>2026-04-26T12:22:38.909Z</time></trkpt><trkpt lat="43.33530366344048" lon="10.57267011238035"><ele>27.0</ele><time>2026-04-26T12:22:40.909Z</time></trkpt><trkpt lat="43.33543265923082" lon="10.57271280350332"><ele>27.0</ele><time>2026-04-26T12:22:41.909Z</time></trkpt><trkpt lat="43.33550720984802" lon="10.572795166915137"><ele>27.0</ele><time>2026-04-26T12:22:42.909Z</time></trkpt><trkpt lat="43.335582308115086" lon="10.572876484788052"><ele>28.833333333333332</ele><time>2026-04-26T12:22:43.909Z</time></trkpt><trkpt lat="43.3356393641015" lon="10.572946523437555"><ele>30.666666666666664</ele><time>2026-04-26T12:22:44.909Z</time></trkpt><trkpt lat="43.33568400899194" lon="10.573023146597158"><ele>32.5</ele><time>2026-04-26T12:22:45.909Z</time></trkpt><trkpt lat="43.335728779029914" lon="10.573116460587785"><ele>34.33333333333333</ele><time>2026-04-26T12:22:46.909Z</time></trkpt><trkpt lat="43.33576957453702" lon="10.573216639120124"><ele>36.166666666666664</ele><time>2026-04-26T12:22:47.909Z</time></trkpt><trkpt lat="43.33579437716329" lon="10.573312241463768"><ele>38.0</ele><time>2026-04-26T12:22:48.909Z</time></trkpt><trkpt lat="43.33580358611416" lon="10.573410376297938"><ele>38.0</ele><time>2026-04-26T12:22:49.909Z</time></trkpt><trkpt lat="43.335795812446186" lon="10.573503347476725"><ele>38.0</ele><time>2026-04-26T12:22:50.909Z</time></trkpt><trkpt lat="43.33578471724079" lon="10.573615482419374"><ele>38.0</ele><time>2026-04-26T12:22:51.909Z</time></trkpt><trkpt lat="43.33576430236483" lon="10.573739947207242"><ele>38.0</ele><time>2026-04-26T12:22:52.909Z</time></trkpt><trkpt lat="43.33574850584021" lon="10.573882405643129"><ele>38.0</ele><time>2026-04-26T12:22:53.909Z</time></trkpt><trkpt lat="43.335727538188415" lon="10.574034018564085"><ele>38.8</ele><time>2026-04-26T12:22:54.909Z</time></trkpt><trkpt lat="43.3357013742775" lon="10.574189079225674"><ele>39.599999999999994</ele><time>2026-04-26T12:22:55.909Z</time></trkpt><trkpt lat="43.33566938416723" lon="10.574338007027952"><ele>40.400000000000006</ele><time>2026-04-26T12:22:56.909Z</time></trkpt><trkpt lat="43.335639122832895" lon="10.57447045514679"><ele>41.2</ele><time>2026-04-26T12:22:57.909Z</time></trkpt><trkpt lat="43.33561426579012" lon="10.574595118617857"><ele>42.0</ele><time>2026-04-26T12:22:58.909Z</time></trkpt><trkpt lat="43.335588048685004" lon="10.57471602681931"><ele>43.6</ele><time>2026-04-26T12:22:59.906Z</time></trkpt><trkpt lat="43.335571870354954" lon="10.57485651623429"><ele>45.2</ele><time>2026-04-26T12:23:00.907Z</time></trkpt><trkpt lat="43.33558537058825" lon="10.57501483708636"><ele>46.8</ele><time>2026-04-26T12:23:01.907Z</time></trkpt><trkpt lat="43.33560506717541" lon="10.575174920836588"><ele>48.4</ele><time>2026-04-26T12:23:02.907Z</time></trkpt><trkpt lat="43.33561771748686" lon="10.575320939639793"><ele>50.0</ele><time>2026-04-26T12:23:03.906Z</time></trkpt><trkpt lat="43.33563222086032" lon="10.575466950882724"><ele>50.2</ele><time>2026-04-26T12:23:04.906Z</time></trkpt><trkpt lat="43.33564317480686" lon="10.575611680184721"><ele>50.4</ele><time>2026-04-26T12:23:05.906Z</time></trkpt><trkpt lat="43.33566324459892" lon="10.575735267350625"><ele>50.599999999999994</ele><time>2026-04-26T12:23:06.906Z</time></trkpt><trkpt lat="43.335680937927414" lon="10.575847425718319"><ele>50.8</ele><time>2026-04-26T12:23:07.906Z</time></trkpt><trkpt lat="43.33569130806863" lon="10.575964470397448"><ele>51.0</ele><time>2026-04-26T12:23:08.906Z</time></trkpt><trkpt lat="43.335679250351696" lon="10.576081702239012"><ele>50.333333333333336</ele><time>2026-04-26T12:23:09.906Z</time></trkpt><trkpt lat="43.33568260272769" lon="10.576193286656425"><ele>49.666666666666664</ele><time>2026-04-26T12:23:10.906Z</time></trkpt><trkpt lat="43.33566977415727" lon="10.576313961614769"><ele>49.0</ele><time>2026-04-26T12:23:11.907Z</time></trkpt><trkpt lat="43.33566399764316" lon="10.576440031349211"><ele>48.33333333333333</ele><time>2026-04-26T12:23:12.906Z</time></trkpt><trkpt lat="43.33566658632408" lon="10.5765527835498"><ele>47.666666666666664</ele><time>2026-04-26T12:23:13.906Z</time></trkpt><trkpt lat="43.335680435532005" lon="10.576655448407973"><ele>47.0</ele><time>2026-04-26T12:23:14.906Z</time></trkpt><trkpt lat="43.33570752743912" lon="10.576759781750601"><ele>47.0</ele><time>2026-04-26T12:23:15.906Z</time></trkpt><trkpt lat="43.33572897798995" lon="10.576887531282178"><ele>47.0</ele><time>2026-04-26T12:23:16.906Z</time></trkpt><trkpt lat="43.33577764308492" lon="10.576995684295204"><ele>47.0</ele><time>2026-04-26T12:23:17.906Z</time></trkpt><trkpt lat="43.33578357302509" lon="10.577098846370998"><ele>47.0</ele><time>2026-04-26T12:23:18.906Z</time></trkpt><trkpt lat="43.335776602513214" lon="10.577191725055462"><ele>47.0</ele><time>2026-04-26T12:23:19.906Z</time></trkpt><trkpt lat="43.335765783300324" lon="10.577288053306688"><ele>47.0</ele><time>2026-04-26T12:23:20.906Z</time></trkpt><trkpt lat="43.335698100994755" lon="10.577381718249633"><ele>47.0</ele><time>2026-04-26T12:23:21.906Z</time></trkpt><trkpt lat="43.335657906221684" lon="10.577524093865105"><ele>47.0</ele><time>2026-04-26T12:23:22.906Z</time></trkpt><trkpt lat="43.33562677065548" lon="10.577652413895732"><ele>47.0</ele><time>2026-04-26T12:23:23.906Z</time></trkpt><trkpt lat="43.33561099731724" lon="10.577774868769016"><ele>47.0</ele><time>2026-04-26T12:23:24.906Z</time></trkpt><trkpt lat="43.3355569756691" lon="10.577875777861813"><ele>47.0</ele><time>2026-04-26T12:23:25.906Z</time></trkpt><trkpt lat="43.335529484353344" lon="10.577958944772861"><ele>52.2</ele><time>2026-04-26T12:23:26.906Z</time></trkpt><trkpt lat="43.33548542203526" lon="10.57812865710443"><ele>57.400000000000006</ele><time>2026-04-26T12:23:28.906Z</time></trkpt><trkpt lat="43.33546396583095" lon="10.578213398700921"><ele>62.599999999999994</ele><time>2026-04-26T12:23:29.906Z</time></trkpt><trkpt lat="43.33544824010666" lon="10.578311656180972"><ele>67.8</ele><time>2026-04-26T12:23:30.906Z</time></trkpt><trkpt lat="43.335424581009875" lon="10.578410342953212"><ele>73.0</ele><time>2026-04-26T12:23:31.906Z</time></trkpt><trkpt lat="43.33538044566881" lon="10.5785625992624"><ele>73.0</ele><time>2026-04-26T12:23:33.906Z</time></trkpt><trkpt lat="43.33535764601477" lon="10.57866563398347"><ele>73.0</ele><time>2026-04-26T12:23:34.906Z</time></trkpt><trkpt lat="43.33534042512067" lon="10.57876108079905"><ele>73.0</ele><time>2026-04-26T12:23:35.906Z</time></trkpt><trkpt lat="43.33532657160652" lon="10.578870677434008"><ele>73.0</ele><time>2026-04-26T12:23:36.906Z</time></trkpt><trkpt lat="43.335320145205976" lon="10.578964303874452"><ele>73.0</ele><time>2026-04-26T12:23:37.906Z</time></trkpt><trkpt lat="43.335322352663056" lon="10.579072159526318"><ele>73.0</ele><time>2026-04-26T12:23:38.906Z</time></trkpt><trkpt lat="43.335334247839356" lon="10.579186548405016"><ele>71.83333333333333</ele><time>2026-04-26T12:23:39.906Z</time></trkpt><trkpt lat="43.33533561135434" lon="10.579282553968344"><ele>70.66666666666666</ele><time>2026-04-26T12:23:40.906Z</time></trkpt><trkpt lat="43.33532405273084" lon="10.57941297699693"><ele>69.5</ele><time>2026-04-26T12:23:41.906Z</time></trkpt><trkpt lat="43.335282897020846" lon="10.57953205675086"><ele>68.33333333333333</ele><time>2026-04-26T12:23:42.906Z</time></trkpt><trkpt lat="43.335243982749446" lon="10.579626114179122"><ele>67.16666666666667</ele><time>2026-04-26T12:23:43.906Z</time></trkpt><trkpt lat="43.33521715272905" lon="10.579709923370528"><ele>66.0</ele><time>2026-04-26T12:23:44.906Z</time></trkpt><trkpt lat="43.33519633112254" lon="10.579798938922883"><ele>64.6</ele><time>2026-04-26T12:23:45.906Z</time></trkpt><trkpt lat="43.3351786337156" lon="10.579906418132143"><ele>63.199999999999996</ele><time>2026-04-26T12:23:46.906Z</time></trkpt><trkpt lat="43.33514638375538" lon="10.580025941167213"><ele>61.800000000000004</ele><time>2026-04-26T12:23:47.906Z</time></trkpt><trkpt lat="43.33510233111947" lon="10.580160090792793"><ele>60.400000000000006</ele><time>2026-04-26T12:23:48.906Z</time></trkpt><trkpt lat="43.33505054154192" lon="10.580288016586977"><ele>59.0</ele><time>2026-04-26T12:23:49.906Z</time></trkpt><trkpt lat="43.334999273220895" lon="10.580434089178933"><ele>57.6</ele><time>2026-04-26T12:23:50.906Z</time></trkpt><trkpt lat="43.334944670633696" lon="10.580569152796299"><ele>56.2</ele><time>2026-04-26T12:23:51.906Z</time></trkpt><trkpt lat="43.334895866743246" lon="10.580694733233129"><ele>54.800000000000004</ele><time>2026-04-26T12:23:52.906Z</time></trkpt><trkpt lat="43.33484925340764" lon="10.580808884076346"><ele>53.400000000000006</ele><time>2026-04-26T12:23:53.906Z</time></trkpt><trkpt lat="43.334801114854216" lon="10.580913839941289"><ele>52.0</ele><time>2026-04-26T12:23:54.906Z</time></trkpt><trkpt lat="43.33474053648832" lon="10.58101013251239"><ele>52.666666666666664</ele><time>2026-04-26T12:23:55.906Z</time></trkpt><trkpt lat="43.33470101992233" lon="10.58111076116248"><ele>53.33333333333333</ele><time>2026-04-26T12:23:56.906Z</time></trkpt><trkpt lat="43.334663694838724" lon="10.581207793233403"><ele>54.0</ele><time>2026-04-26T12:23:57.906Z</time></trkpt><trkpt lat="43.33463059878882" lon="10.581300727656153"><ele>54.66666666666667</ele><time>2026-04-26T12:23:58.906Z</time></trkpt><trkpt lat="43.33459540134955" lon="10.581397249345061"><ele>55.333333333333336</ele><time>2026-04-26T12:23:59.906Z</time></trkpt><trkpt lat="43.33455547957251" lon="10.581495833210921"><ele>56.0</ele><time>2026-04-26T12:24:00.906Z</time></trkpt><trkpt lat="43.33451487196116" lon="10.581606216947684"><ele>56.00000000000001</ele><time>2026-04-26T12:24:01.906Z</time></trkpt><trkpt lat="43.33447033186525" lon="10.581705259866906"><ele>56.0</ele><time>2026-04-26T12:24:02.906Z</time></trkpt><trkpt lat="43.334436423002344" lon="10.58179761126091"><ele>56.0</ele><time>2026-04-26T12:24:03.906Z</time></trkpt><trkpt lat="43.33439634873798" lon="10.581884944000109"><ele>56.0</ele><time>2026-04-26T12:24:04.906Z</time></trkpt><trkpt lat="43.33435752723755" lon="10.58197317854756"><ele>56.00000000000001</ele><time>2026-04-26T12:24:05.906Z</time></trkpt><trkpt lat="43.33431522071343" lon="10.58206206295295"><ele>56.0</ele><time>2026-04-26T12:24:06.906Z</time></trkpt><trkpt lat="43.33427484262227" lon="10.582138553908532"><ele>54.833333333333336</ele><time>2026-04-26T12:24:07.906Z</time></trkpt><trkpt lat="43.33420879439679" lon="10.582223715158008"><ele>53.66666666666667</ele><time>2026-04-26T12:24:09.906Z</time></trkpt><trkpt lat="43.33415218672483" lon="10.582320343566742"><ele>52.5</ele><time>2026-04-26T12:24:11.906Z</time></trkpt><trkpt lat="43.33409695844645" lon="10.582441921778752"><ele>51.33333333333333</ele><time>2026-04-26T12:24:13.906Z</time></trkpt><trkpt lat="43.33406499076412" lon="10.582521733669287"><ele>50.166666666666664</ele><time>2026-04-26T12:24:14.906Z</time></trkpt><trkpt lat="43.334024712470786" lon="10.582635545380304"><ele>49.0</ele><time>2026-04-26T12:24:15.906Z</time></trkpt><trkpt lat="43.333970970462126" lon="10.582770422136766"><ele>49.99999999999999</ele><time>2026-04-26T12:24:16.906Z</time></trkpt><trkpt lat="43.33392607648987" lon="10.582870270463147"><ele>51.0</ele><time>2026-04-26T12:24:17.906Z</time></trkpt><trkpt lat="43.333899281062244" lon="10.582960630028932"><ele>52.0</ele><time>2026-04-26T12:24:18.906Z</time></trkpt><trkpt lat="43.333866926175766" lon="10.583062514482267"><ele>53.0</ele><time>2026-04-26T12:24:19.906Z</time></trkpt><trkpt lat="43.33383564945845" lon="10.583177171924987"><ele>53.99999999999999</ele><time>2026-04-26T12:24:20.906Z</time></trkpt><trkpt lat="43.33379908226131" lon="10.583297674614242"><ele>55.0</ele><time>2026-04-26T12:24:21.906Z</time></trkpt><trkpt lat="43.33376682319393" lon="10.583408049128714"><ele>54.99999999999999</ele><time>2026-04-26T12:24:22.906Z</time></trkpt><trkpt lat="43.33373234700032" lon="10.583503061531854"><ele>55.0</ele><time>2026-04-26T12:24:23.906Z</time></trkpt><trkpt lat="43.333699629343705" lon="10.583591316931898"><ele>55.0</ele><time>2026-04-26T12:24:24.906Z</time></trkpt><trkpt lat="43.333678910555776" lon="10.583678596281915"><ele>55.0</ele><time>2026-04-26T12:24:25.906Z</time></trkpt><trkpt lat="43.33363380682449" lon="10.583810173562886"><ele>54.99999999999999</ele><time>2026-04-26T12:24:27.906Z</time></trkpt><trkpt lat="43.33356111011247" lon="10.583924241129266"><ele>55.0</ele><time>2026-04-26T12:24:29.906Z</time></trkpt><trkpt lat="43.3334965685404" lon="10.584041497597788"><ele>52.49999999999999</ele><time>2026-04-26T12:24:31.906Z</time></trkpt><trkpt lat="43.33345863167065" lon="10.584159028320968"><ele>50.0</ele><time>2026-04-26T12:24:33.906Z</time></trkpt><trkpt lat="43.33342597911936" lon="10.58429620415798"><ele>47.5</ele><time>2026-04-26T12:24:35.906Z</time></trkpt><trkpt lat="43.333415132489776" lon="10.584389979542854"><ele>45.0</ele><time>2026-04-26T12:24:36.906Z</time></trkpt><trkpt lat="43.33339691289141" lon="10.584495977337236"><ele>42.5</ele><time>2026-04-26T12:24:37.906Z</time></trkpt><trkpt lat="43.3333743497494" lon="10.584617856204751"><ele>40.0</ele><time>2026-04-26T12:24:38.906Z</time></trkpt><trkpt lat="43.33334307249237" lon="10.58474142399025"><ele>38.0</ele><time>2026-04-26T12:24:39.906Z</time></trkpt><trkpt lat="43.333307718035456" lon="10.584861064959606"><ele>36.0</ele><time>2026-04-26T12:24:40.906Z</time></trkpt><trkpt lat="43.33327238515625" lon="10.584983214913755"><ele>34.0</ele><time>2026-04-26T12:24:41.906Z</time></trkpt><trkpt lat="43.3332452936478" lon="10.585107847615921"><ele>32.0</ele><time>2026-04-26T12:24:42.906Z</time></trkpt><trkpt lat="43.333239663115485" lon="10.585234313081047"><ele>30.0</ele><time>2026-04-26T12:24:43.906Z</time></trkpt><trkpt lat="43.33323771275578" lon="10.585353194347157"><ele>29.6</ele><time>2026-04-26T12:24:44.906Z</time></trkpt><trkpt lat="43.333255650534966" lon="10.585486676976503"><ele>29.2</ele><time>2026-04-26T12:24:45.906Z</time></trkpt><trkpt lat="43.33327272575857" lon="10.585637028779429"><ele>28.799999999999997</ele><time>2026-04-26T12:24:46.906Z</time></trkpt><trkpt lat="43.33327941014426" lon="10.585787186011821"><ele>28.4</ele><time>2026-04-26T12:24:47.906Z</time></trkpt><trkpt lat="43.33327389001628" lon="10.585923401136895"><ele>28.0</ele><time>2026-04-26T12:24:48.906Z</time></trkpt><trkpt lat="43.3332526504019" lon="10.586068377126756"><ele>27.599999999999998</ele><time>2026-04-26T12:24:49.906Z</time></trkpt><trkpt lat="43.33322323319149" lon="10.586211308500582"><ele>27.199999999999996</ele><time>2026-04-26T12:24:50.906Z</time></trkpt><trkpt lat="43.33320055328397" lon="10.586344480557113"><ele>26.8</ele><time>2026-04-26T12:24:51.906Z</time></trkpt><trkpt lat="43.333175560783616" lon="10.58646368864338"><ele>26.4</ele><time>2026-04-26T12:24:52.906Z</time></trkpt><trkpt lat="43.3331652973744" lon="10.586603206743046"><ele>26.0</ele><time>2026-04-26T12:24:53.906Z</time></trkpt><trkpt lat="43.333172647351546" lon="10.586748048914432"><ele>26.0</ele><time>2026-04-26T12:24:54.906Z</time></trkpt><trkpt lat="43.333194876810964" lon="10.58688836229551"><ele>26.0</ele><time>2026-04-26T12:24:55.906Z</time></trkpt><trkpt lat="43.333206207367354" lon="10.587025135575663"><ele>26.0</ele><time>2026-04-26T12:24:56.906Z</time></trkpt><trkpt lat="43.33321492574296" lon="10.587164897533043"><ele>26.0</ele><time>2026-04-26T12:24:57.906Z</time></trkpt><trkpt lat="43.33321380198454" lon="10.587307659151424"><ele>26.0</ele><time>2026-04-26T12:24:58.906Z</time></trkpt><trkpt lat="43.333211169772184" lon="10.58746615293109"><ele>26.4</ele><time>2026-04-26T12:24:59.906Z</time></trkpt><trkpt lat="43.333205762188925" lon="10.587626579429223"><ele>26.8</ele><time>2026-04-26T12:25:00.906Z</time></trkpt><trkpt lat="43.33321408696932" lon="10.587761917382077"><ele>27.199999999999996</ele><time>2026-04-26T12:25:01.906Z</time></trkpt><trkpt lat="43.33322602995221" lon="10.58788961336345"><ele>27.599999999999998</ele><time>2026-04-26T12:25:02.906Z</time></trkpt><trkpt lat="43.33320878730905" lon="10.587992855583668"><ele>28.0</ele><time>2026-04-26T12:25:03.906Z</time></trkpt><trkpt lat="43.3332051689113" lon="10.588090027397223"><ele>28.000000000000004</ele><time>2026-04-26T12:25:04.906Z</time></trkpt><trkpt lat="43.33319562781476" lon="10.58818237797207"><ele>28.0</ele><time>2026-04-26T12:25:05.904Z</time></trkpt><trkpt lat="43.333179917690835" lon="10.58827962987125"><ele>28.0</ele><time>2026-04-26T12:25:06.904Z</time></trkpt><trkpt lat="43.33316077655814" lon="10.588391096079574"><ele>28.0</ele><time>2026-04-26T12:25:07.904Z</time></trkpt><trkpt lat="43.33314429470926" lon="10.588521973556208"><ele>28.000000000000004</ele><time>2026-04-26T12:25:08.904Z</time></trkpt><trkpt lat="43.333131645308555" lon="10.588632740604314"><ele>28.0</ele><time>2026-04-26T12:25:09.904Z</time></trkpt><trkpt lat="43.33313941813123" lon="10.588724710909158"><ele>27.799999999999997</ele><time>2026-04-26T12:25:10.904Z</time></trkpt><trkpt lat="43.33312345364112" lon="10.588864420350083"><ele>27.599999999999998</ele><time>2026-04-26T12:25:12.904Z</time></trkpt><trkpt lat="43.33310473073028" lon="10.589007085120732"><ele>27.400000000000002</ele><time>2026-04-26T12:25:14.904Z</time></trkpt><trkpt lat="43.33312199710962" lon="10.589145032946659"><ele>27.200000000000003</ele><time>2026-04-26T12:25:16.903Z</time></trkpt><trkpt lat="43.33315954156267" lon="10.589266156600212"><ele>27.0</ele><time>2026-04-26T12:25:18.904Z</time></trkpt><trkpt lat="43.333185493479014" lon="10.58935148679268"><ele>27.0</ele><time>2026-04-26T12:25:19.904Z</time></trkpt><trkpt lat="43.33322911693402" lon="10.5894601708681"><ele>27.000000000000004</ele><time>2026-04-26T12:25:20.904Z</time></trkpt><trkpt lat="43.333262587592024" lon="10.58958810121114"><ele>27.000000000000004</ele><time>2026-04-26T12:25:21.904Z</time></trkpt><trkpt lat="43.33328829205428" lon="10.5897296708409"><ele>27.0</ele><time>2026-04-26T12:25:22.904Z</time></trkpt><trkpt lat="43.33330096122196" lon="10.589866354616484"><ele>27.0</ele><time>2026-04-26T12:25:23.904Z</time></trkpt><trkpt lat="43.33330834476828" lon="10.590007236851177"><ele>26.8</ele><time>2026-04-26T12:25:24.904Z</time></trkpt><trkpt lat="43.333311585617835" lon="10.59014842846021"><ele>26.6</ele><time>2026-04-26T12:25:25.904Z</time></trkpt><trkpt lat="43.33328902151319" lon="10.59028023213758"><ele>26.400000000000002</ele><time>2026-04-26T12:25:26.904Z</time></trkpt><trkpt lat="43.3332819875559" lon="10.590425889027346"><ele>26.200000000000003</ele><time>2026-04-26T12:25:27.904Z</time></trkpt><trkpt lat="43.333253183872145" lon="10.590574578708317"><ele>26.0</ele><time>2026-04-26T12:25:28.904Z</time></trkpt><trkpt lat="43.33322153866357" lon="10.59075782356217"><ele>26.0</ele><time>2026-04-26T12:25:29.904Z</time></trkpt><trkpt lat="43.333181519765056" lon="10.590952093849486"><ele>26.0</ele><time>2026-04-26T12:25:30.904Z</time></trkpt><trkpt lat="43.333156491237936" lon="10.591089285389996"><ele>26.0</ele><time>2026-04-26T12:25:31.904Z</time></trkpt><trkpt lat="43.33314167132595" lon="10.591175525002658"><ele>26.0</ele><time>2026-04-26T12:25:32.904Z</time></trkpt><trkpt lat="43.33311057581268" lon="10.591359858414414"><ele>25.8</ele><time>2026-04-26T12:25:34.904Z</time></trkpt><trkpt lat="43.333094200238506" lon="10.591472926034822"><ele>25.6</ele><time>2026-04-26T12:25:35.904Z</time></trkpt><trkpt lat="43.33307640274243" lon="10.591609720995558"><ele>25.4</ele><time>2026-04-26T12:25:36.904Z</time></trkpt><trkpt lat="43.33306465099239" lon="10.59176638886259"><ele>25.2</ele><time>2026-04-26T12:25:37.904Z</time></trkpt><trkpt lat="43.33305835483967" lon="10.591940741739789"><ele>25.0</ele><time>2026-04-26T12:25:38.904Z</time></trkpt><trkpt lat="43.3330695017027" lon="10.592111755876914"><ele>25.0</ele><time>2026-04-26T12:25:39.904Z</time></trkpt><trkpt lat="43.33310201150895" lon="10.592280397910116"><ele>25.0</ele><time>2026-04-26T12:25:40.904Z</time></trkpt><trkpt lat="43.33313328327179" lon="10.592435049331584"><ele>25.0</ele><time>2026-04-26T12:25:41.904Z</time></trkpt><trkpt lat="43.33315946309019" lon="10.592576761379247"><ele>25.0</ele><time>2026-04-26T12:25:42.904Z</time></trkpt><trkpt lat="43.333170988379756" lon="10.592709599007945"><ele>25.0</ele><time>2026-04-26T12:25:43.904Z</time></trkpt><trkpt lat="43.33317593897572" lon="10.592830100402693"><ele>24.8</ele><time>2026-04-26T12:25:44.904Z</time></trkpt><trkpt lat="43.33318235711726" lon="10.592941239985516"><ele>24.6</ele><time>2026-04-26T12:25:45.904Z</time></trkpt><trkpt lat="43.33318557264805" lon="10.593036113160181"><ele>24.4</ele><time>2026-04-26T12:25:46.904Z</time></trkpt><trkpt lat="43.33319629754253" lon="10.59322306582775"><ele>24.2</ele><time>2026-04-26T12:25:48.904Z</time></trkpt><trkpt lat="43.33320343245862" lon="10.593347679657713"><ele>24.0</ele><time>2026-04-26T12:25:49.904Z</time></trkpt><trkpt lat="43.333213847131745" lon="10.59347331435274"><ele>24.0</ele><time>2026-04-26T12:25:50.904Z</time></trkpt><trkpt lat="43.333237622432875" lon="10.593596676325962"><ele>24.0</ele><time>2026-04-26T12:25:51.904Z</time></trkpt><trkpt lat="43.33328159426702" lon="10.593719770230312"><ele>24.0</ele><time>2026-04-26T12:25:52.904Z</time></trkpt><trkpt lat="43.33331497826249" lon="10.593803139101956"><ele>24.0</ele><time>2026-04-26T12:25:53.904Z</time></trkpt><trkpt lat="43.33334881957381" lon="10.593964448631526"><ele>24.0</ele><time>2026-04-26T12:25:55.904Z</time></trkpt><trkpt lat="43.33335122791682" lon="10.594066745939106"><ele>24.2</ele><time>2026-04-26T12:25:56.904Z</time></trkpt><trkpt lat="43.333345219616746" lon="10.594181361740787"><ele>24.4</ele><time>2026-04-26T12:25:57.904Z</time></trkpt><trkpt lat="43.33333472439036" lon="10.594318955532312"><ele>24.6</ele><time>2026-04-26T12:25:58.904Z</time></trkpt><trkpt lat="43.33332144968163" lon="10.594459427558135"><ele>24.8</ele><time>2026-04-26T12:25:59.904Z</time></trkpt><trkpt lat="43.333309927877096" lon="10.594592912553193"><ele>25.0</ele><time>2026-04-26T12:26:00.904Z</time></trkpt><trkpt lat="43.333301162723814" lon="10.594720966144356"><ele>25.166666666666668</ele><time>2026-04-26T12:26:01.904Z</time></trkpt><trkpt lat="43.333301111424895" lon="10.594836006679303"><ele>25.333333333333336</ele><time>2026-04-26T12:26:02.904Z</time></trkpt><trkpt lat="43.33331387282455" lon="10.594947737166967"><ele>25.5</ele><time>2026-04-26T12:26:03.904Z</time></trkpt><trkpt lat="43.333335965763546" lon="10.59506977796989"><ele>25.666666666666664</ele><time>2026-04-26T12:26:04.904Z</time></trkpt><trkpt lat="43.333353147722946" lon="10.595191444309078"><ele>25.833333333333332</ele><time>2026-04-26T12:26:05.904Z</time></trkpt><trkpt lat="43.33337020708563" lon="10.59531323309176"><ele>26.0</ele><time>2026-04-26T12:26:06.904Z</time></trkpt><trkpt lat="43.333387671306006" lon="10.595430071466968"><ele>26.428571428571427</ele><time>2026-04-26T12:26:07.904Z</time></trkpt><trkpt lat="43.33340297323227" lon="10.59553654541311"><ele>26.85714285714286</ele><time>2026-04-26T12:26:08.904Z</time></trkpt><trkpt lat="43.333415169082414" lon="10.59563247121457"><ele>27.28571428571429</ele><time>2026-04-26T12:26:09.904Z</time></trkpt><trkpt lat="43.33342956729577" lon="10.595719947097916"><ele>27.714285714285715</ele><time>2026-04-26T12:26:10.904Z</time></trkpt><trkpt lat="43.33344788731606" lon="10.595810993136634"><ele>28.142857142857146</ele><time>2026-04-26T12:26:11.904Z</time></trkpt><trkpt lat="43.33346910954706" lon="10.595909820937287"><ele>28.571428571428577</ele><time>2026-04-26T12:26:12.904Z</time></trkpt><trkpt lat="43.333531936000604" lon="10.595977125217603"><ele>29.000000000000004</ele><time>2026-04-26T12:26:13.904Z</time></trkpt><trkpt lat="43.33358471196183" lon="10.596062699657898"><ele>29.0</ele><time>2026-04-26T12:26:14.904Z</time></trkpt><trkpt lat="43.333654671886094" lon="10.596133696003731"><ele>29.0</ele><time>2026-04-26T12:26:15.904Z</time></trkpt><trkpt lat="43.33375674810436" lon="10.596213571399375"><ele>29.0</ele><time>2026-04-26T12:26:16.904Z</time></trkpt><trkpt lat="43.33384473648204" lon="10.596300236426849"><ele>29.0</ele><time>2026-04-26T12:26:17.904Z</time></trkpt><trkpt lat="43.33392501232713" lon="10.596382676394857"><ele>29.0</ele><time>2026-04-26T12:26:18.904Z</time></trkpt><trkpt lat="43.33400571162345" lon="10.596467216854169"><ele>29.799999999999997</ele><time>2026-04-26T12:26:19.904Z</time></trkpt><trkpt lat="43.334082644648035" lon="10.596550259016745"><ele>30.599999999999998</ele><time>2026-04-26T12:26:20.904Z</time></trkpt><trkpt lat="43.33416786234767" lon="10.596637083713956"><ele>31.4</ele><time>2026-04-26T12:26:21.904Z</time></trkpt><trkpt lat="43.33425808777954" lon="10.596725127423886"><ele>32.199999999999996</ele><time>2026-04-26T12:26:22.904Z</time></trkpt><trkpt lat="43.33433507251054" lon="10.596823151361201"><ele>33.0</ele><time>2026-04-26T12:26:23.904Z</time></trkpt><trkpt lat="43.33440603437538" lon="10.596892900785042"><ele>33.0</ele><time>2026-04-26T12:26:24.904Z</time></trkpt><trkpt lat="43.3344696349681" lon="10.596955414634463"><ele>33.0</ele><time>2026-04-26T12:26:25.904Z</time></trkpt><trkpt lat="43.33453110966197" lon="10.597015839238837"><ele>33.0</ele><time>2026-04-26T12:26:26.904Z</time></trkpt><trkpt lat="43.33459888828945" lon="10.597064056377974"><ele>33.0</ele><time>2026-04-26T12:26:27.904Z</time></trkpt><trkpt lat="43.33466207166063" lon="10.597124294436703"><ele>33.0</ele><time>2026-04-26T12:26:28.904Z</time></trkpt><trkpt lat="43.334721176242795" lon="10.597181510002969"><ele>33.0</ele><time>2026-04-26T12:26:29.904Z</time></trkpt><trkpt lat="43.33477897725146" lon="10.597240549214025"><ele>32.6</ele><time>2026-04-26T12:26:30.904Z</time></trkpt><trkpt lat="43.33483777558367" lon="10.597297936254392"><ele>32.199999999999996</ele><time>2026-04-26T12:26:31.904Z</time></trkpt><trkpt lat="43.33493903282802" lon="10.597405259132344"><ele>31.8</ele><time>2026-04-26T12:26:33.904Z</time></trkpt><trkpt lat="43.33499907164233" lon="10.59746395339924"><ele>31.4</ele><time>2026-04-26T12:26:34.904Z</time></trkpt><trkpt lat="43.33507054235048" lon="10.597539573790296"><ele>31.0</ele><time>2026-04-26T12:26:35.904Z</time></trkpt><trkpt lat="43.335130354705626" lon="10.597643021844073"><ele>31.000000000000004</ele><time>2026-04-26T12:26:36.904Z</time></trkpt><trkpt lat="43.33520711469081" lon="10.597706742216188"><ele>31.0</ele><time>2026-04-26T12:26:37.904Z</time></trkpt><trkpt lat="43.33526476020024" lon="10.597755183896814"><ele>31.0</ele><time>2026-04-26T12:26:38.904Z</time></trkpt><trkpt lat="43.33532186259229" lon="10.597814653694757"><ele>31.0</ele><time>2026-04-26T12:26:39.904Z</time></trkpt><trkpt lat="43.335374631440764" lon="10.597863485728237"><ele>31.000000000000004</ele><time>2026-04-26T12:26:40.904Z</time></trkpt><trkpt lat="43.335426704986595" lon="10.597947585443427"><ele>31.0</ele><time>2026-04-26T12:26:41.904Z</time></trkpt><trkpt lat="43.3354939791964" lon="10.597998621045562"><ele>32.0</ele><time>2026-04-26T12:26:42.904Z</time></trkpt><trkpt lat="43.33554611215352" lon="10.59806209923157"><ele>33.0</ele><time>2026-04-26T12:26:43.904Z</time></trkpt><trkpt lat="43.33558577487089" lon="10.598135745149628"><ele>34.0</ele><time>2026-04-26T12:26:44.904Z</time></trkpt><trkpt lat="43.33568755016409" lon="10.598258411074024"><ele>35.0</ele><time>2026-04-26T12:26:46.904Z</time></trkpt><trkpt lat="43.33577089249522" lon="10.598328481963595"><ele>36.0</ele><time>2026-04-26T12:26:47.904Z</time></trkpt><trkpt lat="43.335840775116395" lon="10.598424026202025"><ele>34.2</ele><time>2026-04-26T12:26:48.904Z</time></trkpt><trkpt lat="43.33590141632508" lon="10.598503346549998"><ele>32.400000000000006</ele><time>2026-04-26T12:26:49.904Z</time></trkpt><trkpt lat="43.33596430926696" lon="10.598575917871154"><ele>30.6</ele><time>2026-04-26T12:26:50.904Z</time></trkpt><trkpt lat="43.33602914187954" lon="10.598656485275308"><ele>28.8</ele><time>2026-04-26T12:26:51.904Z</time></trkpt><trkpt lat="43.336102079010864" lon="10.598746077707876"><ele>27.0</ele><time>2026-04-26T12:26:52.904Z</time></trkpt><trkpt lat="43.33617740392058" lon="10.598840982823036"><ele>27.0</ele><time>2026-04-26T12:26:53.904Z</time></trkpt><trkpt lat="43.336272940618066" lon="10.598938651252052"><ele>27.000000000000004</ele><time>2026-04-26T12:26:54.904Z</time></trkpt><trkpt lat="43.33637001628013" lon="10.599037880579873"><ele>27.000000000000004</ele><time>2026-04-26T12:26:55.904Z</time></trkpt><trkpt lat="43.33646107101315" lon="10.599098753969615"><ele>27.0</ele><time>2026-04-26T12:26:56.904Z</time></trkpt><trkpt lat="43.3365545195119" lon="10.599128594340398"><ele>27.0</ele><time>2026-04-26T12:26:57.904Z</time></trkpt><trkpt lat="43.33665140842363" lon="10.599134460630992"><ele>26.666666666666668</ele><time>2026-04-26T12:26:58.904Z</time></trkpt><trkpt lat="43.33674194477393" lon="10.599114413911146"><ele>26.333333333333336</ele><time>2026-04-26T12:26:59.904Z</time></trkpt><trkpt lat="43.33683153504258" lon="10.599115479413513"><ele>26.0</ele><time>2026-04-26T12:27:00.904Z</time></trkpt><trkpt lat="43.336897854174524" lon="10.599135653151636"><ele>25.666666666666668</ele><time>2026-04-26T12:27:01.904Z</time></trkpt><trkpt lat="43.336999423331484" lon="10.599208428606673"><ele>25.333333333333336</ele><time>2026-04-26T12:27:03.904Z</time></trkpt><trkpt lat="43.337043980323045" lon="10.599280584237796"><ele>25.0</ele><time>2026-04-26T12:27:04.904Z</time></trkpt><trkpt lat="43.3371299198525" lon="10.599372354470852"><ele>25.000000000000004</ele><time>2026-04-26T12:27:06.904Z</time></trkpt><trkpt lat="43.33717537722706" lon="10.599460062230698"><ele>25.0</ele><time>2026-04-26T12:27:07.904Z</time></trkpt><trkpt lat="43.33720754958132" lon="10.599559562173404"><ele>25.0</ele><time>2026-04-26T12:27:08.904Z</time></trkpt><trkpt lat="43.33722981758762" lon="10.599651320831635"><ele>25.0</ele><time>2026-04-26T12:27:09.904Z</time></trkpt><trkpt lat="43.337269917017444" lon="10.599785392961918"><ele>25.000000000000004</ele><time>2026-04-26T12:27:11.902Z</time></trkpt><trkpt lat="43.33731271455492" lon="10.599884180151392"><ele>25.0</ele><time>2026-04-26T12:27:13.902Z</time></trkpt><trkpt lat="43.33736439566945" lon="10.599965895469007"><ele>25.6</ele><time>2026-04-26T12:27:27.902Z</time></trkpt><trkpt lat="43.33749233429034" lon="10.599961029352652"><ele>26.2</ele><time>2026-04-26T12:27:29.902Z</time></trkpt><trkpt lat="43.33759003607977" lon="10.59997480485104"><ele>26.799999999999997</ele><time>2026-04-26T12:27:30.902Z</time></trkpt><trkpt lat="43.337695148926066" lon="10.599990371885525"><ele>27.4</ele><time>2026-04-26T12:27:31.902Z</time></trkpt><trkpt lat="43.33778421375956" lon="10.600016153604868"><ele>28.0</ele><time>2026-04-26T12:27:32.902Z</time></trkpt><trkpt lat="43.33786130043303" lon="10.600064174809111"><ele>28.0</ele><time>2026-04-26T12:27:33.902Z</time></trkpt><trkpt lat="43.33793456829224" lon="10.600142584747966"><ele>28.0</ele><time>2026-04-26T12:27:34.902Z</time></trkpt><trkpt lat="43.33801412928378" lon="10.600249401458846"><ele>28.0</ele><time>2026-04-26T12:27:35.902Z</time></trkpt><trkpt lat="43.33811051260491" lon="10.600370409419712"><ele>28.0</ele><time>2026-04-26T12:27:36.902Z</time></trkpt><trkpt lat="43.3382151997611" lon="10.600506178344382"><ele>27.5</ele><time>2026-04-26T12:27:37.902Z</time></trkpt><trkpt lat="43.33832607945825" lon="10.600647024650096"><ele>27.0</ele><time>2026-04-26T12:27:38.902Z</time></trkpt><trkpt lat="43.33843081146418" lon="10.60077585257479"><ele>26.5</ele><time>2026-04-26T12:27:39.902Z</time></trkpt><trkpt lat="43.338527543499566" lon="10.600888388694981"><ele>26.0</ele><time>2026-04-26T12:27:40.902Z</time></trkpt><trkpt lat="43.33861579833385" lon="10.60099694240945"><ele>26.0</ele><time>2026-04-26T12:27:41.902Z</time></trkpt><trkpt lat="43.33868084500845" lon="10.60112554794231"><ele>26.0</ele><time>2026-04-26T12:27:42.902Z</time></trkpt><trkpt lat="43.338758005426875" lon="10.601250759690506"><ele>26.0</ele><time>2026-04-26T12:27:43.902Z</time></trkpt><trkpt lat="43.33883697643126" lon="10.601396685676944"><ele>26.0</ele><time>2026-04-26T12:27:44.902Z</time></trkpt><trkpt lat="43.33891451128675" lon="10.60153992809222"><ele>25.75</ele><time>2026-04-26T12:27:45.902Z</time></trkpt><trkpt lat="43.338992754076074" lon="10.60168679038354"><ele>25.5</ele><time>2026-04-26T12:27:46.902Z</time></trkpt><trkpt lat="43.339071045270934" lon="10.601825990862405"><ele>25.25</ele><time>2026-04-26T12:27:47.902Z</time></trkpt><trkpt lat="43.33914946233958" lon="10.60195838872093"><ele>25.0</ele><time>2026-04-26T12:27:48.902Z</time></trkpt><trkpt lat="43.33923240971309" lon="10.602076817537851"><ele>25.0</ele><time>2026-04-26T12:27:49.902Z</time></trkpt><trkpt lat="43.33932175430437" lon="10.602191463020587"><ele>25.0</ele><time>2026-04-26T12:27:50.902Z</time></trkpt><trkpt lat="43.339408125130234" lon="10.602307487416288"><ele>25.0</ele><time>2026-04-26T12:27:51.902Z</time></trkpt><trkpt lat="43.33948571245969" lon="10.602431107841165"><ele>25.0</ele><time>2026-04-26T12:27:52.902Z</time></trkpt><trkpt lat="43.33955115267536" lon="10.602565947071085"><ele>25.0</ele><time>2026-04-26T12:27:53.902Z</time></trkpt><trkpt lat="43.33961123524826" lon="10.602706290261613"><ele>25.0</ele><time>2026-04-26T12:27:54.902Z</time></trkpt><trkpt lat="43.33967315948561" lon="10.602849243907665"><ele>25.0</ele><time>2026-04-26T12:27:55.902Z</time></trkpt><trkpt lat="43.339737023156786" lon="10.602989941284097"><ele>25.0</ele><time>2026-04-26T12:27:56.902Z</time></trkpt><trkpt lat="43.33977744542997" lon="10.603127562816537"><ele>25.000000000000004</ele><time>2026-04-26T12:27:57.902Z</time></trkpt><trkpt lat="43.339817986038106" lon="10.603234454161917"><ele>25.0</ele><time>2026-04-26T12:27:58.902Z</time></trkpt><trkpt lat="43.33985141463094" lon="10.603337240682716"><ele>25.0</ele><time>2026-04-26T12:27:59.902Z</time></trkpt><trkpt lat="43.33989036668557" lon="10.603440522502463"><ele>25.0</ele><time>2026-04-26T12:28:00.902Z</time></trkpt><trkpt lat="43.33991533536463" lon="10.603548054183706"><ele>25.000000000000004</ele><time>2026-04-26T12:28:01.902Z</time></trkpt><trkpt lat="43.33994887271973" lon="10.603685125587035"><ele>25.0</ele><time>2026-04-26T12:28:02.902Z</time></trkpt><trkpt lat="43.3399974016338" lon="10.603855157685096"><ele>25.0</ele><time>2026-04-26T12:28:03.902Z</time></trkpt><trkpt lat="43.34003370327657" lon="10.604046298282485"><ele>25.0</ele><time>2026-04-26T12:28:04.902Z</time></trkpt><trkpt lat="43.34007179141389" lon="10.604231107224953"><ele>25.0</ele><time>2026-04-26T12:28:05.902Z</time></trkpt><trkpt lat="43.340109312572665" lon="10.604398574050911"><ele>25.0</ele><time>2026-04-26T12:28:06.902Z</time></trkpt><trkpt lat="43.34014913707145" lon="10.604551631299199"><ele>28.5</ele><time>2026-04-26T12:28:07.902Z</time></trkpt><trkpt lat="43.34019475798058" lon="10.604690567805525"><ele>32.0</ele><time>2026-04-26T12:28:08.902Z</time></trkpt><trkpt lat="43.34025445124826" lon="10.604828032808058"><ele>35.5</ele><time>2026-04-26T12:28:09.902Z</time></trkpt><trkpt lat="43.34032446997855" lon="10.60497155108885"><ele>39.0</ele><time>2026-04-26T12:28:10.902Z</time></trkpt><trkpt lat="43.34039964545981" lon="10.605115597193832"><ele>39.0</ele><time>2026-04-26T12:28:11.902Z</time></trkpt><trkpt lat="43.34047546213586" lon="10.605250369161618"><ele>39.0</ele><time>2026-04-26T12:28:12.902Z</time></trkpt><trkpt lat="43.34055563557287" lon="10.605373119735216"><ele>39.0</ele><time>2026-04-26T12:28:13.902Z</time></trkpt><trkpt lat="43.34063314710656" lon="10.605476409504952"><ele>39.0</ele><time>2026-04-26T12:28:14.902Z</time></trkpt><trkpt lat="43.340706418735806" lon="10.605574315219869"><ele>37.4</ele><time>2026-04-26T12:28:15.902Z</time></trkpt><trkpt lat="43.340756658873026" lon="10.605688278027072"><ele>35.8</ele><time>2026-04-26T12:28:16.902Z</time></trkpt><trkpt lat="43.340808657196035" lon="10.605797588614534"><ele>34.2</ele><time>2026-04-26T12:28:17.902Z</time></trkpt><trkpt lat="43.34084251051425" lon="10.605941525676306"><ele>32.6</ele><time>2026-04-26T12:28:18.902Z</time></trkpt><trkpt lat="43.34087424257399" lon="10.606094006205122"><ele>31.0</ele><time>2026-04-26T12:28:19.902Z</time></trkpt><trkpt lat="43.34091296172715" lon="10.606258441145478"><ele>31.0</ele><time>2026-04-26T12:28:20.902Z</time></trkpt><trkpt lat="43.340946607976065" lon="10.606417035303036"><ele>31.0</ele><time>2026-04-26T12:28:21.902Z</time></trkpt><trkpt lat="43.34095583938285" lon="10.606577023397113"><ele>31.0</ele><time>2026-04-26T12:28:22.902Z</time></trkpt><trkpt lat="43.3409844064714" lon="10.606726293405533"><ele>31.0</ele><time>2026-04-26T12:28:23.902Z</time></trkpt><trkpt lat="43.3410033355141" lon="10.606880873563291"><ele>30.5</ele><time>2026-04-26T12:28:24.902Z</time></trkpt><trkpt lat="43.34101526738779" lon="10.607037621343345"><ele>30.0</ele><time>2026-04-26T12:28:25.902Z</time></trkpt><trkpt lat="43.34101418049785" lon="10.607196379996111"><ele>29.5</ele><time>2026-04-26T12:28:26.902Z</time></trkpt><trkpt lat="43.34098157882356" lon="10.60736230766651"><ele>29.0</ele><time>2026-04-26T12:28:27.902Z</time></trkpt><trkpt lat="43.340970086563956" lon="10.607534352078268"><ele>29.0</ele><time>2026-04-26T12:28:28.902Z</time></trkpt><trkpt lat="43.34097933130757" lon="10.607709892044086"><ele>29.0</ele><time>2026-04-26T12:28:29.902Z</time></trkpt><trkpt lat="43.34098223126336" lon="10.6078824360667"><ele>29.0</ele><time>2026-04-26T12:28:30.902Z</time></trkpt><trkpt lat="43.340985251770434" lon="10.608037443274586"><ele>29.0</ele><time>2026-04-26T12:28:31.902Z</time></trkpt><trkpt lat="43.34095100272955" lon="10.608182302218014"><ele>29.5</ele><time>2026-04-26T12:28:32.902Z</time></trkpt><trkpt lat="43.34095257760421" lon="10.608349436013938"><ele>30.0</ele><time>2026-04-26T12:28:33.902Z</time></trkpt><trkpt lat="43.34093878277268" lon="10.608534528025636"><ele>30.5</ele><time>2026-04-26T12:28:34.902Z</time></trkpt><trkpt lat="43.34093975786449" lon="10.608712406502582"><ele>31.0</ele><time>2026-04-26T12:28:35.902Z</time></trkpt><trkpt lat="43.34094389599872" lon="10.608874948607523"><ele>31.0</ele><time>2026-04-26T12:28:36.902Z</time></trkpt><trkpt lat="43.3409526716932" lon="10.609020111885492"><ele>31.0</ele><time>2026-04-26T12:28:37.902Z</time></trkpt><trkpt lat="43.34095979651681" lon="10.609139788512032"><ele>31.0</ele><time>2026-04-26T12:28:38.902Z</time></trkpt><trkpt lat="43.34096038915185" lon="10.6092971417152"><ele>31.0</ele><time>2026-04-26T12:28:40.902Z</time></trkpt><trkpt lat="43.340943313639734" lon="10.609447948860547"><ele>31.0</ele><time>2026-04-26T12:28:42.902Z</time></trkpt><trkpt lat="43.34091803515243" lon="10.609530634333161"><ele>31.000000000000004</ele><time>2026-04-26T12:28:43.902Z</time></trkpt><trkpt lat="43.34084339889863" lon="10.609650753743555"><ele>31.0</ele><time>2026-04-26T12:28:45.902Z</time></trkpt><trkpt lat="43.340801629174386" lon="10.609726428221396"><ele>31.0</ele><time>2026-04-26T12:28:46.902Z</time></trkpt><trkpt lat="43.3407558199954" lon="10.609808452608261"><ele>31.0</ele><time>2026-04-26T12:28:47.902Z</time></trkpt><trkpt lat="43.34071093118064" lon="10.609902392344766"><ele>31.000000000000004</ele><time>2026-04-26T12:28:48.902Z</time></trkpt><trkpt lat="43.34068826769371" lon="10.610029871780329"><ele>31.0</ele><time>2026-04-26T12:28:49.902Z</time></trkpt><trkpt lat="43.34066755991463" lon="10.610186084789383"><ele>29.666666666666668</ele><time>2026-04-26T12:28:50.902Z</time></trkpt><trkpt lat="43.340672647823204" lon="10.610385144664798"><ele>28.333333333333336</ele><time>2026-04-26T12:28:51.902Z</time></trkpt><trkpt lat="43.34064038208546" lon="10.61058681553459"><ele>27.0</ele><time>2026-04-26T12:28:52.902Z</time></trkpt><trkpt lat="43.340625158375765" lon="10.6108109415628"><ele>27.0</ele><time>2026-04-26T12:28:53.902Z</time></trkpt><trkpt lat="43.34060796519578" lon="10.61102393892577"><ele>27.0</ele><time>2026-04-26T12:28:54.902Z</time></trkpt><trkpt lat="43.34058845286279" lon="10.611233559727431"><ele>27.0</ele><time>2026-04-26T12:28:55.902Z</time></trkpt><trkpt lat="43.34056594458912" lon="10.611436788497683"><ele>28.0</ele><time>2026-04-26T12:28:56.902Z</time></trkpt><trkpt lat="43.34054474150394" lon="10.611638862833873"><ele>29.0</ele><time>2026-04-26T12:28:57.902Z</time></trkpt><trkpt lat="43.340519174286264" lon="10.611831043894446"><ele>30.0</ele><time>2026-04-26T12:28:58.902Z</time></trkpt><trkpt lat="43.340480813448096" lon="10.612015826812572"><ele>31.0</ele><time>2026-04-26T12:28:59.902Z</time></trkpt><trkpt lat="43.340437294642186" lon="10.61220274012161"><ele>32.0</ele><time>2026-04-26T12:29:00.902Z</time></trkpt><trkpt lat="43.34037772095676" lon="10.612396286331299"><ele>33.0</ele><time>2026-04-26T12:29:01.902Z</time></trkpt><trkpt lat="43.340320319465945" lon="10.612604403912687"><ele>34.0</ele><time>2026-04-26T12:29:02.902Z</time></trkpt><trkpt lat="43.34026625664804" lon="10.612812128294749"><ele>36.25</ele><time>2026-04-26T12:29:03.902Z</time></trkpt><trkpt lat="43.340218576622576" lon="10.613020832686967"><ele>38.5</ele><time>2026-04-26T12:29:04.902Z</time></trkpt><trkpt lat="43.34017259067982" lon="10.613216292870701"><ele>40.75</ele><time>2026-04-26T12:29:05.902Z</time></trkpt><trkpt lat="43.34013776672444" lon="10.613386868636765"><ele>43.0</ele><time>2026-04-26T12:29:06.902Z</time></trkpt><trkpt lat="43.340106648308655" lon="10.613548534980945"><ele>43.0</ele><time>2026-04-26T12:29:07.902Z</time></trkpt><trkpt lat="43.34007389076382" lon="10.613701677704594"><ele>43.0</ele><time>2026-04-26T12:29:08.902Z</time></trkpt><trkpt lat="43.34003091793868" lon="10.613854235826752"><ele>43.0</ele><time>2026-04-26T12:29:09.902Z</time></trkpt><trkpt lat="43.33997761446772" lon="10.614002860740172"><ele>43.0</ele><time>2026-04-26T12:29:10.902Z</time></trkpt><trkpt lat="43.33990494396519" lon="10.6141469861693"><ele>43.0</ele><time>2026-04-26T12:29:11.902Z</time></trkpt><trkpt lat="43.33984444253564" lon="10.614293029940871"><ele>43.0</ele><time>2026-04-26T12:29:12.902Z</time></trkpt><trkpt lat="43.33979162540827" lon="10.614412884867448"><ele>43.0</ele><time>2026-04-26T12:29:13.902Z</time></trkpt><trkpt lat="43.33973408096252" lon="10.614523162325742"><ele>43.0</ele><time>2026-04-26T12:29:14.902Z</time></trkpt><trkpt lat="43.33966141568188" lon="10.614634660529545"><ele>43.0</ele><time>2026-04-26T12:29:15.902Z</time></trkpt><trkpt lat="43.33957632144188" lon="10.614737988747862"><ele>44.8</ele><time>2026-04-26T12:29:16.902Z</time></trkpt><trkpt lat="43.33947762638812" lon="10.614821226631943"><ele>46.599999999999994</ele><time>2026-04-26T12:29:17.899Z</time></trkpt><trkpt lat="43.33937525269767" lon="10.614884437752316"><ele>48.400000000000006</ele><time>2026-04-26T12:29:18.9Z</time></trkpt><trkpt lat="43.33927379187811" lon="10.614948702233612"><ele>50.2</ele><time>2026-04-26T12:29:19.9Z</time></trkpt><trkpt lat="43.33918540993408" lon="10.61503218741649"><ele>52.0</ele><time>2026-04-26T12:29:20.899Z</time></trkpt><trkpt lat="43.33909869052231" lon="10.615125749431488"><ele>52.0</ele><time>2026-04-26T12:29:21.899Z</time></trkpt><trkpt lat="43.3390274480672" lon="10.615234676197698"><ele>52.0</ele><time>2026-04-26T12:29:22.899Z</time></trkpt><trkpt lat="43.33896205425246" lon="10.615355565016339"><ele>52.0</ele><time>2026-04-26T12:29:23.9Z</time></trkpt><trkpt lat="43.33889128687089" lon="10.615483723524"><ele>52.0</ele><time>2026-04-26T12:29:24.9Z</time></trkpt><trkpt lat="43.33882045811042" lon="10.615610526196662"><ele>52.0</ele><time>2026-04-26T12:29:25.9Z</time></trkpt><trkpt lat="43.33872825170066" lon="10.615713539715859"><ele>54.400000000000006</ele><time>2026-04-26T12:29:26.899Z</time></trkpt><trkpt lat="43.33867044045413" lon="10.615816275481997"><ele>56.800000000000004</ele><time>2026-04-26T12:29:27.899Z</time></trkpt><trkpt lat="43.338610197305314" lon="10.615916529502543"><ele>59.2</ele><time>2026-04-26T12:29:28.899Z</time></trkpt><trkpt lat="43.33852432103887" lon="10.616018103602869"><ele>61.6</ele><time>2026-04-26T12:29:29.899Z</time></trkpt><trkpt lat="43.3384313739871" lon="10.616104945951738"><ele>64.0</ele><time>2026-04-26T12:29:30.899Z</time></trkpt><trkpt lat="43.33833457490298" lon="10.616180732347999"><ele>64.0</ele><time>2026-04-26T12:29:31.899Z</time></trkpt><trkpt lat="43.33824547103044" lon="10.616243499269164"><ele>64.0</ele><time>2026-04-26T12:29:32.899Z</time></trkpt><trkpt lat="43.33814789476553" lon="10.616307140724219"><ele>64.0</ele><time>2026-04-26T12:29:33.899Z</time></trkpt><trkpt lat="43.3380499736399" lon="10.616373251906781"><ele>64.0</ele><time>2026-04-26T12:29:34.899Z</time></trkpt><trkpt lat="43.33795902094484" lon="10.616441418486508"><ele>64.0</ele><time>2026-04-26T12:29:35.899Z</time></trkpt><trkpt lat="43.3378778183577" lon="10.616540643901834"><ele>65.25</ele><time>2026-04-26T12:29:36.899Z</time></trkpt><trkpt lat="43.33779280356862" lon="10.616642945283317"><ele>66.5</ele><time>2026-04-26T12:29:37.899Z</time></trkpt><trkpt lat="43.33769429750139" lon="10.616770649575237"><ele>67.75</ele><time>2026-04-26T12:29:38.899Z</time></trkpt><trkpt lat="43.33760378914663" lon="10.616892340492162"><ele>69.0</ele><time>2026-04-26T12:29:39.899Z</time></trkpt><trkpt lat="43.337513396912186" lon="10.617025265872138"><ele>69.5</ele><time>2026-04-26T12:29:40.899Z</time></trkpt><trkpt lat="43.33742286108394" lon="10.617175398095258"><ele>70.0</ele><time>2026-04-26T12:29:41.899Z</time></trkpt><trkpt lat="43.337332647658975" lon="10.617322693389445"><ele>70.5</ele><time>2026-04-26T12:29:42.899Z</time></trkpt><trkpt lat="43.33725128668975" lon="10.617458321166847"><ele>71.0</ele><time>2026-04-26T12:29:43.899Z</time></trkpt><trkpt lat="43.337161054439264" lon="10.617585334627629"><ele>73.0</ele><time>2026-04-26T12:29:44.899Z</time></trkpt><trkpt lat="43.33705810728502" lon="10.617712180938867"><ele>75.0</ele><time>2026-04-26T12:29:45.899Z</time></trkpt><trkpt lat="43.33694934666156" lon="10.617840979120603"><ele>77.0</ele><time>2026-04-26T12:29:46.899Z</time></trkpt><trkpt lat="43.336837657948436" lon="10.617972465859735"><ele>79.0</ele><time>2026-04-26T12:29:47.899Z</time></trkpt><trkpt lat="43.33672946724826" lon="10.618108427268394"><ele>79.0</ele><time>2026-04-26T12:29:48.899Z</time></trkpt><trkpt lat="43.336624370877104" lon="10.618242975475715"><ele>79.0</ele><time>2026-04-26T12:29:49.899Z</time></trkpt><trkpt lat="43.33651832699901" lon="10.618369086706666"><ele>79.0</ele><time>2026-04-26T12:29:50.899Z</time></trkpt><trkpt lat="43.336427722145906" lon="10.618484023301647"><ele>79.0</ele><time>2026-04-26T12:29:51.899Z</time></trkpt><trkpt lat="43.336358227599575" lon="10.618599241100517"><ele>80.2</ele><time>2026-04-26T12:29:52.899Z</time></trkpt><trkpt lat="43.3363376945886" lon="10.618712800421106"><ele>81.4</ele><time>2026-04-26T12:29:53.899Z</time></trkpt><trkpt lat="43.33632564212401" lon="10.618823801454887"><ele>82.6</ele><time>2026-04-26T12:29:54.899Z</time></trkpt><trkpt lat="43.336312337417176" lon="10.618960793983335"><ele>83.8</ele><time>2026-04-26T12:29:55.899Z</time></trkpt><trkpt lat="43.336288595508705" lon="10.619107956823688"><ele>85.0</ele><time>2026-04-26T12:29:56.899Z</time></trkpt><trkpt lat="43.336282332935056" lon="10.619251682216472"><ele>85.0</ele><time>2026-04-26T12:29:57.899Z</time></trkpt><trkpt lat="43.33627169984943" lon="10.61938644590779"><ele>85.0</ele><time>2026-04-26T12:29:58.899Z</time></trkpt><trkpt lat="43.33627362231242" lon="10.619487391834342"><ele>85.0</ele><time>2026-04-26T12:29:59.899Z</time></trkpt><trkpt lat="43.33626978240811" lon="10.61957619034286"><ele>85.0</ele><time>2026-04-26T12:30:00.899Z</time></trkpt><trkpt lat="43.336225027864316" lon="10.619699311192537"><ele>85.0</ele><time>2026-04-26T12:30:02.899Z</time></trkpt><trkpt lat="43.33615196351878" lon="10.619743204424514"><ele>85.0</ele><time>2026-04-26T12:30:04.899Z</time></trkpt><trkpt lat="43.336088376775216" lon="10.61977132355835"><ele>83.75</ele><time>2026-04-26T12:30:05.899Z</time></trkpt><trkpt lat="43.33597053539145" lon="10.619804233457232"><ele>82.5</ele><time>2026-04-26T12:30:06.899Z</time></trkpt><trkpt lat="43.33585270456674" lon="10.619824453849132"><ele>81.25</ele><time>2026-04-26T12:30:07.899Z</time></trkpt><trkpt lat="43.335748057188304" lon="10.619810899988048"><ele>80.0</ele><time>2026-04-26T12:30:08.899Z</time></trkpt><trkpt lat="43.33565246465518" lon="10.619747014517358"><ele>82.5</ele><time>2026-04-26T12:30:09.899Z</time></trkpt><trkpt lat="43.33553885616441" lon="10.619701081295288"><ele>85.0</ele><time>2026-04-26T12:30:10.899Z</time></trkpt><trkpt lat="43.33542910076244" lon="10.619628667292613"><ele>87.5</ele><time>2026-04-26T12:30:11.899Z</time></trkpt><trkpt lat="43.335311324479285" lon="10.61957278618693"><ele>90.0</ele><time>2026-04-26T12:30:12.899Z</time></trkpt><trkpt lat="43.33519245696902" lon="10.619522022269738"><ele>90.5</ele><time>2026-04-26T12:30:13.899Z</time></trkpt><trkpt lat="43.335057017920946" lon="10.619476221835056"><ele>91.0</ele><time>2026-04-26T12:30:14.899Z</time></trkpt><trkpt lat="43.334913587242156" lon="10.619434419917988"><ele>91.5</ele><time>2026-04-26T12:30:15.899Z</time></trkpt><trkpt lat="43.334766793650076" lon="10.619394313169291"><ele>92.0</ele><time>2026-04-26T12:30:16.899Z</time></trkpt><trkpt lat="43.33462925414326" lon="10.619353180412075"><ele>93.6</ele><time>2026-04-26T12:30:17.899Z</time></trkpt><trkpt lat="43.33451787530753" lon="10.619319401415218"><ele>95.19999999999999</ele><time>2026-04-26T12:30:18.899Z</time></trkpt><trkpt lat="43.33442814028831" lon="10.61924925310504"><ele>96.8</ele><time>2026-04-26T12:30:19.899Z</time></trkpt><trkpt lat="43.33432970111632" lon="10.619203578176325"><ele>98.4</ele><time>2026-04-26T12:30:20.899Z</time></trkpt><trkpt lat="43.334229855809596" lon="10.61919059103567"><ele>100.0</ele><time>2026-04-26T12:30:21.899Z</time></trkpt><trkpt lat="43.33412797335724" lon="10.619182958636527"><ele>100.0</ele><time>2026-04-26T12:30:22.899Z</time></trkpt><trkpt lat="43.33402160161958" lon="10.619209793708"><ele>100.0</ele><time>2026-04-26T12:30:23.899Z</time></trkpt><trkpt lat="43.33391904546665" lon="10.619253816226214"><ele>100.0</ele><time>2026-04-26T12:30:24.899Z</time></trkpt><trkpt lat="43.33382656707069" lon="10.619318579444167"><ele>100.0</ele><time>2026-04-26T12:30:25.899Z</time></trkpt><trkpt lat="43.33374572925796" lon="10.619415369335718"><ele>100.0</ele><time>2026-04-26T12:30:26.899Z</time></trkpt><trkpt lat="43.33366927536529" lon="10.619522659684796"><ele>102.25</ele><time>2026-04-26T12:30:27.899Z</time></trkpt><trkpt lat="43.33358891037059" lon="10.619641261140796"><ele>104.5</ele><time>2026-04-26T12:30:28.899Z</time></trkpt><trkpt lat="43.33350606516889" lon="10.619765256339381"><ele>106.75</ele><time>2026-04-26T12:30:29.899Z</time></trkpt><trkpt lat="43.3334218266836" lon="10.61989009190357"><ele>109.0</ele><time>2026-04-26T12:30:30.899Z</time></trkpt><trkpt lat="43.33333680604357" lon="10.620014139120872"><ele>109.00000000000001</ele><time>2026-04-26T12:30:31.899Z</time></trkpt><trkpt lat="43.3332555161843" lon="10.620123283630022"><ele>109.0</ele><time>2026-04-26T12:30:32.899Z</time></trkpt><trkpt lat="43.33317511448919" lon="10.62018553204965"><ele>109.0</ele><time>2026-04-26T12:30:33.899Z</time></trkpt><trkpt lat="43.33310517388221" lon="10.620245066154165"><ele>109.0</ele><time>2026-04-26T12:30:34.899Z</time></trkpt><trkpt lat="43.333041893794764" lon="10.620319073526316"><ele>109.00000000000001</ele><time>2026-04-26T12:30:35.899Z</time></trkpt><trkpt lat="43.33297692972255" lon="10.62034524256714"><ele>109.0</ele><time>2026-04-26T12:30:36.899Z</time></trkpt><trkpt lat="43.33289740818472" lon="10.620382164493057"><ele>109.4</ele><time>2026-04-26T12:30:38.899Z</time></trkpt><trkpt lat="43.33298825732471" lon="10.620529534194526"><ele>109.80000000000001</ele><time>2026-04-26T12:31:04.899Z</time></trkpt><trkpt lat="43.33305566264339" lon="10.620550289071149"><ele>110.19999999999999</ele><time>2026-04-26T12:31:05.899Z</time></trkpt><trkpt lat="43.33311911511615" lon="10.620565538738328"><ele>110.6</ele><time>2026-04-26T12:31:06.899Z</time></trkpt><trkpt lat="43.33321443100246" lon="10.620608393535912"><ele>111.0</ele><time>2026-04-26T12:31:08.899Z</time></trkpt><trkpt lat="43.333321896741886" lon="10.620642917062531"><ele>111.0</ele><time>2026-04-26T12:31:10.899Z</time></trkpt><trkpt lat="43.33338296019137" lon="10.620670588689176"><ele>111.0</ele><time>2026-04-26T12:31:11.899Z</time></trkpt><trkpt lat="43.33345370695204" lon="10.620694251300616"><ele>111.0</ele><time>2026-04-26T12:31:12.899Z</time></trkpt><trkpt lat="43.33351645159262" lon="10.620712755190935"><ele>111.0</ele><time>2026-04-26T12:31:13.899Z</time></trkpt><trkpt lat="43.33362650118659" lon="10.620756719160385"><ele>111.0</ele><time>2026-04-26T12:31:15.899Z</time></trkpt><trkpt lat="43.333731705270814" lon="10.62080233695379"><ele>111.0</ele><time>2026-04-26T12:31:17.899Z</time></trkpt><trkpt lat="43.333822616120116" lon="10.620866554290656"><ele>111.0</ele><time>2026-04-26T12:31:19.899Z</time></trkpt><trkpt lat="43.33388094557412" lon="10.620935042195484"><ele>111.0</ele><time>2026-04-26T12:31:22.899Z</time></trkpt><trkpt lat="43.333936761555094" lon="10.620986476446676"><ele>111.0</ele><time>2026-04-26T12:31:25.897Z</time></trkpt><trkpt lat="43.334001416151715" lon="10.621064148995021"><ele>111.0</ele><time>2026-04-26T12:31:28.897Z</time></trkpt><trkpt lat="43.33406149790202" lon="10.621119170337117"><ele>111.0</ele><time>2026-04-26T12:31:30.896Z</time></trkpt><trkpt lat="43.3341607479285" lon="10.621187030631651"><ele>111.0</ele><time>2026-04-26T12:31:32.897Z</time></trkpt><trkpt lat="43.33421558181836" lon="10.621249254661478"><ele>111.19999999999999</ele><time>2026-04-26T12:31:33.896Z</time></trkpt><trkpt lat="43.33427725492617" lon="10.62129578802351"><ele>111.39999999999999</ele><time>2026-04-26T12:31:34.896Z</time></trkpt><trkpt lat="43.334367063046486" lon="10.621357531997896"><ele>111.6</ele><time>2026-04-26T12:31:36.897Z</time></trkpt><trkpt lat="43.33448171332882" lon="10.621411884128955"><ele>111.8</ele><time>2026-04-26T12:31:38.897Z</time></trkpt><trkpt lat="43.334568498975244" lon="10.621443046996404"><ele>112.0</ele><time>2026-04-26T12:31:40.897Z</time></trkpt><trkpt lat="43.33464458936272" lon="10.621447255885995"><ele>112.0</ele><time>2026-04-26T12:31:42.897Z</time></trkpt><trkpt lat="43.33470113992538" lon="10.621499319667556"><ele>112.0</ele><time>2026-04-26T12:31:46.897Z</time></trkpt><trkpt lat="43.33477362148164" lon="10.621512972598568"><ele>112.0</ele><time>2026-04-26T12:32:31.897Z</time></trkpt><trkpt lat="43.33484003590892" lon="10.621535613253496"><ele>112.0</ele><time>2026-04-26T12:32:38.897Z</time></trkpt><trkpt lat="43.3347672148569" lon="10.621510788586713"><ele>112.0</ele><time>2026-04-26T12:32:54.897Z</time></trkpt><trkpt lat="43.334708534638274" lon="10.621469293436371"><ele>112.0</ele><time>2026-04-26T12:32:58.897Z</time></trkpt><trkpt lat="43.33472764313193" lon="10.621356934732402"><ele>112.0</ele><time>2026-04-26T12:33:00.897Z</time></trkpt><trkpt lat="43.33467212601892" lon="10.621421118597855"><ele>112.00000000000001</ele><time>2026-04-26T12:33:04.897Z</time></trkpt><trkpt lat="43.33459539100784" lon="10.621421666708406"><ele>112.0</ele><time>2026-04-26T12:34:24.915Z</time></trkpt><trkpt lat="43.33453076122895" lon="10.621383058473507"><ele>112.0</ele><time>2026-04-26T12:34:28.915Z</time></trkpt><trkpt lat="43.33445593219718" lon="10.621340375230831"><ele>112.0</ele><time>2026-04-26T12:34:31.915Z</time></trkpt><trkpt lat="43.33438325271725" lon="10.621302335870606"><ele>112.00000000000001</ele><time>2026-04-26T12:34:33.915Z</time></trkpt><trkpt lat="43.33429436589589" lon="10.621252177402713"><ele>112.0</ele><time>2026-04-26T12:34:35.915Z</time></trkpt><trkpt lat="43.33420601137766" lon="10.62121344268358"><ele>112.00000000000001</ele><time>2026-04-26T12:34:37.915Z</time></trkpt><trkpt lat="43.33413481799092" lon="10.621153794702417"><ele>112.0</ele><time>2026-04-26T12:34:39.915Z</time></trkpt><trkpt lat="43.33407648336293" lon="10.621095878094577"><ele>112.0</ele><time>2026-04-26T12:34:41.915Z</time></trkpt><trkpt lat="43.33401349690787" lon="10.621018191996072"><ele>112.0</ele><time>2026-04-26T12:34:43.915Z</time></trkpt><trkpt lat="43.33395272795707" lon="10.620957005996983"><ele>112.00000000000001</ele><time>2026-04-26T12:34:45.915Z</time></trkpt><trkpt lat="43.333890046718835" lon="10.620886280907166"><ele>112.0</ele><time>2026-04-26T12:34:54.915Z</time></trkpt><trkpt lat="43.33383263693873" lon="10.620834042808212"><ele>111.83333333333334</ele><time>2026-04-26T12:34:56.915Z</time></trkpt><trkpt lat="43.33371157794381" lon="10.62075788083261"><ele>111.66666666666667</ele><time>2026-04-26T12:34:58.915Z</time></trkpt><trkpt lat="43.33364258518773" lon="10.620722339097481"><ele>111.5</ele><time>2026-04-26T12:34:59.915Z</time></trkpt><trkpt lat="43.333557503738746" lon="10.620705258265927"><ele>111.33333333333334</ele><time>2026-04-26T12:35:00.915Z</time></trkpt><trkpt lat="43.333488825940904" lon="10.62066677437345"><ele>111.16666666666667</ele><time>2026-04-26T12:35:01.915Z</time></trkpt><trkpt lat="43.33341114233481" lon="10.620639929424186"><ele>111.0</ele><time>2026-04-26T12:35:02.915Z</time></trkpt><trkpt lat="43.33332922387503" lon="10.620626424269268"><ele>111.0</ele><time>2026-04-26T12:35:03.915Z</time></trkpt><trkpt lat="43.33325912883119" lon="10.620577386747188"><ele>111.0</ele><time>2026-04-26T12:35:04.915Z</time></trkpt><trkpt lat="43.33317768768656" lon="10.620561313295227"><ele>111.0</ele><time>2026-04-26T12:35:05.915Z</time></trkpt><trkpt lat="43.33308736749141" lon="10.620526522529154"><ele>111.0</ele><time>2026-04-26T12:35:06.915Z</time></trkpt><trkpt lat="43.33300308472445" lon="10.620502299939767"><ele>111.0</ele><time>2026-04-26T12:35:07.915Z</time></trkpt><trkpt lat="43.332939712684805" lon="10.620464148060998"><ele>111.0</ele><time>2026-04-26T12:35:08.915Z</time></trkpt><trkpt lat="43.3328628543958" lon="10.620449377732466"><ele>112.66666666666667</ele><time>2026-04-26T12:35:10.915Z</time></trkpt><trkpt lat="43.332742524177235" lon="10.620486915457446"><ele>114.33333333333334</ele><time>2026-04-26T12:35:13.915Z</time></trkpt><trkpt lat="43.33266712914905" lon="10.62053309581352"><ele>116.0</ele><time>2026-04-26T12:35:14.915Z</time></trkpt><trkpt lat="43.332589577793684" lon="10.62058059696711"><ele>117.66666666666667</ele><time>2026-04-26T12:35:15.915Z</time></trkpt><trkpt lat="43.33251860993353" lon="10.620624065626469"><ele>119.33333333333334</ele><time>2026-04-26T12:35:16.916Z</time></trkpt><trkpt lat="43.332450064776715" lon="10.620666050334057"><ele>121.0</ele><time>2026-04-26T12:35:17.916Z</time></trkpt><trkpt lat="43.3323917912279" lon="10.620724003407506"><ele>121.00000000000001</ele><time>2026-04-26T12:35:18.916Z</time></trkpt><trkpt lat="43.332307430155744" lon="10.620748249380952"><ele>121.0</ele><time>2026-04-26T12:35:19.916Z</time></trkpt><trkpt lat="43.33223060425797" lon="10.620800455436598"><ele>121.0</ele><time>2026-04-26T12:35:20.916Z</time></trkpt><trkpt lat="43.332161813356954" lon="10.620859523319808"><ele>121.0</ele><time>2026-04-26T12:35:21.916Z</time></trkpt><trkpt lat="43.332087502302016" lon="10.620904959167925"><ele>121.00000000000001</ele><time>2026-04-26T12:35:22.916Z</time></trkpt><trkpt lat="43.33200461485875" lon="10.620959099691271"><ele>121.0</ele><time>2026-04-26T12:35:23.916Z</time></trkpt><trkpt lat="43.331899743017956" lon="10.6210256860967"><ele>123.0</ele><time>2026-04-26T12:35:24.916Z</time></trkpt><trkpt lat="43.33178472647752" lon="10.621078367382866"><ele>125.0</ele><time>2026-04-26T12:35:25.916Z</time></trkpt><trkpt lat="43.33169219743422" lon="10.621163133716252"><ele>127.0</ele><time>2026-04-26T12:35:26.916Z</time></trkpt><trkpt lat="43.33161301821518" lon="10.621228184695978"><ele>129.0</ele><time>2026-04-26T12:35:27.916Z</time></trkpt><trkpt lat="43.331538036377886" lon="10.621297814894614"><ele>131.0</ele><time>2026-04-26T12:35:28.916Z</time></trkpt><trkpt lat="43.331442984384175" lon="10.621336935761127"><ele>133.4</ele><time>2026-04-26T12:35:29.916Z</time></trkpt><trkpt lat="43.331367155188985" lon="10.621377947392173"><ele>135.8</ele><time>2026-04-26T12:35:30.916Z</time></trkpt><trkpt lat="43.33128632880139" lon="10.621418886493025"><ele>138.20000000000002</ele><time>2026-04-26T12:35:31.916Z</time></trkpt><trkpt lat="43.33120052404415" lon="10.621470772009458"><ele>140.6</ele><time>2026-04-26T12:35:32.916Z</time></trkpt><trkpt lat="43.3311058523835" lon="10.621503861941976"><ele>143.0</ele><time>2026-04-26T12:35:33.916Z</time></trkpt><trkpt lat="43.3310024572116" lon="10.621505470226305"><ele>143.0</ele><time>2026-04-26T12:35:34.916Z</time></trkpt><trkpt lat="43.330909670845564" lon="10.621489732863264"><ele>143.0</ele><time>2026-04-26T12:35:35.915Z</time></trkpt><trkpt lat="43.33080995196848" lon="10.621466659372599"><ele>143.0</ele><time>2026-04-26T12:35:36.915Z</time></trkpt><trkpt lat="43.33071457266112" lon="10.621454103253559"><ele>143.0</ele><time>2026-04-26T12:35:37.915Z</time></trkpt><trkpt lat="43.33062072894253" lon="10.621457689312145"><ele>143.0</ele><time>2026-04-26T12:35:38.915Z</time></trkpt><trkpt lat="43.33055033534287" lon="10.621433886051683"><ele>144.20000000000002</ele><time>2026-04-26T12:35:39.914Z</time></trkpt><trkpt lat="43.33043246209655" lon="10.621425800325722"><ele>145.4</ele><time>2026-04-26T12:35:41.914Z</time></trkpt><trkpt lat="43.33035970570474" lon="10.621425896782604"><ele>146.60000000000002</ele><time>2026-04-26T12:35:42.915Z</time></trkpt><trkpt lat="43.3302639746939" lon="10.621433765285026"><ele>147.8</ele><time>2026-04-26T12:35:43.915Z</time></trkpt><trkpt lat="43.33016490718103" lon="10.621450115331776"><ele>149.0</ele><time>2026-04-26T12:35:44.915Z</time></trkpt><trkpt lat="43.33004856847874" lon="10.621460002040878"><ele>149.0</ele><time>2026-04-26T12:35:45.915Z</time></trkpt><trkpt lat="43.32993100695553" lon="10.621473275132708"><ele>149.0</ele><time>2026-04-26T12:35:46.915Z</time></trkpt><trkpt lat="43.32981342068898" lon="10.621485693103565"><ele>149.0</ele><time>2026-04-26T12:35:47.914Z</time></trkpt><trkpt lat="43.32970068923036" lon="10.621490600349214"><ele>149.0</ele><time>2026-04-26T12:35:48.915Z</time></trkpt><trkpt lat="43.32959649624283" lon="10.621498218737333"><ele>152.0</ele><time>2026-04-26T12:35:49.915Z</time></trkpt><trkpt lat="43.32950178175885" lon="10.621505000516851"><ele>155.0</ele><time>2026-04-26T12:35:50.915Z</time></trkpt><trkpt lat="43.3294087357977" lon="10.621513417892535"><ele>158.0</ele><time>2026-04-26T12:35:51.915Z</time></trkpt><trkpt lat="43.32931215745526" lon="10.621522149370179"><ele>161.0</ele><time>2026-04-26T12:35:52.915Z</time></trkpt><trkpt lat="43.32922234923848" lon="10.621523836221192"><ele>164.0</ele><time>2026-04-26T12:35:53.915Z</time></trkpt><trkpt lat="43.329139910852874" lon="10.621550800779419"><ele>164.0</ele><time>2026-04-26T12:35:54.915Z</time></trkpt><trkpt lat="43.32907493515926" lon="10.621595461343643"><ele>164.0</ele><time>2026-04-26T12:35:55.915Z</time></trkpt><trkpt lat="43.329018015792656" lon="10.62165556328329"><ele>164.0</ele><time>2026-04-26T12:35:56.915Z</time></trkpt><trkpt lat="43.32895243439624" lon="10.621736225479102"><ele>164.0</ele><time>2026-04-26T12:35:57.915Z</time></trkpt><trkpt lat="43.32890111419965" lon="10.621858694563686"><ele>164.0</ele><time>2026-04-26T12:35:58.915Z</time></trkpt><trkpt lat="43.3288555936001" lon="10.622023850011734"><ele>167.25</ele><time>2026-04-26T12:35:59.915Z</time></trkpt><trkpt lat="43.328802713705244" lon="10.622205431161351"><ele>170.5</ele><time>2026-04-26T12:36:00.915Z</time></trkpt><trkpt lat="43.32874627477681" lon="10.6223852487344"><ele>173.75</ele><time>2026-04-26T12:36:01.915Z</time></trkpt><trkpt lat="43.32869119559636" lon="10.622534512580083"><ele>177.0</ele><time>2026-04-26T12:36:02.915Z</time></trkpt><trkpt lat="43.32863371076888" lon="10.622633792769738"><ele>177.0</ele><time>2026-04-26T12:36:03.915Z</time></trkpt><trkpt lat="43.32858769352143" lon="10.622702794550355"><ele>177.0</ele><time>2026-04-26T12:36:04.915Z</time></trkpt><trkpt lat="43.328526182693984" lon="10.622771152789037"><ele>177.0</ele><time>2026-04-26T12:36:05.915Z</time></trkpt><trkpt lat="43.3284412080948" lon="10.622835488822114"><ele>177.0</ele><time>2026-04-26T12:36:06.915Z</time></trkpt><trkpt lat="43.328295160197456" lon="10.622889739380586"><ele>177.0</ele><time>2026-04-26T12:36:07.915Z</time></trkpt><trkpt lat="43.32813941563685" lon="10.622993309003167"><ele>181.5</ele><time>2026-04-26T12:36:08.915Z</time></trkpt><trkpt lat="43.32798661659276" lon="10.623050596040718"><ele>186.0</ele><time>2026-04-26T12:36:09.915Z</time></trkpt><trkpt lat="43.32785900371382" lon="10.623091873126397"><ele>190.5</ele><time>2026-04-26T12:36:10.915Z</time></trkpt><trkpt lat="43.32774586464588" lon="10.623130191860872"><ele>195.0</ele><time>2026-04-26T12:36:11.915Z</time></trkpt><trkpt lat="43.3276594842341" lon="10.623152930784755"><ele>195.0</ele><time>2026-04-26T12:36:12.915Z</time></trkpt><trkpt lat="43.32759647405717" lon="10.623166289936767"><ele>195.0</ele><time>2026-04-26T12:36:13.915Z</time></trkpt><trkpt lat="43.32752082689919" lon="10.623187130997188"><ele>195.0</ele><time>2026-04-26T12:36:15.915Z</time></trkpt><trkpt lat="43.32744303754092" lon="10.623207717347938"><ele>195.0</ele><time>2026-04-26T12:36:19.915Z</time></trkpt><trkpt lat="43.32730067559148" lon="10.623174008087865"><ele>195.0</ele><time>2026-04-26T12:36:21.915Z</time></trkpt><trkpt lat="43.32721926184987" lon="10.62313933498896"><ele>198.0</ele><time>2026-04-26T12:36:22.915Z</time></trkpt><trkpt lat="43.32713690082261" lon="10.623110551350589"><ele>201.0</ele><time>2026-04-26T12:36:23.915Z</time></trkpt><trkpt lat="43.327053265406285" lon="10.623068206124934"><ele>204.0</ele><time>2026-04-26T12:36:24.915Z</time></trkpt><trkpt lat="43.326977664042246" lon="10.623029429931568"><ele>207.0</ele><time>2026-04-26T12:36:25.915Z</time></trkpt><trkpt lat="43.32690335845045" lon="10.623005073663435"><ele>210.0</ele><time>2026-04-26T12:36:26.915Z</time></trkpt><trkpt lat="43.32683374362409" lon="10.62302167779179"><ele>213.0</ele><time>2026-04-26T12:36:27.915Z</time></trkpt><trkpt lat="43.3267625159071" lon="10.623060867845181"><ele>213.0</ele><time>2026-04-26T12:36:28.915Z</time></trkpt><trkpt lat="43.326693431736416" lon="10.62312500437462"><ele>213.0</ele><time>2026-04-26T12:36:29.915Z</time></trkpt><trkpt lat="43.32662353286581" lon="10.623196650367401"><ele>213.0</ele><time>2026-04-26T12:36:30.915Z</time></trkpt><trkpt lat="43.32655943258024" lon="10.623248132784093"><ele>213.0</ele><time>2026-04-26T12:36:31.915Z</time></trkpt><trkpt lat="43.32648480519483" lon="10.623305504510684"><ele>213.0</ele><time>2026-04-26T12:36:33.915Z</time></trkpt><trkpt lat="43.326404993213046" lon="10.62326415440915"><ele>213.0</ele><time>2026-04-26T12:36:36.915Z</time></trkpt><trkpt lat="43.32632934708069" lon="10.62329371790337"><ele>213.0</ele><time>2026-04-26T12:36:39.915Z</time></trkpt><trkpt lat="43.326395592940464" lon="10.623295642867184"><ele>213.0</ele><time>2026-04-26T12:36:46.915Z</time></trkpt><trkpt lat="43.326427066137796" lon="10.62318506284371"><ele>213.0</ele><time>2026-04-26T12:36:47.915Z</time></trkpt><trkpt lat="43.32644923168689" lon="10.62303404319561"><ele>213.0</ele><time>2026-04-26T12:36:48.915Z</time></trkpt><trkpt lat="43.326470869241454" lon="10.622880584833648"><ele>213.0</ele><time>2026-04-26T12:36:49.915Z</time></trkpt><trkpt lat="43.326492864506335" lon="10.62273663291462"><ele>212.0</ele><time>2026-04-26T12:36:50.915Z</time></trkpt><trkpt lat="43.32651441198015" lon="10.622603394735387"><ele>211.0</ele><time>2026-04-26T12:36:51.915Z</time></trkpt><trkpt lat="43.3265375619272" lon="10.622481973779735"><ele>210.0</ele><time>2026-04-26T12:36:52.915Z</time></trkpt><trkpt lat="43.32655980993926" lon="10.622367747898018"><ele>209.0</ele><time>2026-04-26T12:36:53.915Z</time></trkpt><trkpt lat="43.32658346716767" lon="10.622263580893785"><ele>208.0</ele><time>2026-04-26T12:36:54.915Z</time></trkpt><trkpt lat="43.326602288399314" lon="10.622166201296627"><ele>207.0</ele><time>2026-04-26T12:36:55.915Z</time></trkpt><trkpt lat="43.32662110722116" lon="10.622076036236644"><ele>206.2</ele><time>2026-04-26T12:36:56.915Z</time></trkpt><trkpt lat="43.3266546827699" lon="10.621928080482531"><ele>205.39999999999998</ele><time>2026-04-26T12:36:58.915Z</time></trkpt><trkpt lat="43.326684422305185" lon="10.621756114139245"><ele>204.60000000000002</ele><time>2026-04-26T12:37:00.915Z</time></trkpt><trkpt lat="43.326704828942816" lon="10.621667828990699"><ele>203.8</ele><time>2026-04-26T12:37:01.915Z</time></trkpt><trkpt lat="43.32674282990922" lon="10.621549646862837"><ele>203.0</ele><time>2026-04-26T12:37:03.915Z</time></trkpt><trkpt lat="43.32677939019908" lon="10.62146365407784"><ele>203.0</ele><time>2026-04-26T12:37:46.913Z</time></trkpt><trkpt lat="43.32673384896766" lon="10.621602336646243"><ele>203.0</ele><time>2026-04-26T12:37:55.913Z</time></trkpt><trkpt lat="43.32670018486231" lon="10.621734765595164"><ele>203.0</ele><time>2026-04-26T12:37:56.913Z</time></trkpt><trkpt lat="43.3266453676483" lon="10.621887927678136"><ele>203.0</ele><time>2026-04-26T12:37:57.913Z</time></trkpt><trkpt lat="43.32663889673682" lon="10.622010249238755"><ele>203.0</ele><time>2026-04-26T12:37:58.913Z</time></trkpt><trkpt lat="43.32661117326518" lon="10.62211785988513"><ele>203.57142857142858</ele><time>2026-04-26T12:37:59.913Z</time></trkpt><trkpt lat="43.32658730376905" lon="10.622223418390465"><ele>204.14285714285714</ele><time>2026-04-26T12:38:00.913Z</time></trkpt><trkpt lat="43.32656302661953" lon="10.62232411064252"><ele>204.71428571428572</ele><time>2026-04-26T12:38:01.913Z</time></trkpt><trkpt lat="43.326540761815956" lon="10.622427322298694"><ele>205.28571428571428</ele><time>2026-04-26T12:38:02.913Z</time></trkpt><trkpt lat="43.326528309326534" lon="10.622527686909432"><ele>205.85714285714286</ele><time>2026-04-26T12:38:03.913Z</time></trkpt><trkpt lat="43.326517501258714" lon="10.6226241631772"><ele>206.42857142857144</ele><time>2026-04-26T12:38:04.913Z</time></trkpt><trkpt lat="43.326506147850715" lon="10.622715347848784"><ele>207.0</ele><time>2026-04-26T12:38:05.913Z</time></trkpt><trkpt lat="43.32648116979884" lon="10.622879355583551"><ele>206.66666666666666</ele><time>2026-04-26T12:38:07.914Z</time></trkpt><trkpt lat="43.326460105476436" lon="10.622991348843588"><ele>206.33333333333331</ele><time>2026-04-26T12:38:09.914Z</time></trkpt><trkpt lat="43.326442500588435" lon="10.623147111413658"><ele>206.0</ele><time>2026-04-26T12:38:12.914Z</time></trkpt><trkpt lat="43.326390101670334" lon="10.623248074894805"><ele>205.66666666666666</ele><time>2026-04-26T12:38:14.914Z</time></trkpt><trkpt lat="43.32634082463575" lon="10.62330716146415"><ele>205.33333333333331</ele><time>2026-04-26T12:38:15.914Z</time></trkpt><trkpt lat="43.32630121661111" lon="10.623390499285806"><ele>205.0</ele><time>2026-04-26T12:38:16.914Z</time></trkpt><trkpt lat="43.326258110085945" lon="10.623489637311062"><ele>204.99999999999997</ele><time>2026-04-26T12:38:17.914Z</time></trkpt><trkpt lat="43.3262051690448" lon="10.623584908760323"><ele>205.0</ele><time>2026-04-26T12:38:18.914Z</time></trkpt><trkpt lat="43.326158819045816" lon="10.623678753821798"><ele>205.0</ele><time>2026-04-26T12:38:19.914Z</time></trkpt><trkpt lat="43.32611799703563" lon="10.623778818066551"><ele>205.0</ele><time>2026-04-26T12:38:20.914Z</time></trkpt><trkpt lat="43.32608010230521" lon="10.62388487563145"><ele>204.99999999999997</ele><time>2026-04-26T12:38:21.914Z</time></trkpt><trkpt lat="43.3260421916626" lon="10.624009973633585"><ele>205.0</ele><time>2026-04-26T12:38:22.914Z</time></trkpt><trkpt lat="43.3260031034356" lon="10.624151539392479"><ele>207.0</ele><time>2026-04-26T12:38:23.914Z</time></trkpt><trkpt lat="43.32596039219584" lon="10.62425722874443"><ele>209.0</ele><time>2026-04-26T12:38:24.914Z</time></trkpt><trkpt lat="43.325916717054376" lon="10.624387289333674"><ele>211.0</ele><time>2026-04-26T12:38:26.914Z</time></trkpt><trkpt lat="43.32598113680695" lon="10.624569115841112"><ele>213.0</ele><time>2026-04-26T12:38:28.914Z</time></trkpt><trkpt lat="43.32600515795348" lon="10.624688215730526"><ele>215.0</ele><time>2026-04-26T12:38:29.914Z</time></trkpt><trkpt lat="43.32605988833122" lon="10.624807429255256"><ele>215.50000000000003</ele><time>2026-04-26T12:38:30.914Z</time></trkpt><trkpt lat="43.32609508478575" lon="10.624953042634314"><ele>216.0</ele><time>2026-04-26T12:38:31.914Z</time></trkpt><trkpt lat="43.32610334811061" lon="10.625076511175637"><ele>216.5</ele><time>2026-04-26T12:38:32.914Z</time></trkpt><trkpt lat="43.32612288757375" lon="10.625186387679266"><ele>217.0</ele><time>2026-04-26T12:38:33.914Z</time></trkpt><trkpt lat="43.326128041265385" lon="10.625283841725006"><ele>217.50000000000003</ele><time>2026-04-26T12:38:34.914Z</time></trkpt><trkpt lat="43.32611186376207" lon="10.625381550476257"><ele>218.0</ele><time>2026-04-26T12:38:35.914Z</time></trkpt><trkpt lat="43.3261124002151" lon="10.625487807160502"><ele>219.00000000000003</ele><time>2026-04-26T12:38:36.914Z</time></trkpt><trkpt lat="43.32609043204195" lon="10.625595940128424"><ele>220.0</ele><time>2026-04-26T12:38:37.914Z</time></trkpt><trkpt lat="43.32608325396542" lon="10.625702940783041"><ele>221.0</ele><time>2026-04-26T12:38:38.914Z</time></trkpt><trkpt lat="43.32608987627637" lon="10.625797921713431"><ele>222.0</ele><time>2026-04-26T12:38:39.914Z</time></trkpt><trkpt lat="43.32607924824682" lon="10.62589529851004"><ele>223.00000000000003</ele><time>2026-04-26T12:38:40.914Z</time></trkpt><trkpt lat="43.32607342876603" lon="10.625994978975834"><ele>224.0</ele><time>2026-04-26T12:38:41.914Z</time></trkpt><trkpt lat="43.326060647594026" lon="10.626102919208606"><ele>225.6</ele><time>2026-04-26T12:38:42.914Z</time></trkpt><trkpt lat="43.32606689130174" lon="10.626206143681754"><ele>227.2</ele><time>2026-04-26T12:38:43.914Z</time></trkpt><trkpt lat="43.32605705850244" lon="10.62634553476492"><ele>228.79999999999998</ele><time>2026-04-26T12:38:45.914Z</time></trkpt><trkpt lat="43.32605010412096" lon="10.626482349441531"><ele>230.39999999999998</ele><time>2026-04-26T12:38:48.914Z</time></trkpt><trkpt lat="43.3259200907372" lon="10.626565755219348"><ele>232.0</ele><time>2026-04-26T12:38:49.914Z</time></trkpt><trkpt lat="43.325866583690235" lon="10.626679461652332"><ele>232.0</ele><time>2026-04-26T12:38:50.914Z</time></trkpt><trkpt lat="43.325800577065706" lon="10.626825781546836"><ele>232.0</ele><time>2026-04-26T12:38:51.914Z</time></trkpt><trkpt lat="43.32572246335994" lon="10.62699893989279"><ele>232.0</ele><time>2026-04-26T12:38:52.914Z</time></trkpt><trkpt lat="43.32565155777515" lon="10.627156163648845"><ele>232.0</ele><time>2026-04-26T12:38:53.914Z</time></trkpt><trkpt lat="43.32558679220995" lon="10.627288830751521"><ele>230.2</ele><time>2026-04-26T12:38:54.914Z</time></trkpt><trkpt lat="43.325526234099605" lon="10.627404578506518"><ele>228.39999999999998</ele><time>2026-04-26T12:38:55.914Z</time></trkpt><trkpt lat="43.32547284435236" lon="10.627519652641563"><ele>226.60000000000002</ele><time>2026-04-26T12:38:56.914Z</time></trkpt><trkpt lat="43.32541824938324" lon="10.62761206479418"><ele>224.8</ele><time>2026-04-26T12:38:57.914Z</time></trkpt><trkpt lat="43.325351696156645" lon="10.627674556883106"><ele>223.0</ele><time>2026-04-26T12:38:58.914Z</time></trkpt><trkpt lat="43.32527219585322" lon="10.627715368436233"><ele>223.0</ele><time>2026-04-26T12:38:59.914Z</time></trkpt><trkpt lat="43.32518118194564" lon="10.627747504804102"><ele>223.0</ele><time>2026-04-26T12:39:00.914Z</time></trkpt><trkpt lat="43.32507925267369" lon="10.627774484269125"><ele>223.0</ele><time>2026-04-26T12:39:01.914Z</time></trkpt><trkpt lat="43.324975148754646" lon="10.627806400339082"><ele>223.0</ele><time>2026-04-26T12:39:02.914Z</time></trkpt><trkpt lat="43.324876537254035" lon="10.627838785867064"><ele>223.0</ele><time>2026-04-26T12:39:03.914Z</time></trkpt><trkpt lat="43.324783759318926" lon="10.627867855475559"><ele>221.2</ele><time>2026-04-26T12:39:04.914Z</time></trkpt><trkpt lat="43.32469929558795" lon="10.627899860342097"><ele>219.4</ele><time>2026-04-26T12:39:05.914Z</time></trkpt><trkpt lat="43.3246228802973" lon="10.627953105897447"><ele>217.59999999999997</ele><time>2026-04-26T12:39:06.914Z</time></trkpt><trkpt lat="43.324550302091495" lon="10.628030970363795"><ele>215.79999999999998</ele><time>2026-04-26T12:39:07.914Z</time></trkpt><trkpt lat="43.32449951105992" lon="10.628146656723619"><ele>214.0</ele><time>2026-04-26T12:39:08.914Z</time></trkpt><trkpt lat="43.32446417123624" lon="10.628281287676161"><ele>214.0</ele><time>2026-04-26T12:39:09.914Z</time></trkpt><trkpt lat="43.32441674560896" lon="10.628418671828278"><ele>213.99999999999997</ele><time>2026-04-26T12:39:10.914Z</time></trkpt><trkpt lat="43.324367324392995" lon="10.628552304936335"><ele>213.99999999999997</ele><time>2026-04-26T12:39:11.914Z</time></trkpt><trkpt lat="43.32431214463363" lon="10.628675833946904"><ele>214.0</ele><time>2026-04-26T12:39:12.914Z</time></trkpt><trkpt lat="43.32424339100117" lon="10.628784525912256"><ele>214.0</ele><time>2026-04-26T12:39:13.914Z</time></trkpt><trkpt lat="43.32417730978297" lon="10.628882147804463"><ele>215.49999999999997</ele><time>2026-04-26T12:39:14.914Z</time></trkpt><trkpt lat="43.32411837240908" lon="10.628980571480636"><ele>217.0</ele><time>2026-04-26T12:39:15.914Z</time></trkpt><trkpt lat="43.324067931176" lon="10.629079042057608"><ele>218.5</ele><time>2026-04-26T12:39:16.914Z</time></trkpt><trkpt lat="43.324030798375844" lon="10.629186463091427"><ele>220.0</ele><time>2026-04-26T12:39:17.914Z</time></trkpt><trkpt lat="43.32400831975489" lon="10.629292254133183"><ele>221.49999999999997</ele><time>2026-04-26T12:39:18.914Z</time></trkpt><trkpt lat="43.323989800609" lon="10.629398549745085"><ele>223.0</ele><time>2026-04-26T12:39:19.914Z</time></trkpt><trkpt lat="43.32398574249483" lon="10.629538676713095"><ele>224.60000000000002</ele><time>2026-04-26T12:39:20.914Z</time></trkpt><trkpt lat="43.32396039710946" lon="10.629676689541153"><ele>226.20000000000002</ele><time>2026-04-26T12:39:21.914Z</time></trkpt><trkpt lat="43.323894141610495" lon="10.6297685556461"><ele>227.8</ele><time>2026-04-26T12:39:22.914Z</time></trkpt><trkpt lat="43.323840759562415" lon="10.62985344108757"><ele>229.4</ele><time>2026-04-26T12:39:23.914Z</time></trkpt><trkpt lat="43.32378349147007" lon="10.629940089243128"><ele>231.0</ele><time>2026-04-26T12:39:24.914Z</time></trkpt><trkpt lat="43.32371008743736" lon="10.630043203144458"><ele>228.0</ele><time>2026-04-26T12:39:25.914Z</time></trkpt><trkpt lat="43.32364116105915" lon="10.630148984373555"><ele>225.00000000000003</ele><time>2026-04-26T12:39:26.914Z</time></trkpt><trkpt lat="43.32357498479333" lon="10.630252717765366"><ele>222.00000000000003</ele><time>2026-04-26T12:39:27.914Z</time></trkpt><trkpt lat="43.323507958512955" lon="10.630361607851212"><ele>219.0</ele><time>2026-04-26T12:39:28.914Z</time></trkpt><trkpt lat="43.32344352383573" lon="10.630465744164026"><ele>216.0</ele><time>2026-04-26T12:39:29.914Z</time></trkpt><trkpt lat="43.32338711120392" lon="10.630566581408855"><ele>216.0</ele><time>2026-04-26T12:39:30.914Z</time></trkpt><trkpt lat="43.32331508525531" lon="10.63065715593738"><ele>216.0</ele><time>2026-04-26T12:39:31.914Z</time></trkpt><trkpt lat="43.323270062450035" lon="10.63075673876549"><ele>216.0</ele><time>2026-04-26T12:39:32.914Z</time></trkpt><trkpt lat="43.32322970581779" lon="10.63085495655844"><ele>216.0</ele><time>2026-04-26T12:39:33.914Z</time></trkpt><trkpt lat="43.32319108084689" lon="10.630944982321342"><ele>216.0</ele><time>2026-04-26T12:39:34.914Z</time></trkpt><trkpt lat="43.32315489668462" lon="10.63102965250479"><ele>216.0</ele><time>2026-04-26T12:39:35.914Z</time></trkpt><trkpt lat="43.323120566695124" lon="10.631113752347503"><ele>217.60000000000002</ele><time>2026-04-26T12:39:36.914Z</time></trkpt><trkpt lat="43.32308489809422" lon="10.631191999574886"><ele>219.20000000000002</ele><time>2026-04-26T12:39:37.914Z</time></trkpt><trkpt lat="43.32301005984592" lon="10.631321784883125"><ele>220.79999999999998</ele><time>2026-04-26T12:39:39.914Z</time></trkpt><trkpt lat="43.322928567338856" lon="10.631431436829159"><ele>222.39999999999998</ele><time>2026-04-26T12:39:41.914Z</time></trkpt><trkpt lat="43.3228342521526" lon="10.63152935504775"><ele>224.0</ele><time>2026-04-26T12:39:43.914Z</time></trkpt><trkpt lat="43.32274230191787" lon="10.631576142706082"><ele>221.83333333333334</ele><time>2026-04-26T12:39:45.914Z</time></trkpt><trkpt lat="43.32266170161956" lon="10.631542616744346"><ele>219.66666666666669</ele><time>2026-04-26T12:39:47.912Z</time></trkpt><trkpt lat="43.32259794377919" lon="10.631583608989438"><ele>217.5</ele><time>2026-04-26T12:39:49.911Z</time></trkpt><trkpt lat="43.32254736975839" lon="10.631646275587055"><ele>215.33333333333331</ele><time>2026-04-26T12:39:50.911Z</time></trkpt><trkpt lat="43.322502187209054" lon="10.631756504341919"><ele>213.16666666666666</ele><time>2026-04-26T12:39:51.912Z</time></trkpt><trkpt lat="43.322457283910076" lon="10.631894172797503"><ele>211.0</ele><time>2026-04-26T12:39:52.912Z</time></trkpt><trkpt lat="43.32239408433536" lon="10.632042975278075"><ele>210.99999999999997</ele><time>2026-04-26T12:39:53.912Z</time></trkpt><trkpt lat="43.322328159431784" lon="10.632164477137836"><ele>211.0</ele><time>2026-04-26T12:39:54.911Z</time></trkpt><trkpt lat="43.32226512832381" lon="10.632246233655883"><ele>211.0</ele><time>2026-04-26T12:39:55.911Z</time></trkpt><trkpt lat="43.32220169502152" lon="10.632293891385958"><ele>211.0</ele><time>2026-04-26T12:39:56.912Z</time></trkpt><trkpt lat="43.32212338298323" lon="10.632289344733922"><ele>210.99999999999997</ele><time>2026-04-26T12:39:57.912Z</time></trkpt><trkpt lat="43.32203737577511" lon="10.63229790567325"><ele>211.0</ele><time>2026-04-26T12:39:58.912Z</time></trkpt><trkpt lat="43.32194968081034" lon="10.63228328417309"><ele>209.60000000000002</ele><time>2026-04-26T12:39:59.912Z</time></trkpt><trkpt lat="43.32186517085584" lon="10.632253430360674"><ele>208.2</ele><time>2026-04-26T12:40:00.911Z</time></trkpt><trkpt lat="43.321792026704394" lon="10.632204284391408"><ele>206.8</ele><time>2026-04-26T12:40:01.911Z</time></trkpt><trkpt lat="43.32172425506374" lon="10.632137395711396"><ele>205.39999999999998</ele><time>2026-04-26T12:40:02.911Z</time></trkpt><trkpt lat="43.3216436874569" lon="10.632053959078863"><ele>204.0</ele><time>2026-04-26T12:40:03.911Z</time></trkpt><trkpt lat="43.32160460478639" lon="10.631929779762023"><ele>204.0</ele><time>2026-04-26T12:40:04.911Z</time></trkpt><trkpt lat="43.32158089912334" lon="10.631789522615904"><ele>204.0</ele><time>2026-04-26T12:40:05.911Z</time></trkpt><trkpt lat="43.32159305763393" lon="10.631642491499727"><ele>204.0</ele><time>2026-04-26T12:40:06.911Z</time></trkpt><trkpt lat="43.32160099779181" lon="10.631473753356284"><ele>204.0</ele><time>2026-04-26T12:40:07.911Z</time></trkpt><trkpt lat="43.321616292744416" lon="10.631282499997923"><ele>205.0</ele><time>2026-04-26T12:40:08.911Z</time></trkpt><trkpt lat="43.32163213510689" lon="10.631074694679663"><ele>206.0</ele><time>2026-04-26T12:40:09.911Z</time></trkpt><trkpt lat="43.32164846079555" lon="10.630871574258704"><ele>207.0</ele><time>2026-04-26T12:40:10.911Z</time></trkpt><trkpt lat="43.3216650120209" lon="10.630677539709511"><ele>208.0</ele><time>2026-04-26T12:40:11.911Z</time></trkpt><trkpt lat="43.32168288033257" lon="10.63049126766979"><ele>208.0</ele><time>2026-04-26T12:40:12.911Z</time></trkpt><trkpt lat="43.32170167414946" lon="10.630318870618177"><ele>208.0</ele><time>2026-04-26T12:40:13.911Z</time></trkpt><trkpt lat="43.32171481591941" lon="10.630159585421438"><ele>208.0</ele><time>2026-04-26T12:40:14.911Z</time></trkpt><trkpt lat="43.32171751698248" lon="10.630018472246784"><ele>208.0</ele><time>2026-04-26T12:40:15.911Z</time></trkpt><trkpt lat="43.32172198618195" lon="10.629880973155299"><ele>208.0</ele><time>2026-04-26T12:40:16.911Z</time></trkpt><trkpt lat="43.321720292055616" lon="10.629732067156022"><ele>209.0</ele><time>2026-04-26T12:40:17.911Z</time></trkpt><trkpt lat="43.32170553329107" lon="10.629574554100389"><ele>210.0</ele><time>2026-04-26T12:40:18.911Z</time></trkpt><trkpt lat="43.32166863031111" lon="10.629410283431515"><ele>211.0</ele><time>2026-04-26T12:40:19.911Z</time></trkpt><trkpt lat="43.32161045436358" lon="10.629252203390656"><ele>212.0</ele><time>2026-04-26T12:40:20.911Z</time></trkpt><trkpt lat="43.32154079177398" lon="10.629097907191241"><ele>212.5</ele><time>2026-04-26T12:40:21.911Z</time></trkpt><trkpt lat="43.32145225009178" lon="10.628957346712488"><ele>213.0</ele><time>2026-04-26T12:40:22.911Z</time></trkpt><trkpt lat="43.321356315769464" lon="10.628823343561107"><ele>213.5</ele><time>2026-04-26T12:40:23.911Z</time></trkpt><trkpt lat="43.3212653783616" lon="10.628686052102164"><ele>214.0</ele><time>2026-04-26T12:40:24.911Z</time></trkpt><trkpt lat="43.32116816880108" lon="10.628550966988463"><ele>216.75</ele><time>2026-04-26T12:40:25.911Z</time></trkpt><trkpt lat="43.32107340347615" lon="10.628415536280503"><ele>219.5</ele><time>2026-04-26T12:40:26.911Z</time></trkpt><trkpt lat="43.32097860714542" lon="10.628286271710547"><ele>222.25</ele><time>2026-04-26T12:40:27.911Z</time></trkpt><trkpt lat="43.3209085374383" lon="10.628143483715304"><ele>225.0</ele><time>2026-04-26T12:40:28.911Z</time></trkpt><trkpt lat="43.32081912632588" lon="10.628018696005942"><ele>225.0</ele><time>2026-04-26T12:40:29.911Z</time></trkpt><trkpt lat="43.32073405322188" lon="10.62789942243088"><ele>225.0</ele><time>2026-04-26T12:40:30.911Z</time></trkpt><trkpt lat="43.32064987263267" lon="10.62778138491568"><ele>225.0</ele><time>2026-04-26T12:40:31.911Z</time></trkpt><trkpt lat="43.32056823478603" lon="10.62766509606955"><ele>225.0</ele><time>2026-04-26T12:40:32.911Z</time></trkpt><trkpt lat="43.320485540368246" lon="10.627549277120767"><ele>230.25</ele><time>2026-04-26T12:40:33.911Z</time></trkpt><trkpt lat="43.32040284678996" lon="10.627425109731675"><ele>235.5</ele><time>2026-04-26T12:40:34.911Z</time></trkpt><trkpt lat="43.32032257113855" lon="10.627297406813598"><ele>240.75</ele><time>2026-04-26T12:40:35.911Z</time></trkpt><trkpt lat="43.32024527223858" lon="10.627177877802112"><ele>246.0</ele><time>2026-04-26T12:40:36.911Z</time></trkpt><trkpt lat="43.32016689455604" lon="10.62704440736015"><ele>244.66666666666669</ele><time>2026-04-26T12:40:37.911Z</time></trkpt><trkpt lat="43.3201070790572" lon="10.626881987898274"><ele>243.33333333333334</ele><time>2026-04-26T12:40:38.911Z</time></trkpt><trkpt lat="43.32005001565563" lon="10.626682685748554"><ele>242.0</ele><time>2026-04-26T12:40:39.911Z</time></trkpt><trkpt lat="43.32001084926399" lon="10.626460207407039"><ele>242.0</ele><time>2026-04-26T12:40:40.911Z</time></trkpt><trkpt lat="43.3200037484946" lon="10.626224421120646"><ele>242.0</ele><time>2026-04-26T12:40:41.911Z</time></trkpt><trkpt lat="43.32002697650846" lon="10.626002548257365"><ele>242.0</ele><time>2026-04-26T12:40:42.911Z</time></trkpt><trkpt lat="43.32008222218491" lon="10.625799208147063"><ele>242.0</ele><time>2026-04-26T12:40:43.911Z</time></trkpt><trkpt lat="43.32010873634255" lon="10.625616863737143"><ele>242.0</ele><time>2026-04-26T12:40:44.911Z</time></trkpt><trkpt lat="43.32011767518458" lon="10.625437882963727"><ele>242.0</ele><time>2026-04-26T12:40:45.911Z</time></trkpt><trkpt lat="43.32009079067263" lon="10.625239442544233"><ele>242.0</ele><time>2026-04-26T12:40:46.911Z</time></trkpt><trkpt lat="43.320030164690415" lon="10.62505191952302"><ele>242.0</ele><time>2026-04-26T12:40:47.911Z</time></trkpt><trkpt lat="43.31993022783771" lon="10.624907521624916"><ele>242.0</ele><time>2026-04-26T12:40:48.911Z</time></trkpt><trkpt lat="43.31979792746802" lon="10.624793320101805"><ele>242.0</ele><time>2026-04-26T12:40:49.911Z</time></trkpt><trkpt lat="43.3196333173333" lon="10.624740721936437"><ele>244.0</ele><time>2026-04-26T12:40:50.911Z</time></trkpt><trkpt lat="43.31947633502147" lon="10.624731394804824"><ele>246.0</ele><time>2026-04-26T12:40:51.911Z</time></trkpt><trkpt lat="43.319343174539036" lon="10.624769928102367"><ele>248.0</ele><time>2026-04-26T12:40:52.911Z</time></trkpt><trkpt lat="43.31921749441765" lon="10.624837654066114"><ele>250.0</ele><time>2026-04-26T12:40:53.911Z</time></trkpt><trkpt lat="43.31911729093888" lon="10.625001688852864"><ele>250.0</ele><time>2026-04-26T12:40:54.911Z</time></trkpt><trkpt lat="43.31902054218606" lon="10.625199463860776"><ele>250.0</ele><time>2026-04-26T12:40:55.911Z</time></trkpt><trkpt lat="43.318958441211365" lon="10.625432358093537"><ele>250.0</ele><time>2026-04-26T12:40:56.911Z</time></trkpt><trkpt lat="43.31891324635763" lon="10.625652604506277"><ele>249.75</ele><time>2026-04-26T12:40:57.911Z</time></trkpt><trkpt lat="43.318872497285604" lon="10.625841882251539"><ele>249.5</ele><time>2026-04-26T12:40:58.911Z</time></trkpt><trkpt lat="43.318816804504365" lon="10.62600895462062"><ele>249.25</ele><time>2026-04-26T12:40:59.911Z</time></trkpt><trkpt lat="43.31872385342001" lon="10.626134662815321"><ele>249.0</ele><time>2026-04-26T12:41:00.911Z</time></trkpt><trkpt lat="43.318630133560475" lon="10.626240444608955"><ele>251.5</ele><time>2026-04-26T12:41:01.911Z</time></trkpt><trkpt lat="43.31852069360862" lon="10.626316398736549"><ele>254.0</ele><time>2026-04-26T12:41:02.911Z</time></trkpt><trkpt lat="43.318389298061525" lon="10.626386526012796"><ele>256.5</ele><time>2026-04-26T12:41:03.911Z</time></trkpt><trkpt lat="43.3182694101394" lon="10.626464330337281"><ele>259.0</ele><time>2026-04-26T12:41:04.911Z</time></trkpt><trkpt lat="43.31813670636218" lon="10.626518666658649"><ele>259.75</ele><time>2026-04-26T12:41:05.911Z</time></trkpt><trkpt lat="43.317991951100936" lon="10.626574569478343"><ele>260.5</ele><time>2026-04-26T12:41:06.911Z</time></trkpt><trkpt lat="43.31784828131893" lon="10.62663536111229"><ele>261.25</ele><time>2026-04-26T12:41:07.911Z</time></trkpt><trkpt lat="43.31771176367144" lon="10.626698088638854"><ele>262.0</ele><time>2026-04-26T12:41:08.911Z</time></trkpt><trkpt lat="43.31756946061114" lon="10.626760603289556"><ele>262.0</ele><time>2026-04-26T12:41:09.911Z</time></trkpt><trkpt lat="43.317454349726844" lon="10.626814505674677"><ele>262.0</ele><time>2026-04-26T12:41:10.911Z</time></trkpt><trkpt lat="43.31733567038567" lon="10.626864395056685"><ele>262.0</ele><time>2026-04-26T12:41:11.911Z</time></trkpt><trkpt lat="43.31720954716059" lon="10.626915369517247"><ele>262.0</ele><time>2026-04-26T12:41:12.911Z</time></trkpt><trkpt lat="43.317086989919176" lon="10.62696817046312"><ele>262.25</ele><time>2026-04-26T12:41:13.911Z</time></trkpt><trkpt lat="43.31696014662724" lon="10.627027250321303"><ele>262.5</ele><time>2026-04-26T12:41:14.911Z</time></trkpt><trkpt lat="43.316826872461576" lon="10.627091093609172"><ele>262.75</ele><time>2026-04-26T12:41:15.912Z</time></trkpt><trkpt lat="43.31669361621154" lon="10.627156267844233"><ele>263.0</ele><time>2026-04-26T12:41:16.912Z</time></trkpt><trkpt lat="43.316558422071616" lon="10.62722099167549"><ele>263.0</ele><time>2026-04-26T12:41:17.912Z</time></trkpt><trkpt lat="43.316439029192686" lon="10.627302252941503"><ele>263.0</ele><time>2026-04-26T12:41:18.912Z</time></trkpt><trkpt lat="43.316338834707345" lon="10.62738220617484"><ele>263.0</ele><time>2026-04-26T12:41:19.912Z</time></trkpt><trkpt lat="43.316249180407915" lon="10.627455765981718"><ele>263.0</ele><time>2026-04-26T12:41:20.912Z</time></trkpt><trkpt lat="43.3161702682302" lon="10.627513774626108"><ele>263.0</ele><time>2026-04-26T12:41:21.912Z</time></trkpt><trkpt lat="43.3160982838741" lon="10.627526655085306"><ele>262.5</ele><time>2026-04-26T12:41:22.912Z</time></trkpt><trkpt lat="43.315984983199186" lon="10.62741869646636"><ele>262.0</ele><time>2026-04-26T12:41:24.912Z</time></trkpt><trkpt lat="43.31593190177484" lon="10.627299355575223"><ele>261.5</ele><time>2026-04-26T12:41:25.912Z</time></trkpt><trkpt lat="43.31588774344787" lon="10.627140701359998"><ele>261.0</ele><time>2026-04-26T12:41:26.912Z</time></trkpt><trkpt lat="43.315839753649534" lon="10.62694838062885"><ele>260.5</ele><time>2026-04-26T12:41:27.912Z</time></trkpt><trkpt lat="43.31578448027583" lon="10.62673587002058"><ele>260.0</ele><time>2026-04-26T12:41:28.912Z</time></trkpt><trkpt lat="43.315720228094634" lon="10.626561921417212"><ele>259.5</ele><time>2026-04-26T12:41:29.912Z</time></trkpt><trkpt lat="43.315651074432516" lon="10.626409176960925"><ele>259.0</ele><time>2026-04-26T12:41:30.912Z</time></trkpt><trkpt lat="43.31559552670596" lon="10.626282720663113"><ele>256.5</ele><time>2026-04-26T12:41:31.912Z</time></trkpt><trkpt lat="43.31554639373925" lon="10.626154647247345"><ele>254.0</ele><time>2026-04-26T12:41:32.912Z</time></trkpt><trkpt lat="43.315508857999454" lon="10.626013126346662"><ele>251.5</ele><time>2026-04-26T12:41:33.912Z</time></trkpt><trkpt lat="43.315481956338886" lon="10.625846134119927"><ele>249.0</ele><time>2026-04-26T12:41:34.912Z</time></trkpt><trkpt lat="43.315465894323246" lon="10.625647348820076"><ele>247.75</ele><time>2026-04-26T12:41:35.912Z</time></trkpt><trkpt lat="43.31545062552254" lon="10.625443056643192"><ele>246.5</ele><time>2026-04-26T12:41:36.912Z</time></trkpt><trkpt lat="43.31543816181503" lon="10.625246161443188"><ele>245.25</ele><time>2026-04-26T12:41:37.912Z</time></trkpt><trkpt lat="43.3154308292056" lon="10.625060217658334"><ele>244.0</ele><time>2026-04-26T12:41:38.912Z</time></trkpt><trkpt lat="43.31542404936051" lon="10.624882983509906"><ele>243.0</ele><time>2026-04-26T12:41:39.912Z</time></trkpt><trkpt lat="43.315405024153954" lon="10.624710318419154"><ele>242.0</ele><time>2026-04-26T12:41:40.912Z</time></trkpt><trkpt lat="43.31536371148064" lon="10.624549613503227"><ele>241.0</ele><time>2026-04-26T12:41:41.912Z</time></trkpt><trkpt lat="43.31531184908128" lon="10.624384964515297"><ele>240.0</ele><time>2026-04-26T12:41:42.912Z</time></trkpt><trkpt lat="43.315254379832645" lon="10.624213880552052"><ele>238.75</ele><time>2026-04-26T12:41:43.912Z</time></trkpt><trkpt lat="43.315190488903276" lon="10.624031363471676"><ele>237.5</ele><time>2026-04-26T12:41:44.912Z</time></trkpt><trkpt lat="43.31512579011548" lon="10.623857440026105"><ele>236.25</ele><time>2026-04-26T12:41:45.912Z</time></trkpt><trkpt lat="43.315068570882495" lon="10.623689549345984"><ele>235.0</ele><time>2026-04-26T12:41:46.912Z</time></trkpt><trkpt lat="43.31502009554138" lon="10.623525822855608"><ele>234.5</ele><time>2026-04-26T12:41:47.912Z</time></trkpt><trkpt lat="43.314977310880394" lon="10.623369643189342"><ele>234.0</ele><time>2026-04-26T12:41:48.912Z</time></trkpt><trkpt lat="43.3149519533094" lon="10.623202042644277"><ele>233.5</ele><time>2026-04-26T12:41:49.912Z</time></trkpt><trkpt lat="43.31494936894348" lon="10.62301924813889"><ele>233.0</ele><time>2026-04-26T12:41:50.912Z</time></trkpt><trkpt lat="43.314952064358216" lon="10.622834567782482"><ele>232.25</ele><time>2026-04-26T12:41:51.912Z</time></trkpt><trkpt lat="43.31494858819171" lon="10.622641672602805"><ele>231.5</ele><time>2026-04-26T12:41:52.912Z</time></trkpt><trkpt lat="43.31494050995843" lon="10.622444956708426"><ele>230.75</ele><time>2026-04-26T12:41:53.91Z</time></trkpt><trkpt lat="43.31494782117366" lon="10.622246742122238"><ele>230.0</ele><time>2026-04-26T12:41:54.91Z</time></trkpt><trkpt lat="43.314911221712215" lon="10.62205250840176"><ele>228.75</ele><time>2026-04-26T12:41:55.91Z</time></trkpt><trkpt lat="43.31487468209322" lon="10.621863122868325"><ele>227.5</ele><time>2026-04-26T12:41:56.91Z</time></trkpt><trkpt lat="43.314843148808684" lon="10.621688873750768"><ele>226.25</ele><time>2026-04-26T12:41:57.91Z</time></trkpt><trkpt lat="43.314816066163736" lon="10.621510316880425"><ele>225.0</ele><time>2026-04-26T12:41:58.91Z</time></trkpt><trkpt lat="43.31479576017546" lon="10.621310219853969"><ele>223.0</ele><time>2026-04-26T12:41:59.91Z</time></trkpt><trkpt lat="43.31478420684443" lon="10.621105603597247"><ele>221.0</ele><time>2026-04-26T12:42:00.91Z</time></trkpt><trkpt lat="43.314777557118006" lon="10.620899897588894"><ele>219.0</ele><time>2026-04-26T12:42:01.91Z</time></trkpt><trkpt lat="43.314760223550245" lon="10.620687673546417"><ele>216.66666666666669</ele><time>2026-04-26T12:42:02.91Z</time></trkpt><trkpt lat="43.31471696433134" lon="10.620482074009454"><ele>214.33333333333334</ele><time>2026-04-26T12:42:03.91Z</time></trkpt><trkpt lat="43.314654950659346" lon="10.620291877017477"><ele>212.0</ele><time>2026-04-26T12:42:04.91Z</time></trkpt><trkpt lat="43.314578300501324" lon="10.620099501904628"><ele>212.0</ele><time>2026-04-26T12:42:05.909Z</time></trkpt><trkpt lat="43.31449401115323" lon="10.619899645950944"><ele>212.0</ele><time>2026-04-26T12:42:06.909Z</time></trkpt><trkpt lat="43.31441457458516" lon="10.619700370633893"><ele>212.0</ele><time>2026-04-26T12:42:07.909Z</time></trkpt><trkpt lat="43.31434257459506" lon="10.619515453603263"><ele>213.25</ele><time>2026-04-26T12:42:08.909Z</time></trkpt><trkpt lat="43.3142867336197" lon="10.619335816620511"><ele>214.5</ele><time>2026-04-26T12:42:09.909Z</time></trkpt><trkpt lat="43.31424691181568" lon="10.619169046651464"><ele>215.75</ele><time>2026-04-26T12:42:10.909Z</time></trkpt><trkpt lat="43.31421651465867" lon="10.61901928754859"><ele>217.0</ele><time>2026-04-26T12:42:11.909Z</time></trkpt><trkpt lat="43.31418667704122" lon="10.618874019808375"><ele>216.99999999999997</ele><time>2026-04-26T12:42:12.909Z</time></trkpt><trkpt lat="43.314167033589065" lon="10.618735049147821"><ele>217.0</ele><time>2026-04-26T12:42:13.909Z</time></trkpt><trkpt lat="43.31415743005351" lon="10.618610656410935"><ele>217.0</ele><time>2026-04-26T12:42:14.909Z</time></trkpt><trkpt lat="43.31415557907096" lon="10.618505009475252"><ele>217.0</ele><time>2026-04-26T12:42:15.91Z</time></trkpt><trkpt lat="43.31414726255531" lon="10.618396081798045"><ele>216.99999999999997</ele><time>2026-04-26T12:42:16.91Z</time></trkpt><trkpt lat="43.314137851170635" lon="10.618262664827588"><ele>217.0</ele><time>2026-04-26T12:42:17.91Z</time></trkpt><trkpt lat="43.314126055335144" lon="10.618124461834155"><ele>217.16666666666666</ele><time>2026-04-26T12:42:18.91Z</time></trkpt><trkpt lat="43.31410993127809" lon="10.617991357524646"><ele>217.33333333333331</ele><time>2026-04-26T12:42:19.91Z</time></trkpt><trkpt lat="43.314092849493115" lon="10.617853529570652"><ele>217.5</ele><time>2026-04-26T12:42:20.91Z</time></trkpt><trkpt lat="43.31408130997144" lon="10.617724410324646"><ele>217.66666666666669</ele><time>2026-04-26T12:42:21.91Z</time></trkpt><trkpt lat="43.314066944889554" lon="10.6176179626694"><ele>217.83333333333334</ele><time>2026-04-26T12:42:22.91Z</time></trkpt><trkpt lat="43.31405277993423" lon="10.617530928149705"><ele>218.0</ele><time>2026-04-26T12:42:23.91Z</time></trkpt><trkpt lat="43.31403532483085" lon="10.617393458547776"><ele>217.5</ele><time>2026-04-26T12:42:25.91Z</time></trkpt><trkpt lat="43.31386884956684" lon="10.617348624979321"><ele>217.0</ele><time>2026-04-26T12:42:28.91Z</time></trkpt><trkpt lat="43.31375558539617" lon="10.617284686227567"><ele>216.5</ele><time>2026-04-26T12:42:30.91Z</time></trkpt><trkpt lat="43.313748390057235" lon="10.617190570824633"><ele>216.0</ele><time>2026-04-26T12:42:31.91Z</time></trkpt><trkpt lat="43.3137043108949" lon="10.61708188887478"><ele>216.0</ele><time>2026-04-26T12:42:33.91Z</time></trkpt><trkpt lat="43.313668928799125" lon="10.616995467876526"><ele>216.00000000000003</ele><time>2026-04-26T12:42:36.91Z</time></trkpt><trkpt lat="43.313625767855775" lon="10.616846233244095"><ele>216.00000000000003</ele><time>2026-04-26T12:42:38.91Z</time></trkpt><trkpt lat="43.31358446955214" lon="10.616684730947513"><ele>216.0</ele><time>2026-04-26T12:42:40.91Z</time></trkpt><trkpt lat="43.31354810705469" lon="10.61653323604462"><ele>216.0</ele><time>2026-04-26T12:42:42.91Z</time></trkpt><trkpt lat="43.313519163015954" lon="10.61641317582523"><ele>216.8</ele><time>2026-04-26T12:42:44.91Z</time></trkpt><trkpt lat="43.313485279889136" lon="10.616276846765263"><ele>217.60000000000002</ele><time>2026-04-26T12:42:46.91Z</time></trkpt><trkpt lat="43.31344266338046" lon="10.616158380961462"><ele>218.4</ele><time>2026-04-26T12:42:48.91Z</time></trkpt><trkpt lat="43.31342047926259" lon="10.616042937354802"><ele>219.2</ele><time>2026-04-26T12:42:50.91Z</time></trkpt><trkpt lat="43.313391404129405" lon="10.615917904043068"><ele>220.0</ele><time>2026-04-26T12:42:52.91Z</time></trkpt><trkpt lat="43.3133856048699" lon="10.615801120301134"><ele>220.0</ele><time>2026-04-26T12:42:54.91Z</time></trkpt><trkpt lat="43.31335676581985" lon="10.615676505530685"><ele>220.0</ele><time>2026-04-26T12:42:56.91Z</time></trkpt><trkpt lat="43.313307449353815" lon="10.615501407471404"><ele>220.0</ele><time>2026-04-26T12:42:58.91Z</time></trkpt><trkpt lat="43.313278030689226" lon="10.615398789318252"><ele>220.0</ele><time>2026-04-26T12:42:59.91Z</time></trkpt><trkpt lat="43.31324494973713" lon="10.615287814770912"><ele>220.0</ele><time>2026-04-26T12:43:00.91Z</time></trkpt><trkpt lat="43.31320428022607" lon="10.61517763489472"><ele>219.99999999999997</ele><time>2026-04-26T12:43:01.91Z</time></trkpt><trkpt lat="43.31316715891269" lon="10.615075323227446"><ele>220.0</ele><time>2026-04-26T12:43:02.91Z</time></trkpt><trkpt lat="43.31313308991865" lon="10.614973954580543"><ele>220.0</ele><time>2026-04-26T12:43:03.91Z</time></trkpt><trkpt lat="43.31310388011584" lon="10.614868549411295"><ele>220.0</ele><time>2026-04-26T12:43:04.91Z</time></trkpt><trkpt lat="43.31308034939982" lon="10.614780310659617"><ele>219.99999999999997</ele><time>2026-04-26T12:43:05.91Z</time></trkpt><trkpt lat="43.313048575464556" lon="10.614614677525905"><ele>220.0</ele><time>2026-04-26T12:43:07.91Z</time></trkpt><trkpt lat="43.313031369175015" lon="10.614527769134039"><ele>218.8</ele><time>2026-04-26T12:43:08.91Z</time></trkpt><trkpt lat="43.31300851085929" lon="10.614416743652793"><ele>217.6</ele><time>2026-04-26T12:43:09.91Z</time></trkpt><trkpt lat="43.31298092990745" lon="10.614283577877739"><ele>216.39999999999998</ele><time>2026-04-26T12:43:10.91Z</time></trkpt><trkpt lat="43.31295024560308" lon="10.61414032361931"><ele>215.2</ele><time>2026-04-26T12:43:11.91Z</time></trkpt><trkpt lat="43.31291673249676" lon="10.61399793682232"><ele>214.0</ele><time>2026-04-26T12:43:12.91Z</time></trkpt><trkpt lat="43.31287584330024" lon="10.613860895135232"><ele>214.0</ele><time>2026-04-26T12:43:13.91Z</time></trkpt><trkpt lat="43.31282911795224" lon="10.61373327602206"><ele>213.99999999999997</ele><time>2026-04-26T12:43:14.91Z</time></trkpt><trkpt lat="43.31276864840722" lon="10.61361157326712"><ele>213.99999999999997</ele><time>2026-04-26T12:43:15.91Z</time></trkpt><trkpt lat="43.31270646237842" lon="10.613495908448462"><ele>214.0</ele><time>2026-04-26T12:43:16.91Z</time></trkpt><trkpt lat="43.31265429755008" lon="10.613370361090237"><ele>214.0</ele><time>2026-04-26T12:43:17.91Z</time></trkpt><trkpt lat="43.31258819115677" lon="10.613276725455828"><ele>214.0</ele><time>2026-04-26T12:43:18.91Z</time></trkpt><trkpt lat="43.312511448282216" lon="10.61321338093676"><ele>213.99999999999997</ele><time>2026-04-26T12:43:19.91Z</time></trkpt><trkpt lat="43.312442778760726" lon="10.613135144323834"><ele>213.99999999999997</ele><time>2026-04-26T12:43:20.91Z</time></trkpt><trkpt lat="43.31237636864465" lon="10.613055858024065"><ele>214.0</ele><time>2026-04-26T12:43:21.91Z</time></trkpt><trkpt lat="43.31232373000854" lon="10.612952373954277"><ele>214.0</ele><time>2026-04-26T12:43:22.91Z</time></trkpt><trkpt lat="43.312259389742145" lon="10.612834946975129"><ele>211.25</ele><time>2026-04-26T12:43:23.91Z</time></trkpt><trkpt lat="43.312216881933175" lon="10.612696457110763"><ele>208.5</ele><time>2026-04-26T12:43:24.91Z</time></trkpt><trkpt lat="43.31218621695852" lon="10.612528776741724"><ele>205.75</ele><time>2026-04-26T12:43:25.91Z</time></trkpt><trkpt lat="43.312151998764044" lon="10.612303676151544"><ele>203.0</ele><time>2026-04-26T12:43:26.91Z</time></trkpt><trkpt lat="43.31211482021037" lon="10.612093212991836"><ele>202.5</ele><time>2026-04-26T12:43:27.91Z</time></trkpt><trkpt lat="43.31207895608301" lon="10.611909795772593"><ele>202.0</ele><time>2026-04-26T12:43:28.91Z</time></trkpt><trkpt lat="43.31204303976616" lon="10.611738689335452"><ele>201.5</ele><time>2026-04-26T12:43:29.91Z</time></trkpt><trkpt lat="43.31200136722264" lon="10.611575300897535"><ele>201.0</ele><time>2026-04-26T12:43:30.91Z</time></trkpt><trkpt lat="43.31195973419074" lon="10.611427433592324"><ele>201.0</ele><time>2026-04-26T12:43:31.91Z</time></trkpt><trkpt lat="43.311917799322714" lon="10.611286228221504"><ele>201.0</ele><time>2026-04-26T12:43:32.91Z</time></trkpt><trkpt lat="43.31188405114754" lon="10.611150771606175"><ele>201.0</ele><time>2026-04-26T12:43:33.91Z</time></trkpt><trkpt lat="43.311857166618445" lon="10.61101940888292"><ele>201.0</ele><time>2026-04-26T12:43:34.91Z</time></trkpt><trkpt lat="43.31183247658613" lon="10.610872356766563"><ele>201.0</ele><time>2026-04-26T12:43:35.91Z</time></trkpt><trkpt lat="43.31181074820717" lon="10.610724192628224"><ele>200.8</ele><time>2026-04-26T12:43:36.91Z</time></trkpt><trkpt lat="43.3117949390693" lon="10.610588211531782"><ele>200.60000000000002</ele><time>2026-04-26T12:43:37.91Z</time></trkpt><trkpt lat="43.31178685112248" lon="10.610456574115119"><ele>200.4</ele><time>2026-04-26T12:43:38.91Z</time></trkpt><trkpt lat="43.31178612936446" lon="10.610330477617497"><ele>200.2</ele><time>2026-04-26T12:43:39.91Z</time></trkpt><trkpt lat="43.31180034788003" lon="10.610201191936781"><ele>200.0</ele><time>2026-04-26T12:43:40.91Z</time></trkpt><trkpt lat="43.31182206289836" lon="10.610061697624063"><ele>199.6</ele><time>2026-04-26T12:43:41.91Z</time></trkpt><trkpt lat="43.311841909447026" lon="10.609926528611615"><ele>199.2</ele><time>2026-04-26T12:43:42.91Z</time></trkpt><trkpt lat="43.311840021421666" lon="10.609795448636827"><ele>198.8</ele><time>2026-04-26T12:43:43.91Z</time></trkpt><trkpt lat="43.311813584934235" lon="10.609670988976244"><ele>198.4</ele><time>2026-04-26T12:43:44.91Z</time></trkpt><trkpt lat="43.31176564824507" lon="10.609556047884945"><ele>198.0</ele><time>2026-04-26T12:43:45.91Z</time></trkpt><trkpt lat="43.31171519050543" lon="10.609435968799364"><ele>197.33333333333334</ele><time>2026-04-26T12:43:46.91Z</time></trkpt><trkpt lat="43.31167590618915" lon="10.609319682141429"><ele>196.66666666666669</ele><time>2026-04-26T12:43:47.91Z</time></trkpt><trkpt lat="43.311677241308495" lon="10.609203074715975"><ele>196.0</ele><time>2026-04-26T12:43:48.91Z</time></trkpt><trkpt lat="43.311692661658505" lon="10.609106043177754"><ele>195.33333333333334</ele><time>2026-04-26T12:43:49.91Z</time></trkpt><trkpt lat="43.31171815961884" lon="10.608986929595304"><ele>194.66666666666669</ele><time>2026-04-26T12:43:50.91Z</time></trkpt><trkpt lat="43.311739784849195" lon="10.60886524493626"><ele>194.0</ele><time>2026-04-26T12:43:51.91Z</time></trkpt><trkpt lat="43.311745211809715" lon="10.60874182666987"><ele>193.66666666666669</ele><time>2026-04-26T12:43:52.91Z</time></trkpt><trkpt lat="43.311768384127014" lon="10.608634879642976"><ele>193.33333333333334</ele><time>2026-04-26T12:43:53.91Z</time></trkpt><trkpt lat="43.31178190033291" lon="10.608533300759456"><ele>193.0</ele><time>2026-04-26T12:43:54.91Z</time></trkpt><trkpt lat="43.3117877090233" lon="10.608427068247744"><ele>192.66666666666669</ele><time>2026-04-26T12:43:55.91Z</time></trkpt><trkpt lat="43.31180992014168" lon="10.608319931195547"><ele>192.33333333333334</ele><time>2026-04-26T12:43:56.91Z</time></trkpt><trkpt lat="43.3117929187198" lon="10.608214790917117"><ele>192.0</ele><time>2026-04-26T12:43:57.91Z</time></trkpt><trkpt lat="43.31178808570074" lon="10.608109325949396"><ele>192.0</ele><time>2026-04-26T12:43:58.91Z</time></trkpt><trkpt lat="43.31177147875632" lon="10.608008852955697"><ele>192.0</ele><time>2026-04-26T12:43:59.908Z</time></trkpt><trkpt lat="43.31175139031238" lon="10.607912225805181"><ele>192.0</ele><time>2026-04-26T12:44:00.908Z</time></trkpt><trkpt lat="43.311743192972415" lon="10.607825300866356"><ele>192.0</ele><time>2026-04-26T12:44:01.908Z</time></trkpt><trkpt lat="43.311772401474784" lon="10.607691712658612"><ele>192.0</ele><time>2026-04-26T12:44:03.908Z</time></trkpt><trkpt lat="43.31185256792882" lon="10.607614041992889"><ele>192.0</ele><time>2026-04-26T12:44:05.908Z</time></trkpt><trkpt lat="43.31193555625939" lon="10.607589016805536"><ele>191.0</ele><time>2026-04-26T12:44:06.908Z</time></trkpt><trkpt lat="43.31202293290999" lon="10.607503799575696"><ele>190.0</ele><time>2026-04-26T12:44:07.908Z</time></trkpt><trkpt lat="43.31212974256358" lon="10.607427048880766"><ele>189.0</ele><time>2026-04-26T12:44:08.908Z</time></trkpt><trkpt lat="43.31222328747008" lon="10.607342974363572"><ele>188.0</ele><time>2026-04-26T12:44:09.908Z</time></trkpt><trkpt lat="43.312299198032136" lon="10.607270431124716"><ele>187.0</ele><time>2026-04-26T12:44:10.908Z</time></trkpt><trkpt lat="43.31237474624327" lon="10.607216480947217"><ele>186.66666666666669</ele><time>2026-04-26T12:44:11.908Z</time></trkpt><trkpt lat="43.31245502257906" lon="10.607162524511395"><ele>186.33333333333334</ele><time>2026-04-26T12:44:12.908Z</time></trkpt><trkpt lat="43.3125373028574" lon="10.607122803138639"><ele>186.0</ele><time>2026-04-26T12:44:13.908Z</time></trkpt><trkpt lat="43.31262064987298" lon="10.60708732695573"><ele>185.66666666666666</ele><time>2026-04-26T12:44:14.908Z</time></trkpt><trkpt lat="43.312694307978106" lon="10.607029752870858"><ele>185.33333333333331</ele><time>2026-04-26T12:44:15.908Z</time></trkpt><trkpt lat="43.31274087101415" lon="10.606927094681017"><ele>185.0</ele><time>2026-04-26T12:44:16.908Z</time></trkpt><trkpt lat="43.31277026690175" lon="10.606822869949106"><ele>184.0</ele><time>2026-04-26T12:44:17.908Z</time></trkpt><trkpt lat="43.31277015930961" lon="10.606705766754095"><ele>183.0</ele><time>2026-04-26T12:44:18.908Z</time></trkpt><trkpt lat="43.31275192958142" lon="10.606568112579772"><ele>182.0</ele><time>2026-04-26T12:44:19.908Z</time></trkpt><trkpt lat="43.31272612767992" lon="10.606400900983294"><ele>181.0</ele><time>2026-04-26T12:44:20.908Z</time></trkpt><trkpt lat="43.31268082406812" lon="10.606194258304683"><ele>179.33333333333334</ele><time>2026-04-26T12:44:21.908Z</time></trkpt><trkpt lat="43.312627920037684" lon="10.60596316364876"><ele>177.66666666666666</ele><time>2026-04-26T12:44:22.908Z</time></trkpt><trkpt lat="43.31256649877108" lon="10.605728937231738"><ele>176.0</ele><time>2026-04-26T12:44:23.908Z</time></trkpt><trkpt lat="43.312521791882304" lon="10.605521594776643"><ele>176.0</ele><time>2026-04-26T12:44:24.908Z</time></trkpt><trkpt lat="43.312478379667915" lon="10.605329390523135"><ele>176.0</ele><time>2026-04-26T12:44:25.908Z</time></trkpt><trkpt lat="43.312440175422694" lon="10.605154217974434"><ele>176.0</ele><time>2026-04-26T12:44:26.908Z</time></trkpt><trkpt lat="43.31240326784495" lon="10.604988910534946"><ele>176.0</ele><time>2026-04-26T12:44:27.908Z</time></trkpt><trkpt lat="43.3123843475369" lon="10.604824338264011"><ele>175.0</ele><time>2026-04-26T12:44:28.908Z</time></trkpt><trkpt lat="43.31233793096399" lon="10.60465898652041"><ele>174.0</ele><time>2026-04-26T12:44:29.908Z</time></trkpt><trkpt lat="43.31228879026153" lon="10.60448601473902"><ele>173.0</ele><time>2026-04-26T12:44:30.908Z</time></trkpt><trkpt lat="43.312243516551625" lon="10.604313170094644"><ele>172.0</ele><time>2026-04-26T12:44:31.908Z</time></trkpt><trkpt lat="43.31220311769033" lon="10.604156159899285"><ele>170.5</ele><time>2026-04-26T12:44:32.908Z</time></trkpt><trkpt lat="43.31216676925091" lon="10.604019916036371"><ele>169.0</ele><time>2026-04-26T12:44:33.908Z</time></trkpt><trkpt lat="43.3121395769975" lon="10.603899475648776"><ele>167.5</ele><time>2026-04-26T12:44:34.908Z</time></trkpt><trkpt lat="43.3121227382035" lon="10.603791899123792"><ele>166.0</ele><time>2026-04-26T12:44:35.908Z</time></trkpt><trkpt lat="43.31211662409495" lon="10.603692079149758"><ele>164.5</ele><time>2026-04-26T12:44:36.908Z</time></trkpt><trkpt lat="43.31211911178775" lon="10.603604930566659"><ele>163.0</ele><time>2026-04-26T12:44:37.908Z</time></trkpt><trkpt lat="43.31215730429821" lon="10.603471341023244"><ele>162.8</ele><time>2026-04-26T12:44:39.908Z</time></trkpt><trkpt lat="43.31223661143152" lon="10.603358228161932"><ele>162.60000000000002</ele><time>2026-04-26T12:44:41.908Z</time></trkpt><trkpt lat="43.31228178859167" lon="10.60328649475148"><ele>162.39999999999998</ele><time>2026-04-26T12:44:42.908Z</time></trkpt><trkpt lat="43.31230984244935" lon="10.60311477350901"><ele>162.2</ele><time>2026-04-26T12:44:44.908Z</time></trkpt><trkpt lat="43.31229163977691" lon="10.602969061031809"><ele>162.0</ele><time>2026-04-26T12:44:45.908Z</time></trkpt><trkpt lat="43.31227261274984" lon="10.602806662191243"><ele>161.33333333333334</ele><time>2026-04-26T12:44:46.908Z</time></trkpt><trkpt lat="43.31226404163628" lon="10.602664393184599"><ele>160.66666666666666</ele><time>2026-04-26T12:44:47.908Z</time></trkpt><trkpt lat="43.31226345422529" lon="10.602540529327722"><ele>160.0</ele><time>2026-04-26T12:44:48.908Z</time></trkpt><trkpt lat="43.312261928506146" lon="10.602420107703256"><ele>159.33333333333331</ele><time>2026-04-26T12:44:49.908Z</time></trkpt><trkpt lat="43.312275656293906" lon="10.602306709382395"><ele>158.66666666666666</ele><time>2026-04-26T12:44:50.908Z</time></trkpt><trkpt lat="43.31226461532308" lon="10.602201814019548"><ele>158.0</ele><time>2026-04-26T12:44:51.908Z</time></trkpt><trkpt lat="43.31225404516836" lon="10.602106973163687"><ele>158.00000000000003</ele><time>2026-04-26T12:44:52.908Z</time></trkpt><trkpt lat="43.31224226895877" lon="10.602019938551846"><ele>158.0</ele><time>2026-04-26T12:44:53.908Z</time></trkpt><trkpt lat="43.31222590241843" lon="10.601929615865705"><ele>158.0</ele><time>2026-04-26T12:44:54.908Z</time></trkpt><trkpt lat="43.31218993029596" lon="10.601851202864998"><ele>158.0</ele><time>2026-04-26T12:44:55.908Z</time></trkpt><trkpt lat="43.31211174939354" lon="10.601806520560253"><ele>158.0</ele><time>2026-04-26T12:44:56.908Z</time></trkpt><trkpt lat="43.312035515536174" lon="10.601785879625552"><ele>158.00000000000003</ele><time>2026-04-26T12:44:57.908Z</time></trkpt><trkpt lat="43.31195156095252" lon="10.601767322950192"><ele>158.0</ele><time>2026-04-26T12:44:58.908Z</time></trkpt><trkpt lat="43.311844312931036" lon="10.601689159786298"><ele>156.0</ele><time>2026-04-26T12:45:00.908Z</time></trkpt><trkpt lat="43.31179445090463" lon="10.601572384019676"><ele>154.0</ele><time>2026-04-26T12:45:01.908Z</time></trkpt><trkpt lat="43.31174081223945" lon="10.601431009501141"><ele>152.0</ele><time>2026-04-26T12:45:02.908Z</time></trkpt><trkpt lat="43.31166310750986" lon="10.601276794798002"><ele>150.0</ele><time>2026-04-26T12:45:03.908Z</time></trkpt><trkpt lat="43.31156230853334" lon="10.601121118815644"><ele>148.8</ele><time>2026-04-26T12:45:04.908Z</time></trkpt><trkpt lat="43.311472612416416" lon="10.600984432538159"><ele>147.6</ele><time>2026-04-26T12:45:05.908Z</time></trkpt><trkpt lat="43.31139928946912" lon="10.600873070577428"><ele>146.4</ele><time>2026-04-26T12:45:06.908Z</time></trkpt><trkpt lat="43.311339108760144" lon="10.600768888888673"><ele>145.2</ele><time>2026-04-26T12:45:07.908Z</time></trkpt><trkpt lat="43.31129915740076" lon="10.60067277988785"><ele>144.0</ele><time>2026-04-26T12:45:08.908Z</time></trkpt><trkpt lat="43.31127632921021" lon="10.600574062578938"><ele>143.5</ele><time>2026-04-26T12:45:09.908Z</time></trkpt><trkpt lat="43.311260493662424" lon="10.600482213053384"><ele>143.0</ele><time>2026-04-26T12:45:10.908Z</time></trkpt><trkpt lat="43.31126607343637" lon="10.60038714726213"><ele>142.5</ele><time>2026-04-26T12:45:11.908Z</time></trkpt><trkpt lat="43.31132855145571" lon="10.600284673817931"><ele>142.0</ele><time>2026-04-26T12:45:12.908Z</time></trkpt><trkpt lat="43.31133083006856" lon="10.600193390806043"><ele>141.5</ele><time>2026-04-26T12:45:13.908Z</time></trkpt><trkpt lat="43.311317710367746" lon="10.600088861846059"><ele>141.0</ele><time>2026-04-26T12:45:14.908Z</time></trkpt><trkpt lat="43.31128494562743" lon="10.599994705192508"><ele>141.0</ele><time>2026-04-26T12:45:15.908Z</time></trkpt><trkpt lat="43.31123808283598" lon="10.599860208038159"><ele>141.0</ele><time>2026-04-26T12:45:16.908Z</time></trkpt><trkpt lat="43.31117543164173" lon="10.599702388690242"><ele>141.0</ele><time>2026-04-26T12:45:17.908Z</time></trkpt><trkpt lat="43.31112917025307" lon="10.599545042461193"><ele>141.0</ele><time>2026-04-26T12:45:18.908Z</time></trkpt><trkpt lat="43.31109287434249" lon="10.599405501831267"><ele>140.4</ele><time>2026-04-26T12:45:19.908Z</time></trkpt><trkpt lat="43.31106863412178" lon="10.59927431281132"><ele>139.8</ele><time>2026-04-26T12:45:20.908Z</time></trkpt><trkpt lat="43.31104016519611" lon="10.599130951429556"><ele>139.20000000000002</ele><time>2026-04-26T12:45:21.908Z</time></trkpt><trkpt lat="43.31101458551107" lon="10.59897574065002"><ele>138.6</ele><time>2026-04-26T12:45:22.908Z</time></trkpt><trkpt lat="43.31098908339258" lon="10.598811575295985"><ele>138.0</ele><time>2026-04-26T12:45:23.908Z</time></trkpt><trkpt lat="43.310950403345394" lon="10.598652162813723"><ele>138.0</ele><time>2026-04-26T12:45:24.908Z</time></trkpt><trkpt lat="43.31091066333205" lon="10.598504385525919"><ele>138.0</ele><time>2026-04-26T12:45:25.908Z</time></trkpt><trkpt lat="43.31087480577026" lon="10.598366139053672"><ele>138.0</ele><time>2026-04-26T12:45:26.908Z</time></trkpt><trkpt lat="43.31085080143231" lon="10.598228710559429"><ele>138.0</ele><time>2026-04-26T12:45:27.908Z</time></trkpt><trkpt lat="43.31083107022202" lon="10.598110357748025"><ele>138.0</ele><time>2026-04-26T12:45:28.908Z</time></trkpt><trkpt lat="43.31080941937334" lon="10.598021410665273"><ele>138.0</ele><time>2026-04-26T12:45:29.908Z</time></trkpt><trkpt lat="43.310769142460025" lon="10.59786299487918"><ele>138.0</ele><time>2026-04-26T12:45:31.908Z</time></trkpt><trkpt lat="43.31073976246851" lon="10.597680987570673"><ele>138.0</ele><time>2026-04-26T12:45:33.908Z</time></trkpt><trkpt lat="43.31073059140262" lon="10.597587563968576"><ele>138.0</ele><time>2026-04-26T12:45:34.908Z</time></trkpt><trkpt lat="43.31072357345936" lon="10.59749681304388"><ele>138.0</ele><time>2026-04-26T12:45:35.908Z</time></trkpt><trkpt lat="43.31068142422972" lon="10.597341565537526"><ele>138.33333333333334</ele><time>2026-04-26T12:45:37.908Z</time></trkpt><trkpt lat="43.310650164143446" lon="10.597261580824076"><ele>138.66666666666666</ele><time>2026-04-26T12:45:38.908Z</time></trkpt><trkpt lat="43.310596819790256" lon="10.597185294717649"><ele>139.0</ele><time>2026-04-26T12:45:39.908Z</time></trkpt><trkpt lat="43.3105442881629" lon="10.597086694205066"><ele>139.33333333333331</ele><time>2026-04-26T12:45:40.908Z</time></trkpt><trkpt lat="43.31047751566705" lon="10.59697004553828"><ele>139.66666666666666</ele><time>2026-04-26T12:45:41.908Z</time></trkpt><trkpt lat="43.31040381194711" lon="10.596868633840266"><ele>140.0</ele><time>2026-04-26T12:45:42.908Z</time></trkpt><trkpt lat="43.31033424312313" lon="10.596778707351428"><ele>139.0</ele><time>2026-04-26T12:45:43.908Z</time></trkpt><trkpt lat="43.3102687329385" lon="10.596697556418281"><ele>138.0</ele><time>2026-04-26T12:45:44.908Z</time></trkpt><trkpt lat="43.31019328557782" lon="10.59661693797771"><ele>137.0</ele><time>2026-04-26T12:45:45.908Z</time></trkpt><trkpt lat="43.31011746998656" lon="10.596548808183893"><ele>136.0</ele><time>2026-04-26T12:45:46.908Z</time></trkpt><trkpt lat="43.31005620317773" lon="10.596512968110646"><ele>135.0</ele><time>2026-04-26T12:45:47.908Z</time></trkpt><trkpt lat="43.30997147707694" lon="10.596472955821138"><ele>134.0</ele><time>2026-04-26T12:45:49.908Z</time></trkpt><trkpt lat="43.30994846517135" lon="10.596350261747807"><ele>134.0</ele><time>2026-04-26T12:45:51.908Z</time></trkpt><trkpt lat="43.30996151054994" lon="10.596207357969384"><ele>134.0</ele><time>2026-04-26T12:45:52.908Z</time></trkpt><trkpt lat="43.30994861556001" lon="10.596045793002155"><ele>134.0</ele><time>2026-04-26T12:45:53.908Z</time></trkpt><trkpt lat="43.30991754451769" lon="10.595866588986112"><ele>134.0</ele><time>2026-04-26T12:45:54.908Z</time></trkpt><trkpt lat="43.30987402607388" lon="10.595730871932572"><ele>133.2</ele><time>2026-04-26T12:45:55.908Z</time></trkpt><trkpt lat="43.30982240244506" lon="10.595609085362172"><ele>132.4</ele><time>2026-04-26T12:45:56.908Z</time></trkpt><trkpt lat="43.30975123445399" lon="10.595490479810625"><ele>131.6</ele><time>2026-04-26T12:45:57.908Z</time></trkpt><trkpt lat="43.30969150417607" lon="10.595386552359086"><ele>130.8</ele><time>2026-04-26T12:45:58.908Z</time></trkpt><trkpt lat="43.30962880654996" lon="10.595303741596343"><ele>130.0</ele><time>2026-04-26T12:45:59.908Z</time></trkpt><trkpt lat="43.309555534081575" lon="10.595252764891013"><ele>129.8</ele><time>2026-04-26T12:46:00.908Z</time></trkpt><trkpt lat="43.30947497026686" lon="10.59521477994338"><ele>129.6</ele><time>2026-04-26T12:46:01.908Z</time></trkpt><trkpt lat="43.30939494245748" lon="10.595105193243171"><ele>129.4</ele><time>2026-04-26T12:46:03.908Z</time></trkpt><trkpt lat="43.30933695525675" lon="10.594958797752996"><ele>129.2</ele><time>2026-04-26T12:46:05.907Z</time></trkpt><trkpt lat="43.30931332204898" lon="10.594853942203818"><ele>129.0</ele><time>2026-04-26T12:46:06.907Z</time></trkpt><trkpt lat="43.30926363133905" lon="10.594740150312445"><ele>129.0</ele><time>2026-04-26T12:46:07.907Z</time></trkpt><trkpt lat="43.309179074638365" lon="10.594608309846718"><ele>129.0</ele><time>2026-04-26T12:46:08.907Z</time></trkpt><trkpt lat="43.3090918449096" lon="10.594480631210354"><ele>129.0</ele><time>2026-04-26T12:46:09.907Z</time></trkpt><trkpt lat="43.30905526931393" lon="10.594352063301741"><ele>129.0</ele><time>2026-04-26T12:46:10.907Z</time></trkpt><trkpt lat="43.30903100943612" lon="10.594247819443874"><ele>129.0</ele><time>2026-04-26T12:46:11.907Z</time></trkpt><trkpt lat="43.30903936636173" lon="10.594150294918254"><ele>129.0</ele><time>2026-04-26T12:46:13.906Z</time></trkpt><trkpt lat="43.309006120344904" lon="10.59403975745791"><ele>129.0</ele><time>2026-04-26T12:46:16.907Z</time></trkpt><trkpt lat="43.308987187533155" lon="10.593949853167643"><ele>129.0</ele><time>2026-04-26T12:46:18.906Z</time></trkpt><trkpt lat="43.30912191037822" lon="10.593764023113042"><ele>129.0</ele><time>2026-04-26T12:46:20.906Z</time></trkpt><trkpt lat="43.30914295853323" lon="10.593635206460679"><ele>129.0</ele><time>2026-04-26T12:46:22.906Z</time></trkpt><trkpt lat="43.309152356018934" lon="10.593520037755786"><ele>129.0</ele><time>2026-04-26T12:46:24.906Z</time></trkpt><trkpt lat="43.30915270282858" lon="10.593430953311783"><ele>129.0</ele><time>2026-04-26T12:46:25.906Z</time></trkpt><trkpt lat="43.30916555335156" lon="10.593304735416229"><ele>129.0</ele><time>2026-04-26T12:46:26.906Z</time></trkpt><trkpt lat="43.309153999979834" lon="10.593195092136748"><ele>129.0</ele><time>2026-04-26T12:46:27.906Z</time></trkpt><trkpt lat="43.30913639309867" lon="10.593092345897285"><ele>129.0</ele><time>2026-04-26T12:46:28.906Z</time></trkpt><trkpt lat="43.30911666807512" lon="10.592992186818966"><ele>129.0</ele><time>2026-04-26T12:46:29.906Z</time></trkpt><trkpt lat="43.309103589059625" lon="10.592902213252339"><ele>129.4</ele><time>2026-04-26T12:46:30.906Z</time></trkpt><trkpt lat="43.30908269617007" lon="10.592739862750875"><ele>129.8</ele><time>2026-04-26T12:46:32.906Z</time></trkpt><trkpt lat="43.3090593166416" lon="10.592653936872109"><ele>130.2</ele><time>2026-04-26T12:46:40.906Z</time></trkpt><trkpt lat="43.30896405150841" lon="10.592582517728822"><ele>130.6</ele><time>2026-04-26T12:46:43.906Z</time></trkpt><trkpt lat="43.308973970141906" lon="10.592468037775802"><ele>131.0</ele><time>2026-04-26T12:46:46.906Z</time></trkpt><trkpt lat="43.308980482633494" lon="10.592366884278567"><ele>131.0</ele><time>2026-04-26T12:46:48.906Z</time></trkpt><trkpt lat="43.30897102801707" lon="10.592281039312072"><ele>131.0</ele><time>2026-04-26T12:46:52.906Z</time></trkpt><trkpt lat="43.30892010355754" lon="10.59218265650079"><ele>131.0</ele><time>2026-04-26T12:47:51.907Z</time></trkpt><trkpt lat="43.308924161338595" lon="10.592094675287168"><ele>131.0</ele><time>2026-04-26T12:47:53.907Z</time></trkpt><trkpt lat="43.30895444223781" lon="10.592006466630846"><ele>131.0</ele><time>2026-04-26T12:48:08.907Z</time></trkpt><trkpt lat="43.308959792117165" lon="10.591903945295622"><ele>131.0</ele><time>2026-04-26T12:48:10.907Z</time></trkpt><trkpt lat="43.30895781650185" lon="10.59180231334049"><ele>131.0</ele><time>2026-04-26T12:48:12.906Z</time></trkpt><trkpt lat="43.30895784411269" lon="10.591712443072458"><ele>131.0</ele><time>2026-04-26T12:48:15.905Z</time></trkpt><trkpt lat="43.30898208261836" lon="10.591610279540891"><ele>131.0</ele><time>2026-04-26T12:48:19.905Z</time></trkpt><trkpt lat="43.30897439962477" lon="10.591484877477955"><ele>131.0</ele><time>2026-04-26T12:48:22.906Z</time></trkpt><trkpt lat="43.308973586008015" lon="10.591371798151414"><ele>131.0</ele><time>2026-04-26T12:48:24.906Z</time></trkpt><trkpt lat="43.30897005603716" lon="10.591284574526638"><ele>131.0</ele><time>2026-04-26T12:48:25.906Z</time></trkpt><trkpt lat="43.30895340596286" lon="10.591153061439137"><ele>131.0</ele><time>2026-04-26T12:48:27.906Z</time></trkpt><trkpt lat="43.30894142014087" lon="10.590999007014336"><ele>130.33333333333331</ele><time>2026-04-26T12:48:29.906Z</time></trkpt><trkpt lat="43.30894518848332" lon="10.59087308447703"><ele>129.66666666666666</ele><time>2026-04-26T12:48:31.906Z</time></trkpt><trkpt lat="43.30894806913557" lon="10.59073872450898"><ele>129.0</ele><time>2026-04-26T12:48:33.906Z</time></trkpt><trkpt lat="43.3089404520567" lon="10.59064827994911"><ele>128.33333333333334</ele><time>2026-04-26T12:48:36.906Z</time></trkpt><trkpt lat="43.30892293055716" lon="10.590546381683183"><ele>127.66666666666667</ele><time>2026-04-26T12:48:43.906Z</time></trkpt><trkpt lat="43.30892804775903" lon="10.590454533381546"><ele>127.0</ele><time>2026-04-26T12:48:46.906Z</time></trkpt><trkpt lat="43.30891251665499" lon="10.590363663627562"><ele>127.00000000000001</ele><time>2026-04-26T12:50:01.906Z</time></trkpt><trkpt lat="43.30885309833441" lon="10.590310005936614"><ele>127.0</ele><time>2026-04-26T12:50:07.906Z</time></trkpt><trkpt lat="43.30887841398855" lon="10.590410417191247"><ele>127.0</ele><time>2026-04-26T12:50:15.906Z</time></trkpt><trkpt lat="43.30892468372915" lon="10.59049510442712"><ele>127.0</ele><time>2026-04-26T12:50:17.905Z</time></trkpt><trkpt lat="43.30893220371387" lon="10.590592526293651"><ele>127.00000000000001</ele><time>2026-04-26T12:50:19.904Z</time></trkpt><trkpt lat="43.30894930796722" lon="10.590708711750834"><ele>127.0</ele><time>2026-04-26T12:50:21.905Z</time></trkpt><trkpt lat="43.3089625407836" lon="10.590803100305955"><ele>127.00000000000001</ele><time>2026-04-26T12:50:23.905Z</time></trkpt><trkpt lat="43.30898431496034" lon="10.590916556378003"><ele>127.0</ele><time>2026-04-26T12:50:26.905Z</time></trkpt><trkpt lat="43.30897344329033" lon="10.591013634329833"><ele>127.0</ele><time>2026-04-26T12:50:29.905Z</time></trkpt><trkpt lat="43.308947933679846" lon="10.591137203563507"><ele>127.0</ele><time>2026-04-26T12:50:32.905Z</time></trkpt><trkpt lat="43.308963925758874" lon="10.59126261879741"><ele>127.00000000000001</ele><time>2026-04-26T12:50:34.905Z</time></trkpt><trkpt lat="43.308961498711824" lon="10.59136714772495"><ele>127.0</ele><time>2026-04-26T12:50:36.905Z</time></trkpt><trkpt lat="43.30895802429752" lon="10.591468082226116"><ele>126.6</ele><time>2026-04-26T12:50:37.905Z</time></trkpt><trkpt lat="43.30894632297927" lon="10.591600753677204"><ele>126.19999999999999</ele><time>2026-04-26T12:50:39.905Z</time></trkpt><trkpt lat="43.30893919522232" lon="10.59174858719285"><ele>125.8</ele><time>2026-04-26T12:50:41.905Z</time></trkpt><trkpt lat="43.308938610059556" lon="10.591900083426042"><ele>125.4</ele><time>2026-04-26T12:50:43.905Z</time></trkpt><trkpt lat="43.308917181433316" lon="10.5920387507288"><ele>125.0</ele><time>2026-04-26T12:50:45.905Z</time></trkpt><trkpt lat="43.30889810262216" lon="10.592125527207022"><ele>124.99999999999999</ele><time>2026-04-26T12:50:47.905Z</time></trkpt><trkpt lat="43.30887807450924" lon="10.592208843997883"><ele>125.0</ele><time>2026-04-26T12:50:50.905Z</time></trkpt><trkpt lat="43.30891273040415" lon="10.59230468654831"><ele>125.0</ele><time>2026-04-26T12:50:53.905Z</time></trkpt><trkpt lat="43.308984341629774" lon="10.592328014153344"><ele>125.0</ele><time>2026-04-26T12:50:56.905Z</time></trkpt><trkpt lat="43.30902510086907" lon="10.592245456092751"><ele>124.99999999999999</ele><time>2026-04-26T12:50:58.905Z</time></trkpt><trkpt lat="43.30905776102574" lon="10.592134425098356"><ele>125.0</ele><time>2026-04-26T12:51:01.905Z</time></trkpt><trkpt lat="43.309112850071024" lon="10.592037161680881"><ele>126.5</ele><time>2026-04-26T12:51:04.905Z</time></trkpt><trkpt lat="43.30916498316185" lon="10.59189508175568"><ele>128.0</ele><time>2026-04-26T12:51:06.905Z</time></trkpt><trkpt lat="43.309177564529726" lon="10.591743878360102"><ele>129.5</ele><time>2026-04-26T12:51:08.905Z</time></trkpt><trkpt lat="43.309186500485836" lon="10.591592663874358"><ele>131.0</ele><time>2026-04-26T12:51:10.905Z</time></trkpt><trkpt lat="43.309213268618834" lon="10.591436302738902"><ele>131.0</ele><time>2026-04-26T12:51:12.905Z</time></trkpt><trkpt lat="43.30922496530088" lon="10.591292270284626"><ele>131.0</ele><time>2026-04-26T12:51:14.905Z</time></trkpt><trkpt lat="43.30923540851469" lon="10.591150485589042"><ele>131.0</ele><time>2026-04-26T12:51:16.905Z</time></trkpt><trkpt lat="43.30923315140972" lon="10.590993577413462"><ele>131.0</ele><time>2026-04-26T12:51:24.905Z</time></trkpt><trkpt lat="43.309217774062574" lon="10.590900993391362"><ele>131.0</ele><time>2026-04-26T12:51:25.905Z</time></trkpt><trkpt lat="43.30916149118911" lon="10.590779424587511"><ele>130.33333333333331</ele><time>2026-04-26T12:51:27.905Z</time></trkpt><trkpt lat="43.3091262813003" lon="10.590702541286774"><ele>129.66666666666666</ele><time>2026-04-26T12:51:29.905Z</time></trkpt><trkpt lat="43.309104837860495" lon="10.590607494250735"><ele>129.0</ele><time>2026-04-26T12:51:32.905Z</time></trkpt><trkpt lat="43.30907575193364" lon="10.590490409991755"><ele>128.33333333333334</ele><time>2026-04-26T12:51:35.905Z</time></trkpt><trkpt lat="43.30905172422958" lon="10.590389026562022"><ele>127.66666666666667</ele><time>2026-04-26T12:51:37.905Z</time></trkpt><trkpt lat="43.309016441354274" lon="10.590299520198139"><ele>127.0</ele><time>2026-04-26T12:51:39.905Z</time></trkpt><trkpt lat="43.30896818781004" lon="10.590193724214311"><ele>126.66666666666667</ele><time>2026-04-26T12:51:42.905Z</time></trkpt><trkpt lat="43.30892224585035" lon="10.590108562525472"><ele>126.33333333333334</ele><time>2026-04-26T12:51:44.905Z</time></trkpt><trkpt lat="43.30886778478942" lon="10.59000547680405"><ele>126.0</ele><time>2026-04-26T12:51:46.905Z</time></trkpt><trkpt lat="43.30884123252175" lon="10.589899102550499"><ele>125.66666666666666</ele><time>2026-04-26T12:51:48.905Z</time></trkpt><trkpt lat="43.30882289674129" lon="10.589803938833908"><ele>125.33333333333333</ele><time>2026-04-26T12:51:50.905Z</time></trkpt><trkpt lat="43.3087982167362" lon="10.589710184641554"><ele>125.0</ele><time>2026-04-26T12:51:52.905Z</time></trkpt><trkpt lat="43.30877472363117" lon="10.589590389027741"><ele>124.16666666666666</ele><time>2026-04-26T12:51:54.905Z</time></trkpt><trkpt lat="43.30876276995428" lon="10.589488869254634"><ele>123.33333333333333</ele><time>2026-04-26T12:51:56.905Z</time></trkpt><trkpt lat="43.30875417424762" lon="10.589363604780864"><ele>122.5</ele><time>2026-04-26T12:51:58.905Z</time></trkpt><trkpt lat="43.30873929725428" lon="10.589243308890799"><ele>121.66666666666666</ele><time>2026-04-26T12:52:00.905Z</time></trkpt><trkpt lat="43.30868992270797" lon="10.589099944954764"><ele>120.83333333333333</ele><time>2026-04-26T12:52:02.905Z</time></trkpt><trkpt lat="43.30866702265257" lon="10.589017787725194"><ele>120.0</ele><time>2026-04-26T12:52:03.905Z</time></trkpt><trkpt lat="43.30862738535475" lon="10.58886347913588"><ele>120.0</ele><time>2026-04-26T12:52:05.905Z</time></trkpt><trkpt lat="43.308592179290166" lon="10.588732297639616"><ele>120.0</ele><time>2026-04-26T12:52:07.905Z</time></trkpt><trkpt lat="43.308558396642425" lon="10.58864909165442"><ele>120.0</ele><time>2026-04-26T12:52:09.905Z</time></trkpt><trkpt lat="43.308528914130974" lon="10.588571900487667"><ele>120.0</ele><time>2026-04-26T12:52:10.905Z</time></trkpt><trkpt lat="43.308505344378936" lon="10.588490453450982"><ele>120.0</ele><time>2026-04-26T12:52:11.905Z</time></trkpt><trkpt lat="43.30846217841243" lon="10.5883249020151"><ele>120.0</ele><time>2026-04-26T12:52:13.905Z</time></trkpt><trkpt lat="43.30839205297628" lon="10.588198657215585"><ele>119.6</ele><time>2026-04-26T12:52:15.905Z</time></trkpt><trkpt lat="43.30836393488001" lon="10.588114048794626"><ele>119.2</ele><time>2026-04-26T12:52:17.905Z</time></trkpt><trkpt lat="43.30834131665665" lon="10.588030892771943"><ele>118.80000000000001</ele><time>2026-04-26T12:52:19.905Z</time></trkpt><trkpt lat="43.30832399068997" lon="10.58770760459143"><ele>118.4</ele><time>2026-04-26T12:52:35.904Z</time></trkpt><trkpt lat="43.30837567659153" lon="10.587646174738278"><ele>118.0</ele><time>2026-04-26T12:52:39.903Z</time></trkpt><trkpt lat="43.30841435225067" lon="10.587553744857681"><ele>117.57142857142857</ele><time>2026-04-26T12:52:44.903Z</time></trkpt><trkpt lat="43.30843975313763" lon="10.587465756561715"><ele>117.14285714285714</ele><time>2026-04-26T12:52:48.903Z</time></trkpt><trkpt lat="43.30842291518805" lon="10.587372537414234"><ele>116.71428571428571</ele><time>2026-04-26T12:52:54.903Z</time></trkpt><trkpt lat="43.308395663848614" lon="10.587265801711839"><ele>116.28571428571428</ele><time>2026-04-26T12:52:57.903Z</time></trkpt><trkpt lat="43.30837980271894" lon="10.587169731736541"><ele>115.85714285714286</ele><time>2026-04-26T12:52:59.903Z</time></trkpt><trkpt lat="43.308368406450214" lon="10.587081529160848"><ele>115.42857142857142</ele><time>2026-04-26T12:53:05.903Z</time></trkpt><trkpt lat="43.30835225944163" lon="10.586970819655793"><ele>114.99999999999999</ele><time>2026-04-26T12:53:08.903Z</time></trkpt><trkpt lat="43.308335422198056" lon="10.586880358555728"><ele>111.0</ele><time>2026-04-26T12:53:12.903Z</time></trkpt><trkpt lat="43.308308472500286" lon="10.586794495336651"><ele>111.0</ele><time>2026-04-26T12:53:15.903Z</time></trkpt><trkpt lat="43.30826230714458" lon="10.586653193184178"><ele>111.0</ele><time>2026-04-26T12:54:57.902Z</time></trkpt><trkpt lat="43.308256527139946" lon="10.586556904312463"><ele>111.0</ele><time>2026-04-26T12:55:22.902Z</time></trkpt></trkseg><trkseg><trkpt lat="43.30835620767522" lon="10.587111754308404"><ele>115.00000000000001</ele><time>2026-04-26T13:06:44.003Z</time></trkpt><trkpt lat="43.30838876870572" lon="10.587251742334107"><ele>115.0</ele><time>2026-04-26T13:06:46.003Z</time></trkpt><trkpt lat="43.30841773947238" lon="10.58735089336421"><ele>115.0</ele><time>2026-04-26T13:06:48.003Z</time></trkpt><trkpt lat="43.30843137070653" lon="10.587445905652881"><ele>115.0</ele><time>2026-04-26T13:06:50.003Z</time></trkpt><trkpt lat="43.30839395943306" lon="10.587516465411868"><ele>115.00000000000001</ele><time>2026-04-26T13:06:54.003Z</time></trkpt><trkpt lat="43.308362875399574" lon="10.587605052565863"><ele>115.0</ele><time>2026-04-26T13:06:56.003Z</time></trkpt><trkpt lat="43.3083286015577" lon="10.587699851630472"><ele>115.00000000000001</ele><time>2026-04-26T13:06:58.003Z</time></trkpt><trkpt lat="43.30830202435641" lon="10.587803448942822"><ele>115.0</ele><time>2026-04-26T13:07:00.003Z</time></trkpt><trkpt lat="43.30832732457461" lon="10.58793090565477"><ele>115.0</ele><time>2026-04-26T13:07:03.003Z</time></trkpt><trkpt lat="43.308345690139795" lon="10.588031091094631"><ele>115.0</ele><time>2026-04-26T13:07:05.003Z</time></trkpt><trkpt lat="43.30837026386889" lon="10.588178160486414"><ele>115.00000000000001</ele><time>2026-04-26T13:07:07.003Z</time></trkpt><trkpt lat="43.30842433677996" lon="10.588247885063106"><ele>115.0</ele><time>2026-04-26T13:07:10.004Z</time></trkpt><trkpt lat="43.308439772751306" lon="10.58837781705903"><ele>115.50000000000001</ele><time>2026-04-26T13:07:12.004Z</time></trkpt><trkpt lat="43.308479765490794" lon="10.58853386201501"><ele>116.0</ele><time>2026-04-26T13:07:14.004Z</time></trkpt><trkpt lat="43.30852282176526" lon="10.58865542735271"><ele>116.5</ele><time>2026-04-26T13:07:16.004Z</time></trkpt><trkpt lat="43.30855707288253" lon="10.588740477224116"><ele>117.0</ele><time>2026-04-26T13:07:18.004Z</time></trkpt><trkpt lat="43.30859207014791" lon="10.588815596443336"><ele>117.50000000000001</ele><time>2026-04-26T13:07:19.004Z</time></trkpt><trkpt lat="43.30861295073138" lon="10.58890480977428"><ele>118.0</ele><time>2026-04-26T13:07:20.004Z</time></trkpt><trkpt lat="43.30863056892853" lon="10.588992343307071"><ele>118.4</ele><time>2026-04-26T13:07:21.004Z</time></trkpt><trkpt lat="43.308678102881345" lon="10.58915603223534"><ele>118.80000000000001</ele><time>2026-04-26T13:07:23.004Z</time></trkpt><trkpt lat="43.30871630569189" lon="10.589283563855172"><ele>119.2</ele><time>2026-04-26T13:07:25.004Z</time></trkpt><trkpt lat="43.30871168669451" lon="10.589431836157829"><ele>119.6</ele><time>2026-04-26T13:07:27.004Z</time></trkpt><trkpt lat="43.30872284086527" lon="10.589558939633472"><ele>120.0</ele><time>2026-04-26T13:07:29.004Z</time></trkpt><trkpt lat="43.308753833306604" lon="10.589716050965137"><ele>120.0</ele><time>2026-04-26T13:07:31.004Z</time></trkpt><trkpt lat="43.30878925711769" lon="10.589836140249536"><ele>120.0</ele><time>2026-04-26T13:07:33.004Z</time></trkpt><trkpt lat="43.308806345338716" lon="10.589923850879966"><ele>120.0</ele><time>2026-04-26T13:07:34.004Z</time></trkpt><trkpt lat="43.308835427283576" lon="10.590004632766703"><ele>120.0</ele><time>2026-04-26T13:07:35.004Z</time></trkpt><trkpt lat="43.308876504284875" lon="10.590082513680672"><ele>120.0</ele><time>2026-04-26T13:07:36.004Z</time></trkpt><trkpt lat="43.30891638654381" lon="10.590149697481147"><ele>120.0</ele><time>2026-04-26T13:07:37.004Z</time></trkpt><trkpt lat="43.30897599048507" lon="10.590247977914762"><ele>121.75</ele><time>2026-04-26T13:07:39.004Z</time></trkpt><trkpt lat="43.3090243445408" lon="10.590359088161158"><ele>123.5</ele><time>2026-04-26T13:07:41.004Z</time></trkpt><trkpt lat="43.30906451720344" lon="10.590535094399922"><ele>125.25</ele><time>2026-04-26T13:07:43.004Z</time></trkpt><trkpt lat="43.30909591193981" lon="10.59067050199821"><ele>127.0</ele><time>2026-04-26T13:07:45.004Z</time></trkpt><trkpt lat="43.309148272495115" lon="10.590815799697271"><ele>127.00000000000001</ele><time>2026-04-26T13:07:47.004Z</time></trkpt><trkpt lat="43.30918704317758" lon="10.590899646640485"><ele>127.0</ele><time>2026-04-26T13:07:48.004Z</time></trkpt><trkpt lat="43.30921611547911" lon="10.59099164827809"><ele>127.0</ele><time>2026-04-26T13:07:49.005Z</time></trkpt><trkpt lat="43.3092208494021" lon="10.591088194798731"><ele>127.0</ele><time>2026-04-26T13:07:50.005Z</time></trkpt><trkpt lat="43.30922244101758" lon="10.59119208744833"><ele>127.00000000000001</ele><time>2026-04-26T13:07:51.005Z</time></trkpt><trkpt lat="43.309220505495595" lon="10.591294139651593"><ele>127.0</ele><time>2026-04-26T13:07:52.005Z</time></trkpt><trkpt lat="43.309192920451665" lon="10.591482533947294"><ele>127.66666666666667</ele><time>2026-04-26T13:07:54.005Z</time></trkpt><trkpt lat="43.30917669566823" lon="10.591602312325367"><ele>128.33333333333334</ele><time>2026-04-26T13:07:55.005Z</time></trkpt><trkpt lat="43.309166319915406" lon="10.591745649519643"><ele>129.0</ele><time>2026-04-26T13:07:56.005Z</time></trkpt><trkpt lat="43.309155476936226" lon="10.591865715496427"><ele>129.66666666666666</ele><time>2026-04-26T13:07:57.005Z</time></trkpt><trkpt lat="43.30913819508142" lon="10.591958305692106"><ele>130.33333333333331</ele><time>2026-04-26T13:07:58.005Z</time></trkpt><trkpt lat="43.309081740803535" lon="10.592066466866584"><ele>131.0</ele><time>2026-04-26T13:08:00.005Z</time></trkpt><trkpt lat="43.30901054856232" lon="10.592204373529695"><ele>131.0</ele><time>2026-04-26T13:08:02.005Z</time></trkpt><trkpt lat="43.30897956801591" lon="10.592347435176139"><ele>131.0</ele><time>2026-04-26T13:08:04.005Z</time></trkpt><trkpt lat="43.3089609262532" lon="10.59243213544638"><ele>131.0</ele><time>2026-04-26T13:08:05.005Z</time></trkpt><trkpt lat="43.30897245647523" lon="10.592576664551272"><ele>131.0</ele><time>2026-04-26T13:08:07.005Z</time></trkpt><trkpt lat="43.30902204432347" lon="10.592653817725523"><ele>131.0</ele><time>2026-04-26T13:08:09.005Z</time></trkpt><trkpt lat="43.30908476137175" lon="10.592682003983272"><ele>131.0</ele><time>2026-04-26T13:08:11.005Z</time></trkpt><trkpt lat="43.30913970408551" lon="10.592759729327623"><ele>130.6</ele><time>2026-04-26T13:08:13.005Z</time></trkpt><trkpt lat="43.30914732563357" lon="10.592926922151332"><ele>130.2</ele><time>2026-04-26T13:08:15.005Z</time></trkpt><trkpt lat="43.30918679697572" lon="10.593111998637234"><ele>129.8</ele><time>2026-04-26T13:08:17.005Z</time></trkpt><trkpt lat="43.3092019485723" lon="10.593200266701903"><ele>129.4</ele><time>2026-04-26T13:08:18.005Z</time></trkpt><trkpt lat="43.30921390555099" lon="10.593301057500637"><ele>129.0</ele><time>2026-04-26T13:08:19.005Z</time></trkpt><trkpt lat="43.30921361156373" lon="10.593400871964192"><ele>129.0</ele><time>2026-04-26T13:08:20.005Z</time></trkpt><trkpt lat="43.30920213787475" lon="10.593521844952699"><ele>129.0</ele><time>2026-04-26T13:08:22.005Z</time></trkpt><trkpt lat="43.309184336022106" lon="10.593671467714426"><ele>129.0</ele><time>2026-04-26T13:08:24.005Z</time></trkpt><trkpt lat="43.309164123669014" lon="10.593792629289755"><ele>129.0</ele><time>2026-04-26T13:08:25.005Z</time></trkpt><trkpt lat="43.30914699175364" lon="10.593919120576029"><ele>129.0</ele><time>2026-04-26T13:08:26.005Z</time></trkpt><trkpt lat="43.309107113847176" lon="10.594019191148952"><ele>129.0</ele><time>2026-04-26T13:08:27.005Z</time></trkpt><trkpt lat="43.30906223185938" lon="10.594090710077472"><ele>129.0</ele><time>2026-04-26T13:08:28.005Z</time></trkpt><trkpt lat="43.30900621060808" lon="10.594195188784628"><ele>129.0</ele><time>2026-04-26T13:08:30.005Z</time></trkpt><trkpt lat="43.30901362172016" lon="10.594331484088272"><ele>129.0</ele><time>2026-04-26T13:08:32.005Z</time></trkpt><trkpt lat="43.309051870097356" lon="10.594430279857516"><ele>129.0</ele><time>2026-04-26T13:08:33.005Z</time></trkpt><trkpt lat="43.30910173682433" lon="10.594524471375824"><ele>129.0</ele><time>2026-04-26T13:08:34.005Z</time></trkpt><trkpt lat="43.30915331325728" lon="10.594621982021929"><ele>129.0</ele><time>2026-04-26T13:08:35.005Z</time></trkpt><trkpt lat="43.30920259135783" lon="10.594700534556857"><ele>129.0</ele><time>2026-04-26T13:08:36.006Z</time></trkpt><trkpt lat="43.30924833721731" lon="10.59477007069203"><ele>129.0</ele><time>2026-04-26T13:08:37.006Z</time></trkpt><trkpt lat="43.309287200185985" lon="10.594845464692565"><ele>129.0</ele><time>2026-04-26T13:08:38.006Z</time></trkpt><trkpt lat="43.30932969457862" lon="10.594973775389107"><ele>129.0</ele><time>2026-04-26T13:08:40.006Z</time></trkpt><trkpt lat="43.30935704202327" lon="10.595087734277119"><ele>129.0</ele><time>2026-04-26T13:08:42.006Z</time></trkpt><trkpt lat="43.30940107197949" lon="10.595175647288793"><ele>129.0</ele><time>2026-04-26T13:08:44.006Z</time></trkpt><trkpt lat="43.309487346399024" lon="10.595224716287511"><ele>129.0</ele><time>2026-04-26T13:08:46.006Z</time></trkpt><trkpt lat="43.309567729956534" lon="10.59528034725623"><ele>129.0</ele><time>2026-04-26T13:08:48.006Z</time></trkpt><trkpt lat="43.30962521885213" lon="10.5953408064312"><ele>129.0</ele><time>2026-04-26T13:08:50.006Z</time></trkpt><trkpt lat="43.30968766553099" lon="10.59543602976608"><ele>129.0</ele><time>2026-04-26T13:08:52.006Z</time></trkpt><trkpt lat="43.30974347120333" lon="10.595561910642045"><ele>129.2</ele><time>2026-04-26T13:08:54.006Z</time></trkpt><trkpt lat="43.30979878324366" lon="10.595675554509327"><ele>129.4</ele><time>2026-04-26T13:08:56.006Z</time></trkpt><trkpt lat="43.309842127238" lon="10.595797032958277"><ele>129.6</ele><time>2026-04-26T13:08:58.006Z</time></trkpt><trkpt lat="43.309882796181206" lon="10.595951360607838"><ele>129.8</ele><time>2026-04-26T13:09:00.006Z</time></trkpt><trkpt lat="43.309894230901925" lon="10.596051220983725"><ele>130.0</ele><time>2026-04-26T13:09:01.006Z</time></trkpt><trkpt lat="43.309906192092704" lon="10.596154332520339"><ele>130.66666666666669</ele><time>2026-04-26T13:09:02.006Z</time></trkpt><trkpt lat="43.30991581853542" lon="10.59627445346282"><ele>131.33333333333334</ele><time>2026-04-26T13:09:03.006Z</time></trkpt><trkpt lat="43.30991659506582" lon="10.596371518186318"><ele>132.0</ele><time>2026-04-26T13:09:04.006Z</time></trkpt><trkpt lat="43.3099292473069" lon="10.596485184027859"><ele>132.66666666666666</ele><time>2026-04-26T13:09:06.006Z</time></trkpt><trkpt lat="43.30998289768258" lon="10.596543559727474"><ele>133.33333333333331</ele><time>2026-04-26T13:09:07.006Z</time></trkpt><trkpt lat="43.31007738664094" lon="10.59661006838031"><ele>134.0</ele><time>2026-04-26T13:09:08.006Z</time></trkpt><trkpt lat="43.31016999418516" lon="10.596693818263557"><ele>134.0</ele><time>2026-04-26T13:09:09.006Z</time></trkpt><trkpt lat="43.31024031696585" lon="10.596766002967195"><ele>134.0</ele><time>2026-04-26T13:09:10.006Z</time></trkpt><trkpt lat="43.31030038648674" lon="10.596840376500342"><ele>134.0</ele><time>2026-04-26T13:09:11.006Z</time></trkpt><trkpt lat="43.31035797394155" lon="10.596930109446324"><ele>134.0</ele><time>2026-04-26T13:09:12.006Z</time></trkpt><trkpt lat="43.3104238663663" lon="10.597021727125586"><ele>134.0</ele><time>2026-04-26T13:09:13.006Z</time></trkpt><trkpt lat="43.31048749555732" lon="10.597119078376961"><ele>134.0</ele><time>2026-04-26T13:09:14.006Z</time></trkpt><trkpt lat="43.31054975943506" lon="10.597206725713253"><ele>135.0</ele><time>2026-04-26T13:09:15.006Z</time></trkpt><trkpt lat="43.31059547424031" lon="10.597285469853798"><ele>136.0</ele><time>2026-04-26T13:09:16.006Z</time></trkpt><trkpt lat="43.310636642027724" lon="10.597366687073436"><ele>137.0</ele><time>2026-04-26T13:09:17.006Z</time></trkpt><trkpt lat="43.310689519481485" lon="10.597449533216684"><ele>138.0</ele><time>2026-04-26T13:09:18.006Z</time></trkpt><trkpt lat="43.31070960256138" lon="10.597542150304736"><ele>139.0</ele><time>2026-04-26T13:09:19.006Z</time></trkpt><trkpt lat="43.310713146995106" lon="10.597642566293231"><ele>140.0</ele><time>2026-04-26T13:09:20.006Z</time></trkpt><trkpt lat="43.310721498867125" lon="10.597766185560976"><ele>139.66666666666666</ele><time>2026-04-26T13:09:21.006Z</time></trkpt><trkpt lat="43.31073600422717" lon="10.597882683902533"><ele>139.33333333333331</ele><time>2026-04-26T13:09:22.006Z</time></trkpt><trkpt lat="43.31075919402233" lon="10.597993754911638"><ele>139.0</ele><time>2026-04-26T13:09:23.006Z</time></trkpt><trkpt lat="43.31078961670189" lon="10.598102263772343"><ele>138.66666666666666</ele><time>2026-04-26T13:09:24.006Z</time></trkpt><trkpt lat="43.310815304406255" lon="10.598214500106598"><ele>138.33333333333334</ele><time>2026-04-26T13:09:25.006Z</time></trkpt><trkpt lat="43.310841200469646" lon="10.598326588245023"><ele>138.0</ele><time>2026-04-26T13:09:26.006Z</time></trkpt><trkpt lat="43.31086540780526" lon="10.598428405867198"><ele>138.0</ele><time>2026-04-26T13:09:27.006Z</time></trkpt><trkpt lat="43.31089569922733" lon="10.598530370448843"><ele>138.0</ele><time>2026-04-26T13:09:28.006Z</time></trkpt><trkpt lat="43.31091969542203" lon="10.598632182333114"><ele>138.0</ele><time>2026-04-26T13:09:29.006Z</time></trkpt><trkpt lat="43.310940732754354" lon="10.59872399681445"><ele>138.0</ele><time>2026-04-26T13:09:30.006Z</time></trkpt><trkpt lat="43.31096246119262" lon="10.598818739724507"><ele>138.0</ele><time>2026-04-26T13:09:31.006Z</time></trkpt><trkpt lat="43.31098645160293" lon="10.598944901810832"><ele>138.0</ele><time>2026-04-26T13:09:32.006Z</time></trkpt><trkpt lat="43.311010054810865" lon="10.599104704807491"><ele>137.75</ele><time>2026-04-26T13:09:33.006Z</time></trkpt><trkpt lat="43.31103743980971" lon="10.599264052864932"><ele>137.5</ele><time>2026-04-26T13:09:34.006Z</time></trkpt><trkpt lat="43.31106725636543" lon="10.599418855190565"><ele>137.25</ele><time>2026-04-26T13:09:35.006Z</time></trkpt><trkpt lat="43.31110345226823" lon="10.599568796800947"><ele>137.0</ele><time>2026-04-26T13:09:36.006Z</time></trkpt><trkpt lat="43.31114179979829" lon="10.59971298757546"><ele>137.5</ele><time>2026-04-26T13:09:37.006Z</time></trkpt><trkpt lat="43.31118040676736" lon="10.599835132488415"><ele>138.0</ele><time>2026-04-26T13:09:38.006Z</time></trkpt><trkpt lat="43.31121740348297" lon="10.599946451435272"><ele>138.5</ele><time>2026-04-26T13:09:39.006Z</time></trkpt><trkpt lat="43.31125303207048" lon="10.600045135715002"><ele>139.0</ele><time>2026-04-26T13:09:40.006Z</time></trkpt><trkpt lat="43.311285141307025" lon="10.600132598068173"><ele>139.5</ele><time>2026-04-26T13:09:41.006Z</time></trkpt><trkpt lat="43.31129827662969" lon="10.600219840268265"><ele>140.0</ele><time>2026-04-26T13:09:42.006Z</time></trkpt><trkpt lat="43.311241314420585" lon="10.600359052463945"><ele>140.0</ele><time>2026-04-26T13:09:44.006Z</time></trkpt><trkpt lat="43.31123184646516" lon="10.60045008882074"><ele>140.0</ele><time>2026-04-26T13:09:45.007Z</time></trkpt><trkpt lat="43.31123909134808" lon="10.600555992090142"><ele>140.0</ele><time>2026-04-26T13:09:46.007Z</time></trkpt><trkpt lat="43.31125736420411" lon="10.600668345204303"><ele>140.0</ele><time>2026-04-26T13:09:47.007Z</time></trkpt><trkpt lat="43.31129230327425" lon="10.600785004818151"><ele>140.0</ele><time>2026-04-26T13:09:48.007Z</time></trkpt><trkpt lat="43.31134633417556" lon="10.600895537451702"><ele>140.0</ele><time>2026-04-26T13:09:49.007Z</time></trkpt><trkpt lat="43.311413174334064" lon="10.601004447493818"><ele>141.0</ele><time>2026-04-26T13:09:50.007Z</time></trkpt><trkpt lat="43.31149631334031" lon="10.601125718596657"><ele>142.0</ele><time>2026-04-26T13:09:51.007Z</time></trkpt><trkpt lat="43.31158591198801" lon="10.601253785301605"><ele>143.0</ele><time>2026-04-26T13:09:52.007Z</time></trkpt><trkpt lat="43.311642261238944" lon="10.601376469890281"><ele>144.0</ele><time>2026-04-26T13:09:53.007Z</time></trkpt><trkpt lat="43.31170974729568" lon="10.601482850565835"><ele>145.2</ele><time>2026-04-26T13:09:54.007Z</time></trkpt><trkpt lat="43.311766792436764" lon="10.60161404217143"><ele>146.4</ele><time>2026-04-26T13:09:55.007Z</time></trkpt><trkpt lat="43.3118122479998" lon="10.601733251252167"><ele>147.6</ele><time>2026-04-26T13:09:56.007Z</time></trkpt><trkpt lat="43.31185677482133" lon="10.601808476180588"><ele>148.8</ele><time>2026-04-26T13:09:57.007Z</time></trkpt><trkpt lat="43.31197906124122" lon="10.601847718988987"><ele>150.0</ele><time>2026-04-26T13:09:59.007Z</time></trkpt><trkpt lat="43.31205994984838" lon="10.601861081043918"><ele>150.0</ele><time>2026-04-26T13:10:00.007Z</time></trkpt><trkpt lat="43.31213179507791" lon="10.601902095733807"><ele>150.0</ele><time>2026-04-26T13:10:01.007Z</time></trkpt><trkpt lat="43.312178136145086" lon="10.601981224596262"><ele>150.0</ele><time>2026-04-26T13:10:02.007Z</time></trkpt><trkpt lat="43.31220768798634" lon="10.602104937238288"><ele>150.0</ele><time>2026-04-26T13:10:03.007Z</time></trkpt><trkpt lat="43.31222328808514" lon="10.602213963825157"><ele>150.0</ele><time>2026-04-26T13:10:04.008Z</time></trkpt><trkpt lat="43.31223217182613" lon="10.602339421036243"><ele>150.0</ele><time>2026-04-26T13:10:05.008Z</time></trkpt><trkpt lat="43.312240135893475" lon="10.602504089574051"><ele>152.0</ele><time>2026-04-26T13:10:06.008Z</time></trkpt><trkpt lat="43.31223991540362" lon="10.602710040394017"><ele>154.0</ele><time>2026-04-26T13:10:07.008Z</time></trkpt><trkpt lat="43.31226134263947" lon="10.60286378393479"><ele>156.0</ele><time>2026-04-26T13:10:08.008Z</time></trkpt><trkpt lat="43.31226961767891" lon="10.602999511042498"><ele>158.0</ele><time>2026-04-26T13:10:09.008Z</time></trkpt><trkpt lat="43.31228551936119" lon="10.603120193806971"><ele>158.4</ele><time>2026-04-26T13:10:10.008Z</time></trkpt><trkpt lat="43.312270168374056" lon="10.603224187099823"><ele>158.8</ele><time>2026-04-26T13:10:11.008Z</time></trkpt><trkpt lat="43.312228965316194" lon="10.603350244152928"><ele>159.2</ele><time>2026-04-26T13:10:13.008Z</time></trkpt><trkpt lat="43.312131457489734" lon="10.603462883268692"><ele>159.6</ele><time>2026-04-26T13:10:15.008Z</time></trkpt><trkpt lat="43.31208802217367" lon="10.603586030500972"><ele>160.0</ele><time>2026-04-26T13:10:16.008Z</time></trkpt><trkpt lat="43.31209342828136" lon="10.60370725190996"><ele>160.6</ele><time>2026-04-26T13:10:17.008Z</time></trkpt><trkpt lat="43.31210261615251" lon="10.603827346090888"><ele>161.2</ele><time>2026-04-26T13:10:18.008Z</time></trkpt><trkpt lat="43.312128692072406" lon="10.603972393383778"><ele>161.8</ele><time>2026-04-26T13:10:19.008Z</time></trkpt><trkpt lat="43.31215749531073" lon="10.604115350710575"><ele>162.4</ele><time>2026-04-26T13:10:20.008Z</time></trkpt><trkpt lat="43.312188137736776" lon="10.604229354697168"><ele>163.0</ele><time>2026-04-26T13:10:21.008Z</time></trkpt><trkpt lat="43.3122142906757" lon="10.60432364933555"><ele>163.4</ele><time>2026-04-26T13:10:22.008Z</time></trkpt><trkpt lat="43.31225778266217" lon="10.604478559068928"><ele>163.8</ele><time>2026-04-26T13:10:24.008Z</time></trkpt><trkpt lat="43.31228665809335" lon="10.604636362889247"><ele>164.2</ele><time>2026-04-26T13:10:26.008Z</time></trkpt><trkpt lat="43.31230943681032" lon="10.604719971143853"><ele>164.6</ele><time>2026-04-26T13:10:27.008Z</time></trkpt><trkpt lat="43.31233747515738" lon="10.60481230459828"><ele>165.0</ele><time>2026-04-26T13:10:28.008Z</time></trkpt><trkpt lat="43.31236551448845" lon="10.604912452695343"><ele>166.75</ele><time>2026-04-26T13:10:29.008Z</time></trkpt><trkpt lat="43.31240487481753" lon="10.605057866096622"><ele>168.5</ele><time>2026-04-26T13:10:30.008Z</time></trkpt><trkpt lat="43.31244981823689" lon="10.605242736820932"><ele>170.25</ele><time>2026-04-26T13:10:31.008Z</time></trkpt><trkpt lat="43.31249369321026" lon="10.60545369463561"><ele>172.0</ele><time>2026-04-26T13:10:32.008Z</time></trkpt><trkpt lat="43.31253578540614" lon="10.605684203698724"><ele>173.0</ele><time>2026-04-26T13:10:33.008Z</time></trkpt><trkpt lat="43.312579860230855" lon="10.605879993530303"><ele>174.0</ele><time>2026-04-26T13:10:34.008Z</time></trkpt><trkpt lat="43.31259725198984" lon="10.60605024870834"><ele>175.0</ele><time>2026-04-26T13:10:35.008Z</time></trkpt><trkpt lat="43.31263480186403" lon="10.606192882357671"><ele>176.0</ele><time>2026-04-26T13:10:36.008Z</time></trkpt><trkpt lat="43.312671258318375" lon="10.606340728546728"><ele>176.83333333333331</ele><time>2026-04-26T13:10:37.009Z</time></trkpt><trkpt lat="43.31270312467218" lon="10.606500064197741"><ele>177.66666666666666</ele><time>2026-04-26T13:10:38.009Z</time></trkpt><trkpt lat="43.312726002869546" lon="10.606640171584095"><ele>178.5</ele><time>2026-04-26T13:10:39.009Z</time></trkpt><trkpt lat="43.31274321250953" lon="10.606748251312409"><ele>179.33333333333334</ele><time>2026-04-26T13:10:40.009Z</time></trkpt><trkpt lat="43.31274651288651" lon="10.606840193778542"><ele>180.16666666666669</ele><time>2026-04-26T13:10:41.009Z</time></trkpt><trkpt lat="43.31272467405684" lon="10.606937600305967"><ele>181.0</ele><time>2026-04-26T13:10:42.009Z</time></trkpt><trkpt lat="43.3126493575289" lon="10.607020225658555"><ele>181.8</ele><time>2026-04-26T13:10:43.009Z</time></trkpt><trkpt lat="43.31257238420175" lon="10.607085079389686"><ele>182.60000000000002</ele><time>2026-04-26T13:10:44.009Z</time></trkpt><trkpt lat="43.31248761708019" lon="10.607109706541285"><ele>183.4</ele><time>2026-04-26T13:10:45.009Z</time></trkpt><trkpt lat="43.312404509316636" lon="10.60716077524907"><ele>184.2</ele><time>2026-04-26T13:10:46.009Z</time></trkpt><trkpt lat="43.31231488455975" lon="10.607243278065992"><ele>185.0</ele><time>2026-04-26T13:10:47.009Z</time></trkpt><trkpt lat="43.31217765442821" lon="10.607324704102057"><ele>185.4</ele><time>2026-04-26T13:10:48.009Z</time></trkpt><trkpt lat="43.312059233061525" lon="10.607443188421277"><ele>185.8</ele><time>2026-04-26T13:10:49.009Z</time></trkpt><trkpt lat="43.31196278712305" lon="10.607537270886867"><ele>186.2</ele><time>2026-04-26T13:10:50.009Z</time></trkpt><trkpt lat="43.31188815546472" lon="10.607587367107534"><ele>186.6</ele><time>2026-04-26T13:10:51.009Z</time></trkpt><trkpt lat="43.311824098945756" lon="10.607615702218764"><ele>187.0</ele><time>2026-04-26T13:10:52.009Z</time></trkpt><trkpt lat="43.31175570142443" lon="10.607684140406857"><ele>187.0</ele><time>2026-04-26T13:10:54.009Z</time></trkpt><trkpt lat="43.31171552762532" lon="10.607806062238044"><ele>187.0</ele><time>2026-04-26T13:10:56.009Z</time></trkpt><trkpt lat="43.31173037728352" lon="10.607920160675983"><ele>187.0</ele><time>2026-04-26T13:10:57.009Z</time></trkpt><trkpt lat="43.31174371880152" lon="10.608065626187528"><ele>187.0</ele><time>2026-04-26T13:10:58.009Z</time></trkpt><trkpt lat="43.311774438719794" lon="10.608248740826527"><ele>187.0</ele><time>2026-04-26T13:10:59.009Z</time></trkpt><trkpt lat="43.311776495572396" lon="10.608428682329633"><ele>188.25</ele><time>2026-04-26T13:11:00.009Z</time></trkpt><trkpt lat="43.31175617859241" lon="10.608604689976396"><ele>189.5</ele><time>2026-04-26T13:11:01.009Z</time></trkpt><trkpt lat="43.31173300892245" lon="10.608786997598376"><ele>190.75</ele><time>2026-04-26T13:11:02.009Z</time></trkpt><trkpt lat="43.31170041087895" lon="10.608961330152617"><ele>192.0</ele><time>2026-04-26T13:11:03.009Z</time></trkpt><trkpt lat="43.31166821174973" lon="10.609111038481988"><ele>192.39999999999998</ele><time>2026-04-26T13:11:04.009Z</time></trkpt><trkpt lat="43.31164609934992" lon="10.609231755579842"><ele>192.79999999999998</ele><time>2026-04-26T13:11:05.009Z</time></trkpt><trkpt lat="43.311660509148126" lon="10.609335807072725"><ele>193.2</ele><time>2026-04-26T13:11:06.009Z</time></trkpt><trkpt lat="43.31169716066141" lon="10.609471475295646"><ele>193.6</ele><time>2026-04-26T13:11:07.009Z</time></trkpt><trkpt lat="43.311758254900916" lon="10.609630348903071"><ele>194.0</ele><time>2026-04-26T13:11:08.009Z</time></trkpt><trkpt lat="43.311822086996465" lon="10.609796882206638"><ele>195.0</ele><time>2026-04-26T13:11:09.009Z</time></trkpt><trkpt lat="43.31182370025332" lon="10.609936026028834"><ele>196.0</ele><time>2026-04-26T13:11:10.009Z</time></trkpt><trkpt lat="43.31180682775095" lon="10.6100745630606"><ele>197.0</ele><time>2026-04-26T13:11:11.009Z</time></trkpt><trkpt lat="43.311770635327434" lon="10.610247431856406"><ele>198.0</ele><time>2026-04-26T13:11:12.009Z</time></trkpt><trkpt lat="43.31175501986765" lon="10.610436211953889"><ele>198.66666666666669</ele><time>2026-04-26T13:11:13.009Z</time></trkpt><trkpt lat="43.31177724198464" lon="10.610609493627862"><ele>199.33333333333334</ele><time>2026-04-26T13:11:14.009Z</time></trkpt><trkpt lat="43.311800239664436" lon="10.610820655961088"><ele>200.0</ele><time>2026-04-26T13:11:15.009Z</time></trkpt><trkpt lat="43.31184170130938" lon="10.611055284465701"><ele>200.33333333333334</ele><time>2026-04-26T13:11:16.009Z</time></trkpt><trkpt lat="43.31190232418722" lon="10.611293384492411"><ele>200.66666666666669</ele><time>2026-04-26T13:11:17.01Z</time></trkpt><trkpt lat="43.31197006786015" lon="10.611538764609854"><ele>201.0</ele><time>2026-04-26T13:11:18.01Z</time></trkpt><trkpt lat="43.31202558913956" lon="10.61177395688318"><ele>201.0</ele><time>2026-04-26T13:11:19.01Z</time></trkpt><trkpt lat="43.31207256042462" lon="10.611981562709541"><ele>201.0</ele><time>2026-04-26T13:11:20.01Z</time></trkpt><trkpt lat="43.31209501516856" lon="10.612175446932753"><ele>201.0</ele><time>2026-04-26T13:11:21.01Z</time></trkpt><trkpt lat="43.31212932556857" lon="10.612347350719585"><ele>201.0</ele><time>2026-04-26T13:11:22.01Z</time></trkpt><trkpt lat="43.31217560019472" lon="10.612510507162717"><ele>201.4</ele><time>2026-04-26T13:11:23.01Z</time></trkpt><trkpt lat="43.312203911667595" lon="10.612675286471774"><ele>201.8</ele><time>2026-04-26T13:11:24.01Z</time></trkpt><trkpt lat="43.31222713726856" lon="10.612818446323173"><ele>202.20000000000002</ele><time>2026-04-26T13:11:25.01Z</time></trkpt><trkpt lat="43.312264742638106" lon="10.612950379159951"><ele>202.60000000000002</ele><time>2026-04-26T13:11:26.01Z</time></trkpt><trkpt lat="43.312322383706174" lon="10.61306666955807"><ele>203.0</ele><time>2026-04-26T13:11:27.01Z</time></trkpt><trkpt lat="43.31241500060355" lon="10.613177060239781"><ele>205.75</ele><time>2026-04-26T13:11:28.01Z</time></trkpt><trkpt lat="43.31252250538566" lon="10.613293951352041"><ele>208.5</ele><time>2026-04-26T13:11:29.01Z</time></trkpt><trkpt lat="43.31262962915638" lon="10.613418354024137"><ele>211.25</ele><time>2026-04-26T13:11:30.01Z</time></trkpt><trkpt lat="43.31271875625855" lon="10.613558310365097"><ele>214.0</ele><time>2026-04-26T13:11:31.01Z</time></trkpt><trkpt lat="43.31279894584775" lon="10.613720740547334"><ele>214.0</ele><time>2026-04-26T13:11:32.01Z</time></trkpt><trkpt lat="43.312864142280176" lon="10.613878604328717"><ele>214.0</ele><time>2026-04-26T13:11:33.01Z</time></trkpt><trkpt lat="43.31289827573321" lon="10.614046896275607"><ele>214.0</ele><time>2026-04-26T13:11:34.01Z</time></trkpt><trkpt lat="43.31294813031355" lon="10.614214560764594"><ele>214.0</ele><time>2026-04-26T13:11:35.01Z</time></trkpt><trkpt lat="43.312974941776744" lon="10.614400942552615"><ele>215.5</ele><time>2026-04-26T13:11:36.01Z</time></trkpt><trkpt lat="43.313003982728674" lon="10.614589344789088"><ele>217.0</ele><time>2026-04-26T13:11:37.01Z</time></trkpt><trkpt lat="43.3130393251953" lon="10.614761090039027"><ele>218.5</ele><time>2026-04-26T13:11:38.01Z</time></trkpt><trkpt lat="43.31307087281485" lon="10.614916676924738"><ele>220.0</ele><time>2026-04-26T13:11:39.01Z</time></trkpt><trkpt lat="43.313125669975584" lon="10.615089740186509"><ele>220.0</ele><time>2026-04-26T13:11:40.01Z</time></trkpt><trkpt lat="43.313185050480804" lon="10.615247393524845"><ele>220.0</ele><time>2026-04-26T13:11:41.01Z</time></trkpt><trkpt lat="43.313238665423846" lon="10.615408871414239"><ele>220.0</ele><time>2026-04-26T13:11:42.01Z</time></trkpt><trkpt lat="43.31328748697301" lon="10.615608737103999"><ele>220.0</ele><time>2026-04-26T13:11:43.01Z</time></trkpt><trkpt lat="43.31333782336439" lon="10.61582136280991"><ele>220.0</ele><time>2026-04-26T13:11:44.01Z</time></trkpt><trkpt lat="43.31337605358579" lon="10.616004693154565"><ele>220.0</ele><time>2026-04-26T13:11:45.01Z</time></trkpt><trkpt lat="43.31341184597022" lon="10.61617520273549"><ele>220.0</ele><time>2026-04-26T13:11:46.01Z</time></trkpt><trkpt lat="43.31346421798988" lon="10.616385494706412"><ele>220.0</ele><time>2026-04-26T13:11:47.01Z</time></trkpt><trkpt lat="43.31352406083339" lon="10.616592480321408"><ele>220.0</ele><time>2026-04-26T13:11:48.01Z</time></trkpt><trkpt lat="43.31356881099359" lon="10.616755642690055"><ele>220.0</ele><time>2026-04-26T13:11:49.01Z</time></trkpt><trkpt lat="43.31360080231112" lon="10.61687366339794"><ele>220.0</ele><time>2026-04-26T13:11:50.01Z</time></trkpt><trkpt lat="43.313622476235956" lon="10.616964639110764"><ele>220.0</ele><time>2026-04-26T13:11:51.01Z</time></trkpt><trkpt lat="43.313664751550824" lon="10.617097034976304"><ele>220.0</ele><time>2026-04-26T13:11:53.01Z</time></trkpt><trkpt lat="43.3137134739271" lon="10.617236173524846"><ele>220.33333333333331</ele><time>2026-04-26T13:11:55.01Z</time></trkpt><trkpt lat="43.313767196767" lon="10.61731741083338"><ele>220.66666666666666</ele><time>2026-04-26T13:11:56.01Z</time></trkpt><trkpt lat="43.31382979585683" lon="10.617390667424422"><ele>221.0</ele><time>2026-04-26T13:11:57.01Z</time></trkpt><trkpt lat="43.3138904789018" lon="10.617432299901044"><ele>221.33333333333331</ele><time>2026-04-26T13:11:58.011Z</time></trkpt><trkpt lat="43.313967613156144" lon="10.61742219378418"><ele>221.66666666666666</ele><time>2026-04-26T13:12:00.011Z</time></trkpt><trkpt lat="43.31404097780519" lon="10.617299887336433"><ele>222.0</ele><time>2026-04-26T13:12:04.011Z</time></trkpt><trkpt lat="43.31404277928815" lon="10.617201098647167"><ele>222.0</ele><time>2026-04-26T13:12:05.011Z</time></trkpt><trkpt lat="43.31404778380332" lon="10.617077097299534"><ele>222.0</ele><time>2026-04-26T13:12:06.011Z</time></trkpt><trkpt lat="43.31406487681761" lon="10.616949694772682"><ele>222.0</ele><time>2026-04-26T13:12:07.011Z</time></trkpt><trkpt lat="43.31409750296892" lon="10.61681225651554"><ele>222.0</ele><time>2026-04-26T13:12:08.011Z</time></trkpt><trkpt lat="43.31414069650054" lon="10.616680412033087"><ele>222.0</ele><time>2026-04-26T13:12:09.011Z</time></trkpt><trkpt lat="43.314187882389966" lon="10.616551401247587"><ele>222.6</ele><time>2026-04-26T13:12:10.011Z</time></trkpt><trkpt lat="43.31423500043854" lon="10.616416061409923"><ele>223.2</ele><time>2026-04-26T13:12:11.011Z</time></trkpt><trkpt lat="43.31427948433747" lon="10.61628938479767"><ele>223.8</ele><time>2026-04-26T13:12:12.011Z</time></trkpt><trkpt lat="43.31432900635023" lon="10.616161683180227"><ele>224.4</ele><time>2026-04-26T13:12:13.011Z</time></trkpt><trkpt lat="43.31437669282995" lon="10.616034307801193"><ele>225.0</ele><time>2026-04-26T13:12:14.011Z</time></trkpt><trkpt lat="43.314421875394814" lon="10.615906513609232"><ele>225.0</ele><time>2026-04-26T13:12:15.011Z</time></trkpt><trkpt lat="43.31446329617132" lon="10.61579040037102"><ele>225.0</ele><time>2026-04-26T13:12:16.011Z</time></trkpt><trkpt lat="43.31451108727319" lon="10.61568093938709"><ele>225.0</ele><time>2026-04-26T13:12:17.011Z</time></trkpt><trkpt lat="43.31454874223671" lon="10.615560431170675"><ele>225.0</ele><time>2026-04-26T13:12:18.011Z</time></trkpt><trkpt lat="43.314592177090816" lon="10.615447288232318"><ele>225.0</ele><time>2026-04-26T13:12:19.011Z</time></trkpt><trkpt lat="43.314641685914516" lon="10.615349828269846"><ele>224.0</ele><time>2026-04-26T13:12:20.011Z</time></trkpt><trkpt lat="43.31467082030253" lon="10.615237166517618"><ele>223.0</ele><time>2026-04-26T13:12:21.011Z</time></trkpt><trkpt lat="43.31471685748917" lon="10.615128868089608"><ele>222.0</ele><time>2026-04-26T13:12:22.011Z</time></trkpt><trkpt lat="43.314749988436404" lon="10.615002594753516"><ele>221.0</ele><time>2026-04-26T13:12:23.011Z</time></trkpt><trkpt lat="43.314766277435425" lon="10.614857857864195"><ele>220.0</ele><time>2026-04-26T13:12:24.011Z</time></trkpt><trkpt lat="43.31477516557976" lon="10.614722337054271"><ele>219.0</ele><time>2026-04-26T13:12:25.011Z</time></trkpt><trkpt lat="43.31477562958694" lon="10.614581708081374"><ele>218.0</ele><time>2026-04-26T13:12:26.011Z</time></trkpt><trkpt lat="43.31477345057068" lon="10.614441188883259"><ele>217.0</ele><time>2026-04-26T13:12:27.011Z</time></trkpt><trkpt lat="43.31479307666995" lon="10.614303130820838"><ele>216.0</ele><time>2026-04-26T13:12:28.011Z</time></trkpt><trkpt lat="43.31479835904096" lon="10.614166737967087"><ele>215.0</ele><time>2026-04-26T13:12:29.011Z</time></trkpt><trkpt lat="43.31481035968414" lon="10.614019537351044"><ele>214.4</ele><time>2026-04-26T13:12:30.011Z</time></trkpt><trkpt lat="43.31482219774237" lon="10.613870971651668"><ele>213.8</ele><time>2026-04-26T13:12:31.011Z</time></trkpt><trkpt lat="43.314833791096795" lon="10.6137229735331"><ele>213.2</ele><time>2026-04-26T13:12:32.011Z</time></trkpt><trkpt lat="43.31483653198855" lon="10.61357724123781"><ele>212.6</ele><time>2026-04-26T13:12:33.011Z</time></trkpt><trkpt lat="43.314840290028236" lon="10.613430240534282"><ele>212.0</ele><time>2026-04-26T13:12:34.011Z</time></trkpt><trkpt lat="43.31484505833211" lon="10.613276796224659"><ele>210.25</ele><time>2026-04-26T13:12:35.011Z</time></trkpt><trkpt lat="43.31485170818299" lon="10.61312053762428"><ele>208.5</ele><time>2026-04-26T13:12:36.011Z</time></trkpt><trkpt lat="43.314869378116605" lon="10.612962139981086"><ele>206.75</ele><time>2026-04-26T13:12:37.011Z</time></trkpt><trkpt lat="43.31489336487474" lon="10.612796265132397"><ele>205.0</ele><time>2026-04-26T13:12:38.011Z</time></trkpt><trkpt lat="43.31492806226151" lon="10.612628418208892"><ele>204.25</ele><time>2026-04-26T13:12:39.012Z</time></trkpt><trkpt lat="43.31497286821917" lon="10.61246194406906"><ele>203.5</ele><time>2026-04-26T13:12:40.012Z</time></trkpt><trkpt lat="43.315017454692" lon="10.612293792164133"><ele>202.75</ele><time>2026-04-26T13:12:41.012Z</time></trkpt><trkpt lat="43.31505808609394" lon="10.61212728452471"><ele>202.0</ele><time>2026-04-26T13:12:42.012Z</time></trkpt><trkpt lat="43.31508673377364" lon="10.611950716178734"><ele>202.0</ele><time>2026-04-26T13:12:43.012Z</time></trkpt><trkpt lat="43.31510188347002" lon="10.611746118995065"><ele>202.0</ele><time>2026-04-26T13:12:44.012Z</time></trkpt><trkpt lat="43.3151102411409" lon="10.611533257252644"><ele>202.0</ele><time>2026-04-26T13:12:45.013Z</time></trkpt><trkpt lat="43.31510439195062" lon="10.611335300186884"><ele>202.0</ele><time>2026-04-26T13:12:46.013Z</time></trkpt><trkpt lat="43.31509029448286" lon="10.611142057744223"><ele>201.0</ele><time>2026-04-26T13:12:47.013Z</time></trkpt><trkpt lat="43.31506552876103" lon="10.610953273061037"><ele>200.0</ele><time>2026-04-26T13:12:48.013Z</time></trkpt><trkpt lat="43.31502283835449" lon="10.610774732670608"><ele>199.0</ele><time>2026-04-26T13:12:49.013Z</time></trkpt><trkpt lat="43.314953931537886" lon="10.610593065692083"><ele>198.0</ele><time>2026-04-26T13:12:50.013Z</time></trkpt><trkpt lat="43.31487230671163" lon="10.610417697474908"><ele>195.75</ele><time>2026-04-26T13:12:51.013Z</time></trkpt><trkpt lat="43.3148012727282" lon="10.61024139574897"><ele>193.5</ele><time>2026-04-26T13:12:52.013Z</time></trkpt><trkpt lat="43.314746184865804" lon="10.61005963081257"><ele>191.25</ele><time>2026-04-26T13:12:53.013Z</time></trkpt><trkpt lat="43.31471555944697" lon="10.609871464694582"><ele>189.0</ele><time>2026-04-26T13:12:54.013Z</time></trkpt><trkpt lat="43.314695048623975" lon="10.60968471302858"><ele>188.0</ele><time>2026-04-26T13:12:55.013Z</time></trkpt><trkpt lat="43.31467774922404" lon="10.609504295225781"><ele>187.0</ele><time>2026-04-26T13:12:56.013Z</time></trkpt><trkpt lat="43.31466952842656" lon="10.60932930157779"><ele>186.0</ele><time>2026-04-26T13:12:57.013Z</time></trkpt><trkpt lat="43.31466887523872" lon="10.609149646885356"><ele>185.0</ele><time>2026-04-26T13:12:58.013Z</time></trkpt><trkpt lat="43.31467183528966" lon="10.60896337871913"><ele>184.0</ele><time>2026-04-26T13:12:59.013Z</time></trkpt><trkpt lat="43.31470412629553" lon="10.608770721732157"><ele>183.0</ele><time>2026-04-26T13:13:00.013Z</time></trkpt><trkpt lat="43.31470122389256" lon="10.608571586129216"><ele>182.0</ele><time>2026-04-26T13:13:01.013Z</time></trkpt><trkpt lat="43.31471849272024" lon="10.608362748825085"><ele>181.0</ele><time>2026-04-26T13:13:02.013Z</time></trkpt><trkpt lat="43.31471251643067" lon="10.60815885210102"><ele>179.5</ele><time>2026-04-26T13:13:03.013Z</time></trkpt><trkpt lat="43.31470330606508" lon="10.607953933781127"><ele>178.0</ele><time>2026-04-26T13:13:04.013Z</time></trkpt><trkpt lat="43.31469815613614" lon="10.607755841234464"><ele>176.5</ele><time>2026-04-26T13:13:05.013Z</time></trkpt><trkpt lat="43.314690075569786" lon="10.607563422227736"><ele>175.0</ele><time>2026-04-26T13:13:06.013Z</time></trkpt><trkpt lat="43.31468128265838" lon="10.607381404138495"><ele>174.5</ele><time>2026-04-26T13:13:07.013Z</time></trkpt><trkpt lat="43.31466110076237" lon="10.607196870611226"><ele>174.0</ele><time>2026-04-26T13:13:08.013Z</time></trkpt><trkpt lat="43.31462702460838" lon="10.60702417863575"><ele>173.5</ele><time>2026-04-26T13:13:09.013Z</time></trkpt><trkpt lat="43.31458438541655" lon="10.606856515154108"><ele>173.0</ele><time>2026-04-26T13:13:10.013Z</time></trkpt><trkpt lat="43.314538264576385" lon="10.606696308214842"><ele>173.0</ele><time>2026-04-26T13:13:11.013Z</time></trkpt><trkpt lat="43.31449427326007" lon="10.606541408371537"><ele>173.0</ele><time>2026-04-26T13:13:12.013Z</time></trkpt><trkpt lat="43.31445301657509" lon="10.606389452740562"><ele>173.0</ele><time>2026-04-26T13:13:13.013Z</time></trkpt><trkpt lat="43.31441225979947" lon="10.606238646358452"><ele>173.0</ele><time>2026-04-26T13:13:14.013Z</time></trkpt><trkpt lat="43.31439058463" lon="10.606083784324486"><ele>173.60000000000002</ele><time>2026-04-26T13:13:15.013Z</time></trkpt><trkpt lat="43.31434860259199" lon="10.60594372902137"><ele>174.20000000000002</ele><time>2026-04-26T13:13:16.013Z</time></trkpt><trkpt lat="43.314317209512076" lon="10.605801134353822"><ele>174.8</ele><time>2026-04-26T13:13:17.013Z</time></trkpt><trkpt lat="43.31428270426821" lon="10.605661171825348"><ele>175.4</ele><time>2026-04-26T13:13:18.013Z</time></trkpt><trkpt lat="43.31424344100002" lon="10.605527584376638"><ele>176.0</ele><time>2026-04-26T13:13:19.013Z</time></trkpt><trkpt lat="43.31419918109915" lon="10.605393778000217"><ele>175.60000000000002</ele><time>2026-04-26T13:13:20.014Z</time></trkpt><trkpt lat="43.31415255093246" lon="10.605266021763393"><ele>175.2</ele><time>2026-04-26T13:13:21.014Z</time></trkpt><trkpt lat="43.3141043383695" lon="10.605141345566249"><ele>174.8</ele><time>2026-04-26T13:13:22.014Z</time></trkpt><trkpt lat="43.314055093158515" lon="10.605017966737504"><ele>174.39999999999998</ele><time>2026-04-26T13:13:23.014Z</time></trkpt><trkpt lat="43.31401261202992" lon="10.604893810655877"><ele>174.0</ele><time>2026-04-26T13:13:24.014Z</time></trkpt><trkpt lat="43.313984352176675" lon="10.604765110790456"><ele>174.0</ele><time>2026-04-26T13:13:25.014Z</time></trkpt><trkpt lat="43.313962135075556" lon="10.604641927504844"><ele>174.0</ele><time>2026-04-26T13:13:26.014Z</time></trkpt><trkpt lat="43.3139477874971" lon="10.6045184194758"><ele>174.0</ele><time>2026-04-26T13:13:27.014Z</time></trkpt><trkpt lat="43.313933862678894" lon="10.604397992760678"><ele>174.0</ele><time>2026-04-26T13:13:28.014Z</time></trkpt><trkpt lat="43.31392019643675" lon="10.60428319518666"><ele>174.0</ele><time>2026-04-26T13:13:29.014Z</time></trkpt><trkpt lat="43.31390599884335" lon="10.604163957099505"><ele>174.0</ele><time>2026-04-26T13:13:30.014Z</time></trkpt><trkpt lat="43.31389530467951" lon="10.604042138752439"><ele>173.16666666666666</ele><time>2026-04-26T13:13:31.014Z</time></trkpt><trkpt lat="43.3138887206671" lon="10.603922484063352"><ele>172.33333333333334</ele><time>2026-04-26T13:13:32.014Z</time></trkpt><trkpt lat="43.31391288357071" lon="10.60381357508891"><ele>171.5</ele><time>2026-04-26T13:13:33.014Z</time></trkpt><trkpt lat="43.31393417279776" lon="10.603695752676263"><ele>170.66666666666669</ele><time>2026-04-26T13:13:34.014Z</time></trkpt><trkpt lat="43.3139656228646" lon="10.60357733088191"><ele>169.83333333333334</ele><time>2026-04-26T13:13:35.014Z</time></trkpt><trkpt lat="43.31397829051458" lon="10.60346009510412"><ele>169.0</ele><time>2026-04-26T13:13:36.014Z</time></trkpt><trkpt lat="43.314019569062445" lon="10.603374695774168"><ele>168.0</ele><time>2026-04-26T13:13:37.014Z</time></trkpt><trkpt lat="43.31403090284564" lon="10.603267639796147"><ele>167.0</ele><time>2026-04-26T13:13:38.014Z</time></trkpt><trkpt lat="43.31404155963941" lon="10.60315490896829"><ele>166.0</ele><time>2026-04-26T13:13:39.014Z</time></trkpt><trkpt lat="43.31402978311167" lon="10.603039973195903"><ele>165.0</ele><time>2026-04-26T13:13:40.014Z</time></trkpt><trkpt lat="43.31399909137059" lon="10.60293441278561"><ele>164.0</ele><time>2026-04-26T13:13:41.014Z</time></trkpt><trkpt lat="43.313957304548" lon="10.602820841105352"><ele>163.0</ele><time>2026-04-26T13:13:42.014Z</time></trkpt><trkpt lat="43.31391969647424" lon="10.602723882737113"><ele>161.16666666666669</ele><time>2026-04-26T13:13:43.014Z</time></trkpt><trkpt lat="43.31388656807982" lon="10.602630643760454"><ele>159.33333333333334</ele><time>2026-04-26T13:13:44.014Z</time></trkpt><trkpt lat="43.31385810295683" lon="10.60255052958696"><ele>157.5</ele><time>2026-04-26T13:13:45.014Z</time></trkpt><trkpt lat="43.31380910401989" lon="10.6024621866357"><ele>155.66666666666666</ele><time>2026-04-26T13:13:46.014Z</time></trkpt><trkpt lat="43.31377369656065" lon="10.602346449956807"><ele>153.83333333333331</ele><time>2026-04-26T13:13:47.014Z</time></trkpt><trkpt lat="43.31373743722852" lon="10.602218854867953"><ele>152.0</ele><time>2026-04-26T13:13:48.014Z</time></trkpt><trkpt lat="43.313720331620665" lon="10.602082404685476"><ele>151.25</ele><time>2026-04-26T13:13:49.014Z</time></trkpt><trkpt lat="43.31371367250764" lon="10.601921486287264"><ele>150.5</ele><time>2026-04-26T13:13:50.014Z</time></trkpt><trkpt lat="43.31371139702409" lon="10.601751193864738"><ele>149.75</ele><time>2026-04-26T13:13:51.014Z</time></trkpt><trkpt lat="43.31371459540003" lon="10.601570711816883"><ele>149.0</ele><time>2026-04-26T13:13:52.014Z</time></trkpt><trkpt lat="43.31372883784553" lon="10.601381177690305"><ele>149.0</ele><time>2026-04-26T13:13:53.014Z</time></trkpt><trkpt lat="43.31375850675794" lon="10.601201461438357"><ele>149.0</ele><time>2026-04-26T13:13:54.014Z</time></trkpt><trkpt lat="43.31378085855784" lon="10.601013729035188"><ele>149.0</ele><time>2026-04-26T13:13:55.014Z</time></trkpt><trkpt lat="43.31379809499742" lon="10.600818086889555"><ele>149.0</ele><time>2026-04-26T13:13:56.014Z</time></trkpt><trkpt lat="43.31381355426005" lon="10.600632127070106"><ele>148.25</ele><time>2026-04-26T13:13:57.014Z</time></trkpt><trkpt lat="43.31383599834706" lon="10.600459814706905"><ele>147.5</ele><time>2026-04-26T13:13:58.014Z</time></trkpt><trkpt lat="43.313854975087146" lon="10.600294533240035"><ele>146.75</ele><time>2026-04-26T13:13:59.014Z</time></trkpt><trkpt lat="43.3138729476488" lon="10.600133625708212"><ele>146.0</ele><time>2026-04-26T13:14:00.015Z</time></trkpt><trkpt lat="43.31389402596503" lon="10.599980429970943"><ele>145.75</ele><time>2026-04-26T13:14:01.015Z</time></trkpt><trkpt lat="43.313911974341366" lon="10.599829382876864"><ele>145.5</ele><time>2026-04-26T13:14:02.015Z</time></trkpt><trkpt lat="43.31392679875634" lon="10.599677373404996"><ele>145.25</ele><time>2026-04-26T13:14:03.015Z</time></trkpt><trkpt lat="43.313942231910744" lon="10.599516426208918"><ele>145.0</ele><time>2026-04-26T13:14:04.015Z</time></trkpt><trkpt lat="43.313960342091114" lon="10.599345494351752"><ele>145.0</ele><time>2026-04-26T13:14:05.015Z</time></trkpt><trkpt lat="43.31398116161503" lon="10.599167856690784"><ele>145.0</ele><time>2026-04-26T13:14:06.015Z</time></trkpt><trkpt lat="43.31399755104648" lon="10.598985718207064"><ele>145.0</ele><time>2026-04-26T13:14:07.015Z</time></trkpt><trkpt lat="43.3140168028789" lon="10.598800679571685"><ele>145.0</ele><time>2026-04-26T13:14:08.015Z</time></trkpt><trkpt lat="43.314093714036" lon="10.598082323653157"><ele>144.6</ele><time>2026-04-26T13:14:12.015Z</time></trkpt><trkpt lat="43.314120328116154" lon="10.59792486769808"><ele>144.2</ele><time>2026-04-26T13:14:13.015Z</time></trkpt><trkpt lat="43.31414970181575" lon="10.59778075668137"><ele>143.8</ele><time>2026-04-26T13:14:14.015Z</time></trkpt><trkpt lat="43.31418531414103" lon="10.59764340130899"><ele>143.4</ele><time>2026-04-26T13:14:15.015Z</time></trkpt><trkpt lat="43.314222067632336" lon="10.597508840058122"><ele>143.0</ele><time>2026-04-26T13:14:16.015Z</time></trkpt><trkpt lat="43.314253088133476" lon="10.59736848572728"><ele>142.25</ele><time>2026-04-26T13:14:17.015Z</time></trkpt><trkpt lat="43.31428713111801" lon="10.597221975909264"><ele>141.5</ele><time>2026-04-26T13:14:18.015Z</time></trkpt><trkpt lat="43.31432236793684" lon="10.597074565467969"><ele>140.75</ele><time>2026-04-26T13:14:19.015Z</time></trkpt><trkpt lat="43.3143759561047" lon="10.596928939138683"><ele>140.0</ele><time>2026-04-26T13:14:20.015Z</time></trkpt><trkpt lat="43.31440315929824" lon="10.596783897211456"><ele>139.0</ele><time>2026-04-26T13:14:21.015Z</time></trkpt><trkpt lat="43.31441530208188" lon="10.596632595073055"><ele>138.0</ele><time>2026-04-26T13:14:22.015Z</time></trkpt><trkpt lat="43.31441711654572" lon="10.59647984548492"><ele>137.0</ele><time>2026-04-26T13:14:23.015Z</time></trkpt><trkpt lat="43.314413561624725" lon="10.596324001341449"><ele>136.0</ele><time>2026-04-26T13:14:24.015Z</time></trkpt><trkpt lat="43.3143994862662" lon="10.596169300882378"><ele>135.0</ele><time>2026-04-26T13:14:25.015Z</time></trkpt><trkpt lat="43.31437087533777" lon="10.596014450630335"><ele>134.5</ele><time>2026-04-26T13:14:26.015Z</time></trkpt><trkpt lat="43.31433475373571" lon="10.59585179916735"><ele>134.0</ele><time>2026-04-26T13:14:27.015Z</time></trkpt><trkpt lat="43.31429175736585" lon="10.595699235267789"><ele>133.5</ele><time>2026-04-26T13:14:28.015Z</time></trkpt><trkpt lat="43.31424106724468" lon="10.595549401350521"><ele>133.0</ele><time>2026-04-26T13:14:29.015Z</time></trkpt><trkpt lat="43.31420827337487" lon="10.59539958360808"><ele>133.4</ele><time>2026-04-26T13:14:30.015Z</time></trkpt><trkpt lat="43.31420240993711" lon="10.595255783688893"><ele>133.8</ele><time>2026-04-26T13:14:31.015Z</time></trkpt><trkpt lat="43.314204699898234" lon="10.595119412852481"><ele>134.2</ele><time>2026-04-26T13:14:32.015Z</time></trkpt><trkpt lat="43.31421920744212" lon="10.594992482148266"><ele>134.6</ele><time>2026-04-26T13:14:33.015Z</time></trkpt><trkpt lat="43.314244443166366" lon="10.594868943643352"><ele>135.0</ele><time>2026-04-26T13:14:34.015Z</time></trkpt><trkpt lat="43.31426539619484" lon="10.594747970977135"><ele>135.0</ele><time>2026-04-26T13:14:35.015Z</time></trkpt><trkpt lat="43.314298902706184" lon="10.594601564065844"><ele>135.0</ele><time>2026-04-26T13:14:36.015Z</time></trkpt><trkpt lat="43.31433695878621" lon="10.594438374289421"><ele>135.0</ele><time>2026-04-26T13:14:37.015Z</time></trkpt><trkpt lat="43.31437245602927" lon="10.59426102172664"><ele>135.0</ele><time>2026-04-26T13:14:38.015Z</time></trkpt><trkpt lat="43.31441400707282" lon="10.5941013977217"><ele>134.4</ele><time>2026-04-26T13:14:39.015Z</time></trkpt><trkpt lat="43.314464217811924" lon="10.59395859982858"><ele>133.8</ele><time>2026-04-26T13:14:40.015Z</time></trkpt><trkpt lat="43.314521638216306" lon="10.593828960251654"><ele>133.2</ele><time>2026-04-26T13:14:41.016Z</time></trkpt><trkpt lat="43.31458982950198" lon="10.593717445228007"><ele>132.6</ele><time>2026-04-26T13:14:42.016Z</time></trkpt><trkpt lat="43.31465935460019" lon="10.593611133974376"><ele>132.0</ele><time>2026-04-26T13:14:43.016Z</time></trkpt><trkpt lat="43.314736538943684" lon="10.59350949581203"><ele>131.6</ele><time>2026-04-26T13:14:44.016Z</time></trkpt><trkpt lat="43.31479716780731" lon="10.593411491961204"><ele>131.2</ele><time>2026-04-26T13:14:45.016Z</time></trkpt><trkpt lat="43.314855907379254" lon="10.593316858861996"><ele>130.8</ele><time>2026-04-26T13:14:46.016Z</time></trkpt><trkpt lat="43.314915193316914" lon="10.593210647407256"><ele>130.4</ele><time>2026-04-26T13:14:47.016Z</time></trkpt><trkpt lat="43.31496141565442" lon="10.593097178962108"><ele>130.0</ele><time>2026-04-26T13:14:48.016Z</time></trkpt><trkpt lat="43.31499920357478" lon="10.592947457840838"><ele>129.75</ele><time>2026-04-26T13:14:49.016Z</time></trkpt><trkpt lat="43.31503086896528" lon="10.592772773071534"><ele>129.5</ele><time>2026-04-26T13:14:50.016Z</time></trkpt><trkpt lat="43.31505506818401" lon="10.592595619410277"><ele>129.25</ele><time>2026-04-26T13:14:51.016Z</time></trkpt><trkpt lat="43.31506415979927" lon="10.592426786035508"><ele>129.0</ele><time>2026-04-26T13:14:52.016Z</time></trkpt><trkpt lat="43.31506948694945" lon="10.592261062508568"><ele>129.0</ele><time>2026-04-26T13:14:53.016Z</time></trkpt><trkpt lat="43.31508251058513" lon="10.592103108793085"><ele>129.0</ele><time>2026-04-26T13:14:54.016Z</time></trkpt><trkpt lat="43.315086777863065" lon="10.591950723321759"><ele>129.0</ele><time>2026-04-26T13:14:55.016Z</time></trkpt><trkpt lat="43.31509560993254" lon="10.591803375080548"><ele>129.0</ele><time>2026-04-26T13:14:56.016Z</time></trkpt><trkpt lat="43.31510681692922" lon="10.591656748851586"><ele>129.0</ele><time>2026-04-26T13:14:57.016Z</time></trkpt><trkpt lat="43.315123237608454" lon="10.591514535592266"><ele>129.0</ele><time>2026-04-26T13:14:58.016Z</time></trkpt><trkpt lat="43.31514136652405" lon="10.591371225013878"><ele>129.0</ele><time>2026-04-26T13:14:59.016Z</time></trkpt><trkpt lat="43.31515292277593" lon="10.591232964044687"><ele>129.0</ele><time>2026-04-26T13:15:00.016Z</time></trkpt><trkpt lat="43.31515932121364" lon="10.591094541452813"><ele>129.0</ele><time>2026-04-26T13:15:01.016Z</time></trkpt><trkpt lat="43.31519174313703" lon="10.590956080057028"><ele>129.0</ele><time>2026-04-26T13:15:02.016Z</time></trkpt><trkpt lat="43.3151916960278" lon="10.590825208565027"><ele>129.8</ele><time>2026-04-26T13:15:03.016Z</time></trkpt><trkpt lat="43.31518303648646" lon="10.590700201528596"><ele>130.60000000000002</ele><time>2026-04-26T13:15:04.016Z</time></trkpt><trkpt lat="43.315156920239616" lon="10.590559780462574"><ele>131.4</ele><time>2026-04-26T13:15:05.016Z</time></trkpt><trkpt lat="43.31511297809623" lon="10.590440145678935"><ele>132.20000000000002</ele><time>2026-04-26T13:15:06.016Z</time></trkpt><trkpt lat="43.315031072693124" lon="10.590325568290691"><ele>133.0</ele><time>2026-04-26T13:15:07.016Z</time></trkpt><trkpt lat="43.31497023281054" lon="10.590213759700971"><ele>132.4</ele><time>2026-04-26T13:15:08.016Z</time></trkpt><trkpt lat="43.31490266415444" lon="10.590105137157158"><ele>131.8</ele><time>2026-04-26T13:15:09.016Z</time></trkpt><trkpt lat="43.31484499287579" lon="10.590003901615956"><ele>131.2</ele><time>2026-04-26T13:15:10.016Z</time></trkpt><trkpt lat="43.3147888949406" lon="10.589909739901824"><ele>130.6</ele><time>2026-04-26T13:15:11.016Z</time></trkpt><trkpt lat="43.31473981764133" lon="10.589810761005115"><ele>130.0</ele><time>2026-04-26T13:15:12.016Z</time></trkpt><trkpt lat="43.31469998845477" lon="10.589696055910645"><ele>130.0</ele><time>2026-04-26T13:15:13.016Z</time></trkpt><trkpt lat="43.314667172713335" lon="10.58956481223213"><ele>130.0</ele><time>2026-04-26T13:15:14.016Z</time></trkpt><trkpt lat="43.314628213789284" lon="10.58941811194844"><ele>130.0</ele><time>2026-04-26T13:15:15.016Z</time></trkpt><trkpt lat="43.31458774969694" lon="10.589265079261184"><ele>130.0</ele><time>2026-04-26T13:15:16.016Z</time></trkpt><trkpt lat="43.31454573617693" lon="10.589094553493732"><ele>129.0</ele><time>2026-04-26T13:15:17.016Z</time></trkpt><trkpt lat="43.314513961581" lon="10.58892011381385"><ele>128.0</ele><time>2026-04-26T13:15:18.016Z</time></trkpt><trkpt lat="43.31447178886201" lon="10.588742613641726"><ele>127.0</ele><time>2026-04-26T13:15:19.016Z</time></trkpt><trkpt lat="43.31443605717648" lon="10.588561671220878"><ele>126.0</ele><time>2026-04-26T13:15:20.016Z</time></trkpt><trkpt lat="43.31437821641118" lon="10.588387056807596"><ele>124.75</ele><time>2026-04-26T13:15:21.016Z</time></trkpt><trkpt lat="43.31431374981178" lon="10.588229736268595"><ele>123.5</ele><time>2026-04-26T13:15:22.017Z</time></trkpt><trkpt lat="43.31423853487491" lon="10.588091414559601"><ele>122.25</ele><time>2026-04-26T13:15:23.017Z</time></trkpt><trkpt lat="43.31415687148034" lon="10.58797249962776"><ele>121.0</ele><time>2026-04-26T13:15:24.017Z</time></trkpt><trkpt lat="43.3140813961924" lon="10.58784038086362"><ele>120.5</ele><time>2026-04-26T13:15:25.017Z</time></trkpt><trkpt lat="43.31400859785402" lon="10.587725920118599"><ele>120.0</ele><time>2026-04-26T13:15:26.017Z</time></trkpt><trkpt lat="43.313923764255904" lon="10.587612213709173"><ele>119.5</ele><time>2026-04-26T13:15:27.017Z</time></trkpt><trkpt lat="43.31383895247685" lon="10.587490863780943"><ele>119.0</ele><time>2026-04-26T13:15:28.017Z</time></trkpt><trkpt lat="43.31375784043982" lon="10.587362382320041"><ele>120.25</ele><time>2026-04-26T13:15:29.017Z</time></trkpt><trkpt lat="43.31368116199684" lon="10.587230694058277"><ele>121.5</ele><time>2026-04-26T13:15:30.017Z</time></trkpt><trkpt lat="43.31361339725279" lon="10.58709332698534"><ele>122.75</ele><time>2026-04-26T13:15:31.017Z</time></trkpt><trkpt lat="43.31354742931751" lon="10.58695225544176"><ele>124.0</ele><time>2026-04-26T13:15:32.017Z</time></trkpt><trkpt lat="43.31348550298733" lon="10.586812102979467"><ele>124.0</ele><time>2026-04-26T13:15:33.017Z</time></trkpt><trkpt lat="43.31343736384067" lon="10.586673808864168"><ele>124.0</ele><time>2026-04-26T13:15:34.017Z</time></trkpt><trkpt lat="43.31339997098699" lon="10.586540741666337"><ele>124.0</ele><time>2026-04-26T13:15:35.017Z</time></trkpt><trkpt lat="43.313381474402405" lon="10.586423683301573"><ele>124.0</ele><time>2026-04-26T13:15:36.017Z</time></trkpt><trkpt lat="43.31337468848838" lon="10.586308026992665"><ele>124.0</ele><time>2026-04-26T13:15:37.017Z</time></trkpt><trkpt lat="43.31337495584247" lon="10.586205387718252"><ele>123.66666666666667</ele><time>2026-04-26T13:15:38.017Z</time></trkpt><trkpt lat="43.31338443265286" lon="10.586107828401865"><ele>123.33333333333334</ele><time>2026-04-26T13:15:39.017Z</time></trkpt><trkpt lat="43.31340751263839" lon="10.586016678296618"><ele>123.0</ele><time>2026-04-26T13:15:40.017Z</time></trkpt><trkpt lat="43.3134405991248" lon="10.58592749341616"><ele>122.66666666666666</ele><time>2026-04-26T13:15:41.017Z</time></trkpt><trkpt lat="43.31347630690141" lon="10.585832011540797"><ele>122.33333333333333</ele><time>2026-04-26T13:15:42.017Z</time></trkpt><trkpt lat="43.313530976807336" lon="10.585738580204257"><ele>122.0</ele><time>2026-04-26T13:15:43.017Z</time></trkpt><trkpt lat="43.3135862974946" lon="10.585637619692758"><ele>122.0</ele><time>2026-04-26T13:15:44.017Z</time></trkpt><trkpt lat="43.31364147480234" lon="10.585527257941369"><ele>121.99999999999999</ele><time>2026-04-26T13:15:45.017Z</time></trkpt><trkpt lat="43.31369588595434" lon="10.585415461692113"><ele>121.99999999999999</ele><time>2026-04-26T13:15:46.017Z</time></trkpt><trkpt lat="43.313752209127486" lon="10.585302162830272"><ele>122.0</ele><time>2026-04-26T13:15:47.017Z</time></trkpt><trkpt lat="43.31380548973003" lon="10.585193099996175"><ele>122.0</ele><time>2026-04-26T13:15:48.017Z</time></trkpt><trkpt lat="43.31386089493266" lon="10.585080174364526"><ele>121.8</ele><time>2026-04-26T13:15:49.017Z</time></trkpt><trkpt lat="43.31391148672778" lon="10.584961145533692"><ele>121.6</ele><time>2026-04-26T13:15:50.017Z</time></trkpt><trkpt lat="43.313957827894" lon="10.58483901595065"><ele>121.39999999999999</ele><time>2026-04-26T13:15:51.017Z</time></trkpt><trkpt lat="43.314005891200985" lon="10.584716361035944"><ele>121.19999999999999</ele><time>2026-04-26T13:15:52.017Z</time></trkpt><trkpt lat="43.31405511228955" lon="10.584600078333846"><ele>121.0</ele><time>2026-04-26T13:15:53.017Z</time></trkpt><trkpt lat="43.31409539933386" lon="10.584482516524142"><ele>121.0</ele><time>2026-04-26T13:15:54.017Z</time></trkpt><trkpt lat="43.314126904363235" lon="10.584363433873264"><ele>121.0</ele><time>2026-04-26T13:15:55.017Z</time></trkpt><trkpt lat="43.314150160556174" lon="10.58424550887601"><ele>121.0</ele><time>2026-04-26T13:15:56.017Z</time></trkpt><trkpt lat="43.3141730931514" lon="10.584120126172357"><ele>121.0</ele><time>2026-04-26T13:15:57.017Z</time></trkpt><trkpt lat="43.31418720055342" lon="10.58398196029755"><ele>121.0</ele><time>2026-04-26T13:15:58.017Z</time></trkpt><trkpt lat="43.31419370890859" lon="10.583829187007213"><ele>120.25</ele><time>2026-04-26T13:15:59.017Z</time></trkpt><trkpt lat="43.31418632150635" lon="10.58367233298689"><ele>119.5</ele><time>2026-04-26T13:16:00.017Z</time></trkpt><trkpt lat="43.31417685070423" lon="10.583509163224251"><ele>118.75</ele><time>2026-04-26T13:16:01.017Z</time></trkpt><trkpt lat="43.31416191927489" lon="10.583340841854898"><ele>118.0</ele><time>2026-04-26T13:16:02.017Z</time></trkpt><trkpt lat="43.314152454567726" lon="10.583170734234127"><ele>118.0</ele><time>2026-04-26T13:16:03.018Z</time></trkpt><trkpt lat="43.314143629721464" lon="10.582996662711306"><ele>118.0</ele><time>2026-04-26T13:16:04.018Z</time></trkpt><trkpt lat="43.314132545195626" lon="10.582814102591556"><ele>118.0</ele><time>2026-04-26T13:16:05.018Z</time></trkpt><trkpt lat="43.31412221810265" lon="10.582629772060228"><ele>118.0</ele><time>2026-04-26T13:16:06.018Z</time></trkpt><trkpt lat="43.314120560772324" lon="10.582440877489981"><ele>117.25</ele><time>2026-04-26T13:16:07.018Z</time></trkpt><trkpt lat="43.31410934086265" lon="10.582248926128358"><ele>116.5</ele><time>2026-04-26T13:16:08.018Z</time></trkpt><trkpt lat="43.31409855846103" lon="10.582054540507123"><ele>115.75</ele><time>2026-04-26T13:16:09.018Z</time></trkpt><trkpt lat="43.31408938140375" lon="10.581857678273881"><ele>115.0</ele><time>2026-04-26T13:16:10.018Z</time></trkpt><trkpt lat="43.314075092881055" lon="10.581659121497983"><ele>114.5</ele><time>2026-04-26T13:16:11.018Z</time></trkpt><trkpt lat="43.31406540895018" lon="10.581458709986416"><ele>114.0</ele><time>2026-04-26T13:16:12.018Z</time></trkpt><trkpt lat="43.314053838343646" lon="10.58125977318627"><ele>113.5</ele><time>2026-04-26T13:16:13.018Z</time></trkpt><trkpt lat="43.31404354388057" lon="10.581061032914679"><ele>113.0</ele><time>2026-04-26T13:16:14.018Z</time></trkpt><trkpt lat="43.31403323197475" lon="10.580867973284931"><ele>113.0</ele><time>2026-04-26T13:16:15.018Z</time></trkpt><trkpt lat="43.31402375429658" lon="10.580669507943814"><ele>113.0</ele><time>2026-04-26T13:16:16.018Z</time></trkpt><trkpt lat="43.31401836481539" lon="10.580470684200064"><ele>113.0</ele><time>2026-04-26T13:16:17.018Z</time></trkpt><trkpt lat="43.31400827788393" lon="10.580267702278004"><ele>113.0</ele><time>2026-04-26T13:16:18.018Z</time></trkpt><trkpt lat="43.31400129060807" lon="10.580071975046165"><ele>112.5</ele><time>2026-04-26T13:16:19.018Z</time></trkpt><trkpt lat="43.31399405957647" lon="10.579881037837733"><ele>112.0</ele><time>2026-04-26T13:16:20.018Z</time></trkpt><trkpt lat="43.31398965796184" lon="10.579680758886003"><ele>111.5</ele><time>2026-04-26T13:16:21.018Z</time></trkpt><trkpt lat="43.31399051029027" lon="10.579480662072747"><ele>111.0</ele><time>2026-04-26T13:16:22.018Z</time></trkpt><trkpt lat="43.31399547523381" lon="10.57927412661042"><ele>110.66666666666666</ele><time>2026-04-26T13:16:23.018Z</time></trkpt><trkpt lat="43.31400412398948" lon="10.579067450741144"><ele>110.33333333333333</ele><time>2026-04-26T13:16:24.018Z</time></trkpt><trkpt lat="43.31401133136718" lon="10.578860598334877"><ele>110.0</ele><time>2026-04-26T13:16:25.018Z</time></trkpt><trkpt lat="43.31402692015571" lon="10.578641126752292"><ele>109.33333333333333</ele><time>2026-04-26T13:16:26.018Z</time></trkpt><trkpt lat="43.314039233190265" lon="10.578425420121958"><ele>108.66666666666666</ele><time>2026-04-26T13:16:27.018Z</time></trkpt><trkpt lat="43.31405070918111" lon="10.578201218720988"><ele>108.0</ele><time>2026-04-26T13:16:28.018Z</time></trkpt><trkpt lat="43.314058969204964" lon="10.577978442358434"><ele>107.0</ele><time>2026-04-26T13:16:29.018Z</time></trkpt><trkpt lat="43.31406821356143" lon="10.577749334857852"><ele>106.0</ele><time>2026-04-26T13:16:30.018Z</time></trkpt><trkpt lat="43.3140739831001" lon="10.577528881227522"><ele>105.0</ele><time>2026-04-26T13:16:31.018Z</time></trkpt><trkpt lat="43.314084151932214" lon="10.5773043411569"><ele>105.0</ele><time>2026-04-26T13:16:32.018Z</time></trkpt><trkpt lat="43.31409090996766" lon="10.57708594518438"><ele>105.0</ele><time>2026-04-26T13:16:33.018Z</time></trkpt><trkpt lat="43.31410194490106" lon="10.576873374074056"><ele>105.0</ele><time>2026-04-26T13:16:34.018Z</time></trkpt><trkpt lat="43.314111388836544" lon="10.576654538471248"><ele>104.66666666666666</ele><time>2026-04-26T13:16:35.018Z</time></trkpt><trkpt lat="43.31411811991415" lon="10.576431858963767"><ele>104.33333333333333</ele><time>2026-04-26T13:16:36.018Z</time></trkpt><trkpt lat="43.31413444782711" lon="10.57620836239297"><ele>104.0</ele><time>2026-04-26T13:16:37.018Z</time></trkpt><trkpt lat="43.31415258728499" lon="10.57598433828207"><ele>103.0</ele><time>2026-04-26T13:16:38.018Z</time></trkpt><trkpt lat="43.314181736242645" lon="10.575752726635626"><ele>102.0</ele><time>2026-04-26T13:16:39.018Z</time></trkpt><trkpt lat="43.31422402054563" lon="10.57551387284404"><ele>101.0</ele><time>2026-04-26T13:16:40.018Z</time></trkpt><trkpt lat="43.31427150218138" lon="10.575276623539647"><ele>100.0</ele><time>2026-04-26T13:16:41.018Z</time></trkpt><trkpt lat="43.31432732728679" lon="10.575032616865515"><ele>99.0</ele><time>2026-04-26T13:16:42.018Z</time></trkpt><trkpt lat="43.314377859790426" lon="10.574785640951518"><ele>98.0</ele><time>2026-04-26T13:16:43.019Z</time></trkpt><trkpt lat="43.314427129113795" lon="10.574531251275346"><ele>96.66666666666666</ele><time>2026-04-26T13:16:44.019Z</time></trkpt><trkpt lat="43.314475357091" lon="10.574276976579322"><ele>95.33333333333333</ele><time>2026-04-26T13:16:45.019Z</time></trkpt><trkpt lat="43.314523889039734" lon="10.574019054332112"><ele>94.0</ele><time>2026-04-26T13:16:46.019Z</time></trkpt><trkpt lat="43.31457497203342" lon="10.573757033105528"><ele>92.33333333333333</ele><time>2026-04-26T13:16:47.019Z</time></trkpt><trkpt lat="43.31462499946016" lon="10.573494039832267"><ele>90.66666666666667</ele><time>2026-04-26T13:16:48.019Z</time></trkpt><trkpt lat="43.31467676622226" lon="10.573234539927599"><ele>89.0</ele><time>2026-04-26T13:16:49.019Z</time></trkpt><trkpt lat="43.31472724311663" lon="10.572975838988842"><ele>89.0</ele><time>2026-04-26T13:16:50.019Z</time></trkpt><trkpt lat="43.31477868746462" lon="10.572709328561988"><ele>89.0</ele><time>2026-04-26T13:16:51.019Z</time></trkpt><trkpt lat="43.31482963084181" lon="10.572448968116277"><ele>89.0</ele><time>2026-04-26T13:16:52.019Z</time></trkpt><trkpt lat="43.3148775212166" lon="10.572190236698264"><ele>88.0</ele><time>2026-04-26T13:16:53.019Z</time></trkpt><trkpt lat="43.31492718293238" lon="10.57192512124748"><ele>87.0</ele><time>2026-04-26T13:16:54.019Z</time></trkpt><trkpt lat="43.31497367313383" lon="10.571663352602856"><ele>86.0</ele><time>2026-04-26T13:16:55.019Z</time></trkpt><trkpt lat="43.31502662698113" lon="10.571407361072126"><ele>85.33333333333334</ele><time>2026-04-26T13:16:56.019Z</time></trkpt><trkpt lat="43.315073817258934" lon="10.571149649005967"><ele>84.66666666666667</ele><time>2026-04-26T13:16:57.019Z</time></trkpt><trkpt lat="43.31511303255412" lon="10.570914263000427"><ele>84.0</ele><time>2026-04-26T13:16:58.019Z</time></trkpt><trkpt lat="43.31516029707264" lon="10.57068077375924"><ele>84.0</ele><time>2026-04-26T13:16:59.019Z</time></trkpt><trkpt lat="43.315214927606654" lon="10.570449227137114"><ele>84.0</ele><time>2026-04-26T13:17:00.019Z</time></trkpt><trkpt lat="43.315263298041536" lon="10.570220199215564"><ele>84.0</ele><time>2026-04-26T13:17:01.019Z</time></trkpt><trkpt lat="43.31532723926075" lon="10.569980963909979"><ele>83.0</ele><time>2026-04-26T13:17:02.019Z</time></trkpt><trkpt lat="43.31539104927765" lon="10.569740669162496"><ele>82.0</ele><time>2026-04-26T13:17:03.019Z</time></trkpt><trkpt lat="43.315465284905784" lon="10.569510753676047"><ele>81.0</ele><time>2026-04-26T13:17:04.019Z</time></trkpt><trkpt lat="43.315551500467016" lon="10.569279185664376"><ele>79.33333333333333</ele><time>2026-04-26T13:17:05.019Z</time></trkpt><trkpt lat="43.31563201022679" lon="10.569048821647483"><ele>77.66666666666666</ele><time>2026-04-26T13:17:06.019Z</time></trkpt><trkpt lat="43.31570955394956" lon="10.568823800628996"><ele>76.0</ele><time>2026-04-26T13:17:07.019Z</time></trkpt><trkpt lat="43.31578972080462" lon="10.568598196694994"><ele>75.33333333333333</ele><time>2026-04-26T13:17:08.019Z</time></trkpt><trkpt lat="43.31586685748415" lon="10.568348655904302"><ele>74.66666666666667</ele><time>2026-04-26T13:17:09.019Z</time></trkpt><trkpt lat="43.31594038325855" lon="10.56812126877106"><ele>74.0</ele><time>2026-04-26T13:17:10.019Z</time></trkpt><trkpt lat="43.316014773096825" lon="10.567900084812067"><ele>72.66666666666667</ele><time>2026-04-26T13:17:11.019Z</time></trkpt><trkpt lat="43.31608037327283" lon="10.567681470223265"><ele>71.33333333333333</ele><time>2026-04-26T13:17:12.019Z</time></trkpt><trkpt lat="43.316158499124626" lon="10.567474007507949"><ele>70.0</ele><time>2026-04-26T13:17:13.019Z</time></trkpt><trkpt lat="43.316226970822164" lon="10.567266161782346"><ele>70.0</ele><time>2026-04-26T13:17:14.019Z</time></trkpt><trkpt lat="43.316294692466755" lon="10.567060593681244"><ele>70.0</ele><time>2026-04-26T13:17:15.019Z</time></trkpt><trkpt lat="43.31636297554854" lon="10.566854428769279"><ele>70.0</ele><time>2026-04-26T13:17:16.019Z</time></trkpt><trkpt lat="43.31642909764869" lon="10.566657104877482"><ele>66.33333333333333</ele><time>2026-04-26T13:17:17.019Z</time></trkpt><trkpt lat="43.31649100351258" lon="10.566472363177109"><ele>62.66666666666667</ele><time>2026-04-26T13:17:18.019Z</time></trkpt><trkpt lat="43.31655653330885" lon="10.566276806976811"><ele>59.0</ele><time>2026-04-26T13:17:19.019Z</time></trkpt><trkpt lat="43.316619876467755" lon="10.566087776103302"><ele>58.333333333333336</ele><time>2026-04-26T13:17:20.019Z</time></trkpt><trkpt lat="43.316682665330084" lon="10.56589070529749"><ele>57.66666666666667</ele><time>2026-04-26T13:17:21.019Z</time></trkpt><trkpt lat="43.31674251809424" lon="10.565690022375568"><ele>57.0</ele><time>2026-04-26T13:17:22.019Z</time></trkpt><trkpt lat="43.31679096190425" lon="10.565469575168708"><ele>57.0</ele><time>2026-04-26T13:17:23.019Z</time></trkpt><trkpt lat="43.31678965674657" lon="10.565223922131938"><ele>57.0</ele><time>2026-04-26T13:17:24.02Z</time></trkpt><trkpt lat="43.316795880645856" lon="10.564966787388562"><ele>57.0</ele><time>2026-04-26T13:17:25.02Z</time></trkpt><trkpt lat="43.3167886919076" lon="10.564684412641624"><ele>56.0</ele><time>2026-04-26T13:17:26.02Z</time></trkpt><trkpt lat="43.316785521080384" lon="10.564402440763384"><ele>55.0</ele><time>2026-04-26T13:17:27.02Z</time></trkpt><trkpt lat="43.3167818006729" lon="10.56411222776613"><ele>54.0</ele><time>2026-04-26T13:17:28.02Z</time></trkpt><trkpt lat="43.31679389735145" lon="10.56382584281528"><ele>53.33333333333333</ele><time>2026-04-26T13:17:29.02Z</time></trkpt><trkpt lat="43.316773476677085" lon="10.563537772215472"><ele>52.666666666666664</ele><time>2026-04-26T13:17:30.02Z</time></trkpt><trkpt lat="43.316774876233964" lon="10.563246508599569"><ele>52.0</ele><time>2026-04-26T13:17:31.02Z</time></trkpt><trkpt lat="43.316769455132814" lon="10.562957255194219"><ele>51.33333333333333</ele><time>2026-04-26T13:17:32.02Z</time></trkpt><trkpt lat="43.31677158773277" lon="10.562665933449036"><ele>50.66666666666667</ele><time>2026-04-26T13:17:33.02Z</time></trkpt><trkpt lat="43.31677915314807" lon="10.562371902793092"><ele>50.0</ele><time>2026-04-26T13:17:34.02Z</time></trkpt><trkpt lat="43.31682426867785" lon="10.562079210395137"><ele>50.0</ele><time>2026-04-26T13:17:35.02Z</time></trkpt><trkpt lat="43.316869966946015" lon="10.561788510280316"><ele>50.0</ele><time>2026-04-26T13:17:36.02Z</time></trkpt><trkpt lat="43.31692689910068" lon="10.561508443417187"><ele>50.0</ele><time>2026-04-26T13:17:37.02Z</time></trkpt><trkpt lat="43.31698715009418" lon="10.561224587779888"><ele>50.66666666666667</ele><time>2026-04-26T13:17:38.02Z</time></trkpt><trkpt lat="43.31703557792739" lon="10.560943064327093"><ele>51.33333333333333</ele><time>2026-04-26T13:17:39.02Z</time></trkpt><trkpt lat="43.31709110612292" lon="10.5606925919359"><ele>52.0</ele><time>2026-04-26T13:17:40.02Z</time></trkpt><trkpt lat="43.31715112250037" lon="10.560482130894167"><ele>52.0</ele><time>2026-04-26T13:17:41.02Z</time></trkpt><trkpt lat="43.31717741369401" lon="10.560273945280317"><ele>52.0</ele><time>2026-04-26T13:17:42.02Z</time></trkpt><trkpt lat="43.317216519783365" lon="10.56005467494473"><ele>52.0</ele><time>2026-04-26T13:17:43.02Z</time></trkpt><trkpt lat="43.31722968970251" lon="10.559808650125513"><ele>52.0</ele><time>2026-04-26T13:17:44.02Z</time></trkpt><trkpt lat="43.31720840518003" lon="10.559550771287537"><ele>52.0</ele><time>2026-04-26T13:17:45.02Z</time></trkpt><trkpt lat="43.31718181695572" lon="10.559283504364197"><ele>52.0</ele><time>2026-04-26T13:17:46.02Z</time></trkpt><trkpt lat="43.317150051239246" lon="10.559015276283201"><ele>50.666666666666664</ele><time>2026-04-26T13:17:47.02Z</time></trkpt><trkpt lat="43.317118860173174" lon="10.558747959765588"><ele>49.33333333333333</ele><time>2026-04-26T13:17:48.02Z</time></trkpt><trkpt lat="43.31707785088855" lon="10.558498136284939"><ele>48.0</ele><time>2026-04-26T13:17:49.02Z</time></trkpt><trkpt lat="43.31703950035305" lon="10.5582690983259"><ele>47.0</ele><time>2026-04-26T13:17:50.02Z</time></trkpt><trkpt lat="43.316995284789435" lon="10.55806768336529"><ele>46.0</ele><time>2026-04-26T13:17:51.02Z</time></trkpt><trkpt lat="43.31694179141728" lon="10.557863684339546"><ele>45.0</ele><time>2026-04-26T13:17:52.02Z</time></trkpt><trkpt lat="43.31687420075424" lon="10.557655595351113"><ele>44.0</ele><time>2026-04-26T13:17:53.02Z</time></trkpt><trkpt lat="43.31679946089058" lon="10.55744199690142"><ele>43.0</ele><time>2026-04-26T13:17:54.02Z</time></trkpt><trkpt lat="43.316732735225045" lon="10.557227986839106"><ele>42.0</ele><time>2026-04-26T13:17:55.02Z</time></trkpt><trkpt lat="43.316664573486285" lon="10.557009657572223"><ele>41.333333333333336</ele><time>2026-04-26T13:17:56.02Z</time></trkpt><trkpt lat="43.31659967699688" lon="10.556790027126102"><ele>40.66666666666667</ele><time>2026-04-26T13:17:57.02Z</time></trkpt><trkpt lat="43.31653275240021" lon="10.556565699677197"><ele>40.0</ele><time>2026-04-26T13:17:58.02Z</time></trkpt><trkpt lat="43.316466902417865" lon="10.556345740459836"><ele>39.333333333333336</ele><time>2026-04-26T13:17:59.02Z</time></trkpt><trkpt lat="43.31638899623863" lon="10.55612542072503"><ele>38.666666666666664</ele><time>2026-04-26T13:18:00.02Z</time></trkpt><trkpt lat="43.316294510578565" lon="10.55591604744239"><ele>38.0</ele><time>2026-04-26T13:18:01.02Z</time></trkpt><trkpt lat="43.31618484704064" lon="10.555715661407392"><ele>38.0</ele><time>2026-04-26T13:18:02.02Z</time></trkpt><trkpt lat="43.31608091285349" lon="10.555515050704786"><ele>38.0</ele><time>2026-04-26T13:18:03.02Z</time></trkpt><trkpt lat="43.315970799651176" lon="10.555326720329743"><ele>38.0</ele><time>2026-04-26T13:18:04.02Z</time></trkpt><trkpt lat="43.31586843523991" lon="10.555143191890076"><ele>37.33333333333333</ele><time>2026-04-26T13:18:05.021Z</time></trkpt><trkpt lat="43.31578658585417" lon="10.554961025146495"><ele>36.666666666666664</ele><time>2026-04-26T13:18:06.021Z</time></trkpt><trkpt lat="43.31572251311604" lon="10.554760140353869"><ele>36.0</ele><time>2026-04-26T13:18:07.021Z</time></trkpt><trkpt lat="43.31569892362984" lon="10.554533803678654"><ele>35.0</ele><time>2026-04-26T13:18:08.021Z</time></trkpt><trkpt lat="43.31567385819133" lon="10.554319763338258"><ele>34.0</ele><time>2026-04-26T13:18:09.021Z</time></trkpt><trkpt lat="43.315640506786416" lon="10.554123147900698"><ele>33.0</ele><time>2026-04-26T13:18:10.021Z</time></trkpt><trkpt lat="43.315629221807505" lon="10.553922500040397"><ele>33.0</ele><time>2026-04-26T13:18:11.021Z</time></trkpt><trkpt lat="43.315597079416285" lon="10.553733802057927"><ele>33.0</ele><time>2026-04-26T13:18:12.021Z</time></trkpt><trkpt lat="43.31555907011809" lon="10.553552798380473"><ele>33.0</ele><time>2026-04-26T13:18:13.021Z</time></trkpt><trkpt lat="43.31551796519144" lon="10.55335932482969"><ele>33.0</ele><time>2026-04-26T13:18:14.021Z</time></trkpt><trkpt lat="43.31547081308001" lon="10.55316425527729"><ele>33.0</ele><time>2026-04-26T13:18:15.021Z</time></trkpt><trkpt lat="43.31541810019752" lon="10.552970324814588"><ele>33.0</ele><time>2026-04-26T13:18:16.021Z</time></trkpt><trkpt lat="43.31534859396572" lon="10.552770561983792"><ele>33.0</ele><time>2026-04-26T13:18:17.021Z</time></trkpt><trkpt lat="43.315269208804196" lon="10.552584984191906"><ele>32.0</ele><time>2026-04-26T13:18:18.021Z</time></trkpt><trkpt lat="43.315142486279264" lon="10.55243415819367"><ele>31.0</ele><time>2026-04-26T13:18:19.021Z</time></trkpt><trkpt lat="43.31502519444261" lon="10.552287044325018"><ele>30.0</ele><time>2026-04-26T13:18:20.021Z</time></trkpt><trkpt lat="43.31490444167531" lon="10.552152945559868"><ele>30.25</ele><time>2026-04-26T13:18:21.021Z</time></trkpt><trkpt lat="43.31479075187404" lon="10.552021897132969"><ele>30.5</ele><time>2026-04-26T13:18:22.021Z</time></trkpt><trkpt lat="43.31467589502068" lon="10.55189645786178"><ele>30.75</ele><time>2026-04-26T13:18:23.021Z</time></trkpt><trkpt lat="43.31456632917785" lon="10.551764006487243"><ele>31.0</ele><time>2026-04-26T13:18:24.021Z</time></trkpt><trkpt lat="43.31445736864762" lon="10.551626095054221"><ele>31.0</ele><time>2026-04-26T13:18:25.021Z</time></trkpt><trkpt lat="43.31435749733611" lon="10.55148844394657"><ele>31.0</ele><time>2026-04-26T13:18:26.021Z</time></trkpt><trkpt lat="43.314306988825706" lon="10.55130522434078"><ele>31.0</ele><time>2026-04-26T13:18:27.021Z</time></trkpt><trkpt lat="43.314261777560574" lon="10.551130717443204"><ele>31.0</ele><time>2026-04-26T13:18:28.021Z</time></trkpt><trkpt lat="43.31422970631044" lon="10.550955967910886"><ele>30.0</ele><time>2026-04-26T13:18:29.021Z</time></trkpt><trkpt lat="43.3142162993433" lon="10.550766573235341"><ele>29.0</ele><time>2026-04-26T13:18:30.021Z</time></trkpt><trkpt lat="43.31421149604406" lon="10.550566949579935"><ele>28.0</ele><time>2026-04-26T13:18:31.021Z</time></trkpt><trkpt lat="43.31422028482315" lon="10.550354564368725"><ele>27.0</ele><time>2026-04-26T13:18:32.021Z</time></trkpt><trkpt lat="43.314237824911295" lon="10.550130414757827"><ele>25.0</ele><time>2026-04-26T13:18:33.021Z</time></trkpt><trkpt lat="43.31428794498854" lon="10.549918955127003"><ele>23.0</ele><time>2026-04-26T13:18:34.021Z</time></trkpt><trkpt lat="43.31434719059527" lon="10.549705112024814"><ele>21.0</ele><time>2026-04-26T13:18:35.021Z</time></trkpt><trkpt lat="43.31441350253731" lon="10.549487635018826"><ele>19.666666666666668</ele><time>2026-04-26T13:18:36.021Z</time></trkpt><trkpt lat="43.314481545870755" lon="10.549261816531013"><ele>18.333333333333336</ele><time>2026-04-26T13:18:37.021Z</time></trkpt><trkpt lat="43.31455264576918" lon="10.549030402744867"><ele>17.0</ele><time>2026-04-26T13:18:38.021Z</time></trkpt><trkpt lat="43.31462904374067" lon="10.548790260282049"><ele>17.666666666666668</ele><time>2026-04-26T13:18:39.021Z</time></trkpt><trkpt lat="43.3147042785282" lon="10.548539930660136"><ele>18.333333333333332</ele><time>2026-04-26T13:18:40.021Z</time></trkpt><trkpt lat="43.31477731828089" lon="10.54828951717876"><ele>19.0</ele><time>2026-04-26T13:18:41.021Z</time></trkpt><trkpt lat="43.31485527482006" lon="10.548030175823133"><ele>19.333333333333332</ele><time>2026-04-26T13:18:42.021Z</time></trkpt><trkpt lat="43.31493176511157" lon="10.54776695276711"><ele>19.666666666666668</ele><time>2026-04-26T13:18:43.021Z</time></trkpt><trkpt lat="43.31501640265882" lon="10.547508107295103"><ele>20.0</ele><time>2026-04-26T13:18:44.021Z</time></trkpt><trkpt lat="43.31510067718313" lon="10.547235597878236"><ele>19.666666666666668</ele><time>2026-04-26T13:18:45.021Z</time></trkpt><trkpt lat="43.31518303768994" lon="10.546961278982534"><ele>19.333333333333332</ele><time>2026-04-26T13:18:46.022Z</time></trkpt><trkpt lat="43.315266305517554" lon="10.546692969658093"><ele>19.0</ele><time>2026-04-26T13:18:47.022Z</time></trkpt><trkpt lat="43.315342618835444" lon="10.546424830041467"><ele>18.666666666666664</ele><time>2026-04-26T13:18:48.022Z</time></trkpt><trkpt lat="43.31542205483214" lon="10.546154761172238"><ele>18.333333333333332</ele><time>2026-04-26T13:18:49.022Z</time></trkpt><trkpt lat="43.31550236491331" lon="10.545890004057615"><ele>18.0</ele><time>2026-04-26T13:18:50.022Z</time></trkpt><trkpt lat="43.31558403989197" lon="10.545639877559777"><ele>17.666666666666668</ele><time>2026-04-26T13:18:51.022Z</time></trkpt><trkpt lat="43.31566663487958" lon="10.545401674599916"><ele>17.333333333333336</ele><time>2026-04-26T13:18:52.022Z</time></trkpt><trkpt lat="43.315751036383666" lon="10.545180826117454"><ele>17.0</ele><time>2026-04-26T13:18:53.022Z</time></trkpt><trkpt lat="43.31583551587145" lon="10.544972468711231"><ele>17.0</ele><time>2026-04-26T13:18:54.022Z</time></trkpt><trkpt lat="43.31591977041558" lon="10.544768148930956"><ele>17.0</ele><time>2026-04-26T13:18:55.022Z</time></trkpt><trkpt lat="43.31599190615355" lon="10.544555849011859"><ele>17.0</ele><time>2026-04-26T13:18:56.022Z</time></trkpt><trkpt lat="43.31604760426068" lon="10.54433455421082"><ele>17.0</ele><time>2026-04-26T13:18:57.022Z</time></trkpt><trkpt lat="43.31607101828131" lon="10.544103600109574"><ele>17.0</ele><time>2026-04-26T13:18:58.022Z</time></trkpt><trkpt lat="43.31606832058992" lon="10.543864405092258"><ele>17.0</ele><time>2026-04-26T13:18:59.022Z</time></trkpt><trkpt lat="43.31605978965859" lon="10.543624749475958"><ele>17.0</ele><time>2026-04-26T13:19:00.022Z</time></trkpt><trkpt lat="43.316054057012536" lon="10.543388552857856"><ele>17.0</ele><time>2026-04-26T13:19:01.022Z</time></trkpt><trkpt lat="43.316049213793605" lon="10.54315119665572"><ele>17.0</ele><time>2026-04-26T13:19:02.022Z</time></trkpt><trkpt lat="43.31604384206242" lon="10.542911554815566"><ele>16.666666666666668</ele><time>2026-04-26T13:19:03.022Z</time></trkpt><trkpt lat="43.31604279620352" lon="10.54267049177171"><ele>16.333333333333332</ele><time>2026-04-26T13:19:04.022Z</time></trkpt><trkpt lat="43.31603262475275" lon="10.542427470719556"><ele>16.0</ele><time>2026-04-26T13:19:05.022Z</time></trkpt><trkpt lat="43.31600518573284" lon="10.542186534123257"><ele>16.0</ele><time>2026-04-26T13:19:06.022Z</time></trkpt><trkpt lat="43.315962180950436" lon="10.54195286783982"><ele>16.0</ele><time>2026-04-26T13:19:07.022Z</time></trkpt><trkpt lat="43.31591272737183" lon="10.54172050464364"><ele>16.0</ele><time>2026-04-26T13:19:08.022Z</time></trkpt><trkpt lat="43.315865407876345" lon="10.541490591250241"><ele>16.0</ele><time>2026-04-26T13:19:09.022Z</time></trkpt><trkpt lat="43.31583041324723" lon="10.541254538366855"><ele>16.0</ele><time>2026-04-26T13:19:10.022Z</time></trkpt><trkpt lat="43.31581630458554" lon="10.541016071839948"><ele>16.0</ele><time>2026-04-26T13:19:11.022Z</time></trkpt><trkpt lat="43.31582159680791" lon="10.540782165626839"><ele>16.25</ele><time>2026-04-26T13:19:12.022Z</time></trkpt><trkpt lat="43.31582659207938" lon="10.540559213492086"><ele>16.5</ele><time>2026-04-26T13:19:13.022Z</time></trkpt><trkpt lat="43.315827370446655" lon="10.540363749943786"><ele>16.75</ele><time>2026-04-26T13:19:14.022Z</time></trkpt><trkpt lat="43.315812744481775" lon="10.540189223888083"><ele>17.0</ele><time>2026-04-26T13:19:15.022Z</time></trkpt><trkpt lat="43.315776372364816" lon="10.540015260759727"><ele>17.0</ele><time>2026-04-26T13:19:16.022Z</time></trkpt><trkpt lat="43.31570315928432" lon="10.539856287591233"><ele>17.0</ele><time>2026-04-26T13:19:17.022Z</time></trkpt><trkpt lat="43.31559126299195" lon="10.539719154885864"><ele>17.0</ele><time>2026-04-26T13:19:18.022Z</time></trkpt><trkpt lat="43.31546335923976" lon="10.53958203835048"><ele>17.0</ele><time>2026-04-26T13:19:19.022Z</time></trkpt><trkpt lat="43.315336098359026" lon="10.539459280598237"><ele>17.25</ele><time>2026-04-26T13:19:20.022Z</time></trkpt><trkpt lat="43.315226712834985" lon="10.539338972647139"><ele>17.5</ele><time>2026-04-26T13:19:21.022Z</time></trkpt><trkpt lat="43.31513085259453" lon="10.53922183855362"><ele>17.75</ele><time>2026-04-26T13:19:22.022Z</time></trkpt><trkpt lat="43.3150536642543" lon="10.539079522840833"><ele>18.0</ele><time>2026-04-26T13:19:23.022Z</time></trkpt><trkpt lat="43.31498051706799" lon="10.538933973175524"><ele>18.0</ele><time>2026-04-26T13:19:24.022Z</time></trkpt><trkpt lat="43.314909457564355" lon="10.538773417007107"><ele>18.0</ele><time>2026-04-26T13:19:25.022Z</time></trkpt><trkpt lat="43.31483086628179" lon="10.53861126390631"><ele>18.0</ele><time>2026-04-26T13:19:26.022Z</time></trkpt><trkpt lat="43.314755150307384" lon="10.538448121412882"><ele>18.0</ele><time>2026-04-26T13:19:27.022Z</time></trkpt><trkpt lat="43.31467777361828" lon="10.538282533958379"><ele>17.333333333333332</ele><time>2026-04-26T13:19:28.023Z</time></trkpt><trkpt lat="43.31459562048732" lon="10.538112325504976"><ele>16.666666666666664</ele><time>2026-04-26T13:19:29.023Z</time></trkpt><trkpt lat="43.314517901326035" lon="10.537934195949454"><ele>16.0</ele><time>2026-04-26T13:19:30.023Z</time></trkpt><trkpt lat="43.3144553327519" lon="10.537741918004334"><ele>16.0</ele><time>2026-04-26T13:19:31.023Z</time></trkpt><trkpt lat="43.314407700066326" lon="10.537536737523302"><ele>16.0</ele><time>2026-04-26T13:19:32.023Z</time></trkpt><trkpt lat="43.31437037672122" lon="10.53733177983235"><ele>16.0</ele><time>2026-04-26T13:19:33.023Z</time></trkpt><trkpt lat="43.3143380629413" lon="10.537119822633883"><ele>18.666666666666664</ele><time>2026-04-26T13:19:34.023Z</time></trkpt><trkpt lat="43.31431410128407" lon="10.536899404647485"><ele>21.333333333333332</ele><time>2026-04-26T13:19:35.023Z</time></trkpt><trkpt lat="43.31428207642052" lon="10.536684204321336"><ele>24.0</ele><time>2026-04-26T13:19:36.023Z</time></trkpt><trkpt lat="43.314251386477274" lon="10.5364715568546"><ele>24.0</ele><time>2026-04-26T13:19:37.023Z</time></trkpt><trkpt lat="43.314209530963375" lon="10.536264161977853"><ele>24.0</ele><time>2026-04-26T13:19:38.023Z</time></trkpt><trkpt lat="43.31416267936855" lon="10.536066008866188"><ele>24.0</ele><time>2026-04-26T13:19:39.023Z</time></trkpt><trkpt lat="43.31411443325234" lon="10.535880085750447"><ele>25.25</ele><time>2026-04-26T13:19:40.023Z</time></trkpt><trkpt lat="43.31406636197029" lon="10.535700050754006"><ele>26.5</ele><time>2026-04-26T13:19:41.023Z</time></trkpt><trkpt lat="43.314029804356906" lon="10.535540974163395"><ele>27.75</ele><time>2026-04-26T13:19:42.023Z</time></trkpt><trkpt lat="43.313999484618314" lon="10.535406242000347"><ele>29.0</ele><time>2026-04-26T13:19:43.023Z</time></trkpt><trkpt lat="43.31398980114204" lon="10.535258460456644"><ele>29.2</ele><time>2026-04-26T13:19:44.023Z</time></trkpt><trkpt lat="43.31399241905881" lon="10.535113301611037"><ele>29.4</ele><time>2026-04-26T13:19:45.023Z</time></trkpt><trkpt lat="43.31401679434545" lon="10.534971290646672"><ele>29.6</ele><time>2026-04-26T13:19:46.023Z</time></trkpt><trkpt lat="43.31409138023059" lon="10.534882634202221"><ele>29.8</ele><time>2026-04-26T13:19:47.023Z</time></trkpt><trkpt lat="43.314178870371" lon="10.53482868001097"><ele>30.0</ele><time>2026-04-26T13:19:48.023Z</time></trkpt><trkpt lat="43.31427096781801" lon="10.534776820851716"><ele>30.0</ele><time>2026-04-26T13:19:49.023Z</time></trkpt><trkpt lat="43.314366309092605" lon="10.5347139688169"><ele>30.0</ele><time>2026-04-26T13:19:50.023Z</time></trkpt><trkpt lat="43.314443720326146" lon="10.534658341751738"><ele>30.0</ele><time>2026-04-26T13:19:51.023Z</time></trkpt><trkpt lat="43.31448430522713" lon="10.534588497555822"><ele>30.0</ele><time>2026-04-26T13:19:52.023Z</time></trkpt><trkpt lat="43.31450699273013" lon="10.534439526722126"><ele>30.0</ele><time>2026-04-26T13:19:54.023Z</time></trkpt><trkpt lat="43.314536299321595" lon="10.53434322753619"><ele>30.0</ele><time>2026-04-26T13:19:55.023Z</time></trkpt><trkpt lat="43.31457938427687" lon="10.534238691675828"><ele>29.666666666666668</ele><time>2026-04-26T13:19:56.023Z</time></trkpt><trkpt lat="43.31462177623117" lon="10.534158104211494"><ele>29.333333333333336</ele><time>2026-04-26T13:19:57.023Z</time></trkpt><trkpt lat="43.31466420428552" lon="10.534065719220747"><ele>29.0</ele><time>2026-04-26T13:19:58.023Z</time></trkpt><trkpt lat="43.31470844938263" lon="10.533947608422691"><ele>28.666666666666668</ele><time>2026-04-26T13:19:59.023Z</time></trkpt><trkpt lat="43.31473217871809" lon="10.533818436072933"><ele>28.333333333333336</ele><time>2026-04-26T13:20:00.023Z</time></trkpt><trkpt lat="43.314723528931445" lon="10.533677127739917"><ele>28.0</ele><time>2026-04-26T13:20:01.023Z</time></trkpt><trkpt lat="43.314681855095294" lon="10.533546624635349"><ele>27.599999999999998</ele><time>2026-04-26T13:20:02.023Z</time></trkpt><trkpt lat="43.31461506251006" lon="10.533436299339192"><ele>27.199999999999996</ele><time>2026-04-26T13:20:03.023Z</time></trkpt><trkpt lat="43.3145395055799" lon="10.53334316859977"><ele>26.8</ele><time>2026-04-26T13:20:04.023Z</time></trkpt><trkpt lat="43.3144488093093" lon="10.53325003237229"><ele>26.4</ele><time>2026-04-26T13:20:05.023Z</time></trkpt><trkpt lat="43.31435058779593" lon="10.533151164461515"><ele>26.0</ele><time>2026-04-26T13:20:06.023Z</time></trkpt><trkpt lat="43.31424899208055" lon="10.533054442985271"><ele>26.0</ele><time>2026-04-26T13:20:07.023Z</time></trkpt><trkpt lat="43.31415212888434" lon="10.532962391721258"><ele>26.0</ele><time>2026-04-26T13:20:08.024Z</time></trkpt><trkpt lat="43.31407017464928" lon="10.532870705246326"><ele>26.0</ele><time>2026-04-26T13:20:09.024Z</time></trkpt><trkpt lat="43.31399141831408" lon="10.53279738535231"><ele>26.0</ele><time>2026-04-26T13:20:10.024Z</time></trkpt><trkpt lat="43.31398511020005" lon="10.532593791850564"><ele>25.75</ele><time>2026-04-26T13:20:11.024Z</time></trkpt><trkpt lat="43.31397715801529" lon="10.53241608099142"><ele>25.5</ele><time>2026-04-26T13:20:12.024Z</time></trkpt><trkpt lat="43.31397369726109" lon="10.532234278643317"><ele>25.25</ele><time>2026-04-26T13:20:13.024Z</time></trkpt><trkpt lat="43.31396810987291" lon="10.532055482618421"><ele>25.0</ele><time>2026-04-26T13:20:14.024Z</time></trkpt><trkpt lat="43.31396122369967" lon="10.531879973258235"><ele>25.0</ele><time>2026-04-26T13:20:15.024Z</time></trkpt><trkpt lat="43.31395249182162" lon="10.53170543404791"><ele>25.0</ele><time>2026-04-26T13:20:16.024Z</time></trkpt><trkpt lat="43.313943223483825" lon="10.531534155761804"><ele>25.0</ele><time>2026-04-26T13:20:17.024Z</time></trkpt><trkpt lat="43.313932757231086" lon="10.531363026045282"><ele>25.0</ele><time>2026-04-26T13:20:18.024Z</time></trkpt><trkpt lat="43.31392266880987" lon="10.531186665980238"><ele>25.25</ele><time>2026-04-26T13:20:19.024Z</time></trkpt><trkpt lat="43.31391225953207" lon="10.531014028268563"><ele>25.5</ele><time>2026-04-26T13:20:20.024Z</time></trkpt><trkpt lat="43.31390040941126" lon="10.530834684528244"><ele>25.75</ele><time>2026-04-26T13:20:21.024Z</time></trkpt><trkpt lat="43.31388703910343" lon="10.530652037566046"><ele>26.0</ele><time>2026-04-26T13:20:22.024Z</time></trkpt><trkpt lat="43.313870767715684" lon="10.530471201962191"><ele>25.75</ele><time>2026-04-26T13:20:23.024Z</time></trkpt><trkpt lat="43.31385550387552" lon="10.53029312936789"><ele>25.5</ele><time>2026-04-26T13:20:24.024Z</time></trkpt><trkpt lat="43.3138393381791" lon="10.530124315307276"><ele>25.25</ele><time>2026-04-26T13:20:25.024Z</time></trkpt><trkpt lat="43.31382164361934" lon="10.529958413226044"><ele>25.0</ele><time>2026-04-26T13:20:26.024Z</time></trkpt><trkpt lat="43.31380278035183" lon="10.52979294982634"><ele>25.0</ele><time>2026-04-26T13:20:27.024Z</time></trkpt><trkpt lat="43.313787139961136" lon="10.529629704095111"><ele>25.0</ele><time>2026-04-26T13:20:28.024Z</time></trkpt><trkpt lat="43.31377049699823" lon="10.529477337523579"><ele>25.0</ele><time>2026-04-26T13:20:29.024Z</time></trkpt><trkpt lat="43.313752818660504" lon="10.52932145341373"><ele>25.0</ele><time>2026-04-26T13:20:30.024Z</time></trkpt><trkpt lat="43.31373854303868" lon="10.529160358448737"><ele>23.75</ele><time>2026-04-26T13:20:31.024Z</time></trkpt><trkpt lat="43.31372310902482" lon="10.52899685973003"><ele>22.5</ele><time>2026-04-26T13:20:32.024Z</time></trkpt><trkpt lat="43.313707253137416" lon="10.528831208878525"><ele>21.25</ele><time>2026-04-26T13:20:33.024Z</time></trkpt><trkpt lat="43.313691821375116" lon="10.528662493445356"><ele>20.0</ele><time>2026-04-26T13:20:34.024Z</time></trkpt><trkpt lat="43.31367398523408" lon="10.52849149477921"><ele>19.75</ele><time>2026-04-26T13:20:35.024Z</time></trkpt><trkpt lat="43.313654754714065" lon="10.528323054483556"><ele>19.5</ele><time>2026-04-26T13:20:36.024Z</time></trkpt><trkpt lat="43.313634496934945" lon="10.528147625006154"><ele>19.25</ele><time>2026-04-26T13:20:37.024Z</time></trkpt><trkpt lat="43.313615833263135" lon="10.527974995984733"><ele>19.0</ele><time>2026-04-26T13:20:38.024Z</time></trkpt><trkpt lat="43.31359739573029" lon="10.527809294182326"><ele>18.75</ele><time>2026-04-26T13:20:39.024Z</time></trkpt><trkpt lat="43.31358207908816" lon="10.527636932022329"><ele>18.5</ele><time>2026-04-26T13:20:40.024Z</time></trkpt><trkpt lat="43.31356451967453" lon="10.527460562215193"><ele>18.25</ele><time>2026-04-26T13:20:41.024Z</time></trkpt><trkpt lat="43.31354702383387" lon="10.52728600464781"><ele>18.0</ele><time>2026-04-26T13:20:42.024Z</time></trkpt><trkpt lat="43.31352689755376" lon="10.527110264585444"><ele>17.75</ele><time>2026-04-26T13:20:43.024Z</time></trkpt><trkpt lat="43.31350780468597" lon="10.526933032350435"><ele>17.5</ele><time>2026-04-26T13:20:44.024Z</time></trkpt><trkpt lat="43.313488946425444" lon="10.526755162172561"><ele>17.25</ele><time>2026-04-26T13:20:45.024Z</time></trkpt><trkpt lat="43.31347115016888" lon="10.526586227266439"><ele>17.0</ele><time>2026-04-26T13:20:46.024Z</time></trkpt><trkpt lat="43.31345279329109" lon="10.526417248506581"><ele>17.0</ele><time>2026-04-26T13:20:47.024Z</time></trkpt><trkpt lat="43.31344099332523" lon="10.526257709186432"><ele>17.0</ele><time>2026-04-26T13:20:48.024Z</time></trkpt><trkpt lat="43.31343002268051" lon="10.526121317509272"><ele>17.0</ele><time>2026-04-26T13:20:49.024Z</time></trkpt><trkpt lat="43.313432694583724" lon="10.526028628450439"><ele>17.0</ele><time>2026-04-26T13:20:50.025Z</time></trkpt><trkpt lat="43.31346804320091" lon="10.525936076097334"><ele>17.0</ele><time>2026-04-26T13:20:53.025Z</time></trkpt><trkpt lat="43.313502271832945" lon="10.525818284090944"><ele>17.4</ele><time>2026-04-26T13:20:55.025Z</time></trkpt><trkpt lat="43.31346210242255" lon="10.525685049423998"><ele>17.799999999999997</ele><time>2026-04-26T13:20:57.025Z</time></trkpt><trkpt lat="43.31343861699309" lon="10.525585274276724"><ele>18.2</ele><time>2026-04-26T13:20:58.025Z</time></trkpt><trkpt lat="43.31337712276549" lon="10.52548094719354"><ele>18.599999999999998</ele><time>2026-04-26T13:20:59.025Z</time></trkpt><trkpt lat="43.313341780189" lon="10.525347054093931"><ele>19.0</ele><time>2026-04-26T13:21:00.025Z</time></trkpt><trkpt lat="43.31331637226852" lon="10.525187877248992"><ele>19.5</ele><time>2026-04-26T13:21:01.025Z</time></trkpt><trkpt lat="43.31329827089283" lon="10.525017978169123"><ele>20.0</ele><time>2026-04-26T13:21:02.025Z</time></trkpt><trkpt lat="43.3132780182908" lon="10.524841524425684"><ele>20.5</ele><time>2026-04-26T13:21:03.025Z</time></trkpt><trkpt lat="43.31326176400852" lon="10.52465447237966"><ele>21.0</ele><time>2026-04-26T13:21:04.025Z</time></trkpt><trkpt lat="43.31323993782978" lon="10.52446104055199"><ele>21.0</ele><time>2026-04-26T13:21:05.025Z</time></trkpt><trkpt lat="43.31321535203029" lon="10.524268162531303"><ele>21.0</ele><time>2026-04-26T13:21:06.025Z</time></trkpt><trkpt lat="43.31322233119059" lon="10.524089220580931"><ele>21.0</ele><time>2026-04-26T13:21:07.025Z</time></trkpt><trkpt lat="43.313199371010946" lon="10.523934638192129"><ele>21.0</ele><time>2026-04-26T13:21:08.025Z</time></trkpt><trkpt lat="43.313171807076465" lon="10.523775667975018"><ele>20.6</ele><time>2026-04-26T13:21:09.025Z</time></trkpt><trkpt lat="43.31314628223686" lon="10.52361416093901"><ele>20.200000000000003</ele><time>2026-04-26T13:21:10.025Z</time></trkpt><trkpt lat="43.313127719787076" lon="10.52346502066947"><ele>19.799999999999997</ele><time>2026-04-26T13:21:11.025Z</time></trkpt><trkpt lat="43.313132989000074" lon="10.523321741386903"><ele>19.4</ele><time>2026-04-26T13:21:12.025Z</time></trkpt><trkpt lat="43.31312428098987" lon="10.523173195273792"><ele>19.0</ele><time>2026-04-26T13:21:13.025Z</time></trkpt><trkpt lat="43.313121428335094" lon="10.523026990367894"><ele>18.75</ele><time>2026-04-26T13:21:14.025Z</time></trkpt><trkpt lat="43.313147629069825" lon="10.522863108467359"><ele>18.5</ele><time>2026-04-26T13:21:15.025Z</time></trkpt><trkpt lat="43.31320761630259" lon="10.52269756038989"><ele>18.25</ele><time>2026-04-26T13:21:16.025Z</time></trkpt><trkpt lat="43.31327070854932" lon="10.522546629049378"><ele>18.0</ele><time>2026-04-26T13:21:17.025Z</time></trkpt><trkpt lat="43.313325821132686" lon="10.52242433948814"><ele>18.0</ele><time>2026-04-26T13:21:18.025Z</time></trkpt><trkpt lat="43.31337512245888" lon="10.522349559865523"><ele>18.0</ele><time>2026-04-26T13:21:19.025Z</time></trkpt><trkpt lat="43.31344286257241" lon="10.522303174785842"><ele>18.0</ele><time>2026-04-26T13:21:20.025Z</time></trkpt><trkpt lat="43.31352011182234" lon="10.522223783328599"><ele>18.0</ele><time>2026-04-26T13:21:21.025Z</time></trkpt><trkpt lat="43.313545236836255" lon="10.522092801595505"><ele>18.0</ele><time>2026-04-26T13:21:22.025Z</time></trkpt><trkpt lat="43.313544914861524" lon="10.521921552741832"><ele>18.25</ele><time>2026-04-26T13:21:23.025Z</time></trkpt><trkpt lat="43.313590154015024" lon="10.521749371741102"><ele>18.5</ele><time>2026-04-26T13:21:24.025Z</time></trkpt><trkpt lat="43.31366076395396" lon="10.5215608501534"><ele>18.75</ele><time>2026-04-26T13:21:25.025Z</time></trkpt><trkpt lat="43.31373207604877" lon="10.521378564709053"><ele>19.0</ele><time>2026-04-26T13:21:26.025Z</time></trkpt><trkpt lat="43.31380486608208" lon="10.521224410110383"><ele>19.0</ele><time>2026-04-26T13:21:27.025Z</time></trkpt><trkpt lat="43.313889523574545" lon="10.521108779004596"><ele>19.0</ele><time>2026-04-26T13:21:28.025Z</time></trkpt><trkpt lat="43.313989410698255" lon="10.521025684908935"><ele>19.0</ele><time>2026-04-26T13:21:29.025Z</time></trkpt><trkpt lat="43.31410600309239" lon="10.520961386594552"><ele>19.0</ele><time>2026-04-26T13:21:30.025Z</time></trkpt><trkpt lat="43.31422424934827" lon="10.52091798165441"><ele>18.599999999999998</ele><time>2026-04-26T13:21:31.026Z</time></trkpt><trkpt lat="43.31432735414627" lon="10.520886029962865"><ele>18.2</ele><time>2026-04-26T13:21:32.026Z</time></trkpt><trkpt lat="43.31441799795743" lon="10.520855552413867"><ele>17.799999999999997</ele><time>2026-04-26T13:21:33.026Z</time></trkpt><trkpt lat="43.31451417683526" lon="10.520831877161463"><ele>17.4</ele><time>2026-04-26T13:21:34.026Z</time></trkpt><trkpt lat="43.31461210648969" lon="10.520816866667701"><ele>17.0</ele><time>2026-04-26T13:21:35.026Z</time></trkpt><trkpt lat="43.31470530944785" lon="10.520807978423417"><ele>16.666666666666668</ele><time>2026-04-26T13:21:36.026Z</time></trkpt><trkpt lat="43.31478913489884" lon="10.520802854661522"><ele>16.333333333333336</ele><time>2026-04-26T13:21:37.026Z</time></trkpt><trkpt lat="43.3148586036298" lon="10.520795978906811"><ele>16.0</ele><time>2026-04-26T13:21:38.026Z</time></trkpt><trkpt lat="43.3149565539175" lon="10.52080006450706"><ele>15.666666666666668</ele><time>2026-04-26T13:21:40.026Z</time></trkpt><trkpt lat="43.31504458236182" lon="10.520820835041215"><ele>15.333333333333334</ele><time>2026-04-26T13:21:42.026Z</time></trkpt><trkpt lat="43.31512834513728" lon="10.520866748991903"><ele>15.0</ele><time>2026-04-26T13:21:44.026Z</time></trkpt><trkpt lat="43.31523419901717" lon="10.520936657929093"><ele>15.0</ele><time>2026-04-26T13:21:46.026Z</time></trkpt><trkpt lat="43.31531954845243" lon="10.520909220832467"><ele>15.0</ele><time>2026-04-26T13:21:48.026Z</time></trkpt><trkpt lat="43.315346685748224" lon="10.520758923859573"><ele>15.0</ele><time>2026-04-26T13:21:50.026Z</time></trkpt><trkpt lat="43.31530920549173" lon="10.520670445408015"><ele>15.0</ele><time>2026-04-26T13:21:51.026Z</time></trkpt><trkpt lat="43.31526369383855" lon="10.520576862065154"><ele>15.0</ele><time>2026-04-26T13:21:52.026Z</time></trkpt><trkpt lat="43.31523195266477" lon="10.52047587441182"><ele>15.0</ele><time>2026-04-26T13:21:53.026Z</time></trkpt><trkpt lat="43.31521797199385" lon="10.52037179354442"><ele>16.0</ele><time>2026-04-26T13:21:54.026Z</time></trkpt><trkpt lat="43.31518244152926" lon="10.52024710402291"><ele>17.0</ele><time>2026-04-26T13:21:55.026Z</time></trkpt><trkpt lat="43.315140312057025" lon="10.52007906791861"><ele>18.0</ele><time>2026-04-26T13:21:56.026Z</time></trkpt><trkpt lat="43.31509555251883" lon="10.519923700848079"><ele>19.0</ele><time>2026-04-26T13:21:57.026Z</time></trkpt><trkpt lat="43.31505413568059" lon="10.519773255758224"><ele>19.0</ele><time>2026-04-26T13:21:58.026Z</time></trkpt><trkpt lat="43.31500694176209" lon="10.519626167087273"><ele>19.0</ele><time>2026-04-26T13:21:59.026Z</time></trkpt><trkpt lat="43.314964776412694" lon="10.519489436898896"><ele>19.0</ele><time>2026-04-26T13:22:00.026Z</time></trkpt><trkpt lat="43.31492464965495" lon="10.519362426229614"><ele>19.0</ele><time>2026-04-26T13:22:01.026Z</time></trkpt><trkpt lat="43.31488780514544" lon="10.519240473883197"><ele>19.0</ele><time>2026-04-26T13:22:02.026Z</time></trkpt><trkpt lat="43.31485231760899" lon="10.519130016732381"><ele>19.0</ele><time>2026-04-26T13:22:03.026Z</time></trkpt><trkpt lat="43.31482286428965" lon="10.519030920904715"><ele>19.0</ele><time>2026-04-26T13:22:04.026Z</time></trkpt><trkpt lat="43.3147864194278" lon="10.518907583074311"><ele>19.0</ele><time>2026-04-26T13:22:06.026Z</time></trkpt><trkpt lat="43.31476280256994" lon="10.51879576361569"><ele>19.0</ele><time>2026-04-26T13:22:15.027Z</time></trkpt><trkpt lat="43.31473266170073" lon="10.518702508642235"><ele>19.0</ele><time>2026-04-26T13:22:17.027Z</time></trkpt><trkpt lat="43.31467167287166" lon="10.518561831580767"><ele>18.333333333333332</ele><time>2026-04-26T13:22:19.027Z</time></trkpt><trkpt lat="43.314636441127625" lon="10.51848009675758"><ele>17.666666666666664</ele><time>2026-04-26T13:22:20.027Z</time></trkpt><trkpt lat="43.314614142984006" lon="10.51839461378573"><ele>17.0</ele><time>2026-04-26T13:22:21.027Z</time></trkpt><trkpt lat="43.31456625258279" lon="10.518238681445235"><ele>16.333333333333332</ele><time>2026-04-26T13:22:23.027Z</time></trkpt><trkpt lat="43.314541930803614" lon="10.518149250969083"><ele>15.666666666666666</ele><time>2026-04-26T13:22:24.027Z</time></trkpt><trkpt lat="43.31450919718212" lon="10.51804904597897"><ele>15.0</ele><time>2026-04-26T13:22:25.027Z</time></trkpt><trkpt lat="43.314476542482296" lon="10.517950319912197"><ele>14.833333333333334</ele><time>2026-04-26T13:22:26.027Z</time></trkpt><trkpt lat="43.31443708230486" lon="10.517851329668762"><ele>14.666666666666668</ele><time>2026-04-26T13:22:27.027Z</time></trkpt><trkpt lat="43.3144033106274" lon="10.517747309056787"><ele>14.5</ele><time>2026-04-26T13:22:28.027Z</time></trkpt><trkpt lat="43.31437902401392" lon="10.517643312157722"><ele>14.333333333333334</ele><time>2026-04-26T13:22:29.027Z</time></trkpt><trkpt lat="43.31434386036738" lon="10.517531790397738"><ele>14.166666666666668</ele><time>2026-04-26T13:22:30.027Z</time></trkpt><trkpt lat="43.31430157645681" lon="10.517425870911701"><ele>14.0</ele><time>2026-04-26T13:22:31.027Z</time></trkpt><trkpt lat="43.31427685861209" lon="10.517323523833543"><ele>14.000000000000002</ele><time>2026-04-26T13:22:32.027Z</time></trkpt><trkpt lat="43.31425005256964" lon="10.517228134779208"><ele>14.0</ele><time>2026-04-26T13:22:33.027Z</time></trkpt><trkpt lat="43.314220093147505" lon="10.517131234526518"><ele>14.0</ele><time>2026-04-26T13:22:34.027Z</time></trkpt><trkpt lat="43.31419031867517" lon="10.517026796183647"><ele>14.0</ele><time>2026-04-26T13:22:35.027Z</time></trkpt><trkpt lat="43.31415326985124" lon="10.516909617512558"><ele>14.000000000000002</ele><time>2026-04-26T13:22:36.027Z</time></trkpt><trkpt lat="43.31412011951063" lon="10.516799110621008"><ele>14.0</ele><time>2026-04-26T13:22:37.027Z</time></trkpt><trkpt lat="43.31408892420252" lon="10.516698399485026"><ele>14.166666666666668</ele><time>2026-04-26T13:22:38.027Z</time></trkpt><trkpt lat="43.31406986059245" lon="10.516613395528"><ele>14.333333333333334</ele><time>2026-04-26T13:22:39.027Z</time></trkpt><trkpt lat="43.31401457218847" lon="10.51646578435534"><ele>14.5</ele><time>2026-04-26T13:22:41.027Z</time></trkpt><trkpt lat="43.31399346358949" lon="10.516381824578485"><ele>14.666666666666668</ele><time>2026-04-26T13:22:42.027Z</time></trkpt><trkpt lat="43.31396443280364" lon="10.516296919229664"><ele>14.833333333333334</ele><time>2026-04-26T13:22:43.027Z</time></trkpt><trkpt lat="43.31393089415626" lon="10.516209276579325"><ele>15.0</ele><time>2026-04-26T13:22:44.027Z</time></trkpt><trkpt lat="43.31388976457438" lon="10.516131821991888"><ele>14.25</ele><time>2026-04-26T13:22:45.027Z</time></trkpt><trkpt lat="43.31382480167531" lon="10.516000614692963"><ele>13.5</ele><time>2026-04-26T13:22:47.027Z</time></trkpt><trkpt lat="43.31376229869067" lon="10.515883027591666"><ele>12.75</ele><time>2026-04-26T13:22:49.027Z</time></trkpt><trkpt lat="43.3137420617115" lon="10.515748206575712"><ele>12.0</ele><time>2026-04-26T13:22:51.027Z</time></trkpt><trkpt lat="43.31377792764038" lon="10.515567684684015"><ele>12.0</ele><time>2026-04-26T13:22:53.027Z</time></trkpt><trkpt lat="43.31388914553605" lon="10.51546429703434"><ele>12.0</ele><time>2026-04-26T13:22:55.028Z</time></trkpt><trkpt lat="43.31396154264992" lon="10.515389544244417"><ele>12.0</ele><time>2026-04-26T13:22:56.028Z</time></trkpt><trkpt lat="43.31403133045668" lon="10.515332194657484"><ele>12.0</ele><time>2026-04-26T13:22:57.028Z</time></trkpt><trkpt lat="43.31409186424444" lon="10.515287362811907"><ele>12.0</ele><time>2026-04-26T13:22:58.028Z</time></trkpt><trkpt lat="43.314187284028414" lon="10.515215510456693"><ele>11.5</ele><time>2026-04-26T13:23:00.028Z</time></trkpt><trkpt lat="43.31425917749121" lon="10.515151977774849"><ele>11.0</ele><time>2026-04-26T13:23:02.028Z</time></trkpt><trkpt lat="43.314318671605164" lon="10.515093437273586"><ele>10.5</ele><time>2026-04-26T13:23:04.028Z</time></trkpt><trkpt lat="43.314378548138706" lon="10.515039276681582"><ele>10.0</ele><time>2026-04-26T13:23:06.028Z</time></trkpt><trkpt lat="43.31445832185848" lon="10.51497735456459"><ele>9.5</ele><time>2026-04-26T13:23:08.028Z</time></trkpt><trkpt lat="43.31439753003631" lon="10.514892584148953"><ele>9.0</ele><time>2026-04-26T13:23:09.028Z</time></trkpt><trkpt lat="43.3143596820883" lon="10.514781379881288"><ele>9.0</ele><time>2026-04-26T13:23:10.028Z</time></trkpt><trkpt lat="43.31432450361007" lon="10.51465011371001"><ele>9.0</ele><time>2026-04-26T13:23:11.028Z</time></trkpt><trkpt lat="43.31426142424674" lon="10.51450841263949"><ele>9.0</ele><time>2026-04-26T13:23:12.028Z</time></trkpt><trkpt lat="43.314199906959956" lon="10.514368888993495"><ele>9.0</ele><time>2026-04-26T13:23:13.028Z</time></trkpt><trkpt lat="43.31412952287731" lon="10.51421796143595"><ele>9.25</ele><time>2026-04-26T13:23:14.028Z</time></trkpt><trkpt lat="43.31405767616814" lon="10.514063596399911"><ele>9.5</ele><time>2026-04-26T13:23:15.028Z</time></trkpt><trkpt lat="43.3139879700265" lon="10.513925048276997"><ele>9.75</ele><time>2026-04-26T13:23:16.028Z</time></trkpt><trkpt lat="43.31392030402924" lon="10.51379080666114"><ele>10.0</ele><time>2026-04-26T13:23:17.028Z</time></trkpt><trkpt lat="43.31386485001784" lon="10.513665928263014"><ele>10.0</ele><time>2026-04-26T13:23:18.028Z</time></trkpt><trkpt lat="43.313818871855915" lon="10.513558536569493"><ele>10.0</ele><time>2026-04-26T13:23:19.028Z</time></trkpt><trkpt lat="43.31377374927173" lon="10.513456714771566"><ele>10.0</ele><time>2026-04-26T13:23:20.028Z</time></trkpt><trkpt lat="43.31373094427433" lon="10.513370703729883"><ele>10.0</ele><time>2026-04-26T13:23:21.028Z</time></trkpt><trkpt lat="43.31369065545904" lon="10.513290258990843"><ele>10.0</ele><time>2026-04-26T13:23:22.028Z</time></trkpt><trkpt lat="43.31365612124906" lon="10.51320598867735"><ele>10.0</ele><time>2026-04-26T13:23:23.028Z</time></trkpt><trkpt lat="43.31366244765229" lon="10.513096195900431"><ele>10.0</ele><time>2026-04-26T13:23:24.028Z</time></trkpt><trkpt lat="43.313729842488726" lon="10.512956859079397"><ele>10.0</ele><time>2026-04-26T13:23:25.028Z</time></trkpt><trkpt lat="43.31378056358335" lon="10.512846314215997"><ele>10.0</ele><time>2026-04-26T13:23:26.028Z</time></trkpt><trkpt lat="43.31381912123341" lon="10.51272346854492"><ele>10.0</ele><time>2026-04-26T13:23:27.028Z</time></trkpt><trkpt lat="43.31387424599962" lon="10.512609153064588"><ele>10.0</ele><time>2026-04-26T13:23:28.028Z</time></trkpt><trkpt lat="43.31387308510551" lon="10.512439368497263"><ele>10.0</ele><time>2026-04-26T13:23:29.028Z</time></trkpt><trkpt lat="43.31383760690222" lon="10.512232716090429"><ele>10.0</ele><time>2026-04-26T13:23:30.028Z</time></trkpt><trkpt lat="43.313788864171116" lon="10.51200568636368"><ele>10.0</ele><time>2026-04-26T13:23:31.028Z</time></trkpt><trkpt lat="43.313727026275565" lon="10.51176843158399"><ele>9.75</ele><time>2026-04-26T13:23:32.028Z</time></trkpt><trkpt lat="43.3136409677647" lon="10.511550668990015"><ele>9.5</ele><time>2026-04-26T13:23:33.028Z</time></trkpt><trkpt lat="43.3135842362898" lon="10.511372842148903"><ele>9.25</ele><time>2026-04-26T13:23:34.028Z</time></trkpt><trkpt lat="43.313526582405395" lon="10.511246613513052"><ele>9.0</ele><time>2026-04-26T13:23:35.028Z</time></trkpt><trkpt lat="43.31347786200392" lon="10.511147079216348"><ele>8.6</ele><time>2026-04-26T13:23:36.028Z</time></trkpt><trkpt lat="43.313406579265035" lon="10.511075705067798"><ele>8.2</ele><time>2026-04-26T13:23:37.029Z</time></trkpt><trkpt lat="43.31331150392945" lon="10.511064383321557"><ele>7.799999999999999</ele><time>2026-04-26T13:23:38.029Z</time></trkpt><trkpt lat="43.31319812010127" lon="10.511105026793334"><ele>7.3999999999999995</ele><time>2026-04-26T13:23:39.029Z</time></trkpt><trkpt lat="43.31307119230513" lon="10.511179580399974"><ele>7.0</ele><time>2026-04-26T13:23:40.029Z</time></trkpt><trkpt lat="43.312912216497246" lon="10.511291372517423"><ele>7.0</ele><time>2026-04-26T13:23:41.029Z</time></trkpt><trkpt lat="43.312711219731355" lon="10.511430048698124"><ele>7.0</ele><time>2026-04-26T13:23:42.029Z</time></trkpt><trkpt lat="43.312503975513316" lon="10.511561399155488"><ele>7.0</ele><time>2026-04-26T13:23:43.029Z</time></trkpt><trkpt lat="43.31230132988172" lon="10.511691829672374"><ele>7.0</ele><time>2026-04-26T13:23:44.029Z</time></trkpt><trkpt lat="43.31211198629824" lon="10.511820132058595"><ele>7.0</ele><time>2026-04-26T13:23:45.029Z</time></trkpt><trkpt lat="43.3119304811958" lon="10.511910178818319"><ele>6.666666666666667</ele><time>2026-04-26T13:23:46.029Z</time></trkpt><trkpt lat="43.311780538953876" lon="10.512024946510456"><ele>6.333333333333334</ele><time>2026-04-26T13:23:47.029Z</time></trkpt><trkpt lat="43.311643919082535" lon="10.51213479738742"><ele>6.0</ele><time>2026-04-26T13:23:48.029Z</time></trkpt><trkpt lat="43.311522115240685" lon="10.51223180273275"><ele>6.6</ele><time>2026-04-26T13:23:49.029Z</time></trkpt><trkpt lat="43.31141606167376" lon="10.512308554243017"><ele>7.199999999999999</ele><time>2026-04-26T13:23:50.029Z</time></trkpt><trkpt lat="43.311326514132155" lon="10.512373176336581"><ele>7.800000000000001</ele><time>2026-04-26T13:23:51.029Z</time></trkpt><trkpt lat="43.31125181884588" lon="10.512427657493228"><ele>8.4</ele><time>2026-04-26T13:23:52.029Z</time></trkpt><trkpt lat="43.31116780648283" lon="10.512487557809937"><ele>9.0</ele><time>2026-04-26T13:23:54.029Z</time></trkpt><trkpt lat="43.31106113358509" lon="10.512326507454148"><ele>9.25</ele><time>2026-04-26T13:24:00.029Z</time></trkpt><trkpt lat="43.31100409794541" lon="10.51220522073318"><ele>9.5</ele><time>2026-04-26T13:24:01.029Z</time></trkpt><trkpt lat="43.31092574840047" lon="10.512074843748234"><ele>9.75</ele><time>2026-04-26T13:24:02.029Z</time></trkpt><trkpt lat="43.31085976630919" lon="10.511917715449465"><ele>10.0</ele><time>2026-04-26T13:24:03.029Z</time></trkpt><trkpt lat="43.31078460862688" lon="10.511756131020817"><ele>10.5</ele><time>2026-04-26T13:24:04.029Z</time></trkpt><trkpt lat="43.31071179857523" lon="10.511590410323418"><ele>11.0</ele><time>2026-04-26T13:24:05.029Z</time></trkpt><trkpt lat="43.31065232240686" lon="10.51143799055504"><ele>11.5</ele><time>2026-04-26T13:24:06.029Z</time></trkpt><trkpt lat="43.310578551768124" lon="10.511310251893391"><ele>12.0</ele><time>2026-04-26T13:24:07.029Z</time></trkpt><trkpt lat="43.310510479195734" lon="10.511162565441671"><ele>12.5</ele><time>2026-04-26T13:24:08.029Z</time></trkpt><trkpt lat="43.31043971612191" lon="10.511007575980964"><ele>13.0</ele><time>2026-04-26T13:24:09.029Z</time></trkpt><trkpt lat="43.310364152412326" lon="10.510847950939702"><ele>13.5</ele><time>2026-04-26T13:24:10.029Z</time></trkpt><trkpt lat="43.31029073915678" lon="10.51068149363164"><ele>14.0</ele><time>2026-04-26T13:24:11.029Z</time></trkpt><trkpt lat="43.310215123919875" lon="10.510517680757951"><ele>12.5</ele><time>2026-04-26T13:24:12.029Z</time></trkpt><trkpt lat="43.31013982013543" lon="10.510348077483417"><ele>11.0</ele><time>2026-04-26T13:24:13.029Z</time></trkpt><trkpt lat="43.310062781907895" lon="10.510176823335222"><ele>9.5</ele><time>2026-04-26T13:24:14.029Z</time></trkpt><trkpt lat="43.30997994431459" lon="10.510006621199087"><ele>8.0</ele><time>2026-04-26T13:24:15.029Z</time></trkpt><trkpt lat="43.309906902080705" lon="10.509832857324453"><ele>8.0</ele><time>2026-04-26T13:24:16.029Z</time></trkpt><trkpt lat="43.30983373383614" lon="10.50966934127458"><ele>8.0</ele><time>2026-04-26T13:24:17.03Z</time></trkpt><trkpt lat="43.30976351431515" lon="10.509520409978851"><ele>8.0</ele><time>2026-04-26T13:24:18.03Z</time></trkpt><trkpt lat="43.30969840581423" lon="10.509377693022621"><ele>8.0</ele><time>2026-04-26T13:24:19.03Z</time></trkpt><trkpt lat="43.309631237043725" lon="10.509227679479864"><ele>7.0</ele><time>2026-04-26T13:24:20.03Z</time></trkpt><trkpt lat="43.30956353348325" lon="10.509076020043343"><ele>6.0</ele><time>2026-04-26T13:24:21.03Z</time></trkpt><trkpt lat="43.309495607795554" lon="10.508928514106739"><ele>5.0</ele><time>2026-04-26T13:24:22.03Z</time></trkpt><trkpt lat="43.30936269782824" lon="10.508630966144159"><ele>5.0</ele><time>2026-04-26T13:24:24Z</time></trkpt><trkpt lat="43.30929266706669" lon="10.508475696302995"><ele>5.0</ele><time>2026-04-26T13:24:25Z</time></trkpt><trkpt lat="43.30922195232498" lon="10.508314801596004"><ele>5.0</ele><time>2026-04-26T13:24:26Z</time></trkpt><trkpt lat="43.30914861349191" lon="10.508157774293107"><ele>5.0</ele><time>2026-04-26T13:24:27Z</time></trkpt><trkpt lat="43.30907557704334" lon="10.507993164456437"><ele>5.25</ele><time>2026-04-26T13:24:28Z</time></trkpt><trkpt lat="43.308997653634066" lon="10.507829759539876"><ele>5.5</ele><time>2026-04-26T13:24:29Z</time></trkpt><trkpt lat="43.308917187212295" lon="10.507656992188705"><ele>5.75</ele><time>2026-04-26T13:24:30Z</time></trkpt><trkpt lat="43.30883467232208" lon="10.507484738927918"><ele>6.0</ele><time>2026-04-26T13:24:31Z</time></trkpt><trkpt lat="43.30875124225924" lon="10.507312831872218"><ele>6.0</ele><time>2026-04-26T13:24:32Z</time></trkpt><trkpt lat="43.30866809510148" lon="10.507134941988614"><ele>6.0</ele><time>2026-04-26T13:24:33Z</time></trkpt><trkpt lat="43.30858359425859" lon="10.506954639766638"><ele>6.0</ele><time>2026-04-26T13:24:34Z</time></trkpt><trkpt lat="43.30850050178746" lon="10.506774401980582"><ele>6.0</ele><time>2026-04-26T13:24:35.001Z</time></trkpt><trkpt lat="43.30843214345765" lon="10.506582246664514"><ele>6.0</ele><time>2026-04-26T13:24:36.001Z</time></trkpt><trkpt lat="43.30835461317814" lon="10.506422609546853"><ele>6.0</ele><time>2026-04-26T13:24:37.001Z</time></trkpt><trkpt lat="43.30828230960839" lon="10.506275778407984"><ele>6.0</ele><time>2026-04-26T13:24:38.001Z</time></trkpt><trkpt lat="43.308217544136774" lon="10.506137091580428"><ele>5.5</ele><time>2026-04-26T13:24:39.001Z</time></trkpt><trkpt lat="43.30815506795955" lon="10.506001340421276"><ele>5.0</ele><time>2026-04-26T13:24:40.001Z</time></trkpt><trkpt lat="43.3080927604531" lon="10.505870398069707"><ele>4.5</ele><time>2026-04-26T13:24:41.001Z</time></trkpt><trkpt lat="43.30802908814804" lon="10.505743389300074"><ele>4.0</ele><time>2026-04-26T13:24:42.001Z</time></trkpt><trkpt lat="43.30796842217758" lon="10.505618113620894"><ele>4.0</ele><time>2026-04-26T13:24:43.001Z</time></trkpt><trkpt lat="43.30790720569688" lon="10.505487294696069"><ele>4.0</ele><time>2026-04-26T13:24:44.001Z</time></trkpt><trkpt lat="43.30784570695522" lon="10.505350183034945"><ele>4.0</ele><time>2026-04-26T13:24:45.001Z</time></trkpt><trkpt lat="43.30778076607202" lon="10.505211478765819"><ele>4.0</ele><time>2026-04-26T13:24:46.001Z</time></trkpt><trkpt lat="43.30771236802841" lon="10.505070191584663"><ele>3.75</ele><time>2026-04-26T13:24:47.001Z</time></trkpt><trkpt lat="43.307639060078586" lon="10.504931139187953"><ele>3.5</ele><time>2026-04-26T13:24:48.001Z</time></trkpt><trkpt lat="43.307567584461296" lon="10.504782433436525"><ele>3.25</ele><time>2026-04-26T13:24:49.001Z</time></trkpt><trkpt lat="43.30749768826739" lon="10.504633494480636"><ele>3.0</ele><time>2026-04-26T13:24:50.001Z</time></trkpt><trkpt lat="43.30743111867509" lon="10.504482374001045"><ele>3.5</ele><time>2026-04-26T13:24:51.001Z</time></trkpt><trkpt lat="43.30736661550915" lon="10.504334327503178"><ele>4.0</ele><time>2026-04-26T13:24:52.001Z</time></trkpt><trkpt lat="43.30730062912518" lon="10.504187642953829"><ele>4.5</ele><time>2026-04-26T13:24:53.001Z</time></trkpt><trkpt lat="43.30723453270038" lon="10.50404414079474"><ele>5.0</ele><time>2026-04-26T13:24:54.001Z</time></trkpt><trkpt lat="43.3071667934814" lon="10.503900969864992"><ele>5.0</ele><time>2026-04-26T13:24:55.001Z</time></trkpt><trkpt lat="43.307095993456564" lon="10.50377329663477"><ele>5.0</ele><time>2026-04-26T13:24:56.001Z</time></trkpt><trkpt lat="43.30704507369911" lon="10.503624434393293"><ele>5.0</ele><time>2026-04-26T13:24:57.001Z</time></trkpt><trkpt lat="43.30697402272976" lon="10.503507245617614"><ele>5.0</ele><time>2026-04-26T13:24:58.001Z</time></trkpt><trkpt lat="43.30691531611269" lon="10.503372045608677"><ele>5.25</ele><time>2026-04-26T13:24:59.001Z</time></trkpt><trkpt lat="43.30685227488211" lon="10.503228843454501"><ele>5.5</ele><time>2026-04-26T13:25:00.001Z</time></trkpt><trkpt lat="43.30678459561479" lon="10.503084208293075"><ele>5.75</ele><time>2026-04-26T13:25:01.001Z</time></trkpt><trkpt lat="43.30671365151815" lon="10.502940443984127"><ele>6.0</ele><time>2026-04-26T13:25:02.001Z</time></trkpt><trkpt lat="43.306645402052" lon="10.502792133126617"><ele>6.0</ele><time>2026-04-26T13:25:03.001Z</time></trkpt><trkpt lat="43.30659446105925" lon="10.502632061594523"><ele>6.0</ele><time>2026-04-26T13:25:04.001Z</time></trkpt><trkpt lat="43.306525605934596" lon="10.5024867908831"><ele>6.0</ele><time>2026-04-26T13:25:05.001Z</time></trkpt><trkpt lat="43.30646018766505" lon="10.502346023268759"><ele>6.0</ele><time>2026-04-26T13:25:06.001Z</time></trkpt><trkpt lat="43.30639114496524" lon="10.502195002599777"><ele>5.5</ele><time>2026-04-26T13:25:07.001Z</time></trkpt><trkpt lat="43.30632344106447" lon="10.502045389822193"><ele>5.0</ele><time>2026-04-26T13:25:08.001Z</time></trkpt><trkpt lat="43.30625103563042" lon="10.501890446164738"><ele>4.5</ele><time>2026-04-26T13:25:09.001Z</time></trkpt><trkpt lat="43.3061792543785" lon="10.50173172249953"><ele>4.0</ele><time>2026-04-26T13:25:10.001Z</time></trkpt><trkpt lat="43.30610635403491" lon="10.501581595455763"><ele>4.0</ele><time>2026-04-26T13:25:10.999Z</time></trkpt><trkpt lat="43.306039767127025" lon="10.501442233630323"><ele>4.0</ele><time>2026-04-26T13:25:11.999Z</time></trkpt><trkpt lat="43.30597865103183" lon="10.501309722965093"><ele>4.0</ele><time>2026-04-26T13:25:12.999Z</time></trkpt><trkpt lat="43.30591770397103" lon="10.501178361839322"><ele>4.0</ele><time>2026-04-26T13:25:13.999Z</time></trkpt><trkpt lat="43.30585306258351" lon="10.50104335014573"><ele>4.0</ele><time>2026-04-26T13:25:14.999Z</time></trkpt><trkpt lat="43.30578488922641" lon="10.500901300754125"><ele>4.0</ele><time>2026-04-26T13:25:15.999Z</time></trkpt><trkpt lat="43.305722715029276" lon="10.500755681118088"><ele>4.0</ele><time>2026-04-26T13:25:16.999Z</time></trkpt><trkpt lat="43.305655525600145" lon="10.500610045407575"><ele>4.0</ele><time>2026-04-26T13:25:17.999Z</time></trkpt><trkpt lat="43.3055837081603" lon="10.500456485503202"><ele>4.25</ele><time>2026-04-26T13:25:18.999Z</time></trkpt><trkpt lat="43.30551309438359" lon="10.500297579892957"><ele>4.5</ele><time>2026-04-26T13:25:19.999Z</time></trkpt><trkpt lat="43.30544589911475" lon="10.50015027369745"><ele>4.75</ele><time>2026-04-26T13:25:20.999Z</time></trkpt><trkpt lat="43.3053838872638" lon="10.500017784434927"><ele>5.0</ele><time>2026-04-26T13:25:21.999Z</time></trkpt><trkpt lat="43.30532322580061" lon="10.499899199241456"><ele>5.0</ele><time>2026-04-26T13:25:22.999Z</time></trkpt><trkpt lat="43.305268774901045" lon="10.499779421913882"><ele>5.0</ele><time>2026-04-26T13:25:23.999Z</time></trkpt><trkpt lat="43.3052217173899" lon="10.49966377533774"><ele>5.0</ele><time>2026-04-26T13:25:24.999Z</time></trkpt><trkpt lat="43.30516722742394" lon="10.499552961027858"><ele>5.0</ele><time>2026-04-26T13:25:25.999Z</time></trkpt><trkpt lat="43.30510685521625" lon="10.49944047970552"><ele>5.0</ele><time>2026-04-26T13:25:26.999Z</time></trkpt><trkpt lat="43.3050493373662" lon="10.499318580321203"><ele>4.8</ele><time>2026-04-26T13:25:27.999Z</time></trkpt><trkpt lat="43.304987824474416" lon="10.499197415603478"><ele>4.6</ele><time>2026-04-26T13:25:28.999Z</time></trkpt><trkpt lat="43.30494485769081" lon="10.49906793859907"><ele>4.4</ele><time>2026-04-26T13:25:29.999Z</time></trkpt><trkpt lat="43.304882663560385" lon="10.498967714419654"><ele>4.2</ele><time>2026-04-26T13:25:30.999Z</time></trkpt><trkpt lat="43.3048408448726" lon="10.498863352821182"><ele>4.0</ele><time>2026-04-26T13:25:31.999Z</time></trkpt><trkpt lat="43.304801984850606" lon="10.498764453014266"><ele>3.9999999999999996</ele><time>2026-04-26T13:25:32.999Z</time></trkpt><trkpt lat="43.304758671136746" lon="10.498669995334435"><ele>4.0</ele><time>2026-04-26T13:25:33.999Z</time></trkpt><trkpt lat="43.304721670434596" lon="10.498590872505677"><ele>4.0</ele><time>2026-04-26T13:25:34.999Z</time></trkpt><trkpt lat="43.30466743791179" lon="10.498474953925346"><ele>4.0</ele><time>2026-04-26T13:25:36.999Z</time></trkpt><trkpt lat="43.304612165143496" lon="10.49836145326476"><ele>3.9999999999999996</ele><time>2026-04-26T13:25:38.999Z</time></trkpt><trkpt lat="43.30457832030736" lon="10.498287864497795"><ele>4.0</ele><time>2026-04-26T13:25:39.999Z</time></trkpt><trkpt lat="43.304534874909365" lon="10.498194173865844"><ele>4.0</ele><time>2026-04-26T13:25:40.999Z</time></trkpt><trkpt lat="43.304500022774064" lon="10.498081168775173"><ele>4.0</ele><time>2026-04-26T13:25:41.999Z</time></trkpt><trkpt lat="43.30444639544881" lon="10.497964333231282"><ele>4.0</ele><time>2026-04-26T13:25:42.999Z</time></trkpt><trkpt lat="43.30438984828203" lon="10.497841138338778"><ele>4.0</ele><time>2026-04-26T13:25:43.999Z</time></trkpt><trkpt lat="43.304334554866564" lon="10.497720670425318"><ele>4.0</ele><time>2026-04-26T13:25:44.999Z</time></trkpt><trkpt lat="43.30427792912686" lon="10.497597301859257"><ele>4.0</ele><time>2026-04-26T13:25:45.999Z</time></trkpt><trkpt lat="43.30421040389786" lon="10.497480566035877"><ele>4.0</ele><time>2026-04-26T13:25:46.999Z</time></trkpt><trkpt lat="43.30415756130367" lon="10.497348216184273"><ele>4.0</ele><time>2026-04-26T13:25:47.999Z</time></trkpt><trkpt lat="43.30409751300015" lon="10.497225140544327"><ele>4.0</ele><time>2026-04-26T13:25:48.999Z</time></trkpt><trkpt lat="43.30404450345361" lon="10.497110454178074"><ele>4.0</ele><time>2026-04-26T13:25:50Z</time></trkpt><trkpt lat="43.30399380529614" lon="10.496994155636578"><ele>4.0</ele><time>2026-04-26T13:25:51Z</time></trkpt><trkpt lat="43.30394209635088" lon="10.496875785127829"><ele>4.0</ele><time>2026-04-26T13:25:52Z</time></trkpt><trkpt lat="43.30388689461244" lon="10.496754553623518"><ele>4.0</ele><time>2026-04-26T13:25:53Z</time></trkpt><trkpt lat="43.303837578913836" lon="10.496625468107913"><ele>4.0</ele><time>2026-04-26T13:25:54Z</time></trkpt><trkpt lat="43.30377786426178" lon="10.496500824962235"><ele>4.0</ele><time>2026-04-26T13:25:55Z</time></trkpt><trkpt lat="43.30371892408751" lon="10.496380532098886"><ele>4.0</ele><time>2026-04-26T13:25:56Z</time></trkpt><trkpt lat="43.303657937085234" lon="10.496256394766048"><ele>4.0</ele><time>2026-04-26T13:25:57Z</time></trkpt><trkpt lat="43.30359930471135" lon="10.496127396263105"><ele>4.0</ele><time>2026-04-26T13:25:58Z</time></trkpt><trkpt lat="43.30354095187991" lon="10.496010559205018"><ele>4.0</ele><time>2026-04-26T13:25:59Z</time></trkpt><trkpt lat="43.303486139577856" lon="10.495905936748104"><ele>4.0</ele><time>2026-04-26T13:26:00Z</time></trkpt><trkpt lat="43.30343437680863" lon="10.495801803558015"><ele>3.9999999999999996</ele><time>2026-04-26T13:26:01Z</time></trkpt><trkpt lat="43.303385811407985" lon="10.495692276884593"><ele>4.0</ele><time>2026-04-26T13:26:02Z</time></trkpt><trkpt lat="43.30334279771698" lon="10.495594311273313"><ele>4.0</ele><time>2026-04-26T13:26:03Z</time></trkpt><trkpt lat="43.30330223256963" lon="10.49550354457615"><ele>4.0</ele><time>2026-04-26T13:26:04Z</time></trkpt><trkpt lat="43.30325760447911" lon="10.495418528311236"><ele>3.9999999999999996</ele><time>2026-04-26T13:26:05Z</time></trkpt><trkpt lat="43.30321471902421" lon="10.495331966381679"><ele>4.0</ele><time>2026-04-26T13:26:06Z</time></trkpt><trkpt lat="43.3031684155794" lon="10.495233960924123"><ele>3.8000000000000003</ele><time>2026-04-26T13:26:07Z</time></trkpt><trkpt lat="43.30312260391003" lon="10.495129885551764"><ele>3.6000000000000005</ele><time>2026-04-26T13:26:08Z</time></trkpt><trkpt lat="43.303070204855466" lon="10.495014346889638"><ele>3.4</ele><time>2026-04-26T13:26:09Z</time></trkpt><trkpt lat="43.30302203741515" lon="10.494905196955061"><ele>3.2</ele><time>2026-04-26T13:26:10Z</time></trkpt><trkpt lat="43.302976094999956" lon="10.49480319939863"><ele>3.0</ele><time>2026-04-26T13:26:11Z</time></trkpt><trkpt lat="43.302935485571155" lon="10.49470506223067"><ele>3.0</ele><time>2026-04-26T13:26:12Z</time></trkpt><trkpt lat="43.30289884743392" lon="10.494621486095044"><ele>3.0</ele><time>2026-04-26T13:26:13Z</time></trkpt><trkpt lat="43.30284126104579" lon="10.494489013796684"><ele>3.0</ele><time>2026-04-26T13:26:15Z</time></trkpt><trkpt lat="43.302794923339945" lon="10.49438354324172"><ele>3.0</ele><time>2026-04-26T13:26:17Z</time></trkpt><trkpt lat="43.302761148430925" lon="10.494286462104105"><ele>3.0</ele><time>2026-04-26T13:26:20Z</time></trkpt><trkpt lat="43.30271335859545" lon="10.494176442242045"><ele>3.0</ele><time>2026-04-26T13:26:22Z</time></trkpt><trkpt lat="43.30262859038739" lon="10.494028060625626"><ele>2.8</ele><time>2026-04-26T13:26:24Z</time></trkpt><trkpt lat="43.30257908689049" lon="10.493936492918904"><ele>2.5999999999999996</ele><time>2026-04-26T13:26:25Z</time></trkpt><trkpt lat="43.30253997884854" lon="10.493826276038815"><ele>2.4000000000000004</ele><time>2026-04-26T13:26:26Z</time></trkpt><trkpt lat="43.302475074587925" lon="10.493733870209844"><ele>2.2</ele><time>2026-04-26T13:26:27Z</time></trkpt><trkpt lat="43.302422065657844" lon="10.493625282319044"><ele>2.0</ele><time>2026-04-26T13:26:28Z</time></trkpt><trkpt lat="43.30236730164141" lon="10.493518575638404"><ele>1.9999999999999998</ele><time>2026-04-26T13:26:29Z</time></trkpt><trkpt lat="43.30231183497822" lon="10.493417202407214"><ele>2.0</ele><time>2026-04-26T13:26:30.001Z</time></trkpt><trkpt lat="43.30227128407023" lon="10.493328448520975"><ele>2.0</ele><time>2026-04-26T13:26:31.001Z</time></trkpt><trkpt lat="43.30223310336544" lon="10.493254029157724"><ele>2.0</ele><time>2026-04-26T13:26:32.001Z</time></trkpt><trkpt lat="43.302170595689724" lon="10.493127464092291"><ele>1.9999999999999998</ele><time>2026-04-26T13:26:34.001Z</time></trkpt><trkpt lat="43.30213636902186" lon="10.49301460016848"><ele>2.0</ele><time>2026-04-26T13:26:36.001Z</time></trkpt><trkpt lat="43.3020790383649" lon="10.492909841491546"><ele>2.2</ele><time>2026-04-26T13:26:38.001Z</time></trkpt><trkpt lat="43.30201131801738" lon="10.492787125082376"><ele>2.4000000000000004</ele><time>2026-04-26T13:26:40.001Z</time></trkpt><trkpt lat="43.301952119304644" lon="10.492684097298053"><ele>2.5999999999999996</ele><time>2026-04-26T13:26:42.001Z</time></trkpt><trkpt lat="43.301886696742805" lon="10.492574958905722"><ele>2.8</ele><time>2026-04-26T13:26:44.001Z</time></trkpt><trkpt lat="43.301812719583545" lon="10.492448135316282"><ele>3.0</ele><time>2026-04-26T13:26:46.001Z</time></trkpt><trkpt lat="43.30176899702129" lon="10.492370030039899"><ele>3.0</ele><time>2026-04-26T13:26:47.001Z</time></trkpt><trkpt lat="43.30172469920236" lon="10.492285942197482"><ele>3.0</ele><time>2026-04-26T13:26:48.001Z</time></trkpt><trkpt lat="43.3016741537805" lon="10.492199982196524"><ele>3.0</ele><time>2026-04-26T13:26:49.001Z</time></trkpt><trkpt lat="43.30162199020997" lon="10.492113426685593"><ele>3.0</ele><time>2026-04-26T13:26:50.001Z</time></trkpt><trkpt lat="43.301569061697165" lon="10.492028552574316"><ele>3.0</ele><time>2026-04-26T13:26:51.001Z</time></trkpt><trkpt lat="43.301517624912776" lon="10.49193931170128"><ele>3.0</ele><time>2026-04-26T13:26:52.001Z</time></trkpt><trkpt lat="43.301471424427675" lon="10.49184785657386"><ele>3.0</ele><time>2026-04-26T13:26:53.001Z</time></trkpt><trkpt lat="43.30143159630345" lon="10.491761055285828"><ele>3.0</ele><time>2026-04-26T13:26:54.001Z</time></trkpt><trkpt lat="43.30138767710683" lon="10.49167559790954"><ele>3.0</ele><time>2026-04-26T13:26:55.001Z</time></trkpt><trkpt lat="43.30134327472151" lon="10.491593143787313"><ele>3.0</ele><time>2026-04-26T13:26:56.001Z</time></trkpt><trkpt lat="43.30129634167343" lon="10.491513746294858"><ele>3.0</ele><time>2026-04-26T13:26:57.001Z</time></trkpt><trkpt lat="43.30124670543692" lon="10.49143373443328"><ele>3.0</ele><time>2026-04-26T13:26:58.001Z</time></trkpt><trkpt lat="43.30120068017927" lon="10.49134740633438"><ele>3.0</ele><time>2026-04-26T13:26:59.001Z</time></trkpt><trkpt lat="43.30114823521243" lon="10.491260112570552"><ele>3.0</ele><time>2026-04-26T13:27:00.001Z</time></trkpt><trkpt lat="43.30109754365866" lon="10.491175478500194"><ele>3.0</ele><time>2026-04-26T13:27:01.001Z</time></trkpt><trkpt lat="43.30105337257286" lon="10.491102681008792"><ele>3.0</ele><time>2026-04-26T13:27:02.001Z</time></trkpt><trkpt lat="43.300984742492076" lon="10.490999082550024"><ele>3.0</ele><time>2026-04-26T13:27:04.001Z</time></trkpt><trkpt lat="43.3008851332344" lon="10.491028562171637"><ele>3.0</ele><time>2026-04-26T13:27:06.001Z</time></trkpt><trkpt lat="43.30080707270524" lon="10.491109434217599"><ele>3.0</ele><time>2026-04-26T13:27:08.001Z</time></trkpt><trkpt lat="43.300707211596134" lon="10.491185274369641"><ele>3.0</ele><time>2026-04-26T13:27:10.002Z</time></trkpt><trkpt lat="43.30065315143648" lon="10.491235403135388"><ele>3.0</ele><time>2026-04-26T13:27:11.002Z</time></trkpt><trkpt lat="43.30059480518477" lon="10.491281214361468"><ele>3.0</ele><time>2026-04-26T13:27:12.002Z</time></trkpt><trkpt lat="43.300530487466176" lon="10.491317059719258"><ele>3.0</ele><time>2026-04-26T13:27:13.002Z</time></trkpt><trkpt lat="43.30046189517509" lon="10.49136272686335"><ele>3.0</ele><time>2026-04-26T13:27:14.002Z</time></trkpt><trkpt lat="43.30039186018605" lon="10.491413453145851"><ele>2.8333333333333335</ele><time>2026-04-26T13:27:15.002Z</time></trkpt><trkpt lat="43.30032560342247" lon="10.49147815498678"><ele>2.6666666666666665</ele><time>2026-04-26T13:27:16.002Z</time></trkpt><trkpt lat="43.300270163091646" lon="10.491556335140912"><ele>2.5</ele><time>2026-04-26T13:27:16.997Z</time></trkpt><trkpt lat="43.3002241192758" lon="10.49165309168699"><ele>2.333333333333333</ele><time>2026-04-26T13:27:17.997Z</time></trkpt><trkpt lat="43.30018978890594" lon="10.491759359719895"><ele>2.1666666666666665</ele><time>2026-04-26T13:27:18.997Z</time></trkpt><trkpt lat="43.30016902128874" lon="10.491876655829408"><ele>2.0</ele><time>2026-04-26T13:27:19.996Z</time></trkpt><trkpt lat="43.30013166785262" lon="10.491985554518507"><ele>1.9999999999999998</ele><time>2026-04-26T13:27:20.996Z</time></trkpt><trkpt lat="43.300103211495454" lon="10.492087348580986"><ele>2.0</ele><time>2026-04-26T13:27:21.997Z</time></trkpt><trkpt lat="43.300075338665835" lon="10.49217332920818"><ele>2.0</ele><time>2026-04-26T13:27:22.996Z</time></trkpt><trkpt lat="43.300029666691245" lon="10.492325281711278"><ele>2.0</ele><time>2026-04-26T13:27:24.997Z</time></trkpt><trkpt lat="43.299995355493486" lon="10.492402758369643"><ele>1.9999999999999998</ele><time>2026-04-26T13:27:25.996Z</time></trkpt><trkpt lat="43.29995953126352" lon="10.492483387438012"><ele>2.0</ele><time>2026-04-26T13:27:26.997Z</time></trkpt><trkpt lat="43.299915801752114" lon="10.49256763074123"><ele>2.333333333333333</ele><time>2026-04-26T13:27:27.997Z</time></trkpt><trkpt lat="43.299878555915804" lon="10.492650935574531"><ele>2.6666666666666665</ele><time>2026-04-26T13:27:28.997Z</time></trkpt><trkpt lat="43.299823155011104" lon="10.492786382674977"><ele>3.0</ele><time>2026-04-26T13:27:30.997Z</time></trkpt><trkpt lat="43.299785907057576" lon="10.492882694453755"><ele>3.333333333333333</ele><time>2026-04-26T13:27:32.997Z</time></trkpt><trkpt lat="43.299756463457676" lon="10.492980747992215"><ele>3.6666666666666665</ele><time>2026-04-26T13:27:35.997Z</time></trkpt><trkpt lat="43.299717783649086" lon="10.493096496431296"><ele>4.0</ele><time>2026-04-26T13:27:37.997Z</time></trkpt><trkpt lat="43.29966312247257" lon="10.493213770711726"><ele>4.166666666666666</ele><time>2026-04-26T13:27:39.997Z</time></trkpt><trkpt lat="43.29961477890204" lon="10.493315972421792"><ele>4.333333333333333</ele><time>2026-04-26T13:27:41.997Z</time></trkpt><trkpt lat="43.299577104661225" lon="10.493395982909975"><ele>4.5</ele><time>2026-04-26T13:27:48.997Z</time></trkpt><trkpt lat="43.29954278275222" lon="10.493477169301796"><ele>4.666666666666667</ele><time>2026-04-26T13:27:51.998Z</time></trkpt><trkpt lat="43.29947787240669" lon="10.493550428043482"><ele>4.833333333333334</ele><time>2026-04-26T13:27:54.998Z</time></trkpt><trkpt lat="43.29940876567781" lon="10.493620382090542"><ele>5.0</ele><time>2026-04-26T13:27:56.998Z</time></trkpt><trkpt lat="43.299376354095244" lon="10.49370120718718"><ele>5.0</ele><time>2026-04-26T13:27:58.998Z</time></trkpt><trkpt lat="43.29933156625049" lon="10.493792277080923"><ele>5.0</ele><time>2026-04-26T13:28:00.998Z</time></trkpt><trkpt lat="43.299257696230185" lon="10.493888185803868"><ele>5.0</ele><time>2026-04-26T13:28:02.998Z</time></trkpt><trkpt lat="43.29919490265194" lon="10.493923937059451"><ele>5.0</ele><time>2026-04-26T13:28:03.998Z</time></trkpt><trkpt lat="43.29911884464335" lon="10.494043832616295"><ele>5.0</ele><time>2026-04-26T13:28:05.998Z</time></trkpt><trkpt lat="43.299071666548755" lon="10.494108697698636"><ele>5.0</ele><time>2026-04-26T13:28:06.998Z</time></trkpt><trkpt lat="43.29900272894415" lon="10.49417652263836"><ele>5.0</ele><time>2026-04-26T13:28:07.998Z</time></trkpt><trkpt lat="43.29894908234124" lon="10.494266630888948"><ele>5.0</ele><time>2026-04-26T13:28:08.998Z</time></trkpt><trkpt lat="43.29889735784856" lon="10.49435522771928"><ele>5.0</ele><time>2026-04-26T13:28:09.998Z</time></trkpt><trkpt lat="43.298845971568326" lon="10.494425723157947"><ele>5.0</ele><time>2026-04-26T13:28:10.998Z</time></trkpt><trkpt lat="43.29878508473124" lon="10.494505512734994"><ele>5.0</ele><time>2026-04-26T13:28:11.998Z</time></trkpt><trkpt lat="43.298727511807414" lon="10.494581702613354"><ele>5.0</ele><time>2026-04-26T13:28:12.998Z</time></trkpt><trkpt lat="43.2986650241437" lon="10.494654782337264"><ele>5.0</ele><time>2026-04-26T13:28:13.998Z</time></trkpt><trkpt lat="43.29859500334206" lon="10.494733558658627"><ele>5.0</ele><time>2026-04-26T13:28:14.998Z</time></trkpt><trkpt lat="43.298542763810445" lon="10.494815857684914"><ele>5.0</ele><time>2026-04-26T13:28:15.998Z</time></trkpt><trkpt lat="43.29849896631177" lon="10.494886231907183"><ele>5.0</ele><time>2026-04-26T13:28:16.998Z</time></trkpt><trkpt lat="43.298446099054935" lon="10.494963873396173"><ele>5.0</ele><time>2026-04-26T13:28:17.998Z</time></trkpt><trkpt lat="43.29839692014527" lon="10.49503463040806"><ele>5.0</ele><time>2026-04-26T13:28:18.998Z</time></trkpt><trkpt lat="43.29834831200341" lon="10.495097730663726"><ele>5.0</ele><time>2026-04-26T13:28:19.998Z</time></trkpt><trkpt lat="43.29830540726464" lon="10.4951762060187"><ele>5.0</ele><time>2026-04-26T13:28:20.998Z</time></trkpt><trkpt lat="43.298245162524914" lon="10.495237868913689"><ele>5.0</ele><time>2026-04-26T13:28:21.998Z</time></trkpt><trkpt lat="43.298189924241086" lon="10.495310416995176"><ele>5.0</ele><time>2026-04-26T13:28:22.998Z</time></trkpt><trkpt lat="43.29812960928956" lon="10.495391441719518"><ele>5.0</ele><time>2026-04-26T13:28:23.998Z</time></trkpt><trkpt lat="43.29807246798204" lon="10.495468708625777"><ele>5.0</ele><time>2026-04-26T13:28:24.998Z</time></trkpt><trkpt lat="43.29801386426878" lon="10.495547953165529"><ele>5.166666666666667</ele><time>2026-04-26T13:28:25.998Z</time></trkpt><trkpt lat="43.297956077360034" lon="10.495626093112667"><ele>5.333333333333334</ele><time>2026-04-26T13:28:26.998Z</time></trkpt><trkpt lat="43.29790202372619" lon="10.495699186923295"><ele>5.5</ele><time>2026-04-26T13:28:27.998Z</time></trkpt><trkpt lat="43.29784676706941" lon="10.495771846364086"><ele>5.666666666666667</ele><time>2026-04-26T13:28:28.998Z</time></trkpt><trkpt lat="43.297792238633455" lon="10.495843552399473"><ele>5.833333333333333</ele><time>2026-04-26T13:28:29.998Z</time></trkpt><trkpt lat="43.29773351555493" lon="10.495919673712818"><ele>6.0</ele><time>2026-04-26T13:28:30.999Z</time></trkpt><trkpt lat="43.29767343636194" lon="10.495997552735464"><ele>6.0</ele><time>2026-04-26T13:28:31.999Z</time></trkpt><trkpt lat="43.29761856160978" lon="10.496068687229126"><ele>6.0</ele><time>2026-04-26T13:28:32.999Z</time></trkpt><trkpt lat="43.29756905037599" lon="10.496131500794789"><ele>6.0</ele><time>2026-04-26T13:28:33.999Z</time></trkpt><trkpt lat="43.29750291429153" lon="10.49621598371323"><ele>6.0</ele><time>2026-04-26T13:28:35.999Z</time></trkpt><trkpt lat="43.29744258224764" lon="10.496293959993743"><ele>6.0</ele><time>2026-04-26T13:28:37.999Z</time></trkpt><trkpt lat="43.29739211939223" lon="10.496360946577406"><ele>6.0</ele><time>2026-04-26T13:28:38.999Z</time></trkpt><trkpt lat="43.29735038999912" lon="10.496449795961633"><ele>5.666666666666667</ele><time>2026-04-26T13:28:39.999Z</time></trkpt><trkpt lat="43.29728348640322" lon="10.496505017194004"><ele>5.333333333333333</ele><time>2026-04-26T13:28:40.999Z</time></trkpt><trkpt lat="43.29719677695313" lon="10.496645177268325"><ele>5.0</ele><time>2026-04-26T13:28:42.999Z</time></trkpt><trkpt lat="43.2971615267251" lon="10.496743829958575"><ele>4.666666666666666</ele><time>2026-04-26T13:28:43.999Z</time></trkpt><trkpt lat="43.297104335338304" lon="10.496813485632671"><ele>4.333333333333333</ele><time>2026-04-26T13:28:44.999Z</time></trkpt><trkpt lat="43.2970578481764" lon="10.496885803097337"><ele>4.0</ele><time>2026-04-26T13:28:45.999Z</time></trkpt><trkpt lat="43.29697751588758" lon="10.497005759551147"><ele>4.166666666666666</ele><time>2026-04-26T13:28:47.999Z</time></trkpt><trkpt lat="43.29691442929022" lon="10.497124479296385"><ele>4.333333333333333</ele><time>2026-04-26T13:28:49.999Z</time></trkpt><trkpt lat="43.29685918325726" lon="10.49727092485272"><ele>4.5</ele><time>2026-04-26T13:28:51.999Z</time></trkpt><trkpt lat="43.29682617985307" lon="10.497355314137586"><ele>4.666666666666667</ele><time>2026-04-26T13:28:52.999Z</time></trkpt><trkpt lat="43.29679548558266" lon="10.497434748919634"><ele>4.833333333333334</ele><time>2026-04-26T13:28:53.999Z</time></trkpt><trkpt lat="43.29675920021191" lon="10.497508999460152"><ele>5.0</ele><time>2026-04-26T13:28:54.999Z</time></trkpt><trkpt lat="43.29670567403484" lon="10.49763015339463"><ele>5.0</ele><time>2026-04-26T13:28:56.999Z</time></trkpt><trkpt lat="43.296657559530686" lon="10.49772366466548"><ele>5.0</ele><time>2026-04-26T13:28:58.999Z</time></trkpt><trkpt lat="43.29662284402909" lon="10.497797354091862"><ele>5.0</ele><time>2026-04-26T13:29:00.999Z</time></trkpt><trkpt lat="43.29659996223575" lon="10.49789636139298"><ele>5.0</ele><time>2026-04-26T13:29:03.999Z</time></trkpt><trkpt lat="43.29656835632253" lon="10.497999357296075"><ele>5.0</ele><time>2026-04-26T13:29:06.999Z</time></trkpt><trkpt lat="43.29653694159437" lon="10.498108805311618"><ele>5.0</ele><time>2026-04-26T13:29:08.999Z</time></trkpt><trkpt lat="43.29648336520881" lon="10.498199577539355"><ele>7.0</ele><time>2026-04-26T13:29:10.999Z</time></trkpt><trkpt lat="43.29644231539264" lon="10.49829258978075"><ele>7.0</ele><time>2026-04-26T13:29:13Z</time></trkpt><trkpt lat="43.2964074195561" lon="10.498371309045538"><ele>10.0</ele><time>2026-04-26T13:29:15Z</time></trkpt></trkseg></trk></gpx>